<?xml version="1.0" encoding="UTF-8" standalone="no" ?>
<gpx xmlns="http://www.topografix.com/GPX/1/1" xmlns:xsi="http://www.w3.org/2001/XMLSchema-instance" xsi:schemaLocation="http://www.topografix.com/GPX/1/1 http://www.topografix.com/GPX/1/1/gpx.xsd" version="1.1" creator="VisuGPX - https://www.visugpx.com">
  <metadata>
    <name>Randonnée en foret de Beffou</name>
    <desc><![CDATA[Recherche de caches de \"casimirdelyon\" en foret de Beffou.]]></desc>
  </metadata>
  <trk>
    <name><![CDATA[Foret de Beffou]]></name>
    <trkseg>
      <trkpt lat="48.49095" lon="-3.48074">
        <ele>234</ele>
        <time>2013-02-24T12:31:46.1Z</time>
      </trkpt>
      <trkpt lat="48.49095" lon="-3.48074">
        <ele>233</ele>
        <time>2013-02-24T12:31:48.1Z</time>
      </trkpt>
      <trkpt lat="48.49096" lon="-3.48076">
        <ele>233</ele>
        <time>2013-02-24T12:31:50.1Z</time>
      </trkpt>
      <trkpt lat="48.49097" lon="-3.48077">
        <ele>233</ele>
        <time>2013-02-24T12:31:52.1Z</time>
      </trkpt>
      <trkpt lat="48.49098" lon="-3.48078">
        <ele>234</ele>
        <time>2013-02-24T12:31:54.1Z</time>
      </trkpt>
      <trkpt lat="48.49099" lon="-3.4808">
        <ele>234</ele>
        <time>2013-02-24T12:31:56.1Z</time>
      </trkpt>
      <trkpt lat="48.491" lon="-3.48082">
        <ele>234</ele>
        <time>2013-02-24T12:31:58.1Z</time>
      </trkpt>
      <trkpt lat="48.49102" lon="-3.48085">
        <ele>234</ele>
        <time>2013-02-24T12:32:00.1Z</time>
      </trkpt>
      <trkpt lat="48.49102" lon="-3.48088">
        <ele>234</ele>
        <time>2013-02-24T12:32:02.1Z</time>
      </trkpt>
      <trkpt lat="48.49102" lon="-3.48091">
        <ele>234</ele>
        <time>2013-02-24T12:32:04.1Z</time>
      </trkpt>
      <trkpt lat="48.49104" lon="-3.48093">
        <ele>235</ele>
        <time>2013-02-24T12:32:06.1Z</time>
      </trkpt>
      <trkpt lat="48.49104" lon="-3.48092">
        <ele>234</ele>
        <time>2013-02-24T12:32:08.1Z</time>
      </trkpt>
      <trkpt lat="48.49104" lon="-3.48088">
        <ele>234</ele>
        <time>2013-02-24T12:32:10.1Z</time>
      </trkpt>
      <trkpt lat="48.49104" lon="-3.48087">
        <ele>234</ele>
        <time>2013-02-24T12:32:12.1Z</time>
      </trkpt>
      <trkpt lat="48.49104" lon="-3.48089">
        <ele>234</ele>
        <time>2013-02-24T12:32:15.1Z</time>
      </trkpt>
      <trkpt lat="48.49105" lon="-3.48093">
        <ele>234</ele>
        <time>2013-02-24T12:32:17.1Z</time>
      </trkpt>
      <trkpt lat="48.49105" lon="-3.48097">
        <ele>234</ele>
        <time>2013-02-24T12:32:19.1Z</time>
      </trkpt>
      <trkpt lat="48.49105" lon="-3.48101">
        <ele>234</ele>
        <time>2013-02-24T12:32:21.1Z</time>
      </trkpt>
      <trkpt lat="48.49105" lon="-3.48104">
        <ele>235</ele>
        <time>2013-02-24T12:32:23.1Z</time>
      </trkpt>
      <trkpt lat="48.49106" lon="-3.48108">
        <ele>235</ele>
        <time>2013-02-24T12:32:25.1Z</time>
      </trkpt>
      <trkpt lat="48.49107" lon="-3.48113">
        <ele>235</ele>
        <time>2013-02-24T12:32:27.1Z</time>
      </trkpt>
      <trkpt lat="48.49109" lon="-3.48115">
        <ele>235</ele>
        <time>2013-02-24T12:32:29.1Z</time>
      </trkpt>
      <trkpt lat="48.4911" lon="-3.48117">
        <ele>235</ele>
        <time>2013-02-24T12:32:31.1Z</time>
      </trkpt>
      <trkpt lat="48.49113" lon="-3.48119">
        <ele>235</ele>
        <time>2013-02-24T12:32:33.1Z</time>
      </trkpt>
      <trkpt lat="48.49115" lon="-3.4812">
        <ele>235</ele>
        <time>2013-02-24T12:32:35.1Z</time>
      </trkpt>
      <trkpt lat="48.49116" lon="-3.48123">
        <ele>235</ele>
        <time>2013-02-24T12:32:38.1Z</time>
      </trkpt>
      <trkpt lat="48.49118" lon="-3.48125">
        <ele>235</ele>
        <time>2013-02-24T12:32:40.1Z</time>
      </trkpt>
      <trkpt lat="48.49119" lon="-3.48127">
        <ele>235</ele>
        <time>2013-02-24T12:32:42.1Z</time>
      </trkpt>
      <trkpt lat="48.4912" lon="-3.4813">
        <ele>235</ele>
        <time>2013-02-24T12:32:44.1Z</time>
      </trkpt>
      <trkpt lat="48.49121" lon="-3.48132">
        <ele>235</ele>
        <time>2013-02-24T12:32:46.1Z</time>
      </trkpt>
      <trkpt lat="48.49122" lon="-3.48135">
        <ele>235</ele>
        <time>2013-02-24T12:32:48.1Z</time>
      </trkpt>
      <trkpt lat="48.49122" lon="-3.48138">
        <ele>235</ele>
        <time>2013-02-24T12:32:50.1Z</time>
      </trkpt>
      <trkpt lat="48.49122" lon="-3.48142">
        <ele>235</ele>
        <time>2013-02-24T12:32:52.1Z</time>
      </trkpt>
      <trkpt lat="48.49123" lon="-3.48145">
        <ele>235</ele>
        <time>2013-02-24T12:32:54.1Z</time>
      </trkpt>
      <trkpt lat="48.49123" lon="-3.48148">
        <ele>235</ele>
        <time>2013-02-24T12:32:56.1Z</time>
      </trkpt>
      <trkpt lat="48.49123" lon="-3.48151">
        <ele>235</ele>
        <time>2013-02-24T12:32:58.1Z</time>
      </trkpt>
      <trkpt lat="48.49123" lon="-3.48154">
        <ele>235</ele>
        <time>2013-02-24T12:33:01.1Z</time>
      </trkpt>
      <trkpt lat="48.49123" lon="-3.48157">
        <ele>235</ele>
        <time>2013-02-24T12:33:03.1Z</time>
      </trkpt>
      <trkpt lat="48.49123" lon="-3.4816">
        <ele>235</ele>
        <time>2013-02-24T12:33:05.1Z</time>
      </trkpt>
      <trkpt lat="48.49123" lon="-3.48163">
        <ele>235</ele>
        <time>2013-02-24T12:33:07.1Z</time>
      </trkpt>
      <trkpt lat="48.49123" lon="-3.48167">
        <ele>235</ele>
        <time>2013-02-24T12:33:09.1Z</time>
      </trkpt>
      <trkpt lat="48.49123" lon="-3.4817">
        <ele>235</ele>
        <time>2013-02-24T12:33:11.1Z</time>
      </trkpt>
      <trkpt lat="48.49123" lon="-3.48173">
        <ele>235</ele>
        <time>2013-02-24T12:33:13.1Z</time>
      </trkpt>
      <trkpt lat="48.49124" lon="-3.48176">
        <ele>235</ele>
        <time>2013-02-24T12:33:15.1Z</time>
      </trkpt>
      <trkpt lat="48.49124" lon="-3.48179">
        <ele>236</ele>
        <time>2013-02-24T12:33:17.1Z</time>
      </trkpt>
      <trkpt lat="48.49123" lon="-3.48182">
        <ele>236</ele>
        <time>2013-02-24T12:33:19.1Z</time>
      </trkpt>
      <trkpt lat="48.49123" lon="-3.48185">
        <ele>236</ele>
        <time>2013-02-24T12:33:21.1Z</time>
      </trkpt>
      <trkpt lat="48.49123" lon="-3.48187">
        <ele>236</ele>
        <time>2013-02-24T12:33:23.1Z</time>
      </trkpt>
      <trkpt lat="48.49123" lon="-3.48189">
        <ele>236</ele>
        <time>2013-02-24T12:33:25.1Z</time>
      </trkpt>
      <trkpt lat="48.49123" lon="-3.48193">
        <ele>236</ele>
        <time>2013-02-24T12:33:27.1Z</time>
      </trkpt>
      <trkpt lat="48.49123" lon="-3.48196">
        <ele>236</ele>
        <time>2013-02-24T12:33:29.1Z</time>
      </trkpt>
      <trkpt lat="48.49123" lon="-3.48199">
        <ele>236</ele>
        <time>2013-02-24T12:33:31.1Z</time>
      </trkpt>
      <trkpt lat="48.49123" lon="-3.48203">
        <ele>236</ele>
        <time>2013-02-24T12:33:33.1Z</time>
      </trkpt>
      <trkpt lat="48.49123" lon="-3.48206">
        <ele>236</ele>
        <time>2013-02-24T12:33:35.1Z</time>
      </trkpt>
      <trkpt lat="48.49124" lon="-3.4821">
        <ele>236</ele>
        <time>2013-02-24T12:33:38.1Z</time>
      </trkpt>
      <trkpt lat="48.49124" lon="-3.48214">
        <ele>236</ele>
        <time>2013-02-24T12:33:40.1Z</time>
      </trkpt>
      <trkpt lat="48.49125" lon="-3.48218">
        <ele>236</ele>
        <time>2013-02-24T12:33:42.1Z</time>
      </trkpt>
      <trkpt lat="48.49125" lon="-3.4822">
        <ele>236</ele>
        <time>2013-02-24T12:33:44.1Z</time>
      </trkpt>
      <trkpt lat="48.49125" lon="-3.48224">
        <ele>236</ele>
        <time>2013-02-24T12:33:46.1Z</time>
      </trkpt>
      <trkpt lat="48.49126" lon="-3.48227">
        <ele>235</ele>
        <time>2013-02-24T12:33:48.1Z</time>
      </trkpt>
      <trkpt lat="48.49125" lon="-3.48231">
        <ele>235</ele>
        <time>2013-02-24T12:33:50.1Z</time>
      </trkpt>
      <trkpt lat="48.49125" lon="-3.48234">
        <ele>235</ele>
        <time>2013-02-24T12:33:52.1Z</time>
      </trkpt>
      <trkpt lat="48.49125" lon="-3.4824">
        <ele>235</ele>
        <time>2013-02-24T12:33:54.1Z</time>
      </trkpt>
      <trkpt lat="48.49126" lon="-3.48243">
        <ele>235</ele>
        <time>2013-02-24T12:33:57.1Z</time>
      </trkpt>
      <trkpt lat="48.49126" lon="-3.48247">
        <ele>235</ele>
        <time>2013-02-24T12:33:59.1Z</time>
      </trkpt>
      <trkpt lat="48.49127" lon="-3.4825">
        <ele>235</ele>
        <time>2013-02-24T12:34:01.1Z</time>
      </trkpt>
      <trkpt lat="48.49127" lon="-3.48254">
        <ele>235</ele>
        <time>2013-02-24T12:34:03.1Z</time>
      </trkpt>
      <trkpt lat="48.49126" lon="-3.48257">
        <ele>235</ele>
        <time>2013-02-24T12:34:05.1Z</time>
      </trkpt>
      <trkpt lat="48.49125" lon="-3.48261">
        <ele>236</ele>
        <time>2013-02-24T12:34:07.1Z</time>
      </trkpt>
      <trkpt lat="48.49124" lon="-3.48264">
        <ele>236</ele>
        <time>2013-02-24T12:34:09.1Z</time>
      </trkpt>
      <trkpt lat="48.49123" lon="-3.48267">
        <ele>236</ele>
        <time>2013-02-24T12:34:11.1Z</time>
      </trkpt>
      <trkpt lat="48.49123" lon="-3.48271">
        <ele>236</ele>
        <time>2013-02-24T12:34:13.1Z</time>
      </trkpt>
      <trkpt lat="48.49122" lon="-3.48274">
        <ele>236</ele>
        <time>2013-02-24T12:34:15.1Z</time>
      </trkpt>
      <trkpt lat="48.49122" lon="-3.48278">
        <ele>236</ele>
        <time>2013-02-24T12:34:17.1Z</time>
      </trkpt>
      <trkpt lat="48.49122" lon="-3.48281">
        <ele>236</ele>
        <time>2013-02-24T12:34:19.1Z</time>
      </trkpt>
      <trkpt lat="48.49122" lon="-3.48287">
        <ele>236</ele>
        <time>2013-02-24T12:34:21.1Z</time>
      </trkpt>
      <trkpt lat="48.49122" lon="-3.4829">
        <ele>236</ele>
        <time>2013-02-24T12:34:23.1Z</time>
      </trkpt>
      <trkpt lat="48.49122" lon="-3.48293">
        <ele>236</ele>
        <time>2013-02-24T12:34:26.1Z</time>
      </trkpt>
      <trkpt lat="48.49122" lon="-3.48296">
        <ele>236</ele>
        <time>2013-02-24T12:34:28.1Z</time>
      </trkpt>
      <trkpt lat="48.49121" lon="-3.48299">
        <ele>236</ele>
        <time>2013-02-24T12:34:30.1Z</time>
      </trkpt>
      <trkpt lat="48.49121" lon="-3.48302">
        <ele>236</ele>
        <time>2013-02-24T12:34:32.1Z</time>
      </trkpt>
      <trkpt lat="48.4912" lon="-3.48305">
        <ele>236</ele>
        <time>2013-02-24T12:34:34.1Z</time>
      </trkpt>
      <trkpt lat="48.4912" lon="-3.48308">
        <ele>236</ele>
        <time>2013-02-24T12:34:36.1Z</time>
      </trkpt>
      <trkpt lat="48.4912" lon="-3.48312">
        <ele>236</ele>
        <time>2013-02-24T12:34:38.1Z</time>
      </trkpt>
      <trkpt lat="48.4912" lon="-3.48316">
        <ele>236</ele>
        <time>2013-02-24T12:34:40.1Z</time>
      </trkpt>
      <trkpt lat="48.4912" lon="-3.4832">
        <ele>236</ele>
        <time>2013-02-24T12:34:42.1Z</time>
      </trkpt>
      <trkpt lat="48.4912" lon="-3.48323">
        <ele>237</ele>
        <time>2013-02-24T12:34:44.1Z</time>
      </trkpt>
      <trkpt lat="48.4912" lon="-3.48326">
        <ele>237</ele>
        <time>2013-02-24T12:34:47.1Z</time>
      </trkpt>
      <trkpt lat="48.4912" lon="-3.48329">
        <ele>237</ele>
        <time>2013-02-24T12:34:49.1Z</time>
      </trkpt>
      <trkpt lat="48.4912" lon="-3.48334">
        <ele>237</ele>
        <time>2013-02-24T12:34:51.1Z</time>
      </trkpt>
      <trkpt lat="48.4912" lon="-3.48338">
        <ele>237</ele>
        <time>2013-02-24T12:34:53.1Z</time>
      </trkpt>
      <trkpt lat="48.4912" lon="-3.48341">
        <ele>237</ele>
        <time>2013-02-24T12:34:55.1Z</time>
      </trkpt>
      <trkpt lat="48.4912" lon="-3.48344">
        <ele>237</ele>
        <time>2013-02-24T12:34:57.1Z</time>
      </trkpt>
      <trkpt lat="48.4912" lon="-3.48347">
        <ele>237</ele>
        <time>2013-02-24T12:34:59.1Z</time>
      </trkpt>
      <trkpt lat="48.4912" lon="-3.4835">
        <ele>237</ele>
        <time>2013-02-24T12:35:01.1Z</time>
      </trkpt>
      <trkpt lat="48.49119" lon="-3.48353">
        <ele>237</ele>
        <time>2013-02-24T12:35:03.1Z</time>
      </trkpt>
      <trkpt lat="48.49118" lon="-3.48358">
        <ele>237</ele>
        <time>2013-02-24T12:35:05.1Z</time>
      </trkpt>
      <trkpt lat="48.49118" lon="-3.48361">
        <ele>237</ele>
        <time>2013-02-24T12:35:08.1Z</time>
      </trkpt>
      <trkpt lat="48.49118" lon="-3.48364">
        <ele>237</ele>
        <time>2013-02-24T12:35:10.1Z</time>
      </trkpt>
      <trkpt lat="48.49118" lon="-3.48367">
        <ele>237</ele>
        <time>2013-02-24T12:35:12.1Z</time>
      </trkpt>
      <trkpt lat="48.49117" lon="-3.48371">
        <ele>237</ele>
        <time>2013-02-24T12:35:14.1Z</time>
      </trkpt>
      <trkpt lat="48.49117" lon="-3.48375">
        <ele>237</ele>
        <time>2013-02-24T12:35:16.1Z</time>
      </trkpt>
      <trkpt lat="48.49117" lon="-3.48378">
        <ele>238</ele>
        <time>2013-02-24T12:35:18.1Z</time>
      </trkpt>
      <trkpt lat="48.49117" lon="-3.48381">
        <ele>238</ele>
        <time>2013-02-24T12:35:20.1Z</time>
      </trkpt>
      <trkpt lat="48.49117" lon="-3.48384">
        <ele>238</ele>
        <time>2013-02-24T12:35:22.1Z</time>
      </trkpt>
      <trkpt lat="48.49116" lon="-3.48387">
        <ele>238</ele>
        <time>2013-02-24T12:35:24.1Z</time>
      </trkpt>
      <trkpt lat="48.49116" lon="-3.4839">
        <ele>238</ele>
        <time>2013-02-24T12:35:26.1Z</time>
      </trkpt>
      <trkpt lat="48.49116" lon="-3.48393">
        <ele>238</ele>
        <time>2013-02-24T12:35:28.1Z</time>
      </trkpt>
      <trkpt lat="48.49116" lon="-3.48396">
        <ele>237</ele>
        <time>2013-02-24T12:35:30.1Z</time>
      </trkpt>
      <trkpt lat="48.49115" lon="-3.484">
        <ele>237</ele>
        <time>2013-02-24T12:35:32.1Z</time>
      </trkpt>
      <trkpt lat="48.49116" lon="-3.48403">
        <ele>238</ele>
        <time>2013-02-24T12:35:34.1Z</time>
      </trkpt>
      <trkpt lat="48.49115" lon="-3.48407">
        <ele>238</ele>
        <time>2013-02-24T12:35:36.1Z</time>
      </trkpt>
      <trkpt lat="48.49115" lon="-3.48412">
        <ele>238</ele>
        <time>2013-02-24T12:35:38.1Z</time>
      </trkpt>
      <trkpt lat="48.49116" lon="-3.48416">
        <ele>238</ele>
        <time>2013-02-24T12:35:41.1Z</time>
      </trkpt>
      <trkpt lat="48.49117" lon="-3.48418">
        <ele>238</ele>
        <time>2013-02-24T12:35:43.1Z</time>
      </trkpt>
      <trkpt lat="48.49117" lon="-3.48421">
        <ele>238</ele>
        <time>2013-02-24T12:35:45.1Z</time>
      </trkpt>
      <trkpt lat="48.49117" lon="-3.48423">
        <ele>238</ele>
        <time>2013-02-24T12:35:47.1Z</time>
      </trkpt>
      <trkpt lat="48.49117" lon="-3.48426">
        <ele>238</ele>
        <time>2013-02-24T12:35:49.1Z</time>
      </trkpt>
      <trkpt lat="48.49119" lon="-3.48428">
        <ele>237</ele>
        <time>2013-02-24T12:35:51.1Z</time>
      </trkpt>
      <trkpt lat="48.49119" lon="-3.48429">
        <ele>237</ele>
        <time>2013-02-24T12:35:53.1Z</time>
      </trkpt>
      <trkpt lat="48.49119" lon="-3.4843">
        <ele>237</ele>
        <time>2013-02-24T12:35:55.1Z</time>
      </trkpt>
      <trkpt lat="48.49119" lon="-3.4843">
        <ele>237</ele>
        <time>2013-02-24T12:35:57.1Z</time>
      </trkpt>
      <trkpt lat="48.49119" lon="-3.48431">
        <ele>238</ele>
        <time>2013-02-24T12:35:59.1Z</time>
      </trkpt>
      <trkpt lat="48.49118" lon="-3.48432">
        <ele>237</ele>
        <time>2013-02-24T12:36:01.1Z</time>
      </trkpt>
      <trkpt lat="48.49118" lon="-3.48435">
        <ele>237</ele>
        <time>2013-02-24T12:36:04.1Z</time>
      </trkpt>
      <trkpt lat="48.49117" lon="-3.48438">
        <ele>238</ele>
        <time>2013-02-24T12:36:06.1Z</time>
      </trkpt>
      <trkpt lat="48.49116" lon="-3.4844">
        <ele>238</ele>
        <time>2013-02-24T12:36:08.1Z</time>
      </trkpt>
      <trkpt lat="48.49116" lon="-3.48443">
        <ele>238</ele>
        <time>2013-02-24T12:36:10.1Z</time>
      </trkpt>
      <trkpt lat="48.49116" lon="-3.48445">
        <ele>238</ele>
        <time>2013-02-24T12:36:12.1Z</time>
      </trkpt>
      <trkpt lat="48.49116" lon="-3.48448">
        <ele>238</ele>
        <time>2013-02-24T12:36:14.1Z</time>
      </trkpt>
      <trkpt lat="48.49116" lon="-3.48451">
        <ele>238</ele>
        <time>2013-02-24T12:36:16.1Z</time>
      </trkpt>
      <trkpt lat="48.49116" lon="-3.48454">
        <ele>238</ele>
        <time>2013-02-24T12:36:18.1Z</time>
      </trkpt>
      <trkpt lat="48.49117" lon="-3.48457">
        <ele>238</ele>
        <time>2013-02-24T12:36:20.1Z</time>
      </trkpt>
      <trkpt lat="48.49117" lon="-3.48461">
        <ele>238</ele>
        <time>2013-02-24T12:36:22.1Z</time>
      </trkpt>
      <trkpt lat="48.49117" lon="-3.48464">
        <ele>238</ele>
        <time>2013-02-24T12:36:24.1Z</time>
      </trkpt>
      <trkpt lat="48.49118" lon="-3.48466">
        <ele>238</ele>
        <time>2013-02-24T12:36:27.1Z</time>
      </trkpt>
      <trkpt lat="48.49118" lon="-3.48469">
        <ele>238</ele>
        <time>2013-02-24T12:36:29.1Z</time>
      </trkpt>
      <trkpt lat="48.49117" lon="-3.48471">
        <ele>238</ele>
        <time>2013-02-24T12:36:31.1Z</time>
      </trkpt>
      <trkpt lat="48.49117" lon="-3.48474">
        <ele>238</ele>
        <time>2013-02-24T12:36:33.1Z</time>
      </trkpt>
      <trkpt lat="48.49118" lon="-3.48477">
        <ele>238</ele>
        <time>2013-02-24T12:36:35.1Z</time>
      </trkpt>
      <trkpt lat="48.49118" lon="-3.4848">
        <ele>238</ele>
        <time>2013-02-24T12:36:37.1Z</time>
      </trkpt>
      <trkpt lat="48.49118" lon="-3.48483">
        <ele>238</ele>
        <time>2013-02-24T12:36:39.1Z</time>
      </trkpt>
      <trkpt lat="48.49118" lon="-3.48485">
        <ele>238</ele>
        <time>2013-02-24T12:36:41.1Z</time>
      </trkpt>
      <trkpt lat="48.49118" lon="-3.48488">
        <ele>238</ele>
        <time>2013-02-24T12:36:43.1Z</time>
      </trkpt>
      <trkpt lat="48.49118" lon="-3.48493">
        <ele>238</ele>
        <time>2013-02-24T12:36:45.1Z</time>
      </trkpt>
      <trkpt lat="48.49118" lon="-3.48496">
        <ele>238</ele>
        <time>2013-02-24T12:36:48.1Z</time>
      </trkpt>
      <trkpt lat="48.49118" lon="-3.48499">
        <ele>239</ele>
        <time>2013-02-24T12:36:50.1Z</time>
      </trkpt>
      <trkpt lat="48.49118" lon="-3.48503">
        <ele>239</ele>
        <time>2013-02-24T12:36:52.1Z</time>
      </trkpt>
      <trkpt lat="48.49116" lon="-3.48504">
        <ele>239</ele>
        <time>2013-02-24T12:36:54.1Z</time>
      </trkpt>
      <trkpt lat="48.49116" lon="-3.48507">
        <ele>239</ele>
        <time>2013-02-24T12:36:56.1Z</time>
      </trkpt>
      <trkpt lat="48.49116" lon="-3.4851">
        <ele>239</ele>
        <time>2013-02-24T12:36:58.1Z</time>
      </trkpt>
      <trkpt lat="48.49115" lon="-3.48514">
        <ele>239</ele>
        <time>2013-02-24T12:37:00.1Z</time>
      </trkpt>
      <trkpt lat="48.49116" lon="-3.48517">
        <ele>239</ele>
        <time>2013-02-24T12:37:02.1Z</time>
      </trkpt>
      <trkpt lat="48.49116" lon="-3.48521">
        <ele>239</ele>
        <time>2013-02-24T12:37:04.1Z</time>
      </trkpt>
      <trkpt lat="48.49116" lon="-3.48524">
        <ele>239</ele>
        <time>2013-02-24T12:37:06.1Z</time>
      </trkpt>
      <trkpt lat="48.49115" lon="-3.48528">
        <ele>239</ele>
        <time>2013-02-24T12:37:08.1Z</time>
      </trkpt>
      <trkpt lat="48.49115" lon="-3.48535">
        <ele>239</ele>
        <time>2013-02-24T12:37:10.1Z</time>
      </trkpt>
      <trkpt lat="48.49115" lon="-3.48539">
        <ele>239</ele>
        <time>2013-02-24T12:37:12.1Z</time>
      </trkpt>
      <trkpt lat="48.49115" lon="-3.48544">
        <ele>239</ele>
        <time>2013-02-24T12:37:14.1Z</time>
      </trkpt>
      <trkpt lat="48.49115" lon="-3.48548">
        <ele>239</ele>
        <time>2013-02-24T12:37:17.1Z</time>
      </trkpt>
      <trkpt lat="48.49115" lon="-3.48551">
        <ele>239</ele>
        <time>2013-02-24T12:37:19.1Z</time>
      </trkpt>
      <trkpt lat="48.49115" lon="-3.48554">
        <ele>239</ele>
        <time>2013-02-24T12:37:21.1Z</time>
      </trkpt>
      <trkpt lat="48.49115" lon="-3.48557">
        <ele>239</ele>
        <time>2013-02-24T12:37:23.1Z</time>
      </trkpt>
      <trkpt lat="48.49115" lon="-3.4856">
        <ele>239</ele>
        <time>2013-02-24T12:37:25.1Z</time>
      </trkpt>
      <trkpt lat="48.49115" lon="-3.48564">
        <ele>239</ele>
        <time>2013-02-24T12:37:27.1Z</time>
      </trkpt>
      <trkpt lat="48.49115" lon="-3.48567">
        <ele>239</ele>
        <time>2013-02-24T12:37:29.1Z</time>
      </trkpt>
      <trkpt lat="48.49115" lon="-3.48572">
        <ele>240</ele>
        <time>2013-02-24T12:37:31.1Z</time>
      </trkpt>
      <trkpt lat="48.49115" lon="-3.48576">
        <ele>240</ele>
        <time>2013-02-24T12:37:33.1Z</time>
      </trkpt>
      <trkpt lat="48.49115" lon="-3.48579">
        <ele>240</ele>
        <time>2013-02-24T12:37:35.1Z</time>
      </trkpt>
      <trkpt lat="48.49115" lon="-3.48582">
        <ele>240</ele>
        <time>2013-02-24T12:37:37.1Z</time>
      </trkpt>
      <trkpt lat="48.49115" lon="-3.48584">
        <ele>240</ele>
        <time>2013-02-24T12:37:39.1Z</time>
      </trkpt>
      <trkpt lat="48.49115" lon="-3.48587">
        <ele>241</ele>
        <time>2013-02-24T12:37:41.1Z</time>
      </trkpt>
      <trkpt lat="48.49115" lon="-3.48591">
        <ele>240</ele>
        <time>2013-02-24T12:37:43.1Z</time>
      </trkpt>
      <trkpt lat="48.49115" lon="-3.48595">
        <ele>241</ele>
        <time>2013-02-24T12:37:45.1Z</time>
      </trkpt>
      <trkpt lat="48.49113" lon="-3.48601">
        <ele>241</ele>
        <time>2013-02-24T12:37:47.1Z</time>
      </trkpt>
      <trkpt lat="48.49113" lon="-3.48604">
        <ele>241</ele>
        <time>2013-02-24T12:37:50.1Z</time>
      </trkpt>
      <trkpt lat="48.49114" lon="-3.48607">
        <ele>241</ele>
        <time>2013-02-24T12:37:52.1Z</time>
      </trkpt>
      <trkpt lat="48.49114" lon="-3.4861">
        <ele>241</ele>
        <time>2013-02-24T12:37:54.1Z</time>
      </trkpt>
      <trkpt lat="48.49113" lon="-3.48613">
        <ele>241</ele>
        <time>2013-02-24T12:37:56.1Z</time>
      </trkpt>
      <trkpt lat="48.49113" lon="-3.48616">
        <ele>241</ele>
        <time>2013-02-24T12:37:58.1Z</time>
      </trkpt>
      <trkpt lat="48.49112" lon="-3.4862">
        <ele>241</ele>
        <time>2013-02-24T12:38:00.1Z</time>
      </trkpt>
      <trkpt lat="48.49112" lon="-3.48623">
        <ele>242</ele>
        <time>2013-02-24T12:38:02.1Z</time>
      </trkpt>
      <trkpt lat="48.49112" lon="-3.48627">
        <ele>242</ele>
        <time>2013-02-24T12:38:04.1Z</time>
      </trkpt>
      <trkpt lat="48.49112" lon="-3.48629">
        <ele>242</ele>
        <time>2013-02-24T12:38:06.1Z</time>
      </trkpt>
      <trkpt lat="48.49111" lon="-3.48633">
        <ele>242</ele>
        <time>2013-02-24T12:38:08.1Z</time>
      </trkpt>
      <trkpt lat="48.49111" lon="-3.48635">
        <ele>242</ele>
        <time>2013-02-24T12:38:10.1Z</time>
      </trkpt>
      <trkpt lat="48.49111" lon="-3.48639">
        <ele>243</ele>
        <time>2013-02-24T12:38:12.1Z</time>
      </trkpt>
      <trkpt lat="48.49111" lon="-3.48642">
        <ele>243</ele>
        <time>2013-02-24T12:38:14.1Z</time>
      </trkpt>
      <trkpt lat="48.49111" lon="-3.48647">
        <ele>243</ele>
        <time>2013-02-24T12:38:16.1Z</time>
      </trkpt>
      <trkpt lat="48.49111" lon="-3.4865">
        <ele>243</ele>
        <time>2013-02-24T12:38:18.1Z</time>
      </trkpt>
      <trkpt lat="48.49111" lon="-3.48653">
        <ele>244</ele>
        <time>2013-02-24T12:38:21.1Z</time>
      </trkpt>
      <trkpt lat="48.49111" lon="-3.48656">
        <ele>244</ele>
        <time>2013-02-24T12:38:23.1Z</time>
      </trkpt>
      <trkpt lat="48.49111" lon="-3.48659">
        <ele>244</ele>
        <time>2013-02-24T12:38:25.1Z</time>
      </trkpt>
      <trkpt lat="48.49111" lon="-3.48662">
        <ele>244</ele>
        <time>2013-02-24T12:38:27.1Z</time>
      </trkpt>
      <trkpt lat="48.49111" lon="-3.48665">
        <ele>244</ele>
        <time>2013-02-24T12:38:29.1Z</time>
      </trkpt>
      <trkpt lat="48.49111" lon="-3.48668">
        <ele>245</ele>
        <time>2013-02-24T12:38:31.1Z</time>
      </trkpt>
      <trkpt lat="48.49111" lon="-3.48671">
        <ele>245</ele>
        <time>2013-02-24T12:38:33.1Z</time>
      </trkpt>
      <trkpt lat="48.4911" lon="-3.48674">
        <ele>245</ele>
        <time>2013-02-24T12:38:35.1Z</time>
      </trkpt>
      <trkpt lat="48.4911" lon="-3.48678">
        <ele>245</ele>
        <time>2013-02-24T12:38:37.1Z</time>
      </trkpt>
      <trkpt lat="48.4911" lon="-3.48683">
        <ele>245</ele>
        <time>2013-02-24T12:38:39.1Z</time>
      </trkpt>
      <trkpt lat="48.4911" lon="-3.48686">
        <ele>245</ele>
        <time>2013-02-24T12:38:41.1Z</time>
      </trkpt>
      <trkpt lat="48.4911" lon="-3.48689">
        <ele>245</ele>
        <time>2013-02-24T12:38:43.1Z</time>
      </trkpt>
      <trkpt lat="48.4911" lon="-3.48692">
        <ele>246</ele>
        <time>2013-02-24T12:38:45.1Z</time>
      </trkpt>
      <trkpt lat="48.4911" lon="-3.48695">
        <ele>246</ele>
        <time>2013-02-24T12:38:48.1Z</time>
      </trkpt>
      <trkpt lat="48.4911" lon="-3.48697">
        <ele>246</ele>
        <time>2013-02-24T12:38:50.1Z</time>
      </trkpt>
      <trkpt lat="48.4911" lon="-3.48699">
        <ele>246</ele>
        <time>2013-02-24T12:38:52.1Z</time>
      </trkpt>
      <trkpt lat="48.4911" lon="-3.48702">
        <ele>246</ele>
        <time>2013-02-24T12:38:54.1Z</time>
      </trkpt>
      <trkpt lat="48.4911" lon="-3.48705">
        <ele>246</ele>
        <time>2013-02-24T12:38:56.1Z</time>
      </trkpt>
      <trkpt lat="48.4911" lon="-3.48708">
        <ele>247</ele>
        <time>2013-02-24T12:38:58.1Z</time>
      </trkpt>
      <trkpt lat="48.4911" lon="-3.48711">
        <ele>247</ele>
        <time>2013-02-24T12:39:00.1Z</time>
      </trkpt>
      <trkpt lat="48.49111" lon="-3.48714">
        <ele>247</ele>
        <time>2013-02-24T12:39:02.1Z</time>
      </trkpt>
      <trkpt lat="48.49111" lon="-3.48717">
        <ele>247</ele>
        <time>2013-02-24T12:39:04.1Z</time>
      </trkpt>
      <trkpt lat="48.4911" lon="-3.4872">
        <ele>247</ele>
        <time>2013-02-24T12:39:06.1Z</time>
      </trkpt>
      <trkpt lat="48.49111" lon="-3.48723">
        <ele>248</ele>
        <time>2013-02-24T12:39:08.1Z</time>
      </trkpt>
      <trkpt lat="48.4911" lon="-3.48725">
        <ele>248</ele>
        <time>2013-02-24T12:39:10.1Z</time>
      </trkpt>
      <trkpt lat="48.4911" lon="-3.48728">
        <ele>248</ele>
        <time>2013-02-24T12:39:12.1Z</time>
      </trkpt>
      <trkpt lat="48.4911" lon="-3.48731">
        <ele>248</ele>
        <time>2013-02-24T12:39:14.1Z</time>
      </trkpt>
      <trkpt lat="48.4911" lon="-3.48735">
        <ele>248</ele>
        <time>2013-02-24T12:39:16.1Z</time>
      </trkpt>
      <trkpt lat="48.49109" lon="-3.48737">
        <ele>248</ele>
        <time>2013-02-24T12:39:18.1Z</time>
      </trkpt>
      <trkpt lat="48.49109" lon="-3.4874">
        <ele>248</ele>
        <time>2013-02-24T12:39:20.1Z</time>
      </trkpt>
      <trkpt lat="48.49109" lon="-3.48742">
        <ele>249</ele>
        <time>2013-02-24T12:39:23.1Z</time>
      </trkpt>
      <trkpt lat="48.49109" lon="-3.48744">
        <ele>249</ele>
        <time>2013-02-24T12:39:25.1Z</time>
      </trkpt>
      <trkpt lat="48.49109" lon="-3.48747">
        <ele>249</ele>
        <time>2013-02-24T12:39:27.1Z</time>
      </trkpt>
      <trkpt lat="48.4911" lon="-3.4875">
        <ele>249</ele>
        <time>2013-02-24T12:39:29.1Z</time>
      </trkpt>
      <trkpt lat="48.4911" lon="-3.48752">
        <ele>250</ele>
        <time>2013-02-24T12:39:31.1Z</time>
      </trkpt>
      <trkpt lat="48.4911" lon="-3.48755">
        <ele>249</ele>
        <time>2013-02-24T12:39:33.1Z</time>
      </trkpt>
      <trkpt lat="48.4911" lon="-3.48759">
        <ele>250</ele>
        <time>2013-02-24T12:39:35.1Z</time>
      </trkpt>
      <trkpt lat="48.4911" lon="-3.48761">
        <ele>250</ele>
        <time>2013-02-24T12:39:38.1Z</time>
      </trkpt>
      <trkpt lat="48.4911" lon="-3.48763">
        <ele>250</ele>
        <time>2013-02-24T12:39:40.1Z</time>
      </trkpt>
      <trkpt lat="48.4911" lon="-3.48766">
        <ele>251</ele>
        <time>2013-02-24T12:39:42.1Z</time>
      </trkpt>
      <trkpt lat="48.4911" lon="-3.48768">
        <ele>250</ele>
        <time>2013-02-24T12:39:44.1Z</time>
      </trkpt>
      <trkpt lat="48.4911" lon="-3.4877">
        <ele>251</ele>
        <time>2013-02-24T12:39:46.1Z</time>
      </trkpt>
      <trkpt lat="48.4911" lon="-3.48772">
        <ele>251</ele>
        <time>2013-02-24T12:39:48.1Z</time>
      </trkpt>
      <trkpt lat="48.4911" lon="-3.48775">
        <ele>252</ele>
        <time>2013-02-24T12:39:50.1Z</time>
      </trkpt>
      <trkpt lat="48.4911" lon="-3.48778">
        <ele>252</ele>
        <time>2013-02-24T12:39:52.1Z</time>
      </trkpt>
      <trkpt lat="48.4911" lon="-3.4878">
        <ele>252</ele>
        <time>2013-02-24T12:39:54.1Z</time>
      </trkpt>
      <trkpt lat="48.4911" lon="-3.48782">
        <ele>253</ele>
        <time>2013-02-24T12:39:56.1Z</time>
      </trkpt>
      <trkpt lat="48.4911" lon="-3.48784">
        <ele>253</ele>
        <time>2013-02-24T12:39:58.1Z</time>
      </trkpt>
      <trkpt lat="48.4911" lon="-3.48787">
        <ele>253</ele>
        <time>2013-02-24T12:40:00.1Z</time>
      </trkpt>
      <trkpt lat="48.4911" lon="-3.48789">
        <ele>253</ele>
        <time>2013-02-24T12:40:02.1Z</time>
      </trkpt>
      <trkpt lat="48.4911" lon="-3.48792">
        <ele>253</ele>
        <time>2013-02-24T12:40:04.1Z</time>
      </trkpt>
      <trkpt lat="48.49109" lon="-3.48794">
        <ele>254</ele>
        <time>2013-02-24T12:40:06.1Z</time>
      </trkpt>
      <trkpt lat="48.49109" lon="-3.48796">
        <ele>254</ele>
        <time>2013-02-24T12:40:08.1Z</time>
      </trkpt>
      <trkpt lat="48.49109" lon="-3.48798">
        <ele>254</ele>
        <time>2013-02-24T12:40:11.1Z</time>
      </trkpt>
      <trkpt lat="48.49109" lon="-3.488">
        <ele>255</ele>
        <time>2013-02-24T12:40:13.1Z</time>
      </trkpt>
      <trkpt lat="48.49109" lon="-3.48802">
        <ele>255</ele>
        <time>2013-02-24T12:40:15.1Z</time>
      </trkpt>
      <trkpt lat="48.49109" lon="-3.48804">
        <ele>255</ele>
        <time>2013-02-24T12:40:17.1Z</time>
      </trkpt>
      <trkpt lat="48.49109" lon="-3.48806">
        <ele>255</ele>
        <time>2013-02-24T12:40:19.1Z</time>
      </trkpt>
      <trkpt lat="48.49108" lon="-3.48808">
        <ele>255</ele>
        <time>2013-02-24T12:40:21.1Z</time>
      </trkpt>
      <trkpt lat="48.49108" lon="-3.4881">
        <ele>255</ele>
        <time>2013-02-24T12:40:23.1Z</time>
      </trkpt>
      <trkpt lat="48.49108" lon="-3.48812">
        <ele>255</ele>
        <time>2013-02-24T12:40:25.1Z</time>
      </trkpt>
      <trkpt lat="48.49109" lon="-3.48814">
        <ele>256</ele>
        <time>2013-02-24T12:40:27.1Z</time>
      </trkpt>
      <trkpt lat="48.49109" lon="-3.48816">
        <ele>256</ele>
        <time>2013-02-24T12:40:29.1Z</time>
      </trkpt>
      <trkpt lat="48.49109" lon="-3.48818">
        <ele>256</ele>
        <time>2013-02-24T12:40:31.1Z</time>
      </trkpt>
      <trkpt lat="48.49109" lon="-3.4882">
        <ele>256</ele>
        <time>2013-02-24T12:40:33.1Z</time>
      </trkpt>
      <trkpt lat="48.49109" lon="-3.48822">
        <ele>257</ele>
        <time>2013-02-24T12:40:35.1Z</time>
      </trkpt>
      <trkpt lat="48.49109" lon="-3.48824">
        <ele>257</ele>
        <time>2013-02-24T12:40:37.1Z</time>
      </trkpt>
      <trkpt lat="48.49109" lon="-3.48826">
        <ele>257</ele>
        <time>2013-02-24T12:40:39.1Z</time>
      </trkpt>
      <trkpt lat="48.49109" lon="-3.48829">
        <ele>258</ele>
        <time>2013-02-24T12:40:41.1Z</time>
      </trkpt>
      <trkpt lat="48.49108" lon="-3.48831">
        <ele>258</ele>
        <time>2013-02-24T12:40:43.1Z</time>
      </trkpt>
      <trkpt lat="48.49108" lon="-3.48833">
        <ele>258</ele>
        <time>2013-02-24T12:40:45.1Z</time>
      </trkpt>
      <trkpt lat="48.49108" lon="-3.48835">
        <ele>258</ele>
        <time>2013-02-24T12:40:48.1Z</time>
      </trkpt>
      <trkpt lat="48.49108" lon="-3.48837">
        <ele>259</ele>
        <time>2013-02-24T12:40:50.1Z</time>
      </trkpt>
      <trkpt lat="48.49108" lon="-3.48839">
        <ele>259</ele>
        <time>2013-02-24T12:40:52.1Z</time>
      </trkpt>
      <trkpt lat="48.49108" lon="-3.48841">
        <ele>259</ele>
        <time>2013-02-24T12:40:54.1Z</time>
      </trkpt>
      <trkpt lat="48.49107" lon="-3.48844">
        <ele>260</ele>
        <time>2013-02-24T12:40:56.1Z</time>
      </trkpt>
      <trkpt lat="48.49107" lon="-3.48845">
        <ele>260</ele>
        <time>2013-02-24T12:40:58.1Z</time>
      </trkpt>
      <trkpt lat="48.49107" lon="-3.48847">
        <ele>260</ele>
        <time>2013-02-24T12:41:00.1Z</time>
      </trkpt>
      <trkpt lat="48.49107" lon="-3.48849">
        <ele>260</ele>
        <time>2013-02-24T12:41:02.1Z</time>
      </trkpt>
      <trkpt lat="48.49107" lon="-3.48852">
        <ele>260</ele>
        <time>2013-02-24T12:41:04.1Z</time>
      </trkpt>
      <trkpt lat="48.49107" lon="-3.48855">
        <ele>260</ele>
        <time>2013-02-24T12:41:06.1Z</time>
      </trkpt>
      <trkpt lat="48.49107" lon="-3.48857">
        <ele>261</ele>
        <time>2013-02-24T12:41:08.1Z</time>
      </trkpt>
      <trkpt lat="48.49107" lon="-3.48859">
        <ele>261</ele>
        <time>2013-02-24T12:41:10.1Z</time>
      </trkpt>
      <trkpt lat="48.49107" lon="-3.4886">
        <ele>261</ele>
        <time>2013-02-24T12:41:12.1Z</time>
      </trkpt>
      <trkpt lat="48.49107" lon="-3.48862">
        <ele>262</ele>
        <time>2013-02-24T12:41:14.1Z</time>
      </trkpt>
      <trkpt lat="48.49107" lon="-3.48865">
        <ele>262</ele>
        <time>2013-02-24T12:41:16.1Z</time>
      </trkpt>
      <trkpt lat="48.49106" lon="-3.48868">
        <ele>262</ele>
        <time>2013-02-24T12:41:18.1Z</time>
      </trkpt>
      <trkpt lat="48.49106" lon="-3.48869">
        <ele>262</ele>
        <time>2013-02-24T12:41:20.1Z</time>
      </trkpt>
      <trkpt lat="48.49106" lon="-3.48871">
        <ele>262</ele>
        <time>2013-02-24T12:41:23.1Z</time>
      </trkpt>
      <trkpt lat="48.49106" lon="-3.48873">
        <ele>263</ele>
        <time>2013-02-24T12:41:25.1Z</time>
      </trkpt>
      <trkpt lat="48.49106" lon="-3.48876">
        <ele>263</ele>
        <time>2013-02-24T12:41:27.1Z</time>
      </trkpt>
      <trkpt lat="48.49106" lon="-3.48879">
        <ele>264</ele>
        <time>2013-02-24T12:41:29.1Z</time>
      </trkpt>
      <trkpt lat="48.49106" lon="-3.48881">
        <ele>264</ele>
        <time>2013-02-24T12:41:31.1Z</time>
      </trkpt>
      <trkpt lat="48.49106" lon="-3.48883">
        <ele>264</ele>
        <time>2013-02-24T12:41:33.1Z</time>
      </trkpt>
      <trkpt lat="48.49106" lon="-3.48885">
        <ele>264</ele>
        <time>2013-02-24T12:41:35.1Z</time>
      </trkpt>
      <trkpt lat="48.49106" lon="-3.48888">
        <ele>264</ele>
        <time>2013-02-24T12:41:37.1Z</time>
      </trkpt>
      <trkpt lat="48.49106" lon="-3.4889">
        <ele>264</ele>
        <time>2013-02-24T12:41:39.1Z</time>
      </trkpt>
      <trkpt lat="48.49106" lon="-3.48893">
        <ele>265</ele>
        <time>2013-02-24T12:41:41.1Z</time>
      </trkpt>
      <trkpt lat="48.49106" lon="-3.48895">
        <ele>265</ele>
        <time>2013-02-24T12:41:44.1Z</time>
      </trkpt>
      <trkpt lat="48.49106" lon="-3.48898">
        <ele>265</ele>
        <time>2013-02-24T12:41:46.1Z</time>
      </trkpt>
      <trkpt lat="48.49106" lon="-3.489">
        <ele>265</ele>
        <time>2013-02-24T12:41:48.1Z</time>
      </trkpt>
      <trkpt lat="48.49106" lon="-3.48902">
        <ele>266</ele>
        <time>2013-02-24T12:41:50.1Z</time>
      </trkpt>
      <trkpt lat="48.49106" lon="-3.48903">
        <ele>266</ele>
        <time>2013-02-24T12:41:52.1Z</time>
      </trkpt>
      <trkpt lat="48.49106" lon="-3.48905">
        <ele>266</ele>
        <time>2013-02-24T12:41:54.1Z</time>
      </trkpt>
      <trkpt lat="48.49106" lon="-3.48907">
        <ele>267</ele>
        <time>2013-02-24T12:41:56.1Z</time>
      </trkpt>
      <trkpt lat="48.49106" lon="-3.48909">
        <ele>267</ele>
        <time>2013-02-24T12:41:58.1Z</time>
      </trkpt>
      <trkpt lat="48.49107" lon="-3.48911">
        <ele>267</ele>
        <time>2013-02-24T12:42:01.1Z</time>
      </trkpt>
      <trkpt lat="48.49106" lon="-3.48913">
        <ele>267</ele>
        <time>2013-02-24T12:42:03.1Z</time>
      </trkpt>
      <trkpt lat="48.49106" lon="-3.48915">
        <ele>267</ele>
        <time>2013-02-24T12:42:05.1Z</time>
      </trkpt>
      <trkpt lat="48.49106" lon="-3.48917">
        <ele>267</ele>
        <time>2013-02-24T12:42:07.1Z</time>
      </trkpt>
      <trkpt lat="48.49106" lon="-3.48919">
        <ele>268</ele>
        <time>2013-02-24T12:42:09.1Z</time>
      </trkpt>
      <trkpt lat="48.49106" lon="-3.48921">
        <ele>268</ele>
        <time>2013-02-24T12:42:11.1Z</time>
      </trkpt>
      <trkpt lat="48.49105" lon="-3.48923">
        <ele>268</ele>
        <time>2013-02-24T12:42:13.1Z</time>
      </trkpt>
      <trkpt lat="48.49105" lon="-3.48925">
        <ele>269</ele>
        <time>2013-02-24T12:42:15.1Z</time>
      </trkpt>
      <trkpt lat="48.49105" lon="-3.48927">
        <ele>269</ele>
        <time>2013-02-24T12:42:17.1Z</time>
      </trkpt>
      <trkpt lat="48.49105" lon="-3.48929">
        <ele>270</ele>
        <time>2013-02-24T12:42:19.1Z</time>
      </trkpt>
      <trkpt lat="48.49104" lon="-3.48931">
        <ele>270</ele>
        <time>2013-02-24T12:42:21.1Z</time>
      </trkpt>
      <trkpt lat="48.49104" lon="-3.48934">
        <ele>270</ele>
        <time>2013-02-24T12:42:23.1Z</time>
      </trkpt>
      <trkpt lat="48.49104" lon="-3.48936">
        <ele>270</ele>
        <time>2013-02-24T12:42:25.1Z</time>
      </trkpt>
      <trkpt lat="48.49104" lon="-3.48938">
        <ele>271</ele>
        <time>2013-02-24T12:42:27.1Z</time>
      </trkpt>
      <trkpt lat="48.49104" lon="-3.48939">
        <ele>271</ele>
        <time>2013-02-24T12:42:29.1Z</time>
      </trkpt>
      <trkpt lat="48.49104" lon="-3.48941">
        <ele>271</ele>
        <time>2013-02-24T12:42:31.1Z</time>
      </trkpt>
      <trkpt lat="48.49104" lon="-3.48945">
        <ele>271</ele>
        <time>2013-02-24T12:42:33.1Z</time>
      </trkpt>
      <trkpt lat="48.49105" lon="-3.48947">
        <ele>271</ele>
        <time>2013-02-24T12:42:35.1Z</time>
      </trkpt>
      <trkpt lat="48.49105" lon="-3.4895">
        <ele>271</ele>
        <time>2013-02-24T12:42:38.1Z</time>
      </trkpt>
      <trkpt lat="48.49105" lon="-3.48952">
        <ele>271</ele>
        <time>2013-02-24T12:42:40.1Z</time>
      </trkpt>
      <trkpt lat="48.49105" lon="-3.48954">
        <ele>272</ele>
        <time>2013-02-24T12:42:42.1Z</time>
      </trkpt>
      <trkpt lat="48.49105" lon="-3.48956">
        <ele>272</ele>
        <time>2013-02-24T12:42:44.1Z</time>
      </trkpt>
      <trkpt lat="48.49105" lon="-3.48958">
        <ele>272</ele>
        <time>2013-02-24T12:42:46.1Z</time>
      </trkpt>
      <trkpt lat="48.49105" lon="-3.48961">
        <ele>272</ele>
        <time>2013-02-24T12:42:48.1Z</time>
      </trkpt>
      <trkpt lat="48.49106" lon="-3.48963">
        <ele>273</ele>
        <time>2013-02-24T12:42:50.1Z</time>
      </trkpt>
      <trkpt lat="48.49106" lon="-3.48965">
        <ele>273</ele>
        <time>2013-02-24T12:42:52.1Z</time>
      </trkpt>
      <trkpt lat="48.49106" lon="-3.48967">
        <ele>273</ele>
        <time>2013-02-24T12:42:54.1Z</time>
      </trkpt>
      <trkpt lat="48.49106" lon="-3.48969">
        <ele>273</ele>
        <time>2013-02-24T12:42:56.1Z</time>
      </trkpt>
      <trkpt lat="48.49106" lon="-3.48971">
        <ele>273</ele>
        <time>2013-02-24T12:42:58.1Z</time>
      </trkpt>
      <trkpt lat="48.49106" lon="-3.48972">
        <ele>273</ele>
        <time>2013-02-24T12:43:00.1Z</time>
      </trkpt>
      <trkpt lat="48.49105" lon="-3.48974">
        <ele>273</ele>
        <time>2013-02-24T12:43:02.1Z</time>
      </trkpt>
      <trkpt lat="48.49105" lon="-3.48974">
        <ele>273</ele>
        <time>2013-02-24T12:43:04.1Z</time>
      </trkpt>
      <trkpt lat="48.49105" lon="-3.48974">
        <ele>273</ele>
        <time>2013-02-24T12:43:07.1Z</time>
      </trkpt>
      <trkpt lat="48.49104" lon="-3.48974">
        <ele>273</ele>
        <time>2013-02-24T12:43:09.1Z</time>
      </trkpt>
      <trkpt lat="48.49105" lon="-3.48974">
        <ele>273</ele>
        <time>2013-02-24T12:43:11.1Z</time>
      </trkpt>
      <trkpt lat="48.49104" lon="-3.48974">
        <ele>273</ele>
        <time>2013-02-24T12:43:13.1Z</time>
      </trkpt>
      <trkpt lat="48.49104" lon="-3.48974">
        <ele>273</ele>
        <time>2013-02-24T12:43:15.1Z</time>
      </trkpt>
      <trkpt lat="48.49105" lon="-3.48974">
        <ele>273</ele>
        <time>2013-02-24T12:43:17.1Z</time>
      </trkpt>
      <trkpt lat="48.49104" lon="-3.48974">
        <ele>273</ele>
        <time>2013-02-24T12:43:19.1Z</time>
      </trkpt>
      <trkpt lat="48.49104" lon="-3.48973">
        <ele>273</ele>
        <time>2013-02-24T12:43:21.1Z</time>
      </trkpt>
      <trkpt lat="48.49104" lon="-3.48973">
        <ele>273</ele>
        <time>2013-02-24T12:43:23.1Z</time>
      </trkpt>
      <trkpt lat="48.49104" lon="-3.48973">
        <ele>273</ele>
        <time>2013-02-24T12:43:25.1Z</time>
      </trkpt>
      <trkpt lat="48.49104" lon="-3.48972">
        <ele>273</ele>
        <time>2013-02-24T12:43:27.1Z</time>
      </trkpt>
      <trkpt lat="48.49104" lon="-3.48972">
        <ele>273</ele>
        <time>2013-02-24T12:43:29.1Z</time>
      </trkpt>
      <trkpt lat="48.49104" lon="-3.48972">
        <ele>273</ele>
        <time>2013-02-24T12:43:31.1Z</time>
      </trkpt>
      <trkpt lat="48.49104" lon="-3.48973">
        <ele>273</ele>
        <time>2013-02-24T12:43:33.1Z</time>
      </trkpt>
      <trkpt lat="48.49105" lon="-3.48974">
        <ele>273</ele>
        <time>2013-02-24T12:43:35.1Z</time>
      </trkpt>
      <trkpt lat="48.49105" lon="-3.48977">
        <ele>273</ele>
        <time>2013-02-24T12:43:37.1Z</time>
      </trkpt>
      <trkpt lat="48.49105" lon="-3.48979">
        <ele>273</ele>
        <time>2013-02-24T12:43:40.1Z</time>
      </trkpt>
      <trkpt lat="48.49105" lon="-3.48981">
        <ele>273</ele>
        <time>2013-02-24T12:43:42.1Z</time>
      </trkpt>
      <trkpt lat="48.49105" lon="-3.48983">
        <ele>273</ele>
        <time>2013-02-24T12:43:44.1Z</time>
      </trkpt>
      <trkpt lat="48.49105" lon="-3.48986">
        <ele>274</ele>
        <time>2013-02-24T12:43:46.1Z</time>
      </trkpt>
      <trkpt lat="48.49106" lon="-3.48989">
        <ele>274</ele>
        <time>2013-02-24T12:43:48.1Z</time>
      </trkpt>
      <trkpt lat="48.49107" lon="-3.48991">
        <ele>274</ele>
        <time>2013-02-24T12:43:50.1Z</time>
      </trkpt>
      <trkpt lat="48.49107" lon="-3.48994">
        <ele>274</ele>
        <time>2013-02-24T12:43:52.1Z</time>
      </trkpt>
      <trkpt lat="48.49107" lon="-3.48998">
        <ele>274</ele>
        <time>2013-02-24T12:43:54.1Z</time>
      </trkpt>
      <trkpt lat="48.49107" lon="-3.49001">
        <ele>274</ele>
        <time>2013-02-24T12:43:56.1Z</time>
      </trkpt>
      <trkpt lat="48.49107" lon="-3.49004">
        <ele>275</ele>
        <time>2013-02-24T12:43:58.1Z</time>
      </trkpt>
      <trkpt lat="48.49108" lon="-3.49007">
        <ele>275</ele>
        <time>2013-02-24T12:44:00.1Z</time>
      </trkpt>
      <trkpt lat="48.49108" lon="-3.49009">
        <ele>274</ele>
        <time>2013-02-24T12:44:02.1Z</time>
      </trkpt>
      <trkpt lat="48.49107" lon="-3.4901">
        <ele>274</ele>
        <time>2013-02-24T12:44:04.1Z</time>
      </trkpt>
      <trkpt lat="48.49107" lon="-3.49012">
        <ele>274</ele>
        <time>2013-02-24T12:44:06.1Z</time>
      </trkpt>
      <trkpt lat="48.49108" lon="-3.49014">
        <ele>274</ele>
        <time>2013-02-24T12:44:08.1Z</time>
      </trkpt>
      <trkpt lat="48.49109" lon="-3.49015">
        <ele>274</ele>
        <time>2013-02-24T12:44:10.1Z</time>
      </trkpt>
      <trkpt lat="48.49109" lon="-3.49016">
        <ele>275</ele>
        <time>2013-02-24T12:44:13.1Z</time>
      </trkpt>
      <trkpt lat="48.49109" lon="-3.49019">
        <ele>275</ele>
        <time>2013-02-24T12:44:15.1Z</time>
      </trkpt>
      <trkpt lat="48.49109" lon="-3.49022">
        <ele>275</ele>
        <time>2013-02-24T12:44:17.1Z</time>
      </trkpt>
      <trkpt lat="48.4911" lon="-3.49024">
        <ele>275</ele>
        <time>2013-02-24T12:44:19.1Z</time>
      </trkpt>
      <trkpt lat="48.4911" lon="-3.49028">
        <ele>276</ele>
        <time>2013-02-24T12:44:21.1Z</time>
      </trkpt>
      <trkpt lat="48.49109" lon="-3.4903">
        <ele>276</ele>
        <time>2013-02-24T12:44:23.1Z</time>
      </trkpt>
      <trkpt lat="48.49109" lon="-3.49032">
        <ele>276</ele>
        <time>2013-02-24T12:44:25.1Z</time>
      </trkpt>
      <trkpt lat="48.49108" lon="-3.49035">
        <ele>276</ele>
        <time>2013-02-24T12:44:27.1Z</time>
      </trkpt>
      <trkpt lat="48.49107" lon="-3.49037">
        <ele>276</ele>
        <time>2013-02-24T12:44:29.1Z</time>
      </trkpt>
      <trkpt lat="48.49107" lon="-3.4904">
        <ele>277</ele>
        <time>2013-02-24T12:44:31.1Z</time>
      </trkpt>
      <trkpt lat="48.49106" lon="-3.49043">
        <ele>277</ele>
        <time>2013-02-24T12:44:33.1Z</time>
      </trkpt>
      <trkpt lat="48.49105" lon="-3.49046">
        <ele>277</ele>
        <time>2013-02-24T12:44:35.1Z</time>
      </trkpt>
      <trkpt lat="48.49105" lon="-3.49049">
        <ele>277</ele>
        <time>2013-02-24T12:44:38.1Z</time>
      </trkpt>
      <trkpt lat="48.49105" lon="-3.49051">
        <ele>278</ele>
        <time>2013-02-24T12:44:40.1Z</time>
      </trkpt>
      <trkpt lat="48.49105" lon="-3.49054">
        <ele>278</ele>
        <time>2013-02-24T12:44:42.1Z</time>
      </trkpt>
      <trkpt lat="48.49105" lon="-3.49056">
        <ele>278</ele>
        <time>2013-02-24T12:44:44.1Z</time>
      </trkpt>
      <trkpt lat="48.49105" lon="-3.49059">
        <ele>278</ele>
        <time>2013-02-24T12:44:46.1Z</time>
      </trkpt>
      <trkpt lat="48.49104" lon="-3.49061">
        <ele>278</ele>
        <time>2013-02-24T12:44:48.1Z</time>
      </trkpt>
      <trkpt lat="48.49104" lon="-3.49063">
        <ele>278</ele>
        <time>2013-02-24T12:44:50.1Z</time>
      </trkpt>
      <trkpt lat="48.49104" lon="-3.49067">
        <ele>278</ele>
        <time>2013-02-24T12:44:52.1Z</time>
      </trkpt>
      <trkpt lat="48.49104" lon="-3.49069">
        <ele>278</ele>
        <time>2013-02-24T12:44:54.1Z</time>
      </trkpt>
      <trkpt lat="48.49104" lon="-3.49072">
        <ele>278</ele>
        <time>2013-02-24T12:44:57.1Z</time>
      </trkpt>
      <trkpt lat="48.49104" lon="-3.49074">
        <ele>279</ele>
        <time>2013-02-24T12:44:59.1Z</time>
      </trkpt>
      <trkpt lat="48.49104" lon="-3.49077">
        <ele>279</ele>
        <time>2013-02-24T12:45:01.1Z</time>
      </trkpt>
      <trkpt lat="48.49104" lon="-3.49079">
        <ele>279</ele>
        <time>2013-02-24T12:45:03.1Z</time>
      </trkpt>
      <trkpt lat="48.49104" lon="-3.49081">
        <ele>279</ele>
        <time>2013-02-24T12:45:05.1Z</time>
      </trkpt>
      <trkpt lat="48.49104" lon="-3.49083">
        <ele>279</ele>
        <time>2013-02-24T12:45:07.1Z</time>
      </trkpt>
      <trkpt lat="48.49104" lon="-3.49086">
        <ele>279</ele>
        <time>2013-02-24T12:45:09.1Z</time>
      </trkpt>
      <trkpt lat="48.49104" lon="-3.49088">
        <ele>280</ele>
        <time>2013-02-24T12:45:11.1Z</time>
      </trkpt>
      <trkpt lat="48.49104" lon="-3.49091">
        <ele>280</ele>
        <time>2013-02-24T12:45:13.1Z</time>
      </trkpt>
      <trkpt lat="48.49104" lon="-3.49094">
        <ele>280</ele>
        <time>2013-02-24T12:45:15.1Z</time>
      </trkpt>
      <trkpt lat="48.49104" lon="-3.49096">
        <ele>280</ele>
        <time>2013-02-24T12:45:17.1Z</time>
      </trkpt>
      <trkpt lat="48.49104" lon="-3.49098">
        <ele>280</ele>
        <time>2013-02-24T12:45:19.1Z</time>
      </trkpt>
      <trkpt lat="48.49103" lon="-3.49101">
        <ele>280</ele>
        <time>2013-02-24T12:45:21.1Z</time>
      </trkpt>
      <trkpt lat="48.49103" lon="-3.49103">
        <ele>281</ele>
        <time>2013-02-24T12:45:23.1Z</time>
      </trkpt>
      <trkpt lat="48.49104" lon="-3.49106">
        <ele>281</ele>
        <time>2013-02-24T12:45:25.1Z</time>
      </trkpt>
      <trkpt lat="48.49104" lon="-3.49109">
        <ele>281</ele>
        <time>2013-02-24T12:45:27.1Z</time>
      </trkpt>
      <trkpt lat="48.49104" lon="-3.49112">
        <ele>282</ele>
        <time>2013-02-24T12:45:29.1Z</time>
      </trkpt>
      <trkpt lat="48.49104" lon="-3.49114">
        <ele>282</ele>
        <time>2013-02-24T12:45:31.1Z</time>
      </trkpt>
      <trkpt lat="48.49103" lon="-3.49117">
        <ele>282</ele>
        <time>2013-02-24T12:45:34.1Z</time>
      </trkpt>
      <trkpt lat="48.49103" lon="-3.4912">
        <ele>282</ele>
        <time>2013-02-24T12:45:36.1Z</time>
      </trkpt>
      <trkpt lat="48.49103" lon="-3.49123">
        <ele>282</ele>
        <time>2013-02-24T12:45:38.1Z</time>
      </trkpt>
      <trkpt lat="48.49103" lon="-3.49126">
        <ele>282</ele>
        <time>2013-02-24T12:45:40.1Z</time>
      </trkpt>
      <trkpt lat="48.49103" lon="-3.49129">
        <ele>282</ele>
        <time>2013-02-24T12:45:42.1Z</time>
      </trkpt>
      <trkpt lat="48.49103" lon="-3.49132">
        <ele>283</ele>
        <time>2013-02-24T12:45:44.1Z</time>
      </trkpt>
      <trkpt lat="48.49102" lon="-3.49135">
        <ele>283</ele>
        <time>2013-02-24T12:45:46.1Z</time>
      </trkpt>
      <trkpt lat="48.49102" lon="-3.49138">
        <ele>283</ele>
        <time>2013-02-24T12:45:48.1Z</time>
      </trkpt>
      <trkpt lat="48.49102" lon="-3.49141">
        <ele>283</ele>
        <time>2013-02-24T12:45:50.1Z</time>
      </trkpt>
      <trkpt lat="48.49102" lon="-3.49144">
        <ele>284</ele>
        <time>2013-02-24T12:45:52.1Z</time>
      </trkpt>
      <trkpt lat="48.49102" lon="-3.49147">
        <ele>284</ele>
        <time>2013-02-24T12:45:54.1Z</time>
      </trkpt>
      <trkpt lat="48.49102" lon="-3.49149">
        <ele>284</ele>
        <time>2013-02-24T12:45:56.1Z</time>
      </trkpt>
      <trkpt lat="48.49102" lon="-3.49152">
        <ele>284</ele>
        <time>2013-02-24T12:45:58.1Z</time>
      </trkpt>
      <trkpt lat="48.49102" lon="-3.49156">
        <ele>284</ele>
        <time>2013-02-24T12:46:00.1Z</time>
      </trkpt>
      <trkpt lat="48.49101" lon="-3.49158">
        <ele>284</ele>
        <time>2013-02-24T12:46:02.1Z</time>
      </trkpt>
      <trkpt lat="48.49101" lon="-3.49163">
        <ele>283</ele>
        <time>2013-02-24T12:46:04.1Z</time>
      </trkpt>
      <trkpt lat="48.491" lon="-3.49166">
        <ele>283</ele>
        <time>2013-02-24T12:46:06.1Z</time>
      </trkpt>
      <trkpt lat="48.491" lon="-3.49168">
        <ele>283</ele>
        <time>2013-02-24T12:46:08.1Z</time>
      </trkpt>
      <trkpt lat="48.491" lon="-3.49171">
        <ele>283</ele>
        <time>2013-02-24T12:46:10.1Z</time>
      </trkpt>
      <trkpt lat="48.491" lon="-3.49174">
        <ele>283</ele>
        <time>2013-02-24T12:46:13.1Z</time>
      </trkpt>
      <trkpt lat="48.491" lon="-3.49177">
        <ele>284</ele>
        <time>2013-02-24T12:46:15.1Z</time>
      </trkpt>
      <trkpt lat="48.491" lon="-3.4918">
        <ele>284</ele>
        <time>2013-02-24T12:46:17.1Z</time>
      </trkpt>
      <trkpt lat="48.491" lon="-3.49183">
        <ele>284</ele>
        <time>2013-02-24T12:46:19.1Z</time>
      </trkpt>
      <trkpt lat="48.491" lon="-3.49186">
        <ele>284</ele>
        <time>2013-02-24T12:46:21.1Z</time>
      </trkpt>
      <trkpt lat="48.491" lon="-3.49189">
        <ele>284</ele>
        <time>2013-02-24T12:46:23.1Z</time>
      </trkpt>
      <trkpt lat="48.491" lon="-3.49192">
        <ele>284</ele>
        <time>2013-02-24T12:46:25.1Z</time>
      </trkpt>
      <trkpt lat="48.491" lon="-3.49195">
        <ele>284</ele>
        <time>2013-02-24T12:46:27.1Z</time>
      </trkpt>
      <trkpt lat="48.49099" lon="-3.49198">
        <ele>284</ele>
        <time>2013-02-24T12:46:29.1Z</time>
      </trkpt>
      <trkpt lat="48.49099" lon="-3.49201">
        <ele>284</ele>
        <time>2013-02-24T12:46:31.1Z</time>
      </trkpt>
      <trkpt lat="48.49099" lon="-3.49204">
        <ele>284</ele>
        <time>2013-02-24T12:46:33.1Z</time>
      </trkpt>
      <trkpt lat="48.49099" lon="-3.49207">
        <ele>284</ele>
        <time>2013-02-24T12:46:35.1Z</time>
      </trkpt>
      <trkpt lat="48.49098" lon="-3.49212">
        <ele>284</ele>
        <time>2013-02-24T12:46:37.1Z</time>
      </trkpt>
      <trkpt lat="48.49098" lon="-3.49215">
        <ele>284</ele>
        <time>2013-02-24T12:46:39.1Z</time>
      </trkpt>
      <trkpt lat="48.49099" lon="-3.49218">
        <ele>284</ele>
        <time>2013-02-24T12:46:41.1Z</time>
      </trkpt>
      <trkpt lat="48.49099" lon="-3.49221">
        <ele>284</ele>
        <time>2013-02-24T12:46:44.1Z</time>
      </trkpt>
      <trkpt lat="48.49099" lon="-3.49224">
        <ele>284</ele>
        <time>2013-02-24T12:46:46.1Z</time>
      </trkpt>
      <trkpt lat="48.49099" lon="-3.49227">
        <ele>284</ele>
        <time>2013-02-24T12:46:48.1Z</time>
      </trkpt>
      <trkpt lat="48.49099" lon="-3.4923">
        <ele>284</ele>
        <time>2013-02-24T12:46:50.1Z</time>
      </trkpt>
      <trkpt lat="48.49099" lon="-3.49233">
        <ele>284</ele>
        <time>2013-02-24T12:46:52.1Z</time>
      </trkpt>
      <trkpt lat="48.49099" lon="-3.49236">
        <ele>284</ele>
        <time>2013-02-24T12:46:54.1Z</time>
      </trkpt>
      <trkpt lat="48.49099" lon="-3.49239">
        <ele>284</ele>
        <time>2013-02-24T12:46:56.1Z</time>
      </trkpt>
      <trkpt lat="48.49099" lon="-3.49241">
        <ele>284</ele>
        <time>2013-02-24T12:46:58.1Z</time>
      </trkpt>
      <trkpt lat="48.49098" lon="-3.49244">
        <ele>284</ele>
        <time>2013-02-24T12:47:00.1Z</time>
      </trkpt>
      <trkpt lat="48.49098" lon="-3.49248">
        <ele>284</ele>
        <time>2013-02-24T12:47:02.1Z</time>
      </trkpt>
      <trkpt lat="48.49097" lon="-3.4925">
        <ele>284</ele>
        <time>2013-02-24T12:47:04.1Z</time>
      </trkpt>
      <trkpt lat="48.49097" lon="-3.49253">
        <ele>284</ele>
        <time>2013-02-24T12:47:06.1Z</time>
      </trkpt>
      <trkpt lat="48.49096" lon="-3.49257">
        <ele>285</ele>
        <time>2013-02-24T12:47:08.1Z</time>
      </trkpt>
      <trkpt lat="48.49095" lon="-3.4926">
        <ele>285</ele>
        <time>2013-02-24T12:47:10.1Z</time>
      </trkpt>
      <trkpt lat="48.49095" lon="-3.49261">
        <ele>284</ele>
        <time>2013-02-24T12:47:12.1Z</time>
      </trkpt>
      <trkpt lat="48.49094" lon="-3.49262">
        <ele>284</ele>
        <time>2013-02-24T12:47:14.1Z</time>
      </trkpt>
      <trkpt lat="48.49094" lon="-3.49262">
        <ele>284</ele>
        <time>2013-02-24T12:47:16.1Z</time>
      </trkpt>
      <trkpt lat="48.49094" lon="-3.49263">
        <ele>283</ele>
        <time>2013-02-24T12:47:19.1Z</time>
      </trkpt>
      <trkpt lat="48.49094" lon="-3.49264">
        <ele>284</ele>
        <time>2013-02-24T12:47:21.1Z</time>
      </trkpt>
      <trkpt lat="48.49094" lon="-3.49266">
        <ele>284</ele>
        <time>2013-02-24T12:47:23.1Z</time>
      </trkpt>
      <trkpt lat="48.49093" lon="-3.49269">
        <ele>284</ele>
        <time>2013-02-24T12:47:25.1Z</time>
      </trkpt>
      <trkpt lat="48.49092" lon="-3.49272">
        <ele>284</ele>
        <time>2013-02-24T12:47:27.1Z</time>
      </trkpt>
      <trkpt lat="48.49092" lon="-3.49276">
        <ele>284</ele>
        <time>2013-02-24T12:47:29.1Z</time>
      </trkpt>
      <trkpt lat="48.49091" lon="-3.49279">
        <ele>284</ele>
        <time>2013-02-24T12:47:31.1Z</time>
      </trkpt>
      <trkpt lat="48.4909" lon="-3.49285">
        <ele>284</ele>
        <time>2013-02-24T12:47:33.1Z</time>
      </trkpt>
      <trkpt lat="48.4909" lon="-3.49288">
        <ele>284</ele>
        <time>2013-02-24T12:47:35.1Z</time>
      </trkpt>
      <trkpt lat="48.49089" lon="-3.49291">
        <ele>284</ele>
        <time>2013-02-24T12:47:37.1Z</time>
      </trkpt>
      <trkpt lat="48.49089" lon="-3.49294">
        <ele>284</ele>
        <time>2013-02-24T12:47:39.1Z</time>
      </trkpt>
      <trkpt lat="48.49088" lon="-3.49297">
        <ele>283</ele>
        <time>2013-02-24T12:47:41.1Z</time>
      </trkpt>
      <trkpt lat="48.49088" lon="-3.49301">
        <ele>284</ele>
        <time>2013-02-24T12:47:44.1Z</time>
      </trkpt>
      <trkpt lat="48.49087" lon="-3.49304">
        <ele>283</ele>
        <time>2013-02-24T12:47:46.1Z</time>
      </trkpt>
      <trkpt lat="48.49087" lon="-3.49307">
        <ele>283</ele>
        <time>2013-02-24T12:47:48.1Z</time>
      </trkpt>
      <trkpt lat="48.49086" lon="-3.49311">
        <ele>284</ele>
        <time>2013-02-24T12:47:50.1Z</time>
      </trkpt>
      <trkpt lat="48.49086" lon="-3.49314">
        <ele>284</ele>
        <time>2013-02-24T12:47:52.1Z</time>
      </trkpt>
      <trkpt lat="48.49086" lon="-3.49318">
        <ele>284</ele>
        <time>2013-02-24T12:47:54.1Z</time>
      </trkpt>
      <trkpt lat="48.49085" lon="-3.49321">
        <ele>283</ele>
        <time>2013-02-24T12:47:56.1Z</time>
      </trkpt>
      <trkpt lat="48.49084" lon="-3.49324">
        <ele>283</ele>
        <time>2013-02-24T12:47:58.1Z</time>
      </trkpt>
      <trkpt lat="48.49083" lon="-3.49328">
        <ele>283</ele>
        <time>2013-02-24T12:48:00.1Z</time>
      </trkpt>
      <trkpt lat="48.49082" lon="-3.49331">
        <ele>283</ele>
        <time>2013-02-24T12:48:02.1Z</time>
      </trkpt>
      <trkpt lat="48.49082" lon="-3.49335">
        <ele>283</ele>
        <time>2013-02-24T12:48:04.1Z</time>
      </trkpt>
      <trkpt lat="48.49081" lon="-3.49338">
        <ele>283</ele>
        <time>2013-02-24T12:48:06.1Z</time>
      </trkpt>
      <trkpt lat="48.49081" lon="-3.49341">
        <ele>283</ele>
        <time>2013-02-24T12:48:08.1Z</time>
      </trkpt>
      <trkpt lat="48.49081" lon="-3.49344">
        <ele>283</ele>
        <time>2013-02-24T12:48:10.1Z</time>
      </trkpt>
      <trkpt lat="48.4908" lon="-3.49348">
        <ele>283</ele>
        <time>2013-02-24T12:48:12.1Z</time>
      </trkpt>
      <trkpt lat="48.4908" lon="-3.49351">
        <ele>283</ele>
        <time>2013-02-24T12:48:14.1Z</time>
      </trkpt>
      <trkpt lat="48.4908" lon="-3.49354">
        <ele>283</ele>
        <time>2013-02-24T12:48:16.1Z</time>
      </trkpt>
      <trkpt lat="48.49079" lon="-3.49358">
        <ele>283</ele>
        <time>2013-02-24T12:48:18.1Z</time>
      </trkpt>
      <trkpt lat="48.49079" lon="-3.49361">
        <ele>282</ele>
        <time>2013-02-24T12:48:20.1Z</time>
      </trkpt>
      <trkpt lat="48.49078" lon="-3.49366">
        <ele>282</ele>
        <time>2013-02-24T12:48:22.1Z</time>
      </trkpt>
      <trkpt lat="48.49078" lon="-3.4937">
        <ele>282</ele>
        <time>2013-02-24T12:48:24.1Z</time>
      </trkpt>
      <trkpt lat="48.49077" lon="-3.49373">
        <ele>282</ele>
        <time>2013-02-24T12:48:26.1Z</time>
      </trkpt>
      <trkpt lat="48.49077" lon="-3.49376">
        <ele>281</ele>
        <time>2013-02-24T12:48:28.1Z</time>
      </trkpt>
      <trkpt lat="48.49076" lon="-3.4938">
        <ele>281</ele>
        <time>2013-02-24T12:48:30.1Z</time>
      </trkpt>
      <trkpt lat="48.49075" lon="-3.49383">
        <ele>282</ele>
        <time>2013-02-24T12:48:32.1Z</time>
      </trkpt>
      <trkpt lat="48.49075" lon="-3.49386">
        <ele>282</ele>
        <time>2013-02-24T12:48:35.1Z</time>
      </trkpt>
      <trkpt lat="48.49074" lon="-3.49389">
        <ele>281</ele>
        <time>2013-02-24T12:48:37.1Z</time>
      </trkpt>
      <trkpt lat="48.49073" lon="-3.49392">
        <ele>281</ele>
        <time>2013-02-24T12:48:39.1Z</time>
      </trkpt>
      <trkpt lat="48.49073" lon="-3.49395">
        <ele>281</ele>
        <time>2013-02-24T12:48:41.1Z</time>
      </trkpt>
      <trkpt lat="48.49072" lon="-3.49397">
        <ele>281</ele>
        <time>2013-02-24T12:48:43.1Z</time>
      </trkpt>
      <trkpt lat="48.49072" lon="-3.494">
        <ele>281</ele>
        <time>2013-02-24T12:48:45.1Z</time>
      </trkpt>
      <trkpt lat="48.49073" lon="-3.49405">
        <ele>280</ele>
        <time>2013-02-24T12:48:47.1Z</time>
      </trkpt>
      <trkpt lat="48.49073" lon="-3.49408">
        <ele>280</ele>
        <time>2013-02-24T12:48:49.1Z</time>
      </trkpt>
      <trkpt lat="48.49073" lon="-3.49411">
        <ele>280</ele>
        <time>2013-02-24T12:48:51.1Z</time>
      </trkpt>
      <trkpt lat="48.49073" lon="-3.49414">
        <ele>280</ele>
        <time>2013-02-24T12:48:53.1Z</time>
      </trkpt>
      <trkpt lat="48.49073" lon="-3.49416">
        <ele>280</ele>
        <time>2013-02-24T12:48:56.1Z</time>
      </trkpt>
      <trkpt lat="48.49074" lon="-3.49418">
        <ele>280</ele>
        <time>2013-02-24T12:48:58.1Z</time>
      </trkpt>
      <trkpt lat="48.49074" lon="-3.4942">
        <ele>280</ele>
        <time>2013-02-24T12:49:00.1Z</time>
      </trkpt>
      <trkpt lat="48.49075" lon="-3.49422">
        <ele>280</ele>
        <time>2013-02-24T12:49:02.1Z</time>
      </trkpt>
      <trkpt lat="48.49076" lon="-3.49425">
        <ele>279</ele>
        <time>2013-02-24T12:49:04.1Z</time>
      </trkpt>
      <trkpt lat="48.49077" lon="-3.49428">
        <ele>279</ele>
        <time>2013-02-24T12:49:06.1Z</time>
      </trkpt>
      <trkpt lat="48.49078" lon="-3.49432">
        <ele>279</ele>
        <time>2013-02-24T12:49:08.1Z</time>
      </trkpt>
      <trkpt lat="48.49078" lon="-3.49435">
        <ele>279</ele>
        <time>2013-02-24T12:49:10.1Z</time>
      </trkpt>
      <trkpt lat="48.49078" lon="-3.49439">
        <ele>279</ele>
        <time>2013-02-24T12:49:12.1Z</time>
      </trkpt>
      <trkpt lat="48.49078" lon="-3.49441">
        <ele>279</ele>
        <time>2013-02-24T12:49:14.1Z</time>
      </trkpt>
      <trkpt lat="48.49078" lon="-3.49443">
        <ele>279</ele>
        <time>2013-02-24T12:49:16.1Z</time>
      </trkpt>
      <trkpt lat="48.49077" lon="-3.49445">
        <ele>279</ele>
        <time>2013-02-24T12:49:19.1Z</time>
      </trkpt>
      <trkpt lat="48.49077" lon="-3.49448">
        <ele>279</ele>
        <time>2013-02-24T12:49:21.1Z</time>
      </trkpt>
      <trkpt lat="48.49077" lon="-3.49451">
        <ele>279</ele>
        <time>2013-02-24T12:49:23.1Z</time>
      </trkpt>
      <trkpt lat="48.49077" lon="-3.49454">
        <ele>278</ele>
        <time>2013-02-24T12:49:25.1Z</time>
      </trkpt>
      <trkpt lat="48.49077" lon="-3.49457">
        <ele>278</ele>
        <time>2013-02-24T12:49:27.1Z</time>
      </trkpt>
      <trkpt lat="48.49077" lon="-3.4946">
        <ele>278</ele>
        <time>2013-02-24T12:49:29.1Z</time>
      </trkpt>
      <trkpt lat="48.49077" lon="-3.49462">
        <ele>278</ele>
        <time>2013-02-24T12:49:31.1Z</time>
      </trkpt>
      <trkpt lat="48.49078" lon="-3.49465">
        <ele>278</ele>
        <time>2013-02-24T12:49:33.1Z</time>
      </trkpt>
      <trkpt lat="48.49078" lon="-3.49469">
        <ele>278</ele>
        <time>2013-02-24T12:49:35.1Z</time>
      </trkpt>
      <trkpt lat="48.49078" lon="-3.49472">
        <ele>278</ele>
        <time>2013-02-24T12:49:37.1Z</time>
      </trkpt>
      <trkpt lat="48.49078" lon="-3.49475">
        <ele>278</ele>
        <time>2013-02-24T12:49:39.1Z</time>
      </trkpt>
      <trkpt lat="48.49078" lon="-3.49477">
        <ele>278</ele>
        <time>2013-02-24T12:49:41.1Z</time>
      </trkpt>
      <trkpt lat="48.49079" lon="-3.4948">
        <ele>278</ele>
        <time>2013-02-24T12:49:43.1Z</time>
      </trkpt>
      <trkpt lat="48.4908" lon="-3.49484">
        <ele>278</ele>
        <time>2013-02-24T12:49:45.1Z</time>
      </trkpt>
      <trkpt lat="48.49081" lon="-3.49487">
        <ele>277</ele>
        <time>2013-02-24T12:49:47.1Z</time>
      </trkpt>
      <trkpt lat="48.49081" lon="-3.49489">
        <ele>277</ele>
        <time>2013-02-24T12:49:49.1Z</time>
      </trkpt>
      <trkpt lat="48.49081" lon="-3.49492">
        <ele>277</ele>
        <time>2013-02-24T12:49:52.1Z</time>
      </trkpt>
      <trkpt lat="48.49082" lon="-3.49495">
        <ele>277</ele>
        <time>2013-02-24T12:49:54.1Z</time>
      </trkpt>
      <trkpt lat="48.49083" lon="-3.49497">
        <ele>277</ele>
        <time>2013-02-24T12:49:56.1Z</time>
      </trkpt>
      <trkpt lat="48.49082" lon="-3.49499">
        <ele>277</ele>
        <time>2013-02-24T12:49:58.1Z</time>
      </trkpt>
      <trkpt lat="48.49082" lon="-3.495">
        <ele>277</ele>
        <time>2013-02-24T12:50:00.1Z</time>
      </trkpt>
      <trkpt lat="48.49082" lon="-3.49501">
        <ele>277</ele>
        <time>2013-02-24T12:50:02.1Z</time>
      </trkpt>
      <trkpt lat="48.49081" lon="-3.49503">
        <ele>277</ele>
        <time>2013-02-24T12:50:04.1Z</time>
      </trkpt>
      <trkpt lat="48.49082" lon="-3.49506">
        <ele>277</ele>
        <time>2013-02-24T12:50:06.1Z</time>
      </trkpt>
      <trkpt lat="48.49082" lon="-3.49509">
        <ele>277</ele>
        <time>2013-02-24T12:50:09.1Z</time>
      </trkpt>
      <trkpt lat="48.49081" lon="-3.4951">
        <ele>276</ele>
        <time>2013-02-24T12:50:11.1Z</time>
      </trkpt>
      <trkpt lat="48.49081" lon="-3.49511">
        <ele>276</ele>
        <time>2013-02-24T12:50:13.1Z</time>
      </trkpt>
      <trkpt lat="48.49081" lon="-3.49511">
        <ele>276</ele>
        <time>2013-02-24T12:50:15.1Z</time>
      </trkpt>
      <trkpt lat="48.49081" lon="-3.49513">
        <ele>276</ele>
        <time>2013-02-24T12:50:17.1Z</time>
      </trkpt>
      <trkpt lat="48.4908" lon="-3.49513">
        <ele>277</ele>
        <time>2013-02-24T12:50:19.1Z</time>
      </trkpt>
      <trkpt lat="48.4908" lon="-3.49514">
        <ele>277</ele>
        <time>2013-02-24T12:50:21.1Z</time>
      </trkpt>
      <trkpt lat="48.49079" lon="-3.49515">
        <ele>277</ele>
        <time>2013-02-24T12:50:23.1Z</time>
      </trkpt>
      <trkpt lat="48.49079" lon="-3.49516">
        <ele>276</ele>
        <time>2013-02-24T12:50:25.1Z</time>
      </trkpt>
      <trkpt lat="48.49078" lon="-3.49517">
        <ele>276</ele>
        <time>2013-02-24T12:50:27.1Z</time>
      </trkpt>
      <trkpt lat="48.49078" lon="-3.49518">
        <ele>276</ele>
        <time>2013-02-24T12:50:29.1Z</time>
      </trkpt>
      <trkpt lat="48.49077" lon="-3.49518">
        <ele>277</ele>
        <time>2013-02-24T12:50:31.1Z</time>
      </trkpt>
      <trkpt lat="48.49077" lon="-3.49518">
        <ele>277</ele>
        <time>2013-02-24T12:50:33.1Z</time>
      </trkpt>
      <trkpt lat="48.49077" lon="-3.49519">
        <ele>277</ele>
        <time>2013-02-24T12:50:35.1Z</time>
      </trkpt>
      <trkpt lat="48.49076" lon="-3.49519">
        <ele>277</ele>
        <time>2013-02-24T12:50:38.1Z</time>
      </trkpt>
      <trkpt lat="48.49076" lon="-3.49519">
        <ele>277</ele>
        <time>2013-02-24T12:50:40.1Z</time>
      </trkpt>
      <trkpt lat="48.49076" lon="-3.49519">
        <ele>276</ele>
        <time>2013-02-24T12:50:42.1Z</time>
      </trkpt>
      <trkpt lat="48.49076" lon="-3.49519">
        <ele>276</ele>
        <time>2013-02-24T12:50:44.1Z</time>
      </trkpt>
      <trkpt lat="48.49076" lon="-3.4952">
        <ele>276</ele>
        <time>2013-02-24T12:50:46.1Z</time>
      </trkpt>
      <trkpt lat="48.49077" lon="-3.49521">
        <ele>276</ele>
        <time>2013-02-24T12:50:48.1Z</time>
      </trkpt>
      <trkpt lat="48.49077" lon="-3.49522">
        <ele>276</ele>
        <time>2013-02-24T12:50:50.1Z</time>
      </trkpt>
      <trkpt lat="48.49077" lon="-3.49524">
        <ele>276</ele>
        <time>2013-02-24T12:50:52.1Z</time>
      </trkpt>
      <trkpt lat="48.49077" lon="-3.49525">
        <ele>276</ele>
        <time>2013-02-24T12:50:54.1Z</time>
      </trkpt>
      <trkpt lat="48.49077" lon="-3.49527">
        <ele>276</ele>
        <time>2013-02-24T12:50:56.1Z</time>
      </trkpt>
      <trkpt lat="48.49077" lon="-3.49527">
        <ele>275</ele>
        <time>2013-02-24T12:50:58.1Z</time>
      </trkpt>
      <trkpt lat="48.49078" lon="-3.49526">
        <ele>275</ele>
        <time>2013-02-24T12:51:01.1Z</time>
      </trkpt>
      <trkpt lat="48.49078" lon="-3.49526">
        <ele>275</ele>
        <time>2013-02-24T12:51:03.1Z</time>
      </trkpt>
      <trkpt lat="48.49078" lon="-3.49525">
        <ele>276</ele>
        <time>2013-02-24T12:51:05.1Z</time>
      </trkpt>
      <trkpt lat="48.49079" lon="-3.49525">
        <ele>276</ele>
        <time>2013-02-24T12:51:07.1Z</time>
      </trkpt>
      <trkpt lat="48.49079" lon="-3.49523">
        <ele>276</ele>
        <time>2013-02-24T12:51:09.1Z</time>
      </trkpt>
      <trkpt lat="48.49079" lon="-3.49521">
        <ele>276</ele>
        <time>2013-02-24T12:51:11.1Z</time>
      </trkpt>
      <trkpt lat="48.49079" lon="-3.49519">
        <ele>276</ele>
        <time>2013-02-24T12:51:13.1Z</time>
      </trkpt>
      <trkpt lat="48.4908" lon="-3.49516">
        <ele>276</ele>
        <time>2013-02-24T12:51:15.1Z</time>
      </trkpt>
      <trkpt lat="48.4908" lon="-3.49515">
        <ele>276</ele>
        <time>2013-02-24T12:51:17.1Z</time>
      </trkpt>
      <trkpt lat="48.4908" lon="-3.49513">
        <ele>276</ele>
        <time>2013-02-24T12:51:19.1Z</time>
      </trkpt>
      <trkpt lat="48.4908" lon="-3.49513">
        <ele>276</ele>
        <time>2013-02-24T12:51:22.1Z</time>
      </trkpt>
      <trkpt lat="48.49081" lon="-3.49513">
        <ele>277</ele>
        <time>2013-02-24T12:51:24.1Z</time>
      </trkpt>
      <trkpt lat="48.49081" lon="-3.49513">
        <ele>277</ele>
        <time>2013-02-24T12:51:26.1Z</time>
      </trkpt>
      <trkpt lat="48.49081" lon="-3.49513">
        <ele>277</ele>
        <time>2013-02-24T12:51:28.1Z</time>
      </trkpt>
      <trkpt lat="48.49082" lon="-3.49512">
        <ele>276</ele>
        <time>2013-02-24T12:51:30.1Z</time>
      </trkpt>
      <trkpt lat="48.49082" lon="-3.49512">
        <ele>276</ele>
        <time>2013-02-24T12:51:32.1Z</time>
      </trkpt>
      <trkpt lat="48.49083" lon="-3.49511">
        <ele>276</ele>
        <time>2013-02-24T12:51:34.1Z</time>
      </trkpt>
      <trkpt lat="48.49083" lon="-3.49512">
        <ele>276</ele>
        <time>2013-02-24T12:51:37.1Z</time>
      </trkpt>
      <trkpt lat="48.49082" lon="-3.49514">
        <ele>275</ele>
        <time>2013-02-24T12:51:39.1Z</time>
      </trkpt>
      <trkpt lat="48.49082" lon="-3.49516">
        <ele>275</ele>
        <time>2013-02-24T12:51:41.1Z</time>
      </trkpt>
      <trkpt lat="48.49083" lon="-3.49517">
        <ele>276</ele>
        <time>2013-02-24T12:51:43.1Z</time>
      </trkpt>
      <trkpt lat="48.49083" lon="-3.49519">
        <ele>276</ele>
        <time>2013-02-24T12:51:45.1Z</time>
      </trkpt>
      <trkpt lat="48.49083" lon="-3.49519">
        <ele>276</ele>
        <time>2013-02-24T12:51:47.1Z</time>
      </trkpt>
      <trkpt lat="48.49082" lon="-3.49521">
        <ele>276</ele>
        <time>2013-02-24T12:51:49.1Z</time>
      </trkpt>
      <trkpt lat="48.49082" lon="-3.49524">
        <ele>276</ele>
        <time>2013-02-24T12:51:51.1Z</time>
      </trkpt>
      <trkpt lat="48.49081" lon="-3.49529">
        <ele>276</ele>
        <time>2013-02-24T12:51:53.1Z</time>
      </trkpt>
      <trkpt lat="48.49081" lon="-3.49532">
        <ele>275</ele>
        <time>2013-02-24T12:51:55.1Z</time>
      </trkpt>
      <trkpt lat="48.49081" lon="-3.49535">
        <ele>275</ele>
        <time>2013-02-24T12:51:57.1Z</time>
      </trkpt>
      <trkpt lat="48.4908" lon="-3.49537">
        <ele>275</ele>
        <time>2013-02-24T12:52:00.1Z</time>
      </trkpt>
      <trkpt lat="48.4908" lon="-3.49539">
        <ele>275</ele>
        <time>2013-02-24T12:52:02.1Z</time>
      </trkpt>
      <trkpt lat="48.4908" lon="-3.49542">
        <ele>275</ele>
        <time>2013-02-24T12:52:04.1Z</time>
      </trkpt>
      <trkpt lat="48.49079" lon="-3.49545">
        <ele>275</ele>
        <time>2013-02-24T12:52:06.1Z</time>
      </trkpt>
      <trkpt lat="48.4908" lon="-3.49547">
        <ele>274</ele>
        <time>2013-02-24T12:52:08.1Z</time>
      </trkpt>
      <trkpt lat="48.49081" lon="-3.4955">
        <ele>274</ele>
        <time>2013-02-24T12:52:10.1Z</time>
      </trkpt>
      <trkpt lat="48.4908" lon="-3.49553">
        <ele>274</ele>
        <time>2013-02-24T12:52:12.1Z</time>
      </trkpt>
      <trkpt lat="48.4908" lon="-3.49555">
        <ele>273</ele>
        <time>2013-02-24T12:52:14.1Z</time>
      </trkpt>
      <trkpt lat="48.4908" lon="-3.49558">
        <ele>273</ele>
        <time>2013-02-24T12:52:16.1Z</time>
      </trkpt>
      <trkpt lat="48.49079" lon="-3.49561">
        <ele>273</ele>
        <time>2013-02-24T12:52:18.1Z</time>
      </trkpt>
      <trkpt lat="48.49079" lon="-3.49565">
        <ele>273</ele>
        <time>2013-02-24T12:52:20.1Z</time>
      </trkpt>
      <trkpt lat="48.49079" lon="-3.49568">
        <ele>273</ele>
        <time>2013-02-24T12:52:22.1Z</time>
      </trkpt>
      <trkpt lat="48.49079" lon="-3.49571">
        <ele>273</ele>
        <time>2013-02-24T12:52:24.1Z</time>
      </trkpt>
      <trkpt lat="48.49079" lon="-3.49574">
        <ele>273</ele>
        <time>2013-02-24T12:52:26.1Z</time>
      </trkpt>
      <trkpt lat="48.4908" lon="-3.49578">
        <ele>272</ele>
        <time>2013-02-24T12:52:28.1Z</time>
      </trkpt>
      <trkpt lat="48.4908" lon="-3.49581">
        <ele>272</ele>
        <time>2013-02-24T12:52:30.1Z</time>
      </trkpt>
      <trkpt lat="48.4908" lon="-3.49584">
        <ele>272</ele>
        <time>2013-02-24T12:52:33.1Z</time>
      </trkpt>
      <trkpt lat="48.4908" lon="-3.49588">
        <ele>271</ele>
        <time>2013-02-24T12:52:35.1Z</time>
      </trkpt>
      <trkpt lat="48.4908" lon="-3.49592">
        <ele>271</ele>
        <time>2013-02-24T12:52:37.1Z</time>
      </trkpt>
      <trkpt lat="48.49081" lon="-3.49595">
        <ele>271</ele>
        <time>2013-02-24T12:52:39.1Z</time>
      </trkpt>
      <trkpt lat="48.49081" lon="-3.49599">
        <ele>270</ele>
        <time>2013-02-24T12:52:41.1Z</time>
      </trkpt>
      <trkpt lat="48.49081" lon="-3.49602">
        <ele>270</ele>
        <time>2013-02-24T12:52:43.1Z</time>
      </trkpt>
      <trkpt lat="48.4908" lon="-3.49605">
        <ele>270</ele>
        <time>2013-02-24T12:52:45.1Z</time>
      </trkpt>
      <trkpt lat="48.4908" lon="-3.49608">
        <ele>270</ele>
        <time>2013-02-24T12:52:47.1Z</time>
      </trkpt>
      <trkpt lat="48.49079" lon="-3.49612">
        <ele>270</ele>
        <time>2013-02-24T12:52:49.1Z</time>
      </trkpt>
      <trkpt lat="48.4908" lon="-3.49618">
        <ele>270</ele>
        <time>2013-02-24T12:52:51.1Z</time>
      </trkpt>
      <trkpt lat="48.49079" lon="-3.49622">
        <ele>270</ele>
        <time>2013-02-24T12:52:53.1Z</time>
      </trkpt>
      <trkpt lat="48.49079" lon="-3.49625">
        <ele>270</ele>
        <time>2013-02-24T12:52:55.1Z</time>
      </trkpt>
      <trkpt lat="48.49079" lon="-3.49629">
        <ele>269</ele>
        <time>2013-02-24T12:52:57.1Z</time>
      </trkpt>
      <trkpt lat="48.49078" lon="-3.49633">
        <ele>269</ele>
        <time>2013-02-24T12:53:00.1Z</time>
      </trkpt>
      <trkpt lat="48.49078" lon="-3.49636">
        <ele>269</ele>
        <time>2013-02-24T12:53:02.1Z</time>
      </trkpt>
      <trkpt lat="48.49078" lon="-3.49639">
        <ele>268</ele>
        <time>2013-02-24T12:53:04.1Z</time>
      </trkpt>
      <trkpt lat="48.49077" lon="-3.49642">
        <ele>268</ele>
        <time>2013-02-24T12:53:06.1Z</time>
      </trkpt>
      <trkpt lat="48.49076" lon="-3.49645">
        <ele>268</ele>
        <time>2013-02-24T12:53:08.1Z</time>
      </trkpt>
      <trkpt lat="48.49076" lon="-3.49649">
        <ele>268</ele>
        <time>2013-02-24T12:53:10.1Z</time>
      </trkpt>
      <trkpt lat="48.49076" lon="-3.49652">
        <ele>268</ele>
        <time>2013-02-24T12:53:12.1Z</time>
      </trkpt>
      <trkpt lat="48.49076" lon="-3.49656">
        <ele>268</ele>
        <time>2013-02-24T12:53:14.1Z</time>
      </trkpt>
      <trkpt lat="48.49076" lon="-3.49661">
        <ele>268</ele>
        <time>2013-02-24T12:53:16.1Z</time>
      </trkpt>
      <trkpt lat="48.49076" lon="-3.49665">
        <ele>268</ele>
        <time>2013-02-24T12:53:19.1Z</time>
      </trkpt>
      <trkpt lat="48.49076" lon="-3.49668">
        <ele>267</ele>
        <time>2013-02-24T12:53:21.1Z</time>
      </trkpt>
      <trkpt lat="48.49076" lon="-3.49671">
        <ele>267</ele>
        <time>2013-02-24T12:53:23.1Z</time>
      </trkpt>
      <trkpt lat="48.49076" lon="-3.49675">
        <ele>267</ele>
        <time>2013-02-24T12:53:25.1Z</time>
      </trkpt>
      <trkpt lat="48.49076" lon="-3.49678">
        <ele>266</ele>
        <time>2013-02-24T12:53:27.1Z</time>
      </trkpt>
      <trkpt lat="48.49077" lon="-3.49682">
        <ele>266</ele>
        <time>2013-02-24T12:53:29.1Z</time>
      </trkpt>
      <trkpt lat="48.49077" lon="-3.49686">
        <ele>266</ele>
        <time>2013-02-24T12:53:31.1Z</time>
      </trkpt>
      <trkpt lat="48.49076" lon="-3.4969">
        <ele>265</ele>
        <time>2013-02-24T12:53:33.1Z</time>
      </trkpt>
      <trkpt lat="48.49076" lon="-3.49693">
        <ele>265</ele>
        <time>2013-02-24T12:53:35.1Z</time>
      </trkpt>
      <trkpt lat="48.49076" lon="-3.49697">
        <ele>265</ele>
        <time>2013-02-24T12:53:37.1Z</time>
      </trkpt>
      <trkpt lat="48.49076" lon="-3.497">
        <ele>264</ele>
        <time>2013-02-24T12:53:40.1Z</time>
      </trkpt>
      <trkpt lat="48.49076" lon="-3.49703">
        <ele>264</ele>
        <time>2013-02-24T12:53:42.1Z</time>
      </trkpt>
      <trkpt lat="48.49076" lon="-3.49706">
        <ele>264</ele>
        <time>2013-02-24T12:53:44.1Z</time>
      </trkpt>
      <trkpt lat="48.49076" lon="-3.4971">
        <ele>264</ele>
        <time>2013-02-24T12:53:46.1Z</time>
      </trkpt>
      <trkpt lat="48.49075" lon="-3.49714">
        <ele>264</ele>
        <time>2013-02-24T12:53:48.1Z</time>
      </trkpt>
      <trkpt lat="48.49075" lon="-3.49716">
        <ele>264</ele>
        <time>2013-02-24T12:53:50.1Z</time>
      </trkpt>
      <trkpt lat="48.49074" lon="-3.49719">
        <ele>263</ele>
        <time>2013-02-24T12:53:52.1Z</time>
      </trkpt>
      <trkpt lat="48.49074" lon="-3.49725">
        <ele>263</ele>
        <time>2013-02-24T12:53:54.1Z</time>
      </trkpt>
      <trkpt lat="48.49074" lon="-3.49728">
        <ele>262</ele>
        <time>2013-02-24T12:53:56.1Z</time>
      </trkpt>
      <trkpt lat="48.49074" lon="-3.49732">
        <ele>262</ele>
        <time>2013-02-24T12:53:58.1Z</time>
      </trkpt>
      <trkpt lat="48.49073" lon="-3.49736">
        <ele>262</ele>
        <time>2013-02-24T12:54:00.1Z</time>
      </trkpt>
      <trkpt lat="48.49073" lon="-3.4974">
        <ele>262</ele>
        <time>2013-02-24T12:54:02.1Z</time>
      </trkpt>
      <trkpt lat="48.49072" lon="-3.49743">
        <ele>262</ele>
        <time>2013-02-24T12:54:05.1Z</time>
      </trkpt>
      <trkpt lat="48.49072" lon="-3.49746">
        <ele>262</ele>
        <time>2013-02-24T12:54:07.1Z</time>
      </trkpt>
      <trkpt lat="48.49073" lon="-3.49748">
        <ele>261</ele>
        <time>2013-02-24T12:54:09.1Z</time>
      </trkpt>
      <trkpt lat="48.49072" lon="-3.49751">
        <ele>261</ele>
        <time>2013-02-24T12:54:11.1Z</time>
      </trkpt>
      <trkpt lat="48.49072" lon="-3.49755">
        <ele>261</ele>
        <time>2013-02-24T12:54:13.1Z</time>
      </trkpt>
      <trkpt lat="48.49072" lon="-3.49757">
        <ele>260</ele>
        <time>2013-02-24T12:54:15.1Z</time>
      </trkpt>
      <trkpt lat="48.49072" lon="-3.49759">
        <ele>260</ele>
        <time>2013-02-24T12:54:17.1Z</time>
      </trkpt>
      <trkpt lat="48.49073" lon="-3.49762">
        <ele>260</ele>
        <time>2013-02-24T12:54:19.1Z</time>
      </trkpt>
      <trkpt lat="48.49072" lon="-3.49766">
        <ele>260</ele>
        <time>2013-02-24T12:54:21.1Z</time>
      </trkpt>
      <trkpt lat="48.49072" lon="-3.49768">
        <ele>260</ele>
        <time>2013-02-24T12:54:23.1Z</time>
      </trkpt>
      <trkpt lat="48.49072" lon="-3.49771">
        <ele>260</ele>
        <time>2013-02-24T12:54:25.1Z</time>
      </trkpt>
      <trkpt lat="48.49072" lon="-3.49775">
        <ele>260</ele>
        <time>2013-02-24T12:54:27.1Z</time>
      </trkpt>
      <trkpt lat="48.49072" lon="-3.4978">
        <ele>260</ele>
        <time>2013-02-24T12:54:29.1Z</time>
      </trkpt>
      <trkpt lat="48.49072" lon="-3.49783">
        <ele>259</ele>
        <time>2013-02-24T12:54:31.1Z</time>
      </trkpt>
      <trkpt lat="48.49072" lon="-3.49786">
        <ele>259</ele>
        <time>2013-02-24T12:54:33.1Z</time>
      </trkpt>
      <trkpt lat="48.49072" lon="-3.4979">
        <ele>259</ele>
        <time>2013-02-24T12:54:35.1Z</time>
      </trkpt>
      <trkpt lat="48.49071" lon="-3.49794">
        <ele>259</ele>
        <time>2013-02-24T12:54:37.1Z</time>
      </trkpt>
      <trkpt lat="48.49071" lon="-3.49798">
        <ele>259</ele>
        <time>2013-02-24T12:54:40.1Z</time>
      </trkpt>
      <trkpt lat="48.49071" lon="-3.49801">
        <ele>259</ele>
        <time>2013-02-24T12:54:42.1Z</time>
      </trkpt>
      <trkpt lat="48.4907" lon="-3.49805">
        <ele>259</ele>
        <time>2013-02-24T12:54:44.1Z</time>
      </trkpt>
      <trkpt lat="48.4907" lon="-3.49809">
        <ele>258</ele>
        <time>2013-02-24T12:54:46.1Z</time>
      </trkpt>
      <trkpt lat="48.4907" lon="-3.49813">
        <ele>258</ele>
        <time>2013-02-24T12:54:48.1Z</time>
      </trkpt>
      <trkpt lat="48.49069" lon="-3.49816">
        <ele>258</ele>
        <time>2013-02-24T12:54:50.1Z</time>
      </trkpt>
      <trkpt lat="48.49069" lon="-3.4982">
        <ele>258</ele>
        <time>2013-02-24T12:54:52.1Z</time>
      </trkpt>
      <trkpt lat="48.49069" lon="-3.49824">
        <ele>258</ele>
        <time>2013-02-24T12:54:54.1Z</time>
      </trkpt>
      <trkpt lat="48.49069" lon="-3.49828">
        <ele>258</ele>
        <time>2013-02-24T12:54:56.1Z</time>
      </trkpt>
      <trkpt lat="48.49069" lon="-3.49832">
        <ele>258</ele>
        <time>2013-02-24T12:54:58.1Z</time>
      </trkpt>
      <trkpt lat="48.49068" lon="-3.49833">
        <ele>257</ele>
        <time>2013-02-24T12:55:00.1Z</time>
      </trkpt>
      <trkpt lat="48.49067" lon="-3.49839">
        <ele>257</ele>
        <time>2013-02-24T12:55:02.1Z</time>
      </trkpt>
      <trkpt lat="48.49066" lon="-3.49843">
        <ele>257</ele>
        <time>2013-02-24T12:55:04.1Z</time>
      </trkpt>
      <trkpt lat="48.49065" lon="-3.49846">
        <ele>257</ele>
        <time>2013-02-24T12:55:06.1Z</time>
      </trkpt>
      <trkpt lat="48.49065" lon="-3.4985">
        <ele>257</ele>
        <time>2013-02-24T12:55:08.1Z</time>
      </trkpt>
      <trkpt lat="48.49065" lon="-3.49854">
        <ele>257</ele>
        <time>2013-02-24T12:55:10.1Z</time>
      </trkpt>
      <trkpt lat="48.49065" lon="-3.49857">
        <ele>256</ele>
        <time>2013-02-24T12:55:12.1Z</time>
      </trkpt>
      <trkpt lat="48.49064" lon="-3.49862">
        <ele>256</ele>
        <time>2013-02-24T12:55:15.1Z</time>
      </trkpt>
      <trkpt lat="48.49064" lon="-3.49865">
        <ele>256</ele>
        <time>2013-02-24T12:55:17.1Z</time>
      </trkpt>
      <trkpt lat="48.49064" lon="-3.49869">
        <ele>256</ele>
        <time>2013-02-24T12:55:19.1Z</time>
      </trkpt>
      <trkpt lat="48.49064" lon="-3.49873">
        <ele>256</ele>
        <time>2013-02-24T12:55:21.1Z</time>
      </trkpt>
      <trkpt lat="48.49064" lon="-3.49876">
        <ele>256</ele>
        <time>2013-02-24T12:55:23.1Z</time>
      </trkpt>
      <trkpt lat="48.49064" lon="-3.4988">
        <ele>256</ele>
        <time>2013-02-24T12:55:25.1Z</time>
      </trkpt>
      <trkpt lat="48.49063" lon="-3.49884">
        <ele>256</ele>
        <time>2013-02-24T12:55:27.1Z</time>
      </trkpt>
      <trkpt lat="48.49063" lon="-3.49887">
        <ele>256</ele>
        <time>2013-02-24T12:55:29.1Z</time>
      </trkpt>
      <trkpt lat="48.49063" lon="-3.4989">
        <ele>256</ele>
        <time>2013-02-24T12:55:31.1Z</time>
      </trkpt>
      <trkpt lat="48.49063" lon="-3.49893">
        <ele>256</ele>
        <time>2013-02-24T12:55:33.1Z</time>
      </trkpt>
      <trkpt lat="48.49063" lon="-3.49897">
        <ele>256</ele>
        <time>2013-02-24T12:55:35.1Z</time>
      </trkpt>
      <trkpt lat="48.49063" lon="-3.49903">
        <ele>256</ele>
        <time>2013-02-24T12:55:37.1Z</time>
      </trkpt>
      <trkpt lat="48.49063" lon="-3.49906">
        <ele>256</ele>
        <time>2013-02-24T12:55:39.1Z</time>
      </trkpt>
      <trkpt lat="48.49063" lon="-3.49909">
        <ele>256</ele>
        <time>2013-02-24T12:55:41.1Z</time>
      </trkpt>
      <trkpt lat="48.49063" lon="-3.49913">
        <ele>256</ele>
        <time>2013-02-24T12:55:44.1Z</time>
      </trkpt>
      <trkpt lat="48.49063" lon="-3.49916">
        <ele>255</ele>
        <time>2013-02-24T12:55:46.1Z</time>
      </trkpt>
      <trkpt lat="48.49062" lon="-3.49919">
        <ele>255</ele>
        <time>2013-02-24T12:55:48.1Z</time>
      </trkpt>
      <trkpt lat="48.49061" lon="-3.49922">
        <ele>255</ele>
        <time>2013-02-24T12:55:50.1Z</time>
      </trkpt>
      <trkpt lat="48.49061" lon="-3.49926">
        <ele>255</ele>
        <time>2013-02-24T12:55:52.1Z</time>
      </trkpt>
      <trkpt lat="48.4906" lon="-3.49929">
        <ele>254</ele>
        <time>2013-02-24T12:55:54.1Z</time>
      </trkpt>
      <trkpt lat="48.4906" lon="-3.49933">
        <ele>254</ele>
        <time>2013-02-24T12:55:56.1Z</time>
      </trkpt>
      <trkpt lat="48.4906" lon="-3.49936">
        <ele>254</ele>
        <time>2013-02-24T12:55:58.1Z</time>
      </trkpt>
      <trkpt lat="48.49059" lon="-3.4994">
        <ele>254</ele>
        <time>2013-02-24T12:56:00.1Z</time>
      </trkpt>
      <trkpt lat="48.49059" lon="-3.49944">
        <ele>254</ele>
        <time>2013-02-24T12:56:02.1Z</time>
      </trkpt>
      <trkpt lat="48.49059" lon="-3.49948">
        <ele>253</ele>
        <time>2013-02-24T12:56:04.1Z</time>
      </trkpt>
      <trkpt lat="48.49059" lon="-3.49951">
        <ele>253</ele>
        <time>2013-02-24T12:56:06.1Z</time>
      </trkpt>
      <trkpt lat="48.49058" lon="-3.49955">
        <ele>253</ele>
        <time>2013-02-24T12:56:08.1Z</time>
      </trkpt>
      <trkpt lat="48.49058" lon="-3.49958">
        <ele>252</ele>
        <time>2013-02-24T12:56:11.1Z</time>
      </trkpt>
      <trkpt lat="48.49057" lon="-3.49962">
        <ele>252</ele>
        <time>2013-02-24T12:56:13.1Z</time>
      </trkpt>
      <trkpt lat="48.49057" lon="-3.49966">
        <ele>252</ele>
        <time>2013-02-24T12:56:15.1Z</time>
      </trkpt>
      <trkpt lat="48.49057" lon="-3.49968">
        <ele>251</ele>
        <time>2013-02-24T12:56:17.1Z</time>
      </trkpt>
      <trkpt lat="48.49057" lon="-3.49971">
        <ele>251</ele>
        <time>2013-02-24T12:56:19.1Z</time>
      </trkpt>
      <trkpt lat="48.49057" lon="-3.49974">
        <ele>251</ele>
        <time>2013-02-24T12:56:21.1Z</time>
      </trkpt>
      <trkpt lat="48.49057" lon="-3.49978">
        <ele>250</ele>
        <time>2013-02-24T12:56:23.1Z</time>
      </trkpt>
      <trkpt lat="48.49057" lon="-3.49983">
        <ele>250</ele>
        <time>2013-02-24T12:56:25.1Z</time>
      </trkpt>
      <trkpt lat="48.49057" lon="-3.49987">
        <ele>250</ele>
        <time>2013-02-24T12:56:27.1Z</time>
      </trkpt>
      <trkpt lat="48.49058" lon="-3.4999">
        <ele>250</ele>
        <time>2013-02-24T12:56:29.1Z</time>
      </trkpt>
      <trkpt lat="48.49058" lon="-3.49993">
        <ele>250</ele>
        <time>2013-02-24T12:56:32.1Z</time>
      </trkpt>
      <trkpt lat="48.49057" lon="-3.49997">
        <ele>249</ele>
        <time>2013-02-24T12:56:34.1Z</time>
      </trkpt>
      <trkpt lat="48.49057" lon="-3.50002">
        <ele>249</ele>
        <time>2013-02-24T12:56:36.1Z</time>
      </trkpt>
      <trkpt lat="48.49057" lon="-3.50006">
        <ele>249</ele>
        <time>2013-02-24T12:56:38.1Z</time>
      </trkpt>
      <trkpt lat="48.49057" lon="-3.50009">
        <ele>249</ele>
        <time>2013-02-24T12:56:40.1Z</time>
      </trkpt>
      <trkpt lat="48.49057" lon="-3.50013">
        <ele>249</ele>
        <time>2013-02-24T12:56:42.1Z</time>
      </trkpt>
      <trkpt lat="48.49057" lon="-3.50017">
        <ele>249</ele>
        <time>2013-02-24T12:56:44.1Z</time>
      </trkpt>
      <trkpt lat="48.49057" lon="-3.50021">
        <ele>248</ele>
        <time>2013-02-24T12:56:46.1Z</time>
      </trkpt>
      <trkpt lat="48.49056" lon="-3.50026">
        <ele>248</ele>
        <time>2013-02-24T12:56:48.1Z</time>
      </trkpt>
      <trkpt lat="48.49056" lon="-3.5003">
        <ele>248</ele>
        <time>2013-02-24T12:56:50.1Z</time>
      </trkpt>
      <trkpt lat="48.49056" lon="-3.50033">
        <ele>248</ele>
        <time>2013-02-24T12:56:52.1Z</time>
      </trkpt>
      <trkpt lat="48.49056" lon="-3.50036">
        <ele>247</ele>
        <time>2013-02-24T12:56:54.1Z</time>
      </trkpt>
      <trkpt lat="48.49055" lon="-3.5004">
        <ele>247</ele>
        <time>2013-02-24T12:56:56.1Z</time>
      </trkpt>
      <trkpt lat="48.49055" lon="-3.50043">
        <ele>247</ele>
        <time>2013-02-24T12:56:58.1Z</time>
      </trkpt>
      <trkpt lat="48.49055" lon="-3.50046">
        <ele>247</ele>
        <time>2013-02-24T12:57:00.1Z</time>
      </trkpt>
      <trkpt lat="48.49055" lon="-3.5005">
        <ele>246</ele>
        <time>2013-02-24T12:57:02.1Z</time>
      </trkpt>
      <trkpt lat="48.49055" lon="-3.50055">
        <ele>246</ele>
        <time>2013-02-24T12:57:05.1Z</time>
      </trkpt>
      <trkpt lat="48.49054" lon="-3.50059">
        <ele>246</ele>
        <time>2013-02-24T12:57:07.1Z</time>
      </trkpt>
      <trkpt lat="48.49054" lon="-3.50063">
        <ele>246</ele>
        <time>2013-02-24T12:57:09.1Z</time>
      </trkpt>
      <trkpt lat="48.49053" lon="-3.50067">
        <ele>246</ele>
        <time>2013-02-24T12:57:11.1Z</time>
      </trkpt>
      <trkpt lat="48.49053" lon="-3.50071">
        <ele>245</ele>
        <time>2013-02-24T12:57:13.1Z</time>
      </trkpt>
      <trkpt lat="48.49053" lon="-3.50074">
        <ele>245</ele>
        <time>2013-02-24T12:57:15.1Z</time>
      </trkpt>
      <trkpt lat="48.49053" lon="-3.50078">
        <ele>245</ele>
        <time>2013-02-24T12:57:17.1Z</time>
      </trkpt>
      <trkpt lat="48.49052" lon="-3.50082">
        <ele>245</ele>
        <time>2013-02-24T12:57:19.1Z</time>
      </trkpt>
      <trkpt lat="48.49052" lon="-3.50086">
        <ele>245</ele>
        <time>2013-02-24T12:57:21.1Z</time>
      </trkpt>
      <trkpt lat="48.49052" lon="-3.50091">
        <ele>245</ele>
        <time>2013-02-24T12:57:23.1Z</time>
      </trkpt>
      <trkpt lat="48.49052" lon="-3.50095">
        <ele>244</ele>
        <time>2013-02-24T12:57:25.1Z</time>
      </trkpt>
      <trkpt lat="48.49052" lon="-3.50098">
        <ele>244</ele>
        <time>2013-02-24T12:57:27.1Z</time>
      </trkpt>
      <trkpt lat="48.49051" lon="-3.50102">
        <ele>244</ele>
        <time>2013-02-24T12:57:30.1Z</time>
      </trkpt>
      <trkpt lat="48.49051" lon="-3.50106">
        <ele>244</ele>
        <time>2013-02-24T12:57:32.1Z</time>
      </trkpt>
      <trkpt lat="48.49051" lon="-3.50109">
        <ele>244</ele>
        <time>2013-02-24T12:57:34.1Z</time>
      </trkpt>
      <trkpt lat="48.49051" lon="-3.50113">
        <ele>244</ele>
        <time>2013-02-24T12:57:36.1Z</time>
      </trkpt>
      <trkpt lat="48.4905" lon="-3.50117">
        <ele>244</ele>
        <time>2013-02-24T12:57:38.1Z</time>
      </trkpt>
      <trkpt lat="48.4905" lon="-3.5012">
        <ele>244</ele>
        <time>2013-02-24T12:57:40.1Z</time>
      </trkpt>
      <trkpt lat="48.49049" lon="-3.50125">
        <ele>243</ele>
        <time>2013-02-24T12:57:42.1Z</time>
      </trkpt>
      <trkpt lat="48.49049" lon="-3.50129">
        <ele>243</ele>
        <time>2013-02-24T12:57:44.1Z</time>
      </trkpt>
      <trkpt lat="48.49049" lon="-3.50132">
        <ele>243</ele>
        <time>2013-02-24T12:57:46.1Z</time>
      </trkpt>
      <trkpt lat="48.49049" lon="-3.50136">
        <ele>243</ele>
        <time>2013-02-24T12:57:48.1Z</time>
      </trkpt>
      <trkpt lat="48.49049" lon="-3.50139">
        <ele>243</ele>
        <time>2013-02-24T12:57:51.1Z</time>
      </trkpt>
      <trkpt lat="48.49049" lon="-3.50143">
        <ele>242</ele>
        <time>2013-02-24T12:57:53.1Z</time>
      </trkpt>
      <trkpt lat="48.49049" lon="-3.50147">
        <ele>242</ele>
        <time>2013-02-24T12:57:55.1Z</time>
      </trkpt>
      <trkpt lat="48.49048" lon="-3.5015">
        <ele>242</ele>
        <time>2013-02-24T12:57:57.1Z</time>
      </trkpt>
      <trkpt lat="48.49048" lon="-3.50155">
        <ele>242</ele>
        <time>2013-02-24T12:57:59.1Z</time>
      </trkpt>
      <trkpt lat="48.49047" lon="-3.50158">
        <ele>242</ele>
        <time>2013-02-24T12:58:02.1Z</time>
      </trkpt>
      <trkpt lat="48.49048" lon="-3.50162">
        <ele>241</ele>
        <time>2013-02-24T12:58:04.1Z</time>
      </trkpt>
      <trkpt lat="48.49048" lon="-3.50165">
        <ele>241</ele>
        <time>2013-02-24T12:58:06.1Z</time>
      </trkpt>
      <trkpt lat="48.49047" lon="-3.50168">
        <ele>241</ele>
        <time>2013-02-24T12:58:08.1Z</time>
      </trkpt>
      <trkpt lat="48.49047" lon="-3.50171">
        <ele>241</ele>
        <time>2013-02-24T12:58:10.1Z</time>
      </trkpt>
      <trkpt lat="48.49047" lon="-3.50174">
        <ele>241</ele>
        <time>2013-02-24T12:58:12.1Z</time>
      </trkpt>
      <trkpt lat="48.49047" lon="-3.50177">
        <ele>241</ele>
        <time>2013-02-24T12:58:14.1Z</time>
      </trkpt>
      <trkpt lat="48.49047" lon="-3.50182">
        <ele>241</ele>
        <time>2013-02-24T12:58:16.1Z</time>
      </trkpt>
      <trkpt lat="48.49047" lon="-3.50186">
        <ele>241</ele>
        <time>2013-02-24T12:58:18.1Z</time>
      </trkpt>
      <trkpt lat="48.49046" lon="-3.50189">
        <ele>241</ele>
        <time>2013-02-24T12:58:20.1Z</time>
      </trkpt>
      <trkpt lat="48.49047" lon="-3.50191">
        <ele>241</ele>
        <time>2013-02-24T12:58:23.1Z</time>
      </trkpt>
      <trkpt lat="48.49046" lon="-3.50196">
        <ele>241</ele>
        <time>2013-02-24T12:58:25.1Z</time>
      </trkpt>
      <trkpt lat="48.49046" lon="-3.50199">
        <ele>241</ele>
        <time>2013-02-24T12:58:27.1Z</time>
      </trkpt>
      <trkpt lat="48.49046" lon="-3.50202">
        <ele>241</ele>
        <time>2013-02-24T12:58:29.1Z</time>
      </trkpt>
      <trkpt lat="48.49046" lon="-3.50206">
        <ele>240</ele>
        <time>2013-02-24T12:58:31.1Z</time>
      </trkpt>
      <trkpt lat="48.49045" lon="-3.5021">
        <ele>240</ele>
        <time>2013-02-24T12:58:33.1Z</time>
      </trkpt>
      <trkpt lat="48.49045" lon="-3.50214">
        <ele>240</ele>
        <time>2013-02-24T12:58:35.1Z</time>
      </trkpt>
      <trkpt lat="48.49044" lon="-3.50219">
        <ele>240</ele>
        <time>2013-02-24T12:58:37.1Z</time>
      </trkpt>
      <trkpt lat="48.49044" lon="-3.50222">
        <ele>240</ele>
        <time>2013-02-24T12:58:39.1Z</time>
      </trkpt>
      <trkpt lat="48.49044" lon="-3.50226">
        <ele>240</ele>
        <time>2013-02-24T12:58:41.1Z</time>
      </trkpt>
      <trkpt lat="48.49044" lon="-3.5023">
        <ele>240</ele>
        <time>2013-02-24T12:58:44.1Z</time>
      </trkpt>
      <trkpt lat="48.49044" lon="-3.50233">
        <ele>240</ele>
        <time>2013-02-24T12:58:46.1Z</time>
      </trkpt>
      <trkpt lat="48.49043" lon="-3.50237">
        <ele>240</ele>
        <time>2013-02-24T12:58:48.1Z</time>
      </trkpt>
      <trkpt lat="48.49043" lon="-3.5024">
        <ele>240</ele>
        <time>2013-02-24T12:58:50.1Z</time>
      </trkpt>
      <trkpt lat="48.49043" lon="-3.50243">
        <ele>240</ele>
        <time>2013-02-24T12:58:52.1Z</time>
      </trkpt>
      <trkpt lat="48.49043" lon="-3.50247">
        <ele>240</ele>
        <time>2013-02-24T12:58:54.1Z</time>
      </trkpt>
      <trkpt lat="48.49043" lon="-3.5025">
        <ele>239</ele>
        <time>2013-02-24T12:58:56.1Z</time>
      </trkpt>
      <trkpt lat="48.49043" lon="-3.50253">
        <ele>239</ele>
        <time>2013-02-24T12:58:58.1Z</time>
      </trkpt>
      <trkpt lat="48.49043" lon="-3.50257">
        <ele>239</ele>
        <time>2013-02-24T12:59:00.1Z</time>
      </trkpt>
      <trkpt lat="48.49044" lon="-3.5026">
        <ele>239</ele>
        <time>2013-02-24T12:59:02.1Z</time>
      </trkpt>
      <trkpt lat="48.49044" lon="-3.50264">
        <ele>238</ele>
        <time>2013-02-24T12:59:04.1Z</time>
      </trkpt>
      <trkpt lat="48.49044" lon="-3.50266">
        <ele>238</ele>
        <time>2013-02-24T12:59:06.1Z</time>
      </trkpt>
      <trkpt lat="48.49044" lon="-3.5027">
        <ele>238</ele>
        <time>2013-02-24T12:59:09.1Z</time>
      </trkpt>
      <trkpt lat="48.49044" lon="-3.50273">
        <ele>238</ele>
        <time>2013-02-24T12:59:11.1Z</time>
      </trkpt>
      <trkpt lat="48.49044" lon="-3.50276">
        <ele>238</ele>
        <time>2013-02-24T12:59:13.1Z</time>
      </trkpt>
      <trkpt lat="48.49045" lon="-3.50279">
        <ele>238</ele>
        <time>2013-02-24T12:59:15.1Z</time>
      </trkpt>
      <trkpt lat="48.49044" lon="-3.50282">
        <ele>237</ele>
        <time>2013-02-24T12:59:17.1Z</time>
      </trkpt>
      <trkpt lat="48.49044" lon="-3.50285">
        <ele>237</ele>
        <time>2013-02-24T12:59:19.1Z</time>
      </trkpt>
      <trkpt lat="48.49044" lon="-3.50288">
        <ele>236</ele>
        <time>2013-02-24T12:59:21.1Z</time>
      </trkpt>
      <trkpt lat="48.49043" lon="-3.50292">
        <ele>236</ele>
        <time>2013-02-24T12:59:23.1Z</time>
      </trkpt>
      <trkpt lat="48.49043" lon="-3.50297">
        <ele>236</ele>
        <time>2013-02-24T12:59:25.1Z</time>
      </trkpt>
      <trkpt lat="48.49043" lon="-3.50301">
        <ele>236</ele>
        <time>2013-02-24T12:59:27.1Z</time>
      </trkpt>
      <trkpt lat="48.49043" lon="-3.50304">
        <ele>237</ele>
        <time>2013-02-24T12:59:29.1Z</time>
      </trkpt>
      <trkpt lat="48.49043" lon="-3.50307">
        <ele>236</ele>
        <time>2013-02-24T12:59:31.1Z</time>
      </trkpt>
      <trkpt lat="48.49043" lon="-3.50309">
        <ele>236</ele>
        <time>2013-02-24T12:59:34.1Z</time>
      </trkpt>
      <trkpt lat="48.49043" lon="-3.50312">
        <ele>236</ele>
        <time>2013-02-24T12:59:36.1Z</time>
      </trkpt>
      <trkpt lat="48.49042" lon="-3.50315">
        <ele>237</ele>
        <time>2013-02-24T12:59:38.1Z</time>
      </trkpt>
      <trkpt lat="48.49041" lon="-3.50318">
        <ele>236</ele>
        <time>2013-02-24T12:59:40.1Z</time>
      </trkpt>
      <trkpt lat="48.4904" lon="-3.50322">
        <ele>236</ele>
        <time>2013-02-24T12:59:42.1Z</time>
      </trkpt>
      <trkpt lat="48.49039" lon="-3.50325">
        <ele>236</ele>
        <time>2013-02-24T12:59:44.1Z</time>
      </trkpt>
      <trkpt lat="48.49037" lon="-3.50329">
        <ele>236</ele>
        <time>2013-02-24T12:59:46.1Z</time>
      </trkpt>
      <trkpt lat="48.49036" lon="-3.50331">
        <ele>236</ele>
        <time>2013-02-24T12:59:48.1Z</time>
      </trkpt>
      <trkpt lat="48.49035" lon="-3.50334">
        <ele>236</ele>
        <time>2013-02-24T12:59:50.1Z</time>
      </trkpt>
      <trkpt lat="48.49035" lon="-3.50336">
        <ele>236</ele>
        <time>2013-02-24T12:59:53.1Z</time>
      </trkpt>
      <trkpt lat="48.49035" lon="-3.50339">
        <ele>236</ele>
        <time>2013-02-24T12:59:55.1Z</time>
      </trkpt>
      <trkpt lat="48.49035" lon="-3.50342">
        <ele>236</ele>
        <time>2013-02-24T12:59:57.1Z</time>
      </trkpt>
      <trkpt lat="48.49035" lon="-3.50345">
        <ele>236</ele>
        <time>2013-02-24T12:59:59.1Z</time>
      </trkpt>
      <trkpt lat="48.49035" lon="-3.50349">
        <ele>235</ele>
        <time>2013-02-24T13:00:01.1Z</time>
      </trkpt>
      <trkpt lat="48.49035" lon="-3.50353">
        <ele>236</ele>
        <time>2013-02-24T13:00:03.1Z</time>
      </trkpt>
      <trkpt lat="48.49035" lon="-3.50356">
        <ele>236</ele>
        <time>2013-02-24T13:00:05.1Z</time>
      </trkpt>
      <trkpt lat="48.49035" lon="-3.50359">
        <ele>236</ele>
        <time>2013-02-24T13:00:07.1Z</time>
      </trkpt>
      <trkpt lat="48.49035" lon="-3.50363">
        <ele>236</ele>
        <time>2013-02-24T13:00:09.1Z</time>
      </trkpt>
      <trkpt lat="48.49035" lon="-3.50368">
        <ele>236</ele>
        <time>2013-02-24T13:00:11.1Z</time>
      </trkpt>
      <trkpt lat="48.49034" lon="-3.50372">
        <ele>236</ele>
        <time>2013-02-24T13:00:13.1Z</time>
      </trkpt>
      <trkpt lat="48.49034" lon="-3.50375">
        <ele>236</ele>
        <time>2013-02-24T13:00:15.1Z</time>
      </trkpt>
      <trkpt lat="48.49033" lon="-3.50378">
        <ele>236</ele>
        <time>2013-02-24T13:00:17.1Z</time>
      </trkpt>
      <trkpt lat="48.49033" lon="-3.5038">
        <ele>236</ele>
        <time>2013-02-24T13:00:19.1Z</time>
      </trkpt>
      <trkpt lat="48.49033" lon="-3.50383">
        <ele>236</ele>
        <time>2013-02-24T13:00:22.1Z</time>
      </trkpt>
      <trkpt lat="48.49034" lon="-3.50385">
        <ele>236</ele>
        <time>2013-02-24T13:00:24.1Z</time>
      </trkpt>
      <trkpt lat="48.49034" lon="-3.50389">
        <ele>236</ele>
        <time>2013-02-24T13:00:26.1Z</time>
      </trkpt>
      <trkpt lat="48.49033" lon="-3.50391">
        <ele>236</ele>
        <time>2013-02-24T13:00:28.1Z</time>
      </trkpt>
      <trkpt lat="48.49033" lon="-3.50395">
        <ele>236</ele>
        <time>2013-02-24T13:00:30.1Z</time>
      </trkpt>
      <trkpt lat="48.49033" lon="-3.50398">
        <ele>236</ele>
        <time>2013-02-24T13:00:32.1Z</time>
      </trkpt>
      <trkpt lat="48.49033" lon="-3.50401">
        <ele>236</ele>
        <time>2013-02-24T13:00:34.1Z</time>
      </trkpt>
      <trkpt lat="48.49032" lon="-3.50406">
        <ele>236</ele>
        <time>2013-02-24T13:00:36.1Z</time>
      </trkpt>
      <trkpt lat="48.49032" lon="-3.5041">
        <ele>236</ele>
        <time>2013-02-24T13:00:38.1Z</time>
      </trkpt>
      <trkpt lat="48.49031" lon="-3.50414">
        <ele>236</ele>
        <time>2013-02-24T13:00:40.1Z</time>
      </trkpt>
      <trkpt lat="48.49031" lon="-3.50417">
        <ele>236</ele>
        <time>2013-02-24T13:00:42.1Z</time>
      </trkpt>
      <trkpt lat="48.49031" lon="-3.50421">
        <ele>236</ele>
        <time>2013-02-24T13:00:45.1Z</time>
      </trkpt>
      <trkpt lat="48.49031" lon="-3.50424">
        <ele>236</ele>
        <time>2013-02-24T13:00:47.1Z</time>
      </trkpt>
      <trkpt lat="48.4903" lon="-3.50428">
        <ele>236</ele>
        <time>2013-02-24T13:00:49.1Z</time>
      </trkpt>
      <trkpt lat="48.4903" lon="-3.50431">
        <ele>236</ele>
        <time>2013-02-24T13:00:51.1Z</time>
      </trkpt>
      <trkpt lat="48.4903" lon="-3.50435">
        <ele>236</ele>
        <time>2013-02-24T13:00:53.1Z</time>
      </trkpt>
      <trkpt lat="48.4903" lon="-3.50438">
        <ele>236</ele>
        <time>2013-02-24T13:00:55.1Z</time>
      </trkpt>
      <trkpt lat="48.4903" lon="-3.50441">
        <ele>236</ele>
        <time>2013-02-24T13:00:57.1Z</time>
      </trkpt>
      <trkpt lat="48.4903" lon="-3.50447">
        <ele>236</ele>
        <time>2013-02-24T13:00:59.1Z</time>
      </trkpt>
      <trkpt lat="48.4903" lon="-3.50451">
        <ele>235</ele>
        <time>2013-02-24T13:01:01.1Z</time>
      </trkpt>
      <trkpt lat="48.4903" lon="-3.50455">
        <ele>235</ele>
        <time>2013-02-24T13:01:03.1Z</time>
      </trkpt>
      <trkpt lat="48.4903" lon="-3.5046">
        <ele>235</ele>
        <time>2013-02-24T13:01:05.1Z</time>
      </trkpt>
      <trkpt lat="48.49029" lon="-3.50465">
        <ele>235</ele>
        <time>2013-02-24T13:01:08.1Z</time>
      </trkpt>
      <trkpt lat="48.49029" lon="-3.50469">
        <ele>235</ele>
        <time>2013-02-24T13:01:10.1Z</time>
      </trkpt>
      <trkpt lat="48.49029" lon="-3.50473">
        <ele>235</ele>
        <time>2013-02-24T13:01:12.1Z</time>
      </trkpt>
      <trkpt lat="48.49029" lon="-3.50478">
        <ele>235</ele>
        <time>2013-02-24T13:01:14.1Z</time>
      </trkpt>
      <trkpt lat="48.49029" lon="-3.50481">
        <ele>235</ele>
        <time>2013-02-24T13:01:16.1Z</time>
      </trkpt>
      <trkpt lat="48.4903" lon="-3.50485">
        <ele>235</ele>
        <time>2013-02-24T13:01:18.1Z</time>
      </trkpt>
      <trkpt lat="48.49029" lon="-3.50491">
        <ele>235</ele>
        <time>2013-02-24T13:01:20.1Z</time>
      </trkpt>
      <trkpt lat="48.49029" lon="-3.50495">
        <ele>234</ele>
        <time>2013-02-24T13:01:22.1Z</time>
      </trkpt>
      <trkpt lat="48.49028" lon="-3.50499">
        <ele>234</ele>
        <time>2013-02-24T13:01:24.1Z</time>
      </trkpt>
      <trkpt lat="48.49028" lon="-3.50503">
        <ele>234</ele>
        <time>2013-02-24T13:01:26.1Z</time>
      </trkpt>
      <trkpt lat="48.49028" lon="-3.50507">
        <ele>234</ele>
        <time>2013-02-24T13:01:28.1Z</time>
      </trkpt>
      <trkpt lat="48.49028" lon="-3.5051">
        <ele>234</ele>
        <time>2013-02-24T13:01:30.1Z</time>
      </trkpt>
      <trkpt lat="48.49028" lon="-3.50514">
        <ele>234</ele>
        <time>2013-02-24T13:01:32.1Z</time>
      </trkpt>
      <trkpt lat="48.49028" lon="-3.50517">
        <ele>233</ele>
        <time>2013-02-24T13:01:35.1Z</time>
      </trkpt>
      <trkpt lat="48.49028" lon="-3.5052">
        <ele>233</ele>
        <time>2013-02-24T13:01:37.1Z</time>
      </trkpt>
      <trkpt lat="48.49029" lon="-3.50524">
        <ele>233</ele>
        <time>2013-02-24T13:01:39.1Z</time>
      </trkpt>
      <trkpt lat="48.49029" lon="-3.50528">
        <ele>233</ele>
        <time>2013-02-24T13:01:41.1Z</time>
      </trkpt>
      <trkpt lat="48.49029" lon="-3.50532">
        <ele>233</ele>
        <time>2013-02-24T13:01:43.1Z</time>
      </trkpt>
      <trkpt lat="48.49029" lon="-3.50536">
        <ele>233</ele>
        <time>2013-02-24T13:01:45.1Z</time>
      </trkpt>
      <trkpt lat="48.49029" lon="-3.5054">
        <ele>233</ele>
        <time>2013-02-24T13:01:47.1Z</time>
      </trkpt>
      <trkpt lat="48.49029" lon="-3.50544">
        <ele>233</ele>
        <time>2013-02-24T13:01:49.1Z</time>
      </trkpt>
      <trkpt lat="48.49028" lon="-3.50548">
        <ele>233</ele>
        <time>2013-02-24T13:01:51.1Z</time>
      </trkpt>
      <trkpt lat="48.49028" lon="-3.50552">
        <ele>233</ele>
        <time>2013-02-24T13:01:53.1Z</time>
      </trkpt>
      <trkpt lat="48.49027" lon="-3.50555">
        <ele>232</ele>
        <time>2013-02-24T13:01:55.1Z</time>
      </trkpt>
      <trkpt lat="48.49027" lon="-3.50557">
        <ele>232</ele>
        <time>2013-02-24T13:01:57.1Z</time>
      </trkpt>
      <trkpt lat="48.49026" lon="-3.50562">
        <ele>232</ele>
        <time>2013-02-24T13:01:59.1Z</time>
      </trkpt>
      <trkpt lat="48.49026" lon="-3.50565">
        <ele>232</ele>
        <time>2013-02-24T13:02:01.1Z</time>
      </trkpt>
      <trkpt lat="48.49025" lon="-3.50568">
        <ele>232</ele>
        <time>2013-02-24T13:02:03.1Z</time>
      </trkpt>
      <trkpt lat="48.49025" lon="-3.50571">
        <ele>232</ele>
        <time>2013-02-24T13:02:05.1Z</time>
      </trkpt>
      <trkpt lat="48.49025" lon="-3.50574">
        <ele>232</ele>
        <time>2013-02-24T13:02:07.1Z</time>
      </trkpt>
      <trkpt lat="48.49024" lon="-3.50578">
        <ele>232</ele>
        <time>2013-02-24T13:02:09.1Z</time>
      </trkpt>
      <trkpt lat="48.49024" lon="-3.50581">
        <ele>232</ele>
        <time>2013-02-24T13:02:12.1Z</time>
      </trkpt>
      <trkpt lat="48.49025" lon="-3.50584">
        <ele>231</ele>
        <time>2013-02-24T13:02:14.1Z</time>
      </trkpt>
      <trkpt lat="48.49024" lon="-3.50587">
        <ele>231</ele>
        <time>2013-02-24T13:02:16.1Z</time>
      </trkpt>
      <trkpt lat="48.49025" lon="-3.5059">
        <ele>231</ele>
        <time>2013-02-24T13:02:18.1Z</time>
      </trkpt>
      <trkpt lat="48.49025" lon="-3.50593">
        <ele>231</ele>
        <time>2013-02-24T13:02:20.1Z</time>
      </trkpt>
      <trkpt lat="48.49025" lon="-3.50597">
        <ele>231</ele>
        <time>2013-02-24T13:02:22.1Z</time>
      </trkpt>
      <trkpt lat="48.49024" lon="-3.50601">
        <ele>231</ele>
        <time>2013-02-24T13:02:24.1Z</time>
      </trkpt>
      <trkpt lat="48.49024" lon="-3.50605">
        <ele>230</ele>
        <time>2013-02-24T13:02:26.1Z</time>
      </trkpt>
      <trkpt lat="48.49024" lon="-3.50608">
        <ele>230</ele>
        <time>2013-02-24T13:02:28.1Z</time>
      </trkpt>
      <trkpt lat="48.49024" lon="-3.50612">
        <ele>230</ele>
        <time>2013-02-24T13:02:30.1Z</time>
      </trkpt>
      <trkpt lat="48.49024" lon="-3.50616">
        <ele>230</ele>
        <time>2013-02-24T13:02:32.1Z</time>
      </trkpt>
      <trkpt lat="48.49025" lon="-3.50619">
        <ele>230</ele>
        <time>2013-02-24T13:02:35.1Z</time>
      </trkpt>
      <trkpt lat="48.49025" lon="-3.50621">
        <ele>230</ele>
        <time>2013-02-24T13:02:37.1Z</time>
      </trkpt>
      <trkpt lat="48.49025" lon="-3.50624">
        <ele>230</ele>
        <time>2013-02-24T13:02:39.1Z</time>
      </trkpt>
      <trkpt lat="48.49026" lon="-3.50627">
        <ele>230</ele>
        <time>2013-02-24T13:02:41.1Z</time>
      </trkpt>
      <trkpt lat="48.49026" lon="-3.5063">
        <ele>229</ele>
        <time>2013-02-24T13:02:43.1Z</time>
      </trkpt>
      <trkpt lat="48.49027" lon="-3.50633">
        <ele>229</ele>
        <time>2013-02-24T13:02:45.1Z</time>
      </trkpt>
      <trkpt lat="48.49027" lon="-3.50635">
        <ele>228</ele>
        <time>2013-02-24T13:02:47.1Z</time>
      </trkpt>
      <trkpt lat="48.49028" lon="-3.5064">
        <ele>228</ele>
        <time>2013-02-24T13:02:49.1Z</time>
      </trkpt>
      <trkpt lat="48.49029" lon="-3.50643">
        <ele>227</ele>
        <time>2013-02-24T13:02:51.1Z</time>
      </trkpt>
      <trkpt lat="48.4903" lon="-3.50646">
        <ele>227</ele>
        <time>2013-02-24T13:02:53.1Z</time>
      </trkpt>
      <trkpt lat="48.4903" lon="-3.50649">
        <ele>227</ele>
        <time>2013-02-24T13:02:55.1Z</time>
      </trkpt>
      <trkpt lat="48.4903" lon="-3.50653">
        <ele>227</ele>
        <time>2013-02-24T13:02:57.1Z</time>
      </trkpt>
      <trkpt lat="48.4903" lon="-3.50656">
        <ele>227</ele>
        <time>2013-02-24T13:02:59.1Z</time>
      </trkpt>
      <trkpt lat="48.49031" lon="-3.50659">
        <ele>227</ele>
        <time>2013-02-24T13:03:02.1Z</time>
      </trkpt>
      <trkpt lat="48.49031" lon="-3.50662">
        <ele>227</ele>
        <time>2013-02-24T13:03:04.1Z</time>
      </trkpt>
      <trkpt lat="48.49031" lon="-3.50666">
        <ele>226</ele>
        <time>2013-02-24T13:03:06.1Z</time>
      </trkpt>
      <trkpt lat="48.49032" lon="-3.50669">
        <ele>226</ele>
        <time>2013-02-24T13:03:08.1Z</time>
      </trkpt>
      <trkpt lat="48.49032" lon="-3.50672">
        <ele>226</ele>
        <time>2013-02-24T13:03:10.1Z</time>
      </trkpt>
      <trkpt lat="48.49033" lon="-3.50675">
        <ele>226</ele>
        <time>2013-02-24T13:03:12.1Z</time>
      </trkpt>
      <trkpt lat="48.49033" lon="-3.50679">
        <ele>226</ele>
        <time>2013-02-24T13:03:14.1Z</time>
      </trkpt>
      <trkpt lat="48.49033" lon="-3.50682">
        <ele>226</ele>
        <time>2013-02-24T13:03:16.1Z</time>
      </trkpt>
      <trkpt lat="48.49033" lon="-3.50687">
        <ele>226</ele>
        <time>2013-02-24T13:03:18.1Z</time>
      </trkpt>
      <trkpt lat="48.49033" lon="-3.50691">
        <ele>226</ele>
        <time>2013-02-24T13:03:20.1Z</time>
      </trkpt>
      <trkpt lat="48.49033" lon="-3.50695">
        <ele>226</ele>
        <time>2013-02-24T13:03:22.1Z</time>
      </trkpt>
      <trkpt lat="48.49032" lon="-3.50699">
        <ele>226</ele>
        <time>2013-02-24T13:03:24.1Z</time>
      </trkpt>
      <trkpt lat="48.49032" lon="-3.50703">
        <ele>226</ele>
        <time>2013-02-24T13:03:26.1Z</time>
      </trkpt>
      <trkpt lat="48.49031" lon="-3.5071">
        <ele>226</ele>
        <time>2013-02-24T13:03:28.1Z</time>
      </trkpt>
      <trkpt lat="48.49031" lon="-3.50713">
        <ele>226</ele>
        <time>2013-02-24T13:03:30.1Z</time>
      </trkpt>
      <trkpt lat="48.49031" lon="-3.50717">
        <ele>226</ele>
        <time>2013-02-24T13:03:33.1Z</time>
      </trkpt>
      <trkpt lat="48.49031" lon="-3.50721">
        <ele>226</ele>
        <time>2013-02-24T13:03:35.1Z</time>
      </trkpt>
      <trkpt lat="48.49032" lon="-3.50724">
        <ele>226</ele>
        <time>2013-02-24T13:03:37.1Z</time>
      </trkpt>
      <trkpt lat="48.49032" lon="-3.50728">
        <ele>226</ele>
        <time>2013-02-24T13:03:39.1Z</time>
      </trkpt>
      <trkpt lat="48.49032" lon="-3.50731">
        <ele>226</ele>
        <time>2013-02-24T13:03:41.1Z</time>
      </trkpt>
      <trkpt lat="48.49032" lon="-3.50734">
        <ele>226</ele>
        <time>2013-02-24T13:03:43.1Z</time>
      </trkpt>
      <trkpt lat="48.49031" lon="-3.5074">
        <ele>226</ele>
        <time>2013-02-24T13:03:45.1Z</time>
      </trkpt>
      <trkpt lat="48.49031" lon="-3.50743">
        <ele>226</ele>
        <time>2013-02-24T13:03:47.1Z</time>
      </trkpt>
      <trkpt lat="48.4903" lon="-3.50746">
        <ele>226</ele>
        <time>2013-02-24T13:03:49.1Z</time>
      </trkpt>
      <trkpt lat="48.4903" lon="-3.50749">
        <ele>226</ele>
        <time>2013-02-24T13:03:51.1Z</time>
      </trkpt>
      <trkpt lat="48.49029" lon="-3.50752">
        <ele>226</ele>
        <time>2013-02-24T13:03:53.1Z</time>
      </trkpt>
      <trkpt lat="48.49028" lon="-3.50755">
        <ele>226</ele>
        <time>2013-02-24T13:03:56.1Z</time>
      </trkpt>
      <trkpt lat="48.49028" lon="-3.50758">
        <ele>226</ele>
        <time>2013-02-24T13:03:58.1Z</time>
      </trkpt>
      <trkpt lat="48.49026" lon="-3.50761">
        <ele>226</ele>
        <time>2013-02-24T13:04:00.1Z</time>
      </trkpt>
      <trkpt lat="48.49025" lon="-3.50764">
        <ele>226</ele>
        <time>2013-02-24T13:04:02.1Z</time>
      </trkpt>
      <trkpt lat="48.49025" lon="-3.50767">
        <ele>226</ele>
        <time>2013-02-24T13:04:04.1Z</time>
      </trkpt>
      <trkpt lat="48.49024" lon="-3.50769">
        <ele>226</ele>
        <time>2013-02-24T13:04:06.1Z</time>
      </trkpt>
      <trkpt lat="48.49023" lon="-3.50772">
        <ele>226</ele>
        <time>2013-02-24T13:04:08.1Z</time>
      </trkpt>
      <trkpt lat="48.49021" lon="-3.50775">
        <ele>226</ele>
        <time>2013-02-24T13:04:10.1Z</time>
      </trkpt>
      <trkpt lat="48.4902" lon="-3.50777">
        <ele>226</ele>
        <time>2013-02-24T13:04:12.1Z</time>
      </trkpt>
      <trkpt lat="48.49018" lon="-3.50779">
        <ele>226</ele>
        <time>2013-02-24T13:04:14.1Z</time>
      </trkpt>
      <trkpt lat="48.49017" lon="-3.50781">
        <ele>226</ele>
        <time>2013-02-24T13:04:16.1Z</time>
      </trkpt>
      <trkpt lat="48.49016" lon="-3.50783">
        <ele>226</ele>
        <time>2013-02-24T13:04:18.1Z</time>
      </trkpt>
      <trkpt lat="48.49015" lon="-3.50786">
        <ele>227</ele>
        <time>2013-02-24T13:04:20.1Z</time>
      </trkpt>
      <trkpt lat="48.49014" lon="-3.50789">
        <ele>227</ele>
        <time>2013-02-24T13:04:22.1Z</time>
      </trkpt>
      <trkpt lat="48.49014" lon="-3.50791">
        <ele>227</ele>
        <time>2013-02-24T13:04:24.1Z</time>
      </trkpt>
      <trkpt lat="48.49013" lon="-3.50794">
        <ele>226</ele>
        <time>2013-02-24T13:04:26.1Z</time>
      </trkpt>
      <trkpt lat="48.49012" lon="-3.50797">
        <ele>226</ele>
        <time>2013-02-24T13:04:28.1Z</time>
      </trkpt>
      <trkpt lat="48.49012" lon="-3.508">
        <ele>226</ele>
        <time>2013-02-24T13:04:31.1Z</time>
      </trkpt>
      <trkpt lat="48.49012" lon="-3.50803">
        <ele>226</ele>
        <time>2013-02-24T13:04:33.1Z</time>
      </trkpt>
      <trkpt lat="48.49013" lon="-3.50806">
        <ele>226</ele>
        <time>2013-02-24T13:04:35.1Z</time>
      </trkpt>
      <trkpt lat="48.49014" lon="-3.50807">
        <ele>226</ele>
        <time>2013-02-24T13:04:37.1Z</time>
      </trkpt>
      <trkpt lat="48.49015" lon="-3.50808">
        <ele>226</ele>
        <time>2013-02-24T13:04:39.1Z</time>
      </trkpt>
      <trkpt lat="48.49017" lon="-3.50807">
        <ele>226</ele>
        <time>2013-02-24T13:04:41.1Z</time>
      </trkpt>
      <trkpt lat="48.49018" lon="-3.50806">
        <ele>226</ele>
        <time>2013-02-24T13:04:43.1Z</time>
      </trkpt>
      <trkpt lat="48.4902" lon="-3.50805">
        <ele>225</ele>
        <time>2013-02-24T13:04:45.1Z</time>
      </trkpt>
      <trkpt lat="48.49022" lon="-3.50805">
        <ele>225</ele>
        <time>2013-02-24T13:04:47.1Z</time>
      </trkpt>
      <trkpt lat="48.49023" lon="-3.50805">
        <ele>225</ele>
        <time>2013-02-24T13:04:49.1Z</time>
      </trkpt>
      <trkpt lat="48.49024" lon="-3.50805">
        <ele>225</ele>
        <time>2013-02-24T13:04:51.1Z</time>
      </trkpt>
      <trkpt lat="48.49025" lon="-3.50806">
        <ele>225</ele>
        <time>2013-02-24T13:04:53.1Z</time>
      </trkpt>
      <trkpt lat="48.49026" lon="-3.50806">
        <ele>225</ele>
        <time>2013-02-24T13:04:55.1Z</time>
      </trkpt>
      <trkpt lat="48.49027" lon="-3.50805">
        <ele>225</ele>
        <time>2013-02-24T13:04:57.1Z</time>
      </trkpt>
      <trkpt lat="48.49028" lon="-3.50805">
        <ele>224</ele>
        <time>2013-02-24T13:04:59.1Z</time>
      </trkpt>
      <trkpt lat="48.49028" lon="-3.50806">
        <ele>224</ele>
        <time>2013-02-24T13:05:01.1Z</time>
      </trkpt>
      <trkpt lat="48.49029" lon="-3.50806">
        <ele>224</ele>
        <time>2013-02-24T13:05:04.1Z</time>
      </trkpt>
      <trkpt lat="48.49029" lon="-3.50807">
        <ele>224</ele>
        <time>2013-02-24T13:05:06.1Z</time>
      </trkpt>
      <trkpt lat="48.49029" lon="-3.50808">
        <ele>224</ele>
        <time>2013-02-24T13:05:08.1Z</time>
      </trkpt>
      <trkpt lat="48.49029" lon="-3.50809">
        <ele>224</ele>
        <time>2013-02-24T13:05:10.1Z</time>
      </trkpt>
      <trkpt lat="48.49029" lon="-3.5081">
        <ele>224</ele>
        <time>2013-02-24T13:05:12.1Z</time>
      </trkpt>
      <trkpt lat="48.49029" lon="-3.5081">
        <ele>224</ele>
        <time>2013-02-24T13:05:14.1Z</time>
      </trkpt>
      <trkpt lat="48.4903" lon="-3.5081">
        <ele>224</ele>
        <time>2013-02-24T13:05:16.1Z</time>
      </trkpt>
      <trkpt lat="48.4903" lon="-3.5081">
        <ele>224</ele>
        <time>2013-02-24T13:05:18.1Z</time>
      </trkpt>
      <trkpt lat="48.4903" lon="-3.5081">
        <ele>224</ele>
        <time>2013-02-24T13:05:20.1Z</time>
      </trkpt>
      <trkpt lat="48.4903" lon="-3.5081">
        <ele>224</ele>
        <time>2013-02-24T13:05:22.1Z</time>
      </trkpt>
      <trkpt lat="48.4903" lon="-3.50811">
        <ele>224</ele>
        <time>2013-02-24T13:05:24.1Z</time>
      </trkpt>
      <trkpt lat="48.4903" lon="-3.50811">
        <ele>224</ele>
        <time>2013-02-24T13:05:27.1Z</time>
      </trkpt>
      <trkpt lat="48.49029" lon="-3.50811">
        <ele>224</ele>
        <time>2013-02-24T13:05:29.1Z</time>
      </trkpt>
      <trkpt lat="48.49029" lon="-3.50811">
        <ele>224</ele>
        <time>2013-02-24T13:05:31.1Z</time>
      </trkpt>
      <trkpt lat="48.49029" lon="-3.50812">
        <ele>224</ele>
        <time>2013-02-24T13:05:33.1Z</time>
      </trkpt>
      <trkpt lat="48.49029" lon="-3.50811">
        <ele>224</ele>
        <time>2013-02-24T13:05:35.1Z</time>
      </trkpt>
      <trkpt lat="48.49028" lon="-3.5081">
        <ele>224</ele>
        <time>2013-02-24T13:05:37.1Z</time>
      </trkpt>
      <trkpt lat="48.49028" lon="-3.5081">
        <ele>224</ele>
        <time>2013-02-24T13:05:39.1Z</time>
      </trkpt>
      <trkpt lat="48.49028" lon="-3.50809">
        <ele>224</ele>
        <time>2013-02-24T13:05:41.1Z</time>
      </trkpt>
      <trkpt lat="48.49028" lon="-3.50808">
        <ele>224</ele>
        <time>2013-02-24T13:05:43.1Z</time>
      </trkpt>
      <trkpt lat="48.49028" lon="-3.50808">
        <ele>224</ele>
        <time>2013-02-24T13:05:45.1Z</time>
      </trkpt>
      <trkpt lat="48.49028" lon="-3.50807">
        <ele>224</ele>
        <time>2013-02-24T13:05:47.1Z</time>
      </trkpt>
      <trkpt lat="48.49028" lon="-3.50806">
        <ele>224</ele>
        <time>2013-02-24T13:05:49.1Z</time>
      </trkpt>
      <trkpt lat="48.49028" lon="-3.50805">
        <ele>224</ele>
        <time>2013-02-24T13:05:51.1Z</time>
      </trkpt>
      <trkpt lat="48.49029" lon="-3.50805">
        <ele>224</ele>
        <time>2013-02-24T13:05:53.1Z</time>
      </trkpt>
      <trkpt lat="48.49028" lon="-3.50805">
        <ele>224</ele>
        <time>2013-02-24T13:05:55.1Z</time>
      </trkpt>
      <trkpt lat="48.49029" lon="-3.50805">
        <ele>224</ele>
        <time>2013-02-24T13:05:57.1Z</time>
      </trkpt>
      <trkpt lat="48.49029" lon="-3.50805">
        <ele>224</ele>
        <time>2013-02-24T13:06:00.1Z</time>
      </trkpt>
      <trkpt lat="48.49029" lon="-3.50805">
        <ele>224</ele>
        <time>2013-02-24T13:06:02.1Z</time>
      </trkpt>
      <trkpt lat="48.49029" lon="-3.50805">
        <ele>224</ele>
        <time>2013-02-24T13:06:04.1Z</time>
      </trkpt>
      <trkpt lat="48.4903" lon="-3.50805">
        <ele>224</ele>
        <time>2013-02-24T13:06:06.1Z</time>
      </trkpt>
      <trkpt lat="48.4903" lon="-3.50805">
        <ele>224</ele>
        <time>2013-02-24T13:06:08.1Z</time>
      </trkpt>
      <trkpt lat="48.4903" lon="-3.50805">
        <ele>224</ele>
        <time>2013-02-24T13:06:10.1Z</time>
      </trkpt>
      <trkpt lat="48.4903" lon="-3.50806">
        <ele>224</ele>
        <time>2013-02-24T13:06:12.1Z</time>
      </trkpt>
      <trkpt lat="48.4903" lon="-3.50806">
        <ele>224</ele>
        <time>2013-02-24T13:06:14.1Z</time>
      </trkpt>
      <trkpt lat="48.4903" lon="-3.50807">
        <ele>224</ele>
        <time>2013-02-24T13:06:16.1Z</time>
      </trkpt>
      <trkpt lat="48.4903" lon="-3.50807">
        <ele>224</ele>
        <time>2013-02-24T13:06:18.1Z</time>
      </trkpt>
      <trkpt lat="48.4903" lon="-3.50808">
        <ele>224</ele>
        <time>2013-02-24T13:06:20.1Z</time>
      </trkpt>
      <trkpt lat="48.4903" lon="-3.50808">
        <ele>224</ele>
        <time>2013-02-24T13:06:22.1Z</time>
      </trkpt>
      <trkpt lat="48.4903" lon="-3.50807">
        <ele>224</ele>
        <time>2013-02-24T13:06:24.1Z</time>
      </trkpt>
      <trkpt lat="48.49029" lon="-3.50807">
        <ele>224</ele>
        <time>2013-02-24T13:06:26.1Z</time>
      </trkpt>
      <trkpt lat="48.49029" lon="-3.50808">
        <ele>224</ele>
        <time>2013-02-24T13:06:28.1Z</time>
      </trkpt>
      <trkpt lat="48.49028" lon="-3.50809">
        <ele>224</ele>
        <time>2013-02-24T13:06:31.1Z</time>
      </trkpt>
      <trkpt lat="48.49028" lon="-3.50808">
        <ele>224</ele>
        <time>2013-02-24T13:06:33.1Z</time>
      </trkpt>
      <trkpt lat="48.49028" lon="-3.50809">
        <ele>224</ele>
        <time>2013-02-24T13:06:35.1Z</time>
      </trkpt>
      <trkpt lat="48.49028" lon="-3.50809">
        <ele>224</ele>
        <time>2013-02-24T13:06:37.1Z</time>
      </trkpt>
      <trkpt lat="48.49028" lon="-3.50808">
        <ele>224</ele>
        <time>2013-02-24T13:06:39.1Z</time>
      </trkpt>
      <trkpt lat="48.49027" lon="-3.50808">
        <ele>224</ele>
        <time>2013-02-24T13:06:41.1Z</time>
      </trkpt>
      <trkpt lat="48.49027" lon="-3.50808">
        <ele>224</ele>
        <time>2013-02-24T13:06:43.1Z</time>
      </trkpt>
      <trkpt lat="48.49026" lon="-3.50809">
        <ele>224</ele>
        <time>2013-02-24T13:06:45.1Z</time>
      </trkpt>
      <trkpt lat="48.49026" lon="-3.50809">
        <ele>224</ele>
        <time>2013-02-24T13:06:47.1Z</time>
      </trkpt>
      <trkpt lat="48.49026" lon="-3.50809">
        <ele>224</ele>
        <time>2013-02-24T13:06:49.1Z</time>
      </trkpt>
      <trkpt lat="48.49026" lon="-3.50809">
        <ele>224</ele>
        <time>2013-02-24T13:06:51.1Z</time>
      </trkpt>
      <trkpt lat="48.49025" lon="-3.50809">
        <ele>224</ele>
        <time>2013-02-24T13:06:54.1Z</time>
      </trkpt>
      <trkpt lat="48.49025" lon="-3.50809">
        <ele>224</ele>
        <time>2013-02-24T13:06:56.1Z</time>
      </trkpt>
      <trkpt lat="48.49024" lon="-3.50809">
        <ele>224</ele>
        <time>2013-02-24T13:06:58.1Z</time>
      </trkpt>
      <trkpt lat="48.49024" lon="-3.50809">
        <ele>224</ele>
        <time>2013-02-24T13:07:00.1Z</time>
      </trkpt>
      <trkpt lat="48.49024" lon="-3.50809">
        <ele>224</ele>
        <time>2013-02-24T13:07:02.1Z</time>
      </trkpt>
      <trkpt lat="48.49024" lon="-3.50809">
        <ele>224</ele>
        <time>2013-02-24T13:07:04.1Z</time>
      </trkpt>
      <trkpt lat="48.49023" lon="-3.50809">
        <ele>224</ele>
        <time>2013-02-24T13:07:06.1Z</time>
      </trkpt>
      <trkpt lat="48.49023" lon="-3.50809">
        <ele>224</ele>
        <time>2013-02-24T13:07:08.1Z</time>
      </trkpt>
      <trkpt lat="48.49023" lon="-3.50809">
        <ele>224</ele>
        <time>2013-02-24T13:07:10.1Z</time>
      </trkpt>
      <trkpt lat="48.49024" lon="-3.50808">
        <ele>224</ele>
        <time>2013-02-24T13:07:12.1Z</time>
      </trkpt>
      <trkpt lat="48.49024" lon="-3.50808">
        <ele>224</ele>
        <time>2013-02-24T13:07:14.1Z</time>
      </trkpt>
      <trkpt lat="48.49024" lon="-3.50807">
        <ele>224</ele>
        <time>2013-02-24T13:07:16.1Z</time>
      </trkpt>
      <trkpt lat="48.49025" lon="-3.50807">
        <ele>224</ele>
        <time>2013-02-24T13:07:18.1Z</time>
      </trkpt>
      <trkpt lat="48.49025" lon="-3.50807">
        <ele>224</ele>
        <time>2013-02-24T13:07:20.1Z</time>
      </trkpt>
      <trkpt lat="48.49025" lon="-3.50807">
        <ele>224</ele>
        <time>2013-02-24T13:07:22.1Z</time>
      </trkpt>
      <trkpt lat="48.49025" lon="-3.50807">
        <ele>224</ele>
        <time>2013-02-24T13:07:24.1Z</time>
      </trkpt>
      <trkpt lat="48.49025" lon="-3.50807">
        <ele>224</ele>
        <time>2013-02-24T13:07:27.1Z</time>
      </trkpt>
      <trkpt lat="48.49024" lon="-3.50807">
        <ele>224</ele>
        <time>2013-02-24T13:07:29.1Z</time>
      </trkpt>
      <trkpt lat="48.49024" lon="-3.50808">
        <ele>224</ele>
        <time>2013-02-24T13:07:31.1Z</time>
      </trkpt>
      <trkpt lat="48.49024" lon="-3.50808">
        <ele>224</ele>
        <time>2013-02-24T13:07:33.1Z</time>
      </trkpt>
      <trkpt lat="48.49025" lon="-3.50808">
        <ele>224</ele>
        <time>2013-02-24T13:07:35.1Z</time>
      </trkpt>
      <trkpt lat="48.49025" lon="-3.50808">
        <ele>224</ele>
        <time>2013-02-24T13:07:37.1Z</time>
      </trkpt>
      <trkpt lat="48.49025" lon="-3.50809">
        <ele>224</ele>
        <time>2013-02-24T13:07:39.1Z</time>
      </trkpt>
      <trkpt lat="48.49025" lon="-3.50809">
        <ele>224</ele>
        <time>2013-02-24T13:07:41.1Z</time>
      </trkpt>
      <trkpt lat="48.49025" lon="-3.50809">
        <ele>224</ele>
        <time>2013-02-24T13:07:43.1Z</time>
      </trkpt>
      <trkpt lat="48.49025" lon="-3.50809">
        <ele>224</ele>
        <time>2013-02-24T13:07:45.1Z</time>
      </trkpt>
      <trkpt lat="48.49025" lon="-3.50809">
        <ele>224</ele>
        <time>2013-02-24T13:07:48.1Z</time>
      </trkpt>
      <trkpt lat="48.49025" lon="-3.5081">
        <ele>224</ele>
        <time>2013-02-24T13:07:50.1Z</time>
      </trkpt>
      <trkpt lat="48.49025" lon="-3.5081">
        <ele>224</ele>
        <time>2013-02-24T13:07:52.1Z</time>
      </trkpt>
      <trkpt lat="48.49025" lon="-3.50809">
        <ele>224</ele>
        <time>2013-02-24T13:07:54.1Z</time>
      </trkpt>
      <trkpt lat="48.49025" lon="-3.50809">
        <ele>224</ele>
        <time>2013-02-24T13:07:56.1Z</time>
      </trkpt>
      <trkpt lat="48.49025" lon="-3.50809">
        <ele>224</ele>
        <time>2013-02-24T13:07:58.1Z</time>
      </trkpt>
      <trkpt lat="48.49024" lon="-3.50809">
        <ele>224</ele>
        <time>2013-02-24T13:08:00.1Z</time>
      </trkpt>
      <trkpt lat="48.49024" lon="-3.50809">
        <ele>224</ele>
        <time>2013-02-24T13:08:02.1Z</time>
      </trkpt>
      <trkpt lat="48.49024" lon="-3.5081">
        <ele>224</ele>
        <time>2013-02-24T13:08:04.1Z</time>
      </trkpt>
      <trkpt lat="48.49024" lon="-3.5081">
        <ele>224</ele>
        <time>2013-02-24T13:08:06.1Z</time>
      </trkpt>
      <trkpt lat="48.49024" lon="-3.5081">
        <ele>224</ele>
        <time>2013-02-24T13:08:08.1Z</time>
      </trkpt>
      <trkpt lat="48.49024" lon="-3.5081">
        <ele>224</ele>
        <time>2013-02-24T13:08:11.1Z</time>
      </trkpt>
      <trkpt lat="48.49024" lon="-3.5081">
        <ele>224</ele>
        <time>2013-02-24T13:08:13.1Z</time>
      </trkpt>
      <trkpt lat="48.49023" lon="-3.5081">
        <ele>224</ele>
        <time>2013-02-24T13:08:15.1Z</time>
      </trkpt>
      <trkpt lat="48.49023" lon="-3.50809">
        <ele>224</ele>
        <time>2013-02-24T13:08:17.1Z</time>
      </trkpt>
      <trkpt lat="48.49023" lon="-3.50809">
        <ele>224</ele>
        <time>2013-02-24T13:08:19.1Z</time>
      </trkpt>
      <trkpt lat="48.49023" lon="-3.50808">
        <ele>224</ele>
        <time>2013-02-24T13:08:21.1Z</time>
      </trkpt>
      <trkpt lat="48.49024" lon="-3.50808">
        <ele>224</ele>
        <time>2013-02-24T13:08:23.1Z</time>
      </trkpt>
      <trkpt lat="48.49023" lon="-3.50807">
        <ele>224</ele>
        <time>2013-02-24T13:08:25.1Z</time>
      </trkpt>
      <trkpt lat="48.49023" lon="-3.50807">
        <ele>224</ele>
        <time>2013-02-24T13:08:27.1Z</time>
      </trkpt>
      <trkpt lat="48.49024" lon="-3.50807">
        <ele>224</ele>
        <time>2013-02-24T13:08:29.1Z</time>
      </trkpt>
      <trkpt lat="48.49024" lon="-3.50807">
        <ele>224</ele>
        <time>2013-02-24T13:08:32.1Z</time>
      </trkpt>
      <trkpt lat="48.49024" lon="-3.50807">
        <ele>224</ele>
        <time>2013-02-24T13:08:34.1Z</time>
      </trkpt>
      <trkpt lat="48.49024" lon="-3.50806">
        <ele>224</ele>
        <time>2013-02-24T13:08:36.1Z</time>
      </trkpt>
      <trkpt lat="48.49024" lon="-3.50806">
        <ele>224</ele>
        <time>2013-02-24T13:08:38.1Z</time>
      </trkpt>
      <trkpt lat="48.49025" lon="-3.50806">
        <ele>224</ele>
        <time>2013-02-24T13:08:40.1Z</time>
      </trkpt>
      <trkpt lat="48.49025" lon="-3.50805">
        <ele>224</ele>
        <time>2013-02-24T13:08:42.1Z</time>
      </trkpt>
      <trkpt lat="48.49024" lon="-3.50805">
        <ele>224</ele>
        <time>2013-02-24T13:08:44.1Z</time>
      </trkpt>
      <trkpt lat="48.49025" lon="-3.50805">
        <ele>224</ele>
        <time>2013-02-24T13:08:46.1Z</time>
      </trkpt>
      <trkpt lat="48.49025" lon="-3.50804">
        <ele>224</ele>
        <time>2013-02-24T13:08:48.1Z</time>
      </trkpt>
      <trkpt lat="48.49025" lon="-3.50804">
        <ele>224</ele>
        <time>2013-02-24T13:08:50.1Z</time>
      </trkpt>
      <trkpt lat="48.49025" lon="-3.50804">
        <ele>224</ele>
        <time>2013-02-24T13:08:52.1Z</time>
      </trkpt>
      <trkpt lat="48.49025" lon="-3.50804">
        <ele>224</ele>
        <time>2013-02-24T13:08:54.1Z</time>
      </trkpt>
      <trkpt lat="48.49025" lon="-3.50804">
        <ele>224</ele>
        <time>2013-02-24T13:08:56.1Z</time>
      </trkpt>
      <trkpt lat="48.49025" lon="-3.50804">
        <ele>224</ele>
        <time>2013-02-24T13:08:59.1Z</time>
      </trkpt>
      <trkpt lat="48.49025" lon="-3.50804">
        <ele>224</ele>
        <time>2013-02-24T13:09:01.1Z</time>
      </trkpt>
      <trkpt lat="48.49025" lon="-3.50804">
        <ele>224</ele>
        <time>2013-02-24T13:09:03.1Z</time>
      </trkpt>
      <trkpt lat="48.49025" lon="-3.50804">
        <ele>224</ele>
        <time>2013-02-24T13:09:05.1Z</time>
      </trkpt>
      <trkpt lat="48.49025" lon="-3.50805">
        <ele>224</ele>
        <time>2013-02-24T13:09:07.1Z</time>
      </trkpt>
      <trkpt lat="48.49025" lon="-3.50805">
        <ele>224</ele>
        <time>2013-02-24T13:09:09.1Z</time>
      </trkpt>
      <trkpt lat="48.49026" lon="-3.50805">
        <ele>224</ele>
        <time>2013-02-24T13:09:11.1Z</time>
      </trkpt>
      <trkpt lat="48.49026" lon="-3.50806">
        <ele>224</ele>
        <time>2013-02-24T13:09:13.1Z</time>
      </trkpt>
      <trkpt lat="48.49026" lon="-3.50806">
        <ele>224</ele>
        <time>2013-02-24T13:09:15.1Z</time>
      </trkpt>
      <trkpt lat="48.49025" lon="-3.50807">
        <ele>224</ele>
        <time>2013-02-24T13:09:17.1Z</time>
      </trkpt>
      <trkpt lat="48.49025" lon="-3.50807">
        <ele>224</ele>
        <time>2013-02-24T13:09:19.1Z</time>
      </trkpt>
      <trkpt lat="48.49025" lon="-3.50808">
        <ele>224</ele>
        <time>2013-02-24T13:09:21.1Z</time>
      </trkpt>
      <trkpt lat="48.49024" lon="-3.5081">
        <ele>224</ele>
        <time>2013-02-24T13:09:23.1Z</time>
      </trkpt>
      <trkpt lat="48.49024" lon="-3.5081">
        <ele>224</ele>
        <time>2013-02-24T13:09:25.1Z</time>
      </trkpt>
      <trkpt lat="48.49025" lon="-3.50811">
        <ele>224</ele>
        <time>2013-02-24T13:09:27.1Z</time>
      </trkpt>
      <trkpt lat="48.49025" lon="-3.50811">
        <ele>224</ele>
        <time>2013-02-24T13:09:30.1Z</time>
      </trkpt>
      <trkpt lat="48.49025" lon="-3.50811">
        <ele>224</ele>
        <time>2013-02-24T13:09:32.1Z</time>
      </trkpt>
      <trkpt lat="48.49025" lon="-3.50811">
        <ele>224</ele>
        <time>2013-02-24T13:09:34.1Z</time>
      </trkpt>
      <trkpt lat="48.49026" lon="-3.50812">
        <ele>224</ele>
        <time>2013-02-24T13:09:36.1Z</time>
      </trkpt>
      <trkpt lat="48.49026" lon="-3.50812">
        <ele>223</ele>
        <time>2013-02-24T13:09:38.1Z</time>
      </trkpt>
      <trkpt lat="48.49026" lon="-3.50812">
        <ele>223</ele>
        <time>2013-02-24T13:09:40.1Z</time>
      </trkpt>
      <trkpt lat="48.49026" lon="-3.50812">
        <ele>223</ele>
        <time>2013-02-24T13:09:42.1Z</time>
      </trkpt>
      <trkpt lat="48.49026" lon="-3.50813">
        <ele>224</ele>
        <time>2013-02-24T13:09:44.1Z</time>
      </trkpt>
      <trkpt lat="48.49027" lon="-3.50814">
        <ele>224</ele>
        <time>2013-02-24T13:09:46.1Z</time>
      </trkpt>
      <trkpt lat="48.49026" lon="-3.50814">
        <ele>224</ele>
        <time>2013-02-24T13:09:48.1Z</time>
      </trkpt>
      <trkpt lat="48.49024" lon="-3.50813">
        <ele>225</ele>
        <time>2013-02-24T13:09:50.1Z</time>
      </trkpt>
      <trkpt lat="48.49022" lon="-3.50813">
        <ele>225</ele>
        <time>2013-02-24T13:09:52.1Z</time>
      </trkpt>
      <trkpt lat="48.4902" lon="-3.50815">
        <ele>225</ele>
        <time>2013-02-24T13:09:55.1Z</time>
      </trkpt>
      <trkpt lat="48.4902" lon="-3.50815">
        <ele>225</ele>
        <time>2013-02-24T13:09:57.1Z</time>
      </trkpt>
      <trkpt lat="48.49017" lon="-3.50814">
        <ele>225</ele>
        <time>2013-02-24T13:09:59.1Z</time>
      </trkpt>
      <trkpt lat="48.49015" lon="-3.50813">
        <ele>226</ele>
        <time>2013-02-24T13:10:01.1Z</time>
      </trkpt>
      <trkpt lat="48.49013" lon="-3.50813">
        <ele>226</ele>
        <time>2013-02-24T13:10:03.1Z</time>
      </trkpt>
      <trkpt lat="48.49012" lon="-3.50815">
        <ele>227</ele>
        <time>2013-02-24T13:10:05.1Z</time>
      </trkpt>
      <trkpt lat="48.49011" lon="-3.50817">
        <ele>227</ele>
        <time>2013-02-24T13:10:07.1Z</time>
      </trkpt>
      <trkpt lat="48.49011" lon="-3.50819">
        <ele>226</ele>
        <time>2013-02-24T13:10:09.1Z</time>
      </trkpt>
      <trkpt lat="48.49009" lon="-3.50819">
        <ele>226</ele>
        <time>2013-02-24T13:10:11.1Z</time>
      </trkpt>
      <trkpt lat="48.49008" lon="-3.50817">
        <ele>226</ele>
        <time>2013-02-24T13:10:14.1Z</time>
      </trkpt>
      <trkpt lat="48.49006" lon="-3.50817">
        <ele>226</ele>
        <time>2013-02-24T13:10:16.1Z</time>
      </trkpt>
      <trkpt lat="48.49005" lon="-3.50816">
        <ele>226</ele>
        <time>2013-02-24T13:10:18.1Z</time>
      </trkpt>
      <trkpt lat="48.49004" lon="-3.50816">
        <ele>226</ele>
        <time>2013-02-24T13:10:20.1Z</time>
      </trkpt>
      <trkpt lat="48.49004" lon="-3.50815">
        <ele>226</ele>
        <time>2013-02-24T13:10:22.1Z</time>
      </trkpt>
      <trkpt lat="48.49004" lon="-3.50816">
        <ele>226</ele>
        <time>2013-02-24T13:10:24.1Z</time>
      </trkpt>
      <trkpt lat="48.49005" lon="-3.50818">
        <ele>226</ele>
        <time>2013-02-24T13:10:26.1Z</time>
      </trkpt>
      <trkpt lat="48.49006" lon="-3.5082">
        <ele>226</ele>
        <time>2013-02-24T13:10:28.1Z</time>
      </trkpt>
      <trkpt lat="48.49007" lon="-3.50822">
        <ele>226</ele>
        <time>2013-02-24T13:10:30.1Z</time>
      </trkpt>
      <trkpt lat="48.49007" lon="-3.50824">
        <ele>226</ele>
        <time>2013-02-24T13:10:33.1Z</time>
      </trkpt>
      <trkpt lat="48.49008" lon="-3.50826">
        <ele>226</ele>
        <time>2013-02-24T13:10:35.1Z</time>
      </trkpt>
      <trkpt lat="48.49008" lon="-3.50829">
        <ele>226</ele>
        <time>2013-02-24T13:10:37.1Z</time>
      </trkpt>
      <trkpt lat="48.49008" lon="-3.50832">
        <ele>226</ele>
        <time>2013-02-24T13:10:39.1Z</time>
      </trkpt>
      <trkpt lat="48.49008" lon="-3.50835">
        <ele>226</ele>
        <time>2013-02-24T13:10:41.1Z</time>
      </trkpt>
      <trkpt lat="48.49008" lon="-3.50838">
        <ele>227</ele>
        <time>2013-02-24T13:10:43.1Z</time>
      </trkpt>
      <trkpt lat="48.49008" lon="-3.50842">
        <ele>227</ele>
        <time>2013-02-24T13:10:45.1Z</time>
      </trkpt>
      <trkpt lat="48.49008" lon="-3.50846">
        <ele>227</ele>
        <time>2013-02-24T13:10:47.1Z</time>
      </trkpt>
      <trkpt lat="48.49008" lon="-3.50849">
        <ele>227</ele>
        <time>2013-02-24T13:10:49.1Z</time>
      </trkpt>
      <trkpt lat="48.49007" lon="-3.50852">
        <ele>227</ele>
        <time>2013-02-24T13:10:51.1Z</time>
      </trkpt>
      <trkpt lat="48.49006" lon="-3.50855">
        <ele>227</ele>
        <time>2013-02-24T13:10:53.1Z</time>
      </trkpt>
      <trkpt lat="48.49006" lon="-3.50858">
        <ele>227</ele>
        <time>2013-02-24T13:10:55.1Z</time>
      </trkpt>
      <trkpt lat="48.49005" lon="-3.5086">
        <ele>227</ele>
        <time>2013-02-24T13:10:58.1Z</time>
      </trkpt>
      <trkpt lat="48.49006" lon="-3.50863">
        <ele>227</ele>
        <time>2013-02-24T13:11:00.1Z</time>
      </trkpt>
      <trkpt lat="48.49006" lon="-3.50866">
        <ele>227</ele>
        <time>2013-02-24T13:11:02.1Z</time>
      </trkpt>
      <trkpt lat="48.49006" lon="-3.50868">
        <ele>227</ele>
        <time>2013-02-24T13:11:04.1Z</time>
      </trkpt>
      <trkpt lat="48.49006" lon="-3.5087">
        <ele>227</ele>
        <time>2013-02-24T13:11:06.1Z</time>
      </trkpt>
      <trkpt lat="48.49006" lon="-3.50872">
        <ele>227</ele>
        <time>2013-02-24T13:11:08.1Z</time>
      </trkpt>
      <trkpt lat="48.49006" lon="-3.50874">
        <ele>228</ele>
        <time>2013-02-24T13:11:10.1Z</time>
      </trkpt>
      <trkpt lat="48.49006" lon="-3.50877">
        <ele>228</ele>
        <time>2013-02-24T13:11:12.1Z</time>
      </trkpt>
      <trkpt lat="48.49006" lon="-3.5088">
        <ele>228</ele>
        <time>2013-02-24T13:11:14.1Z</time>
      </trkpt>
      <trkpt lat="48.49006" lon="-3.50883">
        <ele>228</ele>
        <time>2013-02-24T13:11:16.1Z</time>
      </trkpt>
      <trkpt lat="48.49006" lon="-3.50889">
        <ele>228</ele>
        <time>2013-02-24T13:11:18.1Z</time>
      </trkpt>
      <trkpt lat="48.49006" lon="-3.50892">
        <ele>228</ele>
        <time>2013-02-24T13:11:20.1Z</time>
      </trkpt>
      <trkpt lat="48.49006" lon="-3.50895">
        <ele>228</ele>
        <time>2013-02-24T13:11:22.1Z</time>
      </trkpt>
      <trkpt lat="48.49006" lon="-3.50899">
        <ele>228</ele>
        <time>2013-02-24T13:11:24.1Z</time>
      </trkpt>
      <trkpt lat="48.49005" lon="-3.50902">
        <ele>228</ele>
        <time>2013-02-24T13:11:26.1Z</time>
      </trkpt>
      <trkpt lat="48.49005" lon="-3.50904">
        <ele>228</ele>
        <time>2013-02-24T13:11:29.1Z</time>
      </trkpt>
      <trkpt lat="48.49006" lon="-3.50907">
        <ele>228</ele>
        <time>2013-02-24T13:11:31.1Z</time>
      </trkpt>
      <trkpt lat="48.49005" lon="-3.5091">
        <ele>229</ele>
        <time>2013-02-24T13:11:33.1Z</time>
      </trkpt>
      <trkpt lat="48.49005" lon="-3.50913">
        <ele>229</ele>
        <time>2013-02-24T13:11:35.1Z</time>
      </trkpt>
      <trkpt lat="48.49005" lon="-3.50916">
        <ele>229</ele>
        <time>2013-02-24T13:11:37.1Z</time>
      </trkpt>
      <trkpt lat="48.49004" lon="-3.5092">
        <ele>230</ele>
        <time>2013-02-24T13:11:39.1Z</time>
      </trkpt>
      <trkpt lat="48.49004" lon="-3.50922">
        <ele>230</ele>
        <time>2013-02-24T13:11:41.1Z</time>
      </trkpt>
      <trkpt lat="48.49004" lon="-3.50924">
        <ele>230</ele>
        <time>2013-02-24T13:11:43.1Z</time>
      </trkpt>
      <trkpt lat="48.49004" lon="-3.50927">
        <ele>230</ele>
        <time>2013-02-24T13:11:45.1Z</time>
      </trkpt>
      <trkpt lat="48.49003" lon="-3.50929">
        <ele>230</ele>
        <time>2013-02-24T13:11:47.1Z</time>
      </trkpt>
      <trkpt lat="48.49003" lon="-3.50932">
        <ele>230</ele>
        <time>2013-02-24T13:11:49.1Z</time>
      </trkpt>
      <trkpt lat="48.49003" lon="-3.50935">
        <ele>230</ele>
        <time>2013-02-24T13:11:51.1Z</time>
      </trkpt>
      <trkpt lat="48.49003" lon="-3.50937">
        <ele>231</ele>
        <time>2013-02-24T13:11:54.1Z</time>
      </trkpt>
      <trkpt lat="48.49003" lon="-3.50941">
        <ele>231</ele>
        <time>2013-02-24T13:11:56.1Z</time>
      </trkpt>
      <trkpt lat="48.49002" lon="-3.50944">
        <ele>231</ele>
        <time>2013-02-24T13:11:58.1Z</time>
      </trkpt>
      <trkpt lat="48.49003" lon="-3.50947">
        <ele>231</ele>
        <time>2013-02-24T13:12:00.1Z</time>
      </trkpt>
      <trkpt lat="48.49003" lon="-3.5095">
        <ele>231</ele>
        <time>2013-02-24T13:12:02.1Z</time>
      </trkpt>
      <trkpt lat="48.49003" lon="-3.50953">
        <ele>231</ele>
        <time>2013-02-24T13:12:04.1Z</time>
      </trkpt>
      <trkpt lat="48.49003" lon="-3.50955">
        <ele>231</ele>
        <time>2013-02-24T13:12:06.1Z</time>
      </trkpt>
      <trkpt lat="48.49003" lon="-3.50958">
        <ele>232</ele>
        <time>2013-02-24T13:12:08.1Z</time>
      </trkpt>
      <trkpt lat="48.49002" lon="-3.5096">
        <ele>232</ele>
        <time>2013-02-24T13:12:10.1Z</time>
      </trkpt>
      <trkpt lat="48.49002" lon="-3.50964">
        <ele>232</ele>
        <time>2013-02-24T13:12:12.1Z</time>
      </trkpt>
      <trkpt lat="48.49002" lon="-3.50967">
        <ele>232</ele>
        <time>2013-02-24T13:12:14.1Z</time>
      </trkpt>
      <trkpt lat="48.49002" lon="-3.5097">
        <ele>233</ele>
        <time>2013-02-24T13:12:16.1Z</time>
      </trkpt>
      <trkpt lat="48.49002" lon="-3.50973">
        <ele>233</ele>
        <time>2013-02-24T13:12:18.1Z</time>
      </trkpt>
      <trkpt lat="48.49002" lon="-3.50976">
        <ele>233</ele>
        <time>2013-02-24T13:12:20.1Z</time>
      </trkpt>
      <trkpt lat="48.49002" lon="-3.50979">
        <ele>233</ele>
        <time>2013-02-24T13:12:22.1Z</time>
      </trkpt>
      <trkpt lat="48.49001" lon="-3.50982">
        <ele>233</ele>
        <time>2013-02-24T13:12:24.1Z</time>
      </trkpt>
      <trkpt lat="48.49001" lon="-3.50984">
        <ele>233</ele>
        <time>2013-02-24T13:12:26.1Z</time>
      </trkpt>
      <trkpt lat="48.49" lon="-3.50987">
        <ele>233</ele>
        <time>2013-02-24T13:12:29.1Z</time>
      </trkpt>
      <trkpt lat="48.49" lon="-3.5099">
        <ele>233</ele>
        <time>2013-02-24T13:12:31.1Z</time>
      </trkpt>
      <trkpt lat="48.49" lon="-3.50992">
        <ele>233</ele>
        <time>2013-02-24T13:12:33.1Z</time>
      </trkpt>
      <trkpt lat="48.49" lon="-3.50995">
        <ele>233</ele>
        <time>2013-02-24T13:12:35.1Z</time>
      </trkpt>
      <trkpt lat="48.48999" lon="-3.50998">
        <ele>233</ele>
        <time>2013-02-24T13:12:37.1Z</time>
      </trkpt>
      <trkpt lat="48.48999" lon="-3.51001">
        <ele>233</ele>
        <time>2013-02-24T13:12:39.1Z</time>
      </trkpt>
      <trkpt lat="48.48998" lon="-3.51005">
        <ele>233</ele>
        <time>2013-02-24T13:12:41.1Z</time>
      </trkpt>
      <trkpt lat="48.48997" lon="-3.51008">
        <ele>233</ele>
        <time>2013-02-24T13:12:43.1Z</time>
      </trkpt>
      <trkpt lat="48.48997" lon="-3.51011">
        <ele>234</ele>
        <time>2013-02-24T13:12:45.1Z</time>
      </trkpt>
      <trkpt lat="48.48997" lon="-3.51013">
        <ele>234</ele>
        <time>2013-02-24T13:12:47.1Z</time>
      </trkpt>
      <trkpt lat="48.48997" lon="-3.51016">
        <ele>234</ele>
        <time>2013-02-24T13:12:49.1Z</time>
      </trkpt>
      <trkpt lat="48.48997" lon="-3.51018">
        <ele>235</ele>
        <time>2013-02-24T13:12:52.1Z</time>
      </trkpt>
      <trkpt lat="48.48997" lon="-3.51021">
        <ele>235</ele>
        <time>2013-02-24T13:12:54.1Z</time>
      </trkpt>
      <trkpt lat="48.48997" lon="-3.51024">
        <ele>235</ele>
        <time>2013-02-24T13:12:56.1Z</time>
      </trkpt>
      <trkpt lat="48.48997" lon="-3.51027">
        <ele>235</ele>
        <time>2013-02-24T13:12:58.1Z</time>
      </trkpt>
      <trkpt lat="48.48997" lon="-3.5103">
        <ele>235</ele>
        <time>2013-02-24T13:13:00.1Z</time>
      </trkpt>
      <trkpt lat="48.48997" lon="-3.51032">
        <ele>236</ele>
        <time>2013-02-24T13:13:02.1Z</time>
      </trkpt>
      <trkpt lat="48.48997" lon="-3.51036">
        <ele>236</ele>
        <time>2013-02-24T13:13:04.1Z</time>
      </trkpt>
      <trkpt lat="48.48996" lon="-3.51038">
        <ele>236</ele>
        <time>2013-02-24T13:13:06.1Z</time>
      </trkpt>
      <trkpt lat="48.48997" lon="-3.51042">
        <ele>236</ele>
        <time>2013-02-24T13:13:08.1Z</time>
      </trkpt>
      <trkpt lat="48.48997" lon="-3.51044">
        <ele>237</ele>
        <time>2013-02-24T13:13:10.1Z</time>
      </trkpt>
      <trkpt lat="48.48996" lon="-3.51047">
        <ele>237</ele>
        <time>2013-02-24T13:13:12.1Z</time>
      </trkpt>
      <trkpt lat="48.48996" lon="-3.51049">
        <ele>237</ele>
        <time>2013-02-24T13:13:14.1Z</time>
      </trkpt>
      <trkpt lat="48.48996" lon="-3.51051">
        <ele>237</ele>
        <time>2013-02-24T13:13:16.1Z</time>
      </trkpt>
      <trkpt lat="48.48996" lon="-3.51054">
        <ele>237</ele>
        <time>2013-02-24T13:13:19.1Z</time>
      </trkpt>
      <trkpt lat="48.48996" lon="-3.51057">
        <ele>237</ele>
        <time>2013-02-24T13:13:21.1Z</time>
      </trkpt>
      <trkpt lat="48.48996" lon="-3.5106">
        <ele>237</ele>
        <time>2013-02-24T13:13:23.1Z</time>
      </trkpt>
      <trkpt lat="48.48996" lon="-3.51062">
        <ele>237</ele>
        <time>2013-02-24T13:13:25.1Z</time>
      </trkpt>
      <trkpt lat="48.48996" lon="-3.51065">
        <ele>237</ele>
        <time>2013-02-24T13:13:27.1Z</time>
      </trkpt>
      <trkpt lat="48.48996" lon="-3.51068">
        <ele>238</ele>
        <time>2013-02-24T13:13:29.1Z</time>
      </trkpt>
      <trkpt lat="48.48995" lon="-3.51072">
        <ele>238</ele>
        <time>2013-02-24T13:13:31.1Z</time>
      </trkpt>
      <trkpt lat="48.48995" lon="-3.51075">
        <ele>238</ele>
        <time>2013-02-24T13:13:33.1Z</time>
      </trkpt>
      <trkpt lat="48.48995" lon="-3.51077">
        <ele>238</ele>
        <time>2013-02-24T13:13:35.1Z</time>
      </trkpt>
      <trkpt lat="48.48995" lon="-3.5108">
        <ele>238</ele>
        <time>2013-02-24T13:13:37.1Z</time>
      </trkpt>
      <trkpt lat="48.48995" lon="-3.51082">
        <ele>239</ele>
        <time>2013-02-24T13:13:39.1Z</time>
      </trkpt>
      <trkpt lat="48.48995" lon="-3.51085">
        <ele>239</ele>
        <time>2013-02-24T13:13:42.1Z</time>
      </trkpt>
      <trkpt lat="48.48995" lon="-3.51088">
        <ele>239</ele>
        <time>2013-02-24T13:13:44.1Z</time>
      </trkpt>
      <trkpt lat="48.48995" lon="-3.5109">
        <ele>239</ele>
        <time>2013-02-24T13:13:46.1Z</time>
      </trkpt>
      <trkpt lat="48.48995" lon="-3.51093">
        <ele>239</ele>
        <time>2013-02-24T13:13:48.1Z</time>
      </trkpt>
      <trkpt lat="48.48995" lon="-3.51096">
        <ele>240</ele>
        <time>2013-02-24T13:13:50.1Z</time>
      </trkpt>
      <trkpt lat="48.48994" lon="-3.51098">
        <ele>240</ele>
        <time>2013-02-24T13:13:52.1Z</time>
      </trkpt>
      <trkpt lat="48.48995" lon="-3.51101">
        <ele>240</ele>
        <time>2013-02-24T13:13:54.1Z</time>
      </trkpt>
      <trkpt lat="48.48994" lon="-3.51103">
        <ele>240</ele>
        <time>2013-02-24T13:13:56.1Z</time>
      </trkpt>
      <trkpt lat="48.48994" lon="-3.51105">
        <ele>241</ele>
        <time>2013-02-24T13:13:58.1Z</time>
      </trkpt>
      <trkpt lat="48.48994" lon="-3.51107">
        <ele>241</ele>
        <time>2013-02-24T13:14:01.1Z</time>
      </trkpt>
      <trkpt lat="48.48994" lon="-3.5111">
        <ele>241</ele>
        <time>2013-02-24T13:14:03.1Z</time>
      </trkpt>
      <trkpt lat="48.48994" lon="-3.51112">
        <ele>242</ele>
        <time>2013-02-24T13:14:05.1Z</time>
      </trkpt>
      <trkpt lat="48.48994" lon="-3.51114">
        <ele>242</ele>
        <time>2013-02-24T13:14:07.1Z</time>
      </trkpt>
      <trkpt lat="48.48995" lon="-3.51116">
        <ele>242</ele>
        <time>2013-02-24T13:14:09.1Z</time>
      </trkpt>
      <trkpt lat="48.48994" lon="-3.51118">
        <ele>242</ele>
        <time>2013-02-24T13:14:11.1Z</time>
      </trkpt>
      <trkpt lat="48.48994" lon="-3.51122">
        <ele>242</ele>
        <time>2013-02-24T13:14:13.1Z</time>
      </trkpt>
      <trkpt lat="48.48994" lon="-3.51124">
        <ele>242</ele>
        <time>2013-02-24T13:14:15.1Z</time>
      </trkpt>
      <trkpt lat="48.48994" lon="-3.51127">
        <ele>242</ele>
        <time>2013-02-24T13:14:17.1Z</time>
      </trkpt>
      <trkpt lat="48.48994" lon="-3.51129">
        <ele>242</ele>
        <time>2013-02-24T13:14:19.1Z</time>
      </trkpt>
      <trkpt lat="48.48994" lon="-3.51131">
        <ele>243</ele>
        <time>2013-02-24T13:14:21.1Z</time>
      </trkpt>
      <trkpt lat="48.48994" lon="-3.51133">
        <ele>243</ele>
        <time>2013-02-24T13:14:24.1Z</time>
      </trkpt>
      <trkpt lat="48.48993" lon="-3.51135">
        <ele>243</ele>
        <time>2013-02-24T13:14:26.1Z</time>
      </trkpt>
      <trkpt lat="48.48993" lon="-3.51138">
        <ele>243</ele>
        <time>2013-02-24T13:14:28.1Z</time>
      </trkpt>
      <trkpt lat="48.48993" lon="-3.5114">
        <ele>244</ele>
        <time>2013-02-24T13:14:30.1Z</time>
      </trkpt>
      <trkpt lat="48.48992" lon="-3.51142">
        <ele>244</ele>
        <time>2013-02-24T13:14:32.1Z</time>
      </trkpt>
      <trkpt lat="48.48992" lon="-3.51146">
        <ele>244</ele>
        <time>2013-02-24T13:14:34.1Z</time>
      </trkpt>
      <trkpt lat="48.48993" lon="-3.51148">
        <ele>245</ele>
        <time>2013-02-24T13:14:36.1Z</time>
      </trkpt>
      <trkpt lat="48.48992" lon="-3.5115">
        <ele>245</ele>
        <time>2013-02-24T13:14:38.1Z</time>
      </trkpt>
      <trkpt lat="48.48992" lon="-3.51152">
        <ele>245</ele>
        <time>2013-02-24T13:14:40.1Z</time>
      </trkpt>
      <trkpt lat="48.48992" lon="-3.51154">
        <ele>246</ele>
        <time>2013-02-24T13:14:42.1Z</time>
      </trkpt>
      <trkpt lat="48.48992" lon="-3.51155">
        <ele>246</ele>
        <time>2013-02-24T13:14:45.1Z</time>
      </trkpt>
      <trkpt lat="48.48992" lon="-3.51157">
        <ele>246</ele>
        <time>2013-02-24T13:14:47.1Z</time>
      </trkpt>
      <trkpt lat="48.48992" lon="-3.51159">
        <ele>246</ele>
        <time>2013-02-24T13:14:49.1Z</time>
      </trkpt>
      <trkpt lat="48.48992" lon="-3.51161">
        <ele>246</ele>
        <time>2013-02-24T13:14:51.1Z</time>
      </trkpt>
      <trkpt lat="48.48992" lon="-3.51165">
        <ele>247</ele>
        <time>2013-02-24T13:14:53.1Z</time>
      </trkpt>
      <trkpt lat="48.48991" lon="-3.51167">
        <ele>247</ele>
        <time>2013-02-24T13:14:55.1Z</time>
      </trkpt>
      <trkpt lat="48.48992" lon="-3.51169">
        <ele>247</ele>
        <time>2013-02-24T13:14:57.1Z</time>
      </trkpt>
      <trkpt lat="48.48992" lon="-3.51171">
        <ele>247</ele>
        <time>2013-02-24T13:14:59.1Z</time>
      </trkpt>
      <trkpt lat="48.48991" lon="-3.51174">
        <ele>247</ele>
        <time>2013-02-24T13:15:02.1Z</time>
      </trkpt>
      <trkpt lat="48.48992" lon="-3.51177">
        <ele>248</ele>
        <time>2013-02-24T13:15:04.1Z</time>
      </trkpt>
      <trkpt lat="48.48992" lon="-3.51179">
        <ele>248</ele>
        <time>2013-02-24T13:15:06.1Z</time>
      </trkpt>
      <trkpt lat="48.48992" lon="-3.51182">
        <ele>248</ele>
        <time>2013-02-24T13:15:08.1Z</time>
      </trkpt>
      <trkpt lat="48.48991" lon="-3.51185">
        <ele>248</ele>
        <time>2013-02-24T13:15:10.1Z</time>
      </trkpt>
      <trkpt lat="48.48991" lon="-3.51187">
        <ele>248</ele>
        <time>2013-02-24T13:15:12.1Z</time>
      </trkpt>
      <trkpt lat="48.48991" lon="-3.51189">
        <ele>248</ele>
        <time>2013-02-24T13:15:14.1Z</time>
      </trkpt>
      <trkpt lat="48.48991" lon="-3.51192">
        <ele>249</ele>
        <time>2013-02-24T13:15:16.1Z</time>
      </trkpt>
      <trkpt lat="48.4899" lon="-3.51195">
        <ele>249</ele>
        <time>2013-02-24T13:15:18.1Z</time>
      </trkpt>
      <trkpt lat="48.4899" lon="-3.51197">
        <ele>249</ele>
        <time>2013-02-24T13:15:20.1Z</time>
      </trkpt>
      <trkpt lat="48.4899" lon="-3.51199">
        <ele>250</ele>
        <time>2013-02-24T13:15:22.1Z</time>
      </trkpt>
      <trkpt lat="48.48989" lon="-3.51201">
        <ele>250</ele>
        <time>2013-02-24T13:15:24.1Z</time>
      </trkpt>
      <trkpt lat="48.48989" lon="-3.51203">
        <ele>250</ele>
        <time>2013-02-24T13:15:27.1Z</time>
      </trkpt>
      <trkpt lat="48.48988" lon="-3.51205">
        <ele>250</ele>
        <time>2013-02-24T13:15:29.1Z</time>
      </trkpt>
      <trkpt lat="48.48988" lon="-3.51208">
        <ele>251</ele>
        <time>2013-02-24T13:15:31.1Z</time>
      </trkpt>
      <trkpt lat="48.48988" lon="-3.5121">
        <ele>251</ele>
        <time>2013-02-24T13:15:33.1Z</time>
      </trkpt>
      <trkpt lat="48.48988" lon="-3.51212">
        <ele>251</ele>
        <time>2013-02-24T13:15:35.1Z</time>
      </trkpt>
      <trkpt lat="48.48988" lon="-3.51214">
        <ele>251</ele>
        <time>2013-02-24T13:15:37.1Z</time>
      </trkpt>
      <trkpt lat="48.48987" lon="-3.51216">
        <ele>251</ele>
        <time>2013-02-24T13:15:39.1Z</time>
      </trkpt>
      <trkpt lat="48.48985" lon="-3.51218">
        <ele>251</ele>
        <time>2013-02-24T13:15:41.1Z</time>
      </trkpt>
      <trkpt lat="48.48984" lon="-3.51219">
        <ele>251</ele>
        <time>2013-02-24T13:15:43.1Z</time>
      </trkpt>
      <trkpt lat="48.48982" lon="-3.5122">
        <ele>251</ele>
        <time>2013-02-24T13:15:45.1Z</time>
      </trkpt>
      <trkpt lat="48.4898" lon="-3.5122">
        <ele>251</ele>
        <time>2013-02-24T13:15:47.1Z</time>
      </trkpt>
      <trkpt lat="48.48979" lon="-3.5122">
        <ele>251</ele>
        <time>2013-02-24T13:15:49.1Z</time>
      </trkpt>
      <trkpt lat="48.48977" lon="-3.5122">
        <ele>250</ele>
        <time>2013-02-24T13:15:52.1Z</time>
      </trkpt>
      <trkpt lat="48.48975" lon="-3.51219">
        <ele>250</ele>
        <time>2013-02-24T13:15:54.1Z</time>
      </trkpt>
      <trkpt lat="48.48974" lon="-3.51219">
        <ele>250</ele>
        <time>2013-02-24T13:15:56.1Z</time>
      </trkpt>
      <trkpt lat="48.48973" lon="-3.5122">
        <ele>250</ele>
        <time>2013-02-24T13:15:58.1Z</time>
      </trkpt>
      <trkpt lat="48.48972" lon="-3.51219">
        <ele>250</ele>
        <time>2013-02-24T13:16:00.1Z</time>
      </trkpt>
      <trkpt lat="48.48971" lon="-3.51219">
        <ele>250</ele>
        <time>2013-02-24T13:16:02.1Z</time>
      </trkpt>
      <trkpt lat="48.4897" lon="-3.51219">
        <ele>250</ele>
        <time>2013-02-24T13:16:04.1Z</time>
      </trkpt>
      <trkpt lat="48.4897" lon="-3.51219">
        <ele>250</ele>
        <time>2013-02-24T13:16:06.1Z</time>
      </trkpt>
      <trkpt lat="48.48969" lon="-3.51218">
        <ele>250</ele>
        <time>2013-02-24T13:16:08.1Z</time>
      </trkpt>
      <trkpt lat="48.48968" lon="-3.51218">
        <ele>250</ele>
        <time>2013-02-24T13:16:10.1Z</time>
      </trkpt>
      <trkpt lat="48.48968" lon="-3.51218">
        <ele>250</ele>
        <time>2013-02-24T13:16:12.1Z</time>
      </trkpt>
      <trkpt lat="48.48967" lon="-3.51218">
        <ele>250</ele>
        <time>2013-02-24T13:16:14.1Z</time>
      </trkpt>
      <trkpt lat="48.48967" lon="-3.51218">
        <ele>250</ele>
        <time>2013-02-24T13:16:16.1Z</time>
      </trkpt>
      <trkpt lat="48.48966" lon="-3.51217">
        <ele>250</ele>
        <time>2013-02-24T13:16:18.1Z</time>
      </trkpt>
      <trkpt lat="48.48965" lon="-3.51218">
        <ele>250</ele>
        <time>2013-02-24T13:16:20.1Z</time>
      </trkpt>
      <trkpt lat="48.48964" lon="-3.51218">
        <ele>250</ele>
        <time>2013-02-24T13:16:22.1Z</time>
      </trkpt>
      <trkpt lat="48.48962" lon="-3.51218">
        <ele>250</ele>
        <time>2013-02-24T13:16:24.1Z</time>
      </trkpt>
      <trkpt lat="48.48961" lon="-3.51219">
        <ele>250</ele>
        <time>2013-02-24T13:16:26.1Z</time>
      </trkpt>
      <trkpt lat="48.48959" lon="-3.51218">
        <ele>250</ele>
        <time>2013-02-24T13:16:29.1Z</time>
      </trkpt>
      <trkpt lat="48.48957" lon="-3.51219">
        <ele>250</ele>
        <time>2013-02-24T13:16:31.1Z</time>
      </trkpt>
      <trkpt lat="48.48956" lon="-3.51219">
        <ele>250</ele>
        <time>2013-02-24T13:16:33.1Z</time>
      </trkpt>
      <trkpt lat="48.48954" lon="-3.51218">
        <ele>250</ele>
        <time>2013-02-24T13:16:35.1Z</time>
      </trkpt>
      <trkpt lat="48.48953" lon="-3.51218">
        <ele>250</ele>
        <time>2013-02-24T13:16:37.1Z</time>
      </trkpt>
      <trkpt lat="48.48951" lon="-3.51218">
        <ele>250</ele>
        <time>2013-02-24T13:16:39.1Z</time>
      </trkpt>
      <trkpt lat="48.48949" lon="-3.51218">
        <ele>250</ele>
        <time>2013-02-24T13:16:41.1Z</time>
      </trkpt>
      <trkpt lat="48.48947" lon="-3.51218">
        <ele>250</ele>
        <time>2013-02-24T13:16:43.1Z</time>
      </trkpt>
      <trkpt lat="48.48945" lon="-3.51217">
        <ele>250</ele>
        <time>2013-02-24T13:16:45.1Z</time>
      </trkpt>
      <trkpt lat="48.48943" lon="-3.51216">
        <ele>250</ele>
        <time>2013-02-24T13:16:47.1Z</time>
      </trkpt>
      <trkpt lat="48.48941" lon="-3.51216">
        <ele>250</ele>
        <time>2013-02-24T13:16:49.1Z</time>
      </trkpt>
      <trkpt lat="48.4894" lon="-3.51216">
        <ele>250</ele>
        <time>2013-02-24T13:16:51.1Z</time>
      </trkpt>
      <trkpt lat="48.48938" lon="-3.51216">
        <ele>250</ele>
        <time>2013-02-24T13:16:53.1Z</time>
      </trkpt>
      <trkpt lat="48.48936" lon="-3.51217">
        <ele>250</ele>
        <time>2013-02-24T13:16:55.1Z</time>
      </trkpt>
      <trkpt lat="48.48934" lon="-3.51217">
        <ele>250</ele>
        <time>2013-02-24T13:16:57.1Z</time>
      </trkpt>
      <trkpt lat="48.48933" lon="-3.51218">
        <ele>250</ele>
        <time>2013-02-24T13:16:59.1Z</time>
      </trkpt>
      <trkpt lat="48.48931" lon="-3.51218">
        <ele>250</ele>
        <time>2013-02-24T13:17:01.1Z</time>
      </trkpt>
      <trkpt lat="48.4893" lon="-3.51217">
        <ele>250</ele>
        <time>2013-02-24T13:17:04.1Z</time>
      </trkpt>
      <trkpt lat="48.48928" lon="-3.51218">
        <ele>250</ele>
        <time>2013-02-24T13:17:06.1Z</time>
      </trkpt>
      <trkpt lat="48.48926" lon="-3.51218">
        <ele>250</ele>
        <time>2013-02-24T13:17:08.1Z</time>
      </trkpt>
      <trkpt lat="48.48924" lon="-3.51218">
        <ele>250</ele>
        <time>2013-02-24T13:17:10.1Z</time>
      </trkpt>
      <trkpt lat="48.48922" lon="-3.51219">
        <ele>250</ele>
        <time>2013-02-24T13:17:12.1Z</time>
      </trkpt>
      <trkpt lat="48.48919" lon="-3.51219">
        <ele>250</ele>
        <time>2013-02-24T13:17:14.1Z</time>
      </trkpt>
      <trkpt lat="48.48917" lon="-3.51219">
        <ele>250</ele>
        <time>2013-02-24T13:17:16.1Z</time>
      </trkpt>
      <trkpt lat="48.48915" lon="-3.51219">
        <ele>250</ele>
        <time>2013-02-24T13:17:18.1Z</time>
      </trkpt>
      <trkpt lat="48.48913" lon="-3.51219">
        <ele>250</ele>
        <time>2013-02-24T13:17:20.1Z</time>
      </trkpt>
      <trkpt lat="48.48911" lon="-3.51219">
        <ele>250</ele>
        <time>2013-02-24T13:17:22.1Z</time>
      </trkpt>
      <trkpt lat="48.4891" lon="-3.51219">
        <ele>250</ele>
        <time>2013-02-24T13:17:24.1Z</time>
      </trkpt>
      <trkpt lat="48.48909" lon="-3.51218">
        <ele>250</ele>
        <time>2013-02-24T13:17:26.1Z</time>
      </trkpt>
      <trkpt lat="48.48907" lon="-3.51218">
        <ele>250</ele>
        <time>2013-02-24T13:17:28.1Z</time>
      </trkpt>
      <trkpt lat="48.48905" lon="-3.51218">
        <ele>250</ele>
        <time>2013-02-24T13:17:30.1Z</time>
      </trkpt>
      <trkpt lat="48.48902" lon="-3.51218">
        <ele>251</ele>
        <time>2013-02-24T13:17:33.1Z</time>
      </trkpt>
      <trkpt lat="48.489" lon="-3.51218">
        <ele>250</ele>
        <time>2013-02-24T13:17:35.1Z</time>
      </trkpt>
      <trkpt lat="48.48898" lon="-3.51218">
        <ele>251</ele>
        <time>2013-02-24T13:17:37.1Z</time>
      </trkpt>
      <trkpt lat="48.48896" lon="-3.51217">
        <ele>251</ele>
        <time>2013-02-24T13:17:39.1Z</time>
      </trkpt>
      <trkpt lat="48.48894" lon="-3.51216">
        <ele>251</ele>
        <time>2013-02-24T13:17:41.1Z</time>
      </trkpt>
      <trkpt lat="48.48892" lon="-3.51216">
        <ele>251</ele>
        <time>2013-02-24T13:17:43.1Z</time>
      </trkpt>
      <trkpt lat="48.4889" lon="-3.51216">
        <ele>251</ele>
        <time>2013-02-24T13:17:45.1Z</time>
      </trkpt>
      <trkpt lat="48.48888" lon="-3.51216">
        <ele>251</ele>
        <time>2013-02-24T13:17:47.1Z</time>
      </trkpt>
      <trkpt lat="48.48885" lon="-3.51216">
        <ele>251</ele>
        <time>2013-02-24T13:17:49.1Z</time>
      </trkpt>
      <trkpt lat="48.48883" lon="-3.51215">
        <ele>251</ele>
        <time>2013-02-24T13:17:51.1Z</time>
      </trkpt>
      <trkpt lat="48.48881" lon="-3.51215">
        <ele>251</ele>
        <time>2013-02-24T13:17:53.1Z</time>
      </trkpt>
      <trkpt lat="48.48879" lon="-3.51215">
        <ele>251</ele>
        <time>2013-02-24T13:17:55.1Z</time>
      </trkpt>
      <trkpt lat="48.48876" lon="-3.51214">
        <ele>251</ele>
        <time>2013-02-24T13:17:57.1Z</time>
      </trkpt>
      <trkpt lat="48.48874" lon="-3.51214">
        <ele>251</ele>
        <time>2013-02-24T13:17:59.1Z</time>
      </trkpt>
      <trkpt lat="48.48872" lon="-3.51213">
        <ele>250</ele>
        <time>2013-02-24T13:18:01.1Z</time>
      </trkpt>
      <trkpt lat="48.4887" lon="-3.51213">
        <ele>250</ele>
        <time>2013-02-24T13:18:03.1Z</time>
      </trkpt>
      <trkpt lat="48.48868" lon="-3.51214">
        <ele>250</ele>
        <time>2013-02-24T13:18:05.1Z</time>
      </trkpt>
      <trkpt lat="48.48866" lon="-3.51214">
        <ele>250</ele>
        <time>2013-02-24T13:18:08.1Z</time>
      </trkpt>
      <trkpt lat="48.48865" lon="-3.51214">
        <ele>250</ele>
        <time>2013-02-24T13:18:10.1Z</time>
      </trkpt>
      <trkpt lat="48.48863" lon="-3.51215">
        <ele>250</ele>
        <time>2013-02-24T13:18:12.1Z</time>
      </trkpt>
      <trkpt lat="48.48861" lon="-3.51216">
        <ele>251</ele>
        <time>2013-02-24T13:18:14.1Z</time>
      </trkpt>
      <trkpt lat="48.48859" lon="-3.51216">
        <ele>251</ele>
        <time>2013-02-24T13:18:16.1Z</time>
      </trkpt>
      <trkpt lat="48.48858" lon="-3.51216">
        <ele>251</ele>
        <time>2013-02-24T13:18:18.1Z</time>
      </trkpt>
      <trkpt lat="48.48856" lon="-3.51216">
        <ele>251</ele>
        <time>2013-02-24T13:18:20.1Z</time>
      </trkpt>
      <trkpt lat="48.48855" lon="-3.51216">
        <ele>251</ele>
        <time>2013-02-24T13:18:22.1Z</time>
      </trkpt>
      <trkpt lat="48.48853" lon="-3.51216">
        <ele>251</ele>
        <time>2013-02-24T13:18:24.1Z</time>
      </trkpt>
      <trkpt lat="48.48851" lon="-3.51216">
        <ele>251</ele>
        <time>2013-02-24T13:18:26.1Z</time>
      </trkpt>
      <trkpt lat="48.4885" lon="-3.51216">
        <ele>251</ele>
        <time>2013-02-24T13:18:29.1Z</time>
      </trkpt>
      <trkpt lat="48.48848" lon="-3.51216">
        <ele>251</ele>
        <time>2013-02-24T13:18:31.1Z</time>
      </trkpt>
      <trkpt lat="48.48847" lon="-3.51216">
        <ele>252</ele>
        <time>2013-02-24T13:18:33.1Z</time>
      </trkpt>
      <trkpt lat="48.48846" lon="-3.51216">
        <ele>252</ele>
        <time>2013-02-24T13:18:35.1Z</time>
      </trkpt>
      <trkpt lat="48.48844" lon="-3.51215">
        <ele>252</ele>
        <time>2013-02-24T13:18:37.1Z</time>
      </trkpt>
      <trkpt lat="48.48843" lon="-3.51214">
        <ele>251</ele>
        <time>2013-02-24T13:18:39.1Z</time>
      </trkpt>
      <trkpt lat="48.48842" lon="-3.51214">
        <ele>251</ele>
        <time>2013-02-24T13:18:41.1Z</time>
      </trkpt>
      <trkpt lat="48.48841" lon="-3.51213">
        <ele>251</ele>
        <time>2013-02-24T13:18:43.1Z</time>
      </trkpt>
      <trkpt lat="48.48839" lon="-3.51213">
        <ele>251</ele>
        <time>2013-02-24T13:18:45.1Z</time>
      </trkpt>
      <trkpt lat="48.48837" lon="-3.51213">
        <ele>251</ele>
        <time>2013-02-24T13:18:47.1Z</time>
      </trkpt>
      <trkpt lat="48.48835" lon="-3.51213">
        <ele>251</ele>
        <time>2013-02-24T13:18:49.1Z</time>
      </trkpt>
      <trkpt lat="48.48834" lon="-3.51212">
        <ele>251</ele>
        <time>2013-02-24T13:18:51.1Z</time>
      </trkpt>
      <trkpt lat="48.48832" lon="-3.51212">
        <ele>251</ele>
        <time>2013-02-24T13:18:53.1Z</time>
      </trkpt>
      <trkpt lat="48.48831" lon="-3.51211">
        <ele>251</ele>
        <time>2013-02-24T13:18:55.1Z</time>
      </trkpt>
      <trkpt lat="48.4883" lon="-3.51211">
        <ele>251</ele>
        <time>2013-02-24T13:18:57.1Z</time>
      </trkpt>
      <trkpt lat="48.48829" lon="-3.51211">
        <ele>251</ele>
        <time>2013-02-24T13:19:00.1Z</time>
      </trkpt>
      <trkpt lat="48.48827" lon="-3.51211">
        <ele>251</ele>
        <time>2013-02-24T13:19:02.1Z</time>
      </trkpt>
      <trkpt lat="48.48825" lon="-3.51211">
        <ele>251</ele>
        <time>2013-02-24T13:19:04.1Z</time>
      </trkpt>
      <trkpt lat="48.48823" lon="-3.51211">
        <ele>251</ele>
        <time>2013-02-24T13:19:06.1Z</time>
      </trkpt>
      <trkpt lat="48.48822" lon="-3.51212">
        <ele>251</ele>
        <time>2013-02-24T13:19:08.1Z</time>
      </trkpt>
      <trkpt lat="48.4882" lon="-3.51211">
        <ele>251</ele>
        <time>2013-02-24T13:19:10.1Z</time>
      </trkpt>
      <trkpt lat="48.48819" lon="-3.51211">
        <ele>251</ele>
        <time>2013-02-24T13:19:12.1Z</time>
      </trkpt>
      <trkpt lat="48.48818" lon="-3.51211">
        <ele>251</ele>
        <time>2013-02-24T13:19:14.1Z</time>
      </trkpt>
      <trkpt lat="48.48815" lon="-3.5121">
        <ele>251</ele>
        <time>2013-02-24T13:19:16.1Z</time>
      </trkpt>
      <trkpt lat="48.48813" lon="-3.5121">
        <ele>251</ele>
        <time>2013-02-24T13:19:18.1Z</time>
      </trkpt>
      <trkpt lat="48.48812" lon="-3.51211">
        <ele>251</ele>
        <time>2013-02-24T13:19:20.1Z</time>
      </trkpt>
      <trkpt lat="48.48811" lon="-3.51211">
        <ele>251</ele>
        <time>2013-02-24T13:19:22.1Z</time>
      </trkpt>
      <trkpt lat="48.48809" lon="-3.51212">
        <ele>251</ele>
        <time>2013-02-24T13:19:24.1Z</time>
      </trkpt>
      <trkpt lat="48.48808" lon="-3.51212">
        <ele>251</ele>
        <time>2013-02-24T13:19:26.1Z</time>
      </trkpt>
      <trkpt lat="48.48806" lon="-3.51212">
        <ele>251</ele>
        <time>2013-02-24T13:19:28.1Z</time>
      </trkpt>
      <trkpt lat="48.48804" lon="-3.51212">
        <ele>251</ele>
        <time>2013-02-24T13:19:30.1Z</time>
      </trkpt>
      <trkpt lat="48.48803" lon="-3.51212">
        <ele>251</ele>
        <time>2013-02-24T13:19:32.1Z</time>
      </trkpt>
      <trkpt lat="48.48801" lon="-3.51212">
        <ele>251</ele>
        <time>2013-02-24T13:19:34.1Z</time>
      </trkpt>
      <trkpt lat="48.488" lon="-3.51212">
        <ele>251</ele>
        <time>2013-02-24T13:19:37.1Z</time>
      </trkpt>
      <trkpt lat="48.48798" lon="-3.51211">
        <ele>251</ele>
        <time>2013-02-24T13:19:39.1Z</time>
      </trkpt>
      <trkpt lat="48.48796" lon="-3.51211">
        <ele>251</ele>
        <time>2013-02-24T13:19:41.1Z</time>
      </trkpt>
      <trkpt lat="48.48795" lon="-3.51211">
        <ele>251</ele>
        <time>2013-02-24T13:19:43.1Z</time>
      </trkpt>
      <trkpt lat="48.48792" lon="-3.5121">
        <ele>251</ele>
        <time>2013-02-24T13:19:45.1Z</time>
      </trkpt>
      <trkpt lat="48.4879" lon="-3.51211">
        <ele>251</ele>
        <time>2013-02-24T13:19:47.1Z</time>
      </trkpt>
      <trkpt lat="48.48789" lon="-3.51211">
        <ele>251</ele>
        <time>2013-02-24T13:19:49.1Z</time>
      </trkpt>
      <trkpt lat="48.48787" lon="-3.51211">
        <ele>251</ele>
        <time>2013-02-24T13:19:51.1Z</time>
      </trkpt>
      <trkpt lat="48.48785" lon="-3.51211">
        <ele>251</ele>
        <time>2013-02-24T13:19:53.1Z</time>
      </trkpt>
      <trkpt lat="48.48782" lon="-3.51211">
        <ele>251</ele>
        <time>2013-02-24T13:19:55.1Z</time>
      </trkpt>
      <trkpt lat="48.48781" lon="-3.5121">
        <ele>252</ele>
        <time>2013-02-24T13:19:57.1Z</time>
      </trkpt>
      <trkpt lat="48.48779" lon="-3.51211">
        <ele>251</ele>
        <time>2013-02-24T13:19:59.1Z</time>
      </trkpt>
      <trkpt lat="48.48777" lon="-3.5121">
        <ele>252</ele>
        <time>2013-02-24T13:20:01.1Z</time>
      </trkpt>
      <trkpt lat="48.48775" lon="-3.5121">
        <ele>252</ele>
        <time>2013-02-24T13:20:03.1Z</time>
      </trkpt>
      <trkpt lat="48.48773" lon="-3.51209">
        <ele>252</ele>
        <time>2013-02-24T13:20:05.1Z</time>
      </trkpt>
      <trkpt lat="48.48771" lon="-3.51209">
        <ele>252</ele>
        <time>2013-02-24T13:20:07.1Z</time>
      </trkpt>
      <trkpt lat="48.48769" lon="-3.51209">
        <ele>252</ele>
        <time>2013-02-24T13:20:09.1Z</time>
      </trkpt>
      <trkpt lat="48.48767" lon="-3.51208">
        <ele>252</ele>
        <time>2013-02-24T13:20:11.1Z</time>
      </trkpt>
      <trkpt lat="48.48765" lon="-3.51209">
        <ele>252</ele>
        <time>2013-02-24T13:20:14.1Z</time>
      </trkpt>
      <trkpt lat="48.48763" lon="-3.51208">
        <ele>252</ele>
        <time>2013-02-24T13:20:16.1Z</time>
      </trkpt>
      <trkpt lat="48.48761" lon="-3.51209">
        <ele>253</ele>
        <time>2013-02-24T13:20:18.1Z</time>
      </trkpt>
      <trkpt lat="48.48759" lon="-3.51208">
        <ele>253</ele>
        <time>2013-02-24T13:20:20.1Z</time>
      </trkpt>
      <trkpt lat="48.48757" lon="-3.51208">
        <ele>253</ele>
        <time>2013-02-24T13:20:22.1Z</time>
      </trkpt>
      <trkpt lat="48.48755" lon="-3.51208">
        <ele>253</ele>
        <time>2013-02-24T13:20:24.1Z</time>
      </trkpt>
      <trkpt lat="48.48752" lon="-3.51209">
        <ele>253</ele>
        <time>2013-02-24T13:20:26.1Z</time>
      </trkpt>
      <trkpt lat="48.4875" lon="-3.51209">
        <ele>253</ele>
        <time>2013-02-24T13:20:28.1Z</time>
      </trkpt>
      <trkpt lat="48.48748" lon="-3.51208">
        <ele>253</ele>
        <time>2013-02-24T13:20:30.1Z</time>
      </trkpt>
      <trkpt lat="48.48746" lon="-3.51208">
        <ele>254</ele>
        <time>2013-02-24T13:20:32.1Z</time>
      </trkpt>
      <trkpt lat="48.48744" lon="-3.51208">
        <ele>254</ele>
        <time>2013-02-24T13:20:34.1Z</time>
      </trkpt>
      <trkpt lat="48.48742" lon="-3.51208">
        <ele>254</ele>
        <time>2013-02-24T13:20:36.1Z</time>
      </trkpt>
      <trkpt lat="48.4874" lon="-3.51208">
        <ele>254</ele>
        <time>2013-02-24T13:20:39.1Z</time>
      </trkpt>
      <trkpt lat="48.48738" lon="-3.51208">
        <ele>254</ele>
        <time>2013-02-24T13:20:41.1Z</time>
      </trkpt>
      <trkpt lat="48.48737" lon="-3.51208">
        <ele>255</ele>
        <time>2013-02-24T13:20:43.1Z</time>
      </trkpt>
      <trkpt lat="48.48735" lon="-3.51209">
        <ele>255</ele>
        <time>2013-02-24T13:20:45.1Z</time>
      </trkpt>
      <trkpt lat="48.48733" lon="-3.51208">
        <ele>255</ele>
        <time>2013-02-24T13:20:47.1Z</time>
      </trkpt>
      <trkpt lat="48.48731" lon="-3.51207">
        <ele>255</ele>
        <time>2013-02-24T13:20:49.1Z</time>
      </trkpt>
      <trkpt lat="48.48729" lon="-3.51208">
        <ele>255</ele>
        <time>2013-02-24T13:20:51.1Z</time>
      </trkpt>
      <trkpt lat="48.48727" lon="-3.51208">
        <ele>255</ele>
        <time>2013-02-24T13:20:53.1Z</time>
      </trkpt>
      <trkpt lat="48.48725" lon="-3.51208">
        <ele>255</ele>
        <time>2013-02-24T13:20:55.1Z</time>
      </trkpt>
      <trkpt lat="48.48723" lon="-3.51209">
        <ele>255</ele>
        <time>2013-02-24T13:20:57.1Z</time>
      </trkpt>
      <trkpt lat="48.48721" lon="-3.51209">
        <ele>255</ele>
        <time>2013-02-24T13:20:59.1Z</time>
      </trkpt>
      <trkpt lat="48.4872" lon="-3.51209">
        <ele>255</ele>
        <time>2013-02-24T13:21:01.1Z</time>
      </trkpt>
      <trkpt lat="48.48718" lon="-3.51209">
        <ele>255</ele>
        <time>2013-02-24T13:21:04.1Z</time>
      </trkpt>
      <trkpt lat="48.48716" lon="-3.51209">
        <ele>256</ele>
        <time>2013-02-24T13:21:06.1Z</time>
      </trkpt>
      <trkpt lat="48.48714" lon="-3.51209">
        <ele>256</ele>
        <time>2013-02-24T13:21:08.1Z</time>
      </trkpt>
      <trkpt lat="48.48713" lon="-3.51209">
        <ele>256</ele>
        <time>2013-02-24T13:21:10.1Z</time>
      </trkpt>
      <trkpt lat="48.48711" lon="-3.51209">
        <ele>256</ele>
        <time>2013-02-24T13:21:12.1Z</time>
      </trkpt>
      <trkpt lat="48.48709" lon="-3.51208">
        <ele>256</ele>
        <time>2013-02-24T13:21:14.1Z</time>
      </trkpt>
      <trkpt lat="48.48708" lon="-3.51208">
        <ele>256</ele>
        <time>2013-02-24T13:21:16.1Z</time>
      </trkpt>
      <trkpt lat="48.48706" lon="-3.51208">
        <ele>256</ele>
        <time>2013-02-24T13:21:18.1Z</time>
      </trkpt>
      <trkpt lat="48.48705" lon="-3.51208">
        <ele>256</ele>
        <time>2013-02-24T13:21:20.1Z</time>
      </trkpt>
      <trkpt lat="48.48704" lon="-3.51207">
        <ele>256</ele>
        <time>2013-02-24T13:21:23.1Z</time>
      </trkpt>
      <trkpt lat="48.48703" lon="-3.51207">
        <ele>255</ele>
        <time>2013-02-24T13:21:25.1Z</time>
      </trkpt>
      <trkpt lat="48.48702" lon="-3.51208">
        <ele>255</ele>
        <time>2013-02-24T13:21:27.1Z</time>
      </trkpt>
      <trkpt lat="48.487" lon="-3.51207">
        <ele>256</ele>
        <time>2013-02-24T13:21:29.1Z</time>
      </trkpt>
      <trkpt lat="48.48698" lon="-3.51208">
        <ele>255</ele>
        <time>2013-02-24T13:21:31.1Z</time>
      </trkpt>
      <trkpt lat="48.48697" lon="-3.51208">
        <ele>255</ele>
        <time>2013-02-24T13:21:33.1Z</time>
      </trkpt>
      <trkpt lat="48.48696" lon="-3.51208">
        <ele>255</ele>
        <time>2013-02-24T13:21:35.1Z</time>
      </trkpt>
      <trkpt lat="48.48694" lon="-3.51208">
        <ele>255</ele>
        <time>2013-02-24T13:21:37.1Z</time>
      </trkpt>
      <trkpt lat="48.48692" lon="-3.51208">
        <ele>255</ele>
        <time>2013-02-24T13:21:39.1Z</time>
      </trkpt>
      <trkpt lat="48.48691" lon="-3.51208">
        <ele>255</ele>
        <time>2013-02-24T13:21:41.1Z</time>
      </trkpt>
      <trkpt lat="48.4869" lon="-3.51208">
        <ele>255</ele>
        <time>2013-02-24T13:21:43.1Z</time>
      </trkpt>
      <trkpt lat="48.48688" lon="-3.51208">
        <ele>255</ele>
        <time>2013-02-24T13:21:45.1Z</time>
      </trkpt>
      <trkpt lat="48.48686" lon="-3.51208">
        <ele>255</ele>
        <time>2013-02-24T13:21:48.1Z</time>
      </trkpt>
      <trkpt lat="48.48684" lon="-3.51208">
        <ele>255</ele>
        <time>2013-02-24T13:21:50.1Z</time>
      </trkpt>
      <trkpt lat="48.48682" lon="-3.51208">
        <ele>254</ele>
        <time>2013-02-24T13:21:52.1Z</time>
      </trkpt>
      <trkpt lat="48.4868" lon="-3.51207">
        <ele>254</ele>
        <time>2013-02-24T13:21:54.1Z</time>
      </trkpt>
      <trkpt lat="48.48678" lon="-3.51207">
        <ele>254</ele>
        <time>2013-02-24T13:21:56.1Z</time>
      </trkpt>
      <trkpt lat="48.48676" lon="-3.51206">
        <ele>254</ele>
        <time>2013-02-24T13:21:58.1Z</time>
      </trkpt>
      <trkpt lat="48.48673" lon="-3.51206">
        <ele>254</ele>
        <time>2013-02-24T13:22:00.1Z</time>
      </trkpt>
      <trkpt lat="48.48671" lon="-3.51206">
        <ele>254</ele>
        <time>2013-02-24T13:22:02.1Z</time>
      </trkpt>
      <trkpt lat="48.48669" lon="-3.51206">
        <ele>254</ele>
        <time>2013-02-24T13:22:04.1Z</time>
      </trkpt>
      <trkpt lat="48.48666" lon="-3.51206">
        <ele>253</ele>
        <time>2013-02-24T13:22:06.1Z</time>
      </trkpt>
      <trkpt lat="48.48664" lon="-3.51206">
        <ele>253</ele>
        <time>2013-02-24T13:22:08.1Z</time>
      </trkpt>
      <trkpt lat="48.48661" lon="-3.51205">
        <ele>253</ele>
        <time>2013-02-24T13:22:10.1Z</time>
      </trkpt>
      <trkpt lat="48.48659" lon="-3.51204">
        <ele>252</ele>
        <time>2013-02-24T13:22:12.1Z</time>
      </trkpt>
      <trkpt lat="48.48657" lon="-3.51204">
        <ele>252</ele>
        <time>2013-02-24T13:22:15.1Z</time>
      </trkpt>
      <trkpt lat="48.48655" lon="-3.51203">
        <ele>252</ele>
        <time>2013-02-24T13:22:17.1Z</time>
      </trkpt>
      <trkpt lat="48.48652" lon="-3.51202">
        <ele>252</ele>
        <time>2013-02-24T13:22:19.1Z</time>
      </trkpt>
      <trkpt lat="48.4865" lon="-3.51202">
        <ele>252</ele>
        <time>2013-02-24T13:22:21.1Z</time>
      </trkpt>
      <trkpt lat="48.48648" lon="-3.51202">
        <ele>252</ele>
        <time>2013-02-24T13:22:23.1Z</time>
      </trkpt>
      <trkpt lat="48.48645" lon="-3.51201">
        <ele>252</ele>
        <time>2013-02-24T13:22:25.1Z</time>
      </trkpt>
      <trkpt lat="48.48642" lon="-3.51202">
        <ele>252</ele>
        <time>2013-02-24T13:22:27.1Z</time>
      </trkpt>
      <trkpt lat="48.48641" lon="-3.51202">
        <ele>251</ele>
        <time>2013-02-24T13:22:29.1Z</time>
      </trkpt>
      <trkpt lat="48.48639" lon="-3.51202">
        <ele>251</ele>
        <time>2013-02-24T13:22:31.1Z</time>
      </trkpt>
      <trkpt lat="48.48637" lon="-3.51202">
        <ele>251</ele>
        <time>2013-02-24T13:22:33.1Z</time>
      </trkpt>
      <trkpt lat="48.48635" lon="-3.51201">
        <ele>251</ele>
        <time>2013-02-24T13:22:35.1Z</time>
      </trkpt>
      <trkpt lat="48.48633" lon="-3.51202">
        <ele>251</ele>
        <time>2013-02-24T13:22:37.1Z</time>
      </trkpt>
      <trkpt lat="48.48632" lon="-3.51201">
        <ele>251</ele>
        <time>2013-02-24T13:22:39.1Z</time>
      </trkpt>
      <trkpt lat="48.4863" lon="-3.51202">
        <ele>251</ele>
        <time>2013-02-24T13:22:42.1Z</time>
      </trkpt>
      <trkpt lat="48.48629" lon="-3.51203">
        <ele>251</ele>
        <time>2013-02-24T13:22:44.1Z</time>
      </trkpt>
      <trkpt lat="48.48626" lon="-3.51203">
        <ele>250</ele>
        <time>2013-02-24T13:22:46.1Z</time>
      </trkpt>
      <trkpt lat="48.48624" lon="-3.51203">
        <ele>250</ele>
        <time>2013-02-24T13:22:48.1Z</time>
      </trkpt>
      <trkpt lat="48.48623" lon="-3.51203">
        <ele>250</ele>
        <time>2013-02-24T13:22:50.1Z</time>
      </trkpt>
      <trkpt lat="48.48621" lon="-3.51203">
        <ele>249</ele>
        <time>2013-02-24T13:22:52.1Z</time>
      </trkpt>
      <trkpt lat="48.48619" lon="-3.51204">
        <ele>249</ele>
        <time>2013-02-24T13:22:54.1Z</time>
      </trkpt>
      <trkpt lat="48.48617" lon="-3.51204">
        <ele>249</ele>
        <time>2013-02-24T13:22:56.1Z</time>
      </trkpt>
      <trkpt lat="48.48616" lon="-3.51204">
        <ele>249</ele>
        <time>2013-02-24T13:22:59.1Z</time>
      </trkpt>
      <trkpt lat="48.48615" lon="-3.51204">
        <ele>248</ele>
        <time>2013-02-24T13:23:01.1Z</time>
      </trkpt>
      <trkpt lat="48.48613" lon="-3.51205">
        <ele>248</ele>
        <time>2013-02-24T13:23:03.1Z</time>
      </trkpt>
      <trkpt lat="48.48611" lon="-3.51205">
        <ele>249</ele>
        <time>2013-02-24T13:23:05.1Z</time>
      </trkpt>
      <trkpt lat="48.48609" lon="-3.51204">
        <ele>248</ele>
        <time>2013-02-24T13:23:07.1Z</time>
      </trkpt>
      <trkpt lat="48.48605" lon="-3.51204">
        <ele>248</ele>
        <time>2013-02-24T13:23:09.1Z</time>
      </trkpt>
      <trkpt lat="48.48603" lon="-3.51204">
        <ele>248</ele>
        <time>2013-02-24T13:23:11.1Z</time>
      </trkpt>
      <trkpt lat="48.486" lon="-3.51203">
        <ele>248</ele>
        <time>2013-02-24T13:23:13.1Z</time>
      </trkpt>
      <trkpt lat="48.48598" lon="-3.51203">
        <ele>247</ele>
        <time>2013-02-24T13:23:15.1Z</time>
      </trkpt>
      <trkpt lat="48.48596" lon="-3.51203">
        <ele>247</ele>
        <time>2013-02-24T13:23:17.1Z</time>
      </trkpt>
      <trkpt lat="48.48594" lon="-3.51202">
        <ele>247</ele>
        <time>2013-02-24T13:23:20.1Z</time>
      </trkpt>
      <trkpt lat="48.48591" lon="-3.51202">
        <ele>247</ele>
        <time>2013-02-24T13:23:22.1Z</time>
      </trkpt>
      <trkpt lat="48.48589" lon="-3.51201">
        <ele>247</ele>
        <time>2013-02-24T13:23:24.1Z</time>
      </trkpt>
      <trkpt lat="48.48587" lon="-3.51201">
        <ele>247</ele>
        <time>2013-02-24T13:23:26.1Z</time>
      </trkpt>
      <trkpt lat="48.48585" lon="-3.51201">
        <ele>247</ele>
        <time>2013-02-24T13:23:28.1Z</time>
      </trkpt>
      <trkpt lat="48.48582" lon="-3.51202">
        <ele>247</ele>
        <time>2013-02-24T13:23:30.1Z</time>
      </trkpt>
      <trkpt lat="48.48581" lon="-3.51202">
        <ele>247</ele>
        <time>2013-02-24T13:23:32.1Z</time>
      </trkpt>
      <trkpt lat="48.4858" lon="-3.51202">
        <ele>248</ele>
        <time>2013-02-24T13:23:34.1Z</time>
      </trkpt>
      <trkpt lat="48.48579" lon="-3.51203">
        <ele>248</ele>
        <time>2013-02-24T13:23:36.1Z</time>
      </trkpt>
      <trkpt lat="48.48578" lon="-3.51203">
        <ele>248</ele>
        <time>2013-02-24T13:23:38.1Z</time>
      </trkpt>
      <trkpt lat="48.48577" lon="-3.51204">
        <ele>247</ele>
        <time>2013-02-24T13:23:40.1Z</time>
      </trkpt>
      <trkpt lat="48.48575" lon="-3.51205">
        <ele>247</ele>
        <time>2013-02-24T13:23:42.1Z</time>
      </trkpt>
      <trkpt lat="48.48574" lon="-3.51205">
        <ele>247</ele>
        <time>2013-02-24T13:23:44.1Z</time>
      </trkpt>
      <trkpt lat="48.48573" lon="-3.51205">
        <ele>247</ele>
        <time>2013-02-24T13:23:46.1Z</time>
      </trkpt>
      <trkpt lat="48.48572" lon="-3.51206">
        <ele>247</ele>
        <time>2013-02-24T13:23:48.1Z</time>
      </trkpt>
      <trkpt lat="48.48571" lon="-3.51206">
        <ele>247</ele>
        <time>2013-02-24T13:23:50.1Z</time>
      </trkpt>
      <trkpt lat="48.4857" lon="-3.51208">
        <ele>247</ele>
        <time>2013-02-24T13:23:52.1Z</time>
      </trkpt>
      <trkpt lat="48.48569" lon="-3.51208">
        <ele>247</ele>
        <time>2013-02-24T13:23:55.1Z</time>
      </trkpt>
      <trkpt lat="48.48568" lon="-3.51209">
        <ele>247</ele>
        <time>2013-02-24T13:23:57.1Z</time>
      </trkpt>
      <trkpt lat="48.48568" lon="-3.51209">
        <ele>247</ele>
        <time>2013-02-24T13:23:59.1Z</time>
      </trkpt>
      <trkpt lat="48.48567" lon="-3.51209">
        <ele>246</ele>
        <time>2013-02-24T13:24:01.1Z</time>
      </trkpt>
      <trkpt lat="48.48567" lon="-3.51209">
        <ele>246</ele>
        <time>2013-02-24T13:24:03.1Z</time>
      </trkpt>
      <trkpt lat="48.48566" lon="-3.5121">
        <ele>246</ele>
        <time>2013-02-24T13:24:05.1Z</time>
      </trkpt>
      <trkpt lat="48.48565" lon="-3.5121">
        <ele>246</ele>
        <time>2013-02-24T13:24:07.1Z</time>
      </trkpt>
      <trkpt lat="48.48564" lon="-3.51209">
        <ele>246</ele>
        <time>2013-02-24T13:24:09.1Z</time>
      </trkpt>
      <trkpt lat="48.48563" lon="-3.51209">
        <ele>246</ele>
        <time>2013-02-24T13:24:11.1Z</time>
      </trkpt>
      <trkpt lat="48.48563" lon="-3.51209">
        <ele>246</ele>
        <time>2013-02-24T13:24:13.1Z</time>
      </trkpt>
      <trkpt lat="48.48563" lon="-3.5121">
        <ele>246</ele>
        <time>2013-02-24T13:24:15.1Z</time>
      </trkpt>
      <trkpt lat="48.48563" lon="-3.51211">
        <ele>246</ele>
        <time>2013-02-24T13:24:17.1Z</time>
      </trkpt>
      <trkpt lat="48.48563" lon="-3.5121">
        <ele>246</ele>
        <time>2013-02-24T13:24:20.1Z</time>
      </trkpt>
      <trkpt lat="48.48563" lon="-3.51209">
        <ele>247</ele>
        <time>2013-02-24T13:24:22.1Z</time>
      </trkpt>
      <trkpt lat="48.48564" lon="-3.51209">
        <ele>246</ele>
        <time>2013-02-24T13:24:24.1Z</time>
      </trkpt>
      <trkpt lat="48.48563" lon="-3.51208">
        <ele>246</ele>
        <time>2013-02-24T13:24:26.1Z</time>
      </trkpt>
      <trkpt lat="48.48562" lon="-3.51207">
        <ele>246</ele>
        <time>2013-02-24T13:24:28.1Z</time>
      </trkpt>
      <trkpt lat="48.48562" lon="-3.51207">
        <ele>246</ele>
        <time>2013-02-24T13:24:30.1Z</time>
      </trkpt>
      <trkpt lat="48.48561" lon="-3.51206">
        <ele>246</ele>
        <time>2013-02-24T13:24:32.1Z</time>
      </trkpt>
      <trkpt lat="48.48561" lon="-3.51206">
        <ele>246</ele>
        <time>2013-02-24T13:24:34.1Z</time>
      </trkpt>
      <trkpt lat="48.48562" lon="-3.51204">
        <ele>246</ele>
        <time>2013-02-24T13:24:36.1Z</time>
      </trkpt>
      <trkpt lat="48.48561" lon="-3.51202">
        <ele>246</ele>
        <time>2013-02-24T13:24:38.1Z</time>
      </trkpt>
      <trkpt lat="48.48561" lon="-3.51203">
        <ele>246</ele>
        <time>2013-02-24T13:24:40.1Z</time>
      </trkpt>
      <trkpt lat="48.48561" lon="-3.51204">
        <ele>246</ele>
        <time>2013-02-24T13:24:43.1Z</time>
      </trkpt>
      <trkpt lat="48.4856" lon="-3.51204">
        <ele>246</ele>
        <time>2013-02-24T13:24:45.1Z</time>
      </trkpt>
      <trkpt lat="48.4856" lon="-3.51204">
        <ele>246</ele>
        <time>2013-02-24T13:24:47.1Z</time>
      </trkpt>
      <trkpt lat="48.48559" lon="-3.51204">
        <ele>246</ele>
        <time>2013-02-24T13:24:49.1Z</time>
      </trkpt>
      <trkpt lat="48.48558" lon="-3.51205">
        <ele>246</ele>
        <time>2013-02-24T13:24:51.1Z</time>
      </trkpt>
      <trkpt lat="48.48557" lon="-3.51205">
        <ele>246</ele>
        <time>2013-02-24T13:24:53.1Z</time>
      </trkpt>
      <trkpt lat="48.48556" lon="-3.51204">
        <ele>246</ele>
        <time>2013-02-24T13:24:55.1Z</time>
      </trkpt>
      <trkpt lat="48.48555" lon="-3.51204">
        <ele>246</ele>
        <time>2013-02-24T13:24:57.1Z</time>
      </trkpt>
      <trkpt lat="48.48554" lon="-3.51204">
        <ele>246</ele>
        <time>2013-02-24T13:24:59.1Z</time>
      </trkpt>
      <trkpt lat="48.48554" lon="-3.51204">
        <ele>246</ele>
        <time>2013-02-24T13:25:01.1Z</time>
      </trkpt>
      <trkpt lat="48.48553" lon="-3.51204">
        <ele>246</ele>
        <time>2013-02-24T13:25:03.1Z</time>
      </trkpt>
      <trkpt lat="48.48552" lon="-3.51203">
        <ele>246</ele>
        <time>2013-02-24T13:25:05.1Z</time>
      </trkpt>
      <trkpt lat="48.48552" lon="-3.51203">
        <ele>246</ele>
        <time>2013-02-24T13:25:07.1Z</time>
      </trkpt>
      <trkpt lat="48.48552" lon="-3.51203">
        <ele>246</ele>
        <time>2013-02-24T13:25:09.1Z</time>
      </trkpt>
      <trkpt lat="48.48551" lon="-3.51203">
        <ele>246</ele>
        <time>2013-02-24T13:25:11.1Z</time>
      </trkpt>
      <trkpt lat="48.48551" lon="-3.51203">
        <ele>246</ele>
        <time>2013-02-24T13:25:13.1Z</time>
      </trkpt>
      <trkpt lat="48.4855" lon="-3.51203">
        <ele>246</ele>
        <time>2013-02-24T13:25:16.1Z</time>
      </trkpt>
      <trkpt lat="48.4855" lon="-3.51203">
        <ele>246</ele>
        <time>2013-02-24T13:25:18.1Z</time>
      </trkpt>
      <trkpt lat="48.4855" lon="-3.51202">
        <ele>246</ele>
        <time>2013-02-24T13:25:20.1Z</time>
      </trkpt>
      <trkpt lat="48.48549" lon="-3.51202">
        <ele>246</ele>
        <time>2013-02-24T13:25:22.1Z</time>
      </trkpt>
      <trkpt lat="48.48549" lon="-3.51202">
        <ele>246</ele>
        <time>2013-02-24T13:25:24.1Z</time>
      </trkpt>
      <trkpt lat="48.48549" lon="-3.51203">
        <ele>246</ele>
        <time>2013-02-24T13:25:26.1Z</time>
      </trkpt>
      <trkpt lat="48.48549" lon="-3.51203">
        <ele>246</ele>
        <time>2013-02-24T13:25:28.1Z</time>
      </trkpt>
      <trkpt lat="48.4855" lon="-3.51203">
        <ele>246</ele>
        <time>2013-02-24T13:25:30.1Z</time>
      </trkpt>
      <trkpt lat="48.4855" lon="-3.51204">
        <ele>246</ele>
        <time>2013-02-24T13:25:32.1Z</time>
      </trkpt>
      <trkpt lat="48.4855" lon="-3.51204">
        <ele>246</ele>
        <time>2013-02-24T13:25:34.1Z</time>
      </trkpt>
      <trkpt lat="48.4855" lon="-3.51205">
        <ele>246</ele>
        <time>2013-02-24T13:25:36.1Z</time>
      </trkpt>
      <trkpt lat="48.48551" lon="-3.51206">
        <ele>247</ele>
        <time>2013-02-24T13:25:38.1Z</time>
      </trkpt>
      <trkpt lat="48.48551" lon="-3.51205">
        <ele>247</ele>
        <time>2013-02-24T13:25:40.1Z</time>
      </trkpt>
      <trkpt lat="48.48551" lon="-3.51204">
        <ele>247</ele>
        <time>2013-02-24T13:25:42.1Z</time>
      </trkpt>
      <trkpt lat="48.4855" lon="-3.51204">
        <ele>246</ele>
        <time>2013-02-24T13:25:44.1Z</time>
      </trkpt>
      <trkpt lat="48.48549" lon="-3.51203">
        <ele>246</ele>
        <time>2013-02-24T13:25:46.1Z</time>
      </trkpt>
      <trkpt lat="48.48547" lon="-3.51203">
        <ele>246</ele>
        <time>2013-02-24T13:25:49.1Z</time>
      </trkpt>
      <trkpt lat="48.48547" lon="-3.51203">
        <ele>246</ele>
        <time>2013-02-24T13:25:51.1Z</time>
      </trkpt>
      <trkpt lat="48.48545" lon="-3.51203">
        <ele>246</ele>
        <time>2013-02-24T13:25:53.1Z</time>
      </trkpt>
      <trkpt lat="48.48544" lon="-3.51203">
        <ele>246</ele>
        <time>2013-02-24T13:25:55.1Z</time>
      </trkpt>
      <trkpt lat="48.48543" lon="-3.51204">
        <ele>246</ele>
        <time>2013-02-24T13:25:57.1Z</time>
      </trkpt>
      <trkpt lat="48.48542" lon="-3.51204">
        <ele>246</ele>
        <time>2013-02-24T13:25:59.1Z</time>
      </trkpt>
      <trkpt lat="48.48541" lon="-3.51202">
        <ele>246</ele>
        <time>2013-02-24T13:26:01.1Z</time>
      </trkpt>
      <trkpt lat="48.48539" lon="-3.51203">
        <ele>246</ele>
        <time>2013-02-24T13:26:03.1Z</time>
      </trkpt>
      <trkpt lat="48.48539" lon="-3.51203">
        <ele>246</ele>
        <time>2013-02-24T13:26:05.1Z</time>
      </trkpt>
      <trkpt lat="48.48537" lon="-3.51203">
        <ele>245</ele>
        <time>2013-02-24T13:26:07.1Z</time>
      </trkpt>
      <trkpt lat="48.48536" lon="-3.51204">
        <ele>245</ele>
        <time>2013-02-24T13:26:09.1Z</time>
      </trkpt>
      <trkpt lat="48.48536" lon="-3.51204">
        <ele>245</ele>
        <time>2013-02-24T13:26:11.1Z</time>
      </trkpt>
      <trkpt lat="48.48534" lon="-3.51204">
        <ele>245</ele>
        <time>2013-02-24T13:26:13.1Z</time>
      </trkpt>
      <trkpt lat="48.48533" lon="-3.51205">
        <ele>245</ele>
        <time>2013-02-24T13:26:15.1Z</time>
      </trkpt>
      <trkpt lat="48.48532" lon="-3.51206">
        <ele>246</ele>
        <time>2013-02-24T13:26:17.1Z</time>
      </trkpt>
      <trkpt lat="48.48532" lon="-3.51206">
        <ele>246</ele>
        <time>2013-02-24T13:26:19.1Z</time>
      </trkpt>
      <trkpt lat="48.4853" lon="-3.51206">
        <ele>246</ele>
        <time>2013-02-24T13:26:22.1Z</time>
      </trkpt>
      <trkpt lat="48.48527" lon="-3.51207">
        <ele>247</ele>
        <time>2013-02-24T13:26:24.1Z</time>
      </trkpt>
      <trkpt lat="48.48526" lon="-3.51208">
        <ele>247</ele>
        <time>2013-02-24T13:26:26.1Z</time>
      </trkpt>
      <trkpt lat="48.48524" lon="-3.51209">
        <ele>247</ele>
        <time>2013-02-24T13:26:28.1Z</time>
      </trkpt>
      <trkpt lat="48.48523" lon="-3.5121">
        <ele>247</ele>
        <time>2013-02-24T13:26:30.1Z</time>
      </trkpt>
      <trkpt lat="48.48521" lon="-3.51211">
        <ele>247</ele>
        <time>2013-02-24T13:26:32.1Z</time>
      </trkpt>
      <trkpt lat="48.48519" lon="-3.51212">
        <ele>247</ele>
        <time>2013-02-24T13:26:34.1Z</time>
      </trkpt>
      <trkpt lat="48.48518" lon="-3.51211">
        <ele>247</ele>
        <time>2013-02-24T13:26:36.1Z</time>
      </trkpt>
      <trkpt lat="48.48516" lon="-3.51212">
        <ele>247</ele>
        <time>2013-02-24T13:26:38.1Z</time>
      </trkpt>
      <trkpt lat="48.48515" lon="-3.51212">
        <ele>247</ele>
        <time>2013-02-24T13:26:40.1Z</time>
      </trkpt>
      <trkpt lat="48.48513" lon="-3.51212">
        <ele>247</ele>
        <time>2013-02-24T13:26:42.1Z</time>
      </trkpt>
      <trkpt lat="48.48512" lon="-3.51211">
        <ele>247</ele>
        <time>2013-02-24T13:26:44.1Z</time>
      </trkpt>
      <trkpt lat="48.48511" lon="-3.5121">
        <ele>247</ele>
        <time>2013-02-24T13:26:46.1Z</time>
      </trkpt>
      <trkpt lat="48.4851" lon="-3.51209">
        <ele>247</ele>
        <time>2013-02-24T13:26:48.1Z</time>
      </trkpt>
      <trkpt lat="48.4851" lon="-3.51209">
        <ele>246</ele>
        <time>2013-02-24T13:26:50.1Z</time>
      </trkpt>
      <trkpt lat="48.48508" lon="-3.51209">
        <ele>246</ele>
        <time>2013-02-24T13:26:52.1Z</time>
      </trkpt>
      <trkpt lat="48.48507" lon="-3.51208">
        <ele>247</ele>
        <time>2013-02-24T13:26:55.1Z</time>
      </trkpt>
      <trkpt lat="48.48506" lon="-3.51208">
        <ele>247</ele>
        <time>2013-02-24T13:26:57.1Z</time>
      </trkpt>
      <trkpt lat="48.48505" lon="-3.51207">
        <ele>247</ele>
        <time>2013-02-24T13:26:59.1Z</time>
      </trkpt>
      <trkpt lat="48.48504" lon="-3.51206">
        <ele>246</ele>
        <time>2013-02-24T13:27:01.1Z</time>
      </trkpt>
      <trkpt lat="48.48503" lon="-3.51205">
        <ele>246</ele>
        <time>2013-02-24T13:27:03.1Z</time>
      </trkpt>
      <trkpt lat="48.48502" lon="-3.51205">
        <ele>246</ele>
        <time>2013-02-24T13:27:05.1Z</time>
      </trkpt>
      <trkpt lat="48.48502" lon="-3.51204">
        <ele>246</ele>
        <time>2013-02-24T13:27:07.1Z</time>
      </trkpt>
      <trkpt lat="48.485" lon="-3.51202">
        <ele>247</ele>
        <time>2013-02-24T13:27:09.1Z</time>
      </trkpt>
      <trkpt lat="48.48499" lon="-3.51201">
        <ele>247</ele>
        <time>2013-02-24T13:27:11.1Z</time>
      </trkpt>
      <trkpt lat="48.48497" lon="-3.51199">
        <ele>247</ele>
        <time>2013-02-24T13:27:14.1Z</time>
      </trkpt>
      <trkpt lat="48.48496" lon="-3.51199">
        <ele>247</ele>
        <time>2013-02-24T13:27:16.1Z</time>
      </trkpt>
      <trkpt lat="48.48495" lon="-3.51198">
        <ele>247</ele>
        <time>2013-02-24T13:27:18.1Z</time>
      </trkpt>
      <trkpt lat="48.48493" lon="-3.51198">
        <ele>247</ele>
        <time>2013-02-24T13:27:20.1Z</time>
      </trkpt>
      <trkpt lat="48.48492" lon="-3.51198">
        <ele>247</ele>
        <time>2013-02-24T13:27:22.1Z</time>
      </trkpt>
      <trkpt lat="48.48491" lon="-3.51198">
        <ele>247</ele>
        <time>2013-02-24T13:27:24.1Z</time>
      </trkpt>
      <trkpt lat="48.4849" lon="-3.51198">
        <ele>247</ele>
        <time>2013-02-24T13:27:26.1Z</time>
      </trkpt>
      <trkpt lat="48.48489" lon="-3.51198">
        <ele>247</ele>
        <time>2013-02-24T13:27:28.1Z</time>
      </trkpt>
      <trkpt lat="48.48488" lon="-3.51197">
        <ele>247</ele>
        <time>2013-02-24T13:27:30.1Z</time>
      </trkpt>
      <trkpt lat="48.48486" lon="-3.51197">
        <ele>247</ele>
        <time>2013-02-24T13:27:32.1Z</time>
      </trkpt>
      <trkpt lat="48.48485" lon="-3.51197">
        <ele>247</ele>
        <time>2013-02-24T13:27:34.1Z</time>
      </trkpt>
      <trkpt lat="48.48483" lon="-3.51196">
        <ele>247</ele>
        <time>2013-02-24T13:27:36.1Z</time>
      </trkpt>
      <trkpt lat="48.48481" lon="-3.51195">
        <ele>247</ele>
        <time>2013-02-24T13:27:38.1Z</time>
      </trkpt>
      <trkpt lat="48.48479" lon="-3.51195">
        <ele>246</ele>
        <time>2013-02-24T13:27:40.1Z</time>
      </trkpt>
      <trkpt lat="48.48478" lon="-3.51195">
        <ele>246</ele>
        <time>2013-02-24T13:27:42.1Z</time>
      </trkpt>
      <trkpt lat="48.48476" lon="-3.51194">
        <ele>246</ele>
        <time>2013-02-24T13:27:45.1Z</time>
      </trkpt>
      <trkpt lat="48.48475" lon="-3.51193">
        <ele>246</ele>
        <time>2013-02-24T13:27:47.1Z</time>
      </trkpt>
      <trkpt lat="48.48473" lon="-3.51191">
        <ele>246</ele>
        <time>2013-02-24T13:27:49.1Z</time>
      </trkpt>
      <trkpt lat="48.48473" lon="-3.5119">
        <ele>246</ele>
        <time>2013-02-24T13:27:51.1Z</time>
      </trkpt>
      <trkpt lat="48.48472" lon="-3.51187">
        <ele>247</ele>
        <time>2013-02-24T13:27:53.1Z</time>
      </trkpt>
      <trkpt lat="48.48471" lon="-3.51185">
        <ele>246</ele>
        <time>2013-02-24T13:27:55.1Z</time>
      </trkpt>
      <trkpt lat="48.4847" lon="-3.51184">
        <ele>246</ele>
        <time>2013-02-24T13:27:57.1Z</time>
      </trkpt>
      <trkpt lat="48.4847" lon="-3.51182">
        <ele>247</ele>
        <time>2013-02-24T13:27:59.1Z</time>
      </trkpt>
      <trkpt lat="48.48469" lon="-3.5118">
        <ele>246</ele>
        <time>2013-02-24T13:28:01.1Z</time>
      </trkpt>
      <trkpt lat="48.48468" lon="-3.51179">
        <ele>247</ele>
        <time>2013-02-24T13:28:03.1Z</time>
      </trkpt>
      <trkpt lat="48.48467" lon="-3.51179">
        <ele>247</ele>
        <time>2013-02-24T13:28:05.1Z</time>
      </trkpt>
      <trkpt lat="48.48466" lon="-3.51178">
        <ele>247</ele>
        <time>2013-02-24T13:28:08.1Z</time>
      </trkpt>
      <trkpt lat="48.48466" lon="-3.51177">
        <ele>246</ele>
        <time>2013-02-24T13:28:10.1Z</time>
      </trkpt>
      <trkpt lat="48.48466" lon="-3.51175">
        <ele>246</ele>
        <time>2013-02-24T13:28:12.1Z</time>
      </trkpt>
      <trkpt lat="48.48465" lon="-3.51174">
        <ele>246</ele>
        <time>2013-02-24T13:28:14.1Z</time>
      </trkpt>
      <trkpt lat="48.48465" lon="-3.51172">
        <ele>246</ele>
        <time>2013-02-24T13:28:16.1Z</time>
      </trkpt>
      <trkpt lat="48.48465" lon="-3.51168">
        <ele>246</ele>
        <time>2013-02-24T13:28:18.1Z</time>
      </trkpt>
      <trkpt lat="48.48465" lon="-3.51166">
        <ele>246</ele>
        <time>2013-02-24T13:28:20.1Z</time>
      </trkpt>
      <trkpt lat="48.48465" lon="-3.51164">
        <ele>246</ele>
        <time>2013-02-24T13:28:22.1Z</time>
      </trkpt>
      <trkpt lat="48.48465" lon="-3.51162">
        <ele>246</ele>
        <time>2013-02-24T13:28:24.1Z</time>
      </trkpt>
      <trkpt lat="48.48466" lon="-3.51161">
        <ele>246</ele>
        <time>2013-02-24T13:28:26.1Z</time>
      </trkpt>
      <trkpt lat="48.48466" lon="-3.5116">
        <ele>245</ele>
        <time>2013-02-24T13:28:28.1Z</time>
      </trkpt>
      <trkpt lat="48.48466" lon="-3.51158">
        <ele>246</ele>
        <time>2013-02-24T13:28:31.1Z</time>
      </trkpt>
      <trkpt lat="48.48466" lon="-3.51157">
        <ele>246</ele>
        <time>2013-02-24T13:28:33.1Z</time>
      </trkpt>
      <trkpt lat="48.48466" lon="-3.51155">
        <ele>246</ele>
        <time>2013-02-24T13:28:35.1Z</time>
      </trkpt>
      <trkpt lat="48.48465" lon="-3.51153">
        <ele>246</ele>
        <time>2013-02-24T13:28:37.1Z</time>
      </trkpt>
      <trkpt lat="48.48464" lon="-3.5115">
        <ele>245</ele>
        <time>2013-02-24T13:28:39.1Z</time>
      </trkpt>
      <trkpt lat="48.48464" lon="-3.51149">
        <ele>245</ele>
        <time>2013-02-24T13:28:41.1Z</time>
      </trkpt>
      <trkpt lat="48.48464" lon="-3.51147">
        <ele>245</ele>
        <time>2013-02-24T13:28:43.1Z</time>
      </trkpt>
      <trkpt lat="48.48464" lon="-3.51145">
        <ele>245</ele>
        <time>2013-02-24T13:28:45.1Z</time>
      </trkpt>
      <trkpt lat="48.48464" lon="-3.51144">
        <ele>245</ele>
        <time>2013-02-24T13:28:47.1Z</time>
      </trkpt>
      <trkpt lat="48.48464" lon="-3.51143">
        <ele>245</ele>
        <time>2013-02-24T13:28:49.1Z</time>
      </trkpt>
      <trkpt lat="48.48464" lon="-3.51141">
        <ele>245</ele>
        <time>2013-02-24T13:28:51.1Z</time>
      </trkpt>
      <trkpt lat="48.48464" lon="-3.51139">
        <ele>245</ele>
        <time>2013-02-24T13:28:53.1Z</time>
      </trkpt>
      <trkpt lat="48.48464" lon="-3.51137">
        <ele>245</ele>
        <time>2013-02-24T13:28:55.1Z</time>
      </trkpt>
      <trkpt lat="48.48464" lon="-3.51135">
        <ele>245</ele>
        <time>2013-02-24T13:28:57.1Z</time>
      </trkpt>
      <trkpt lat="48.48464" lon="-3.51132">
        <ele>245</ele>
        <time>2013-02-24T13:29:00.1Z</time>
      </trkpt>
      <trkpt lat="48.48464" lon="-3.5113">
        <ele>245</ele>
        <time>2013-02-24T13:29:02.1Z</time>
      </trkpt>
      <trkpt lat="48.48463" lon="-3.51128">
        <ele>245</ele>
        <time>2013-02-24T13:29:04.1Z</time>
      </trkpt>
      <trkpt lat="48.48464" lon="-3.51125">
        <ele>245</ele>
        <time>2013-02-24T13:29:06.1Z</time>
      </trkpt>
      <trkpt lat="48.48465" lon="-3.51124">
        <ele>245</ele>
        <time>2013-02-24T13:29:08.1Z</time>
      </trkpt>
      <trkpt lat="48.48466" lon="-3.5112">
        <ele>245</ele>
        <time>2013-02-24T13:29:10.1Z</time>
      </trkpt>
      <trkpt lat="48.48466" lon="-3.51118">
        <ele>244</ele>
        <time>2013-02-24T13:29:12.1Z</time>
      </trkpt>
      <trkpt lat="48.48465" lon="-3.51116">
        <ele>244</ele>
        <time>2013-02-24T13:29:14.1Z</time>
      </trkpt>
      <trkpt lat="48.48466" lon="-3.51114">
        <ele>244</ele>
        <time>2013-02-24T13:29:16.1Z</time>
      </trkpt>
      <trkpt lat="48.48466" lon="-3.51112">
        <ele>244</ele>
        <time>2013-02-24T13:29:18.1Z</time>
      </trkpt>
      <trkpt lat="48.48466" lon="-3.5111">
        <ele>244</ele>
        <time>2013-02-24T13:29:20.1Z</time>
      </trkpt>
      <trkpt lat="48.48465" lon="-3.51107">
        <ele>244</ele>
        <time>2013-02-24T13:29:22.1Z</time>
      </trkpt>
      <trkpt lat="48.48465" lon="-3.51104">
        <ele>244</ele>
        <time>2013-02-24T13:29:24.1Z</time>
      </trkpt>
      <trkpt lat="48.48466" lon="-3.51101">
        <ele>244</ele>
        <time>2013-02-24T13:29:26.1Z</time>
      </trkpt>
      <trkpt lat="48.48466" lon="-3.51098">
        <ele>244</ele>
        <time>2013-02-24T13:29:28.1Z</time>
      </trkpt>
      <trkpt lat="48.48467" lon="-3.51096">
        <ele>244</ele>
        <time>2013-02-24T13:29:30.1Z</time>
      </trkpt>
      <trkpt lat="48.48467" lon="-3.51094">
        <ele>244</ele>
        <time>2013-02-24T13:29:33.1Z</time>
      </trkpt>
      <trkpt lat="48.48467" lon="-3.51092">
        <ele>244</ele>
        <time>2013-02-24T13:29:35.1Z</time>
      </trkpt>
      <trkpt lat="48.48466" lon="-3.51089">
        <ele>244</ele>
        <time>2013-02-24T13:29:37.1Z</time>
      </trkpt>
      <trkpt lat="48.48466" lon="-3.51087">
        <ele>244</ele>
        <time>2013-02-24T13:29:39.1Z</time>
      </trkpt>
      <trkpt lat="48.48466" lon="-3.51084">
        <ele>244</ele>
        <time>2013-02-24T13:29:41.1Z</time>
      </trkpt>
      <trkpt lat="48.48465" lon="-3.5108">
        <ele>244</ele>
        <time>2013-02-24T13:29:43.1Z</time>
      </trkpt>
      <trkpt lat="48.48465" lon="-3.51077">
        <ele>243</ele>
        <time>2013-02-24T13:29:45.1Z</time>
      </trkpt>
      <trkpt lat="48.48465" lon="-3.51075">
        <ele>244</ele>
        <time>2013-02-24T13:29:47.1Z</time>
      </trkpt>
      <trkpt lat="48.48465" lon="-3.51074">
        <ele>243</ele>
        <time>2013-02-24T13:29:49.1Z</time>
      </trkpt>
      <trkpt lat="48.48466" lon="-3.51071">
        <ele>243</ele>
        <time>2013-02-24T13:29:51.1Z</time>
      </trkpt>
      <trkpt lat="48.48467" lon="-3.51068">
        <ele>243</ele>
        <time>2013-02-24T13:29:53.1Z</time>
      </trkpt>
      <trkpt lat="48.48468" lon="-3.51066">
        <ele>243</ele>
        <time>2013-02-24T13:29:56.1Z</time>
      </trkpt>
      <trkpt lat="48.48468" lon="-3.51064">
        <ele>242</ele>
        <time>2013-02-24T13:29:58.1Z</time>
      </trkpt>
      <trkpt lat="48.48469" lon="-3.51061">
        <ele>242</ele>
        <time>2013-02-24T13:30:00.1Z</time>
      </trkpt>
      <trkpt lat="48.48469" lon="-3.51058">
        <ele>242</ele>
        <time>2013-02-24T13:30:02.1Z</time>
      </trkpt>
      <trkpt lat="48.48468" lon="-3.51056">
        <ele>243</ele>
        <time>2013-02-24T13:30:04.1Z</time>
      </trkpt>
      <trkpt lat="48.48468" lon="-3.51055">
        <ele>243</ele>
        <time>2013-02-24T13:30:06.1Z</time>
      </trkpt>
      <trkpt lat="48.48468" lon="-3.51054">
        <ele>243</ele>
        <time>2013-02-24T13:30:08.1Z</time>
      </trkpt>
      <trkpt lat="48.48468" lon="-3.51052">
        <ele>243</ele>
        <time>2013-02-24T13:30:10.1Z</time>
      </trkpt>
      <trkpt lat="48.48468" lon="-3.51051">
        <ele>242</ele>
        <time>2013-02-24T13:30:12.1Z</time>
      </trkpt>
      <trkpt lat="48.48468" lon="-3.5105">
        <ele>242</ele>
        <time>2013-02-24T13:30:15.1Z</time>
      </trkpt>
      <trkpt lat="48.48468" lon="-3.51049">
        <ele>242</ele>
        <time>2013-02-24T13:30:17.1Z</time>
      </trkpt>
      <trkpt lat="48.48468" lon="-3.51048">
        <ele>242</ele>
        <time>2013-02-24T13:30:19.1Z</time>
      </trkpt>
      <trkpt lat="48.48468" lon="-3.51047">
        <ele>242</ele>
        <time>2013-02-24T13:30:21.1Z</time>
      </trkpt>
      <trkpt lat="48.48467" lon="-3.51046">
        <ele>242</ele>
        <time>2013-02-24T13:30:23.1Z</time>
      </trkpt>
      <trkpt lat="48.48465" lon="-3.51046">
        <ele>242</ele>
        <time>2013-02-24T13:30:25.1Z</time>
      </trkpt>
      <trkpt lat="48.48465" lon="-3.51045">
        <ele>242</ele>
        <time>2013-02-24T13:30:27.1Z</time>
      </trkpt>
      <trkpt lat="48.48464" lon="-3.51044">
        <ele>242</ele>
        <time>2013-02-24T13:30:29.1Z</time>
      </trkpt>
      <trkpt lat="48.48464" lon="-3.51044">
        <ele>243</ele>
        <time>2013-02-24T13:30:31.1Z</time>
      </trkpt>
      <trkpt lat="48.48463" lon="-3.51043">
        <ele>243</ele>
        <time>2013-02-24T13:30:33.1Z</time>
      </trkpt>
      <trkpt lat="48.48463" lon="-3.51043">
        <ele>243</ele>
        <time>2013-02-24T13:30:35.1Z</time>
      </trkpt>
      <trkpt lat="48.48463" lon="-3.51043">
        <ele>243</ele>
        <time>2013-02-24T13:30:37.1Z</time>
      </trkpt>
      <trkpt lat="48.48462" lon="-3.51042">
        <ele>243</ele>
        <time>2013-02-24T13:30:39.1Z</time>
      </trkpt>
      <trkpt lat="48.48461" lon="-3.51042">
        <ele>243</ele>
        <time>2013-02-24T13:30:41.1Z</time>
      </trkpt>
      <trkpt lat="48.48461" lon="-3.51042">
        <ele>244</ele>
        <time>2013-02-24T13:30:43.1Z</time>
      </trkpt>
      <trkpt lat="48.4846" lon="-3.51042">
        <ele>244</ele>
        <time>2013-02-24T13:30:45.1Z</time>
      </trkpt>
      <trkpt lat="48.4846" lon="-3.51042">
        <ele>244</ele>
        <time>2013-02-24T13:30:47.1Z</time>
      </trkpt>
      <trkpt lat="48.4846" lon="-3.51041">
        <ele>244</ele>
        <time>2013-02-24T13:30:49.1Z</time>
      </trkpt>
      <trkpt lat="48.4846" lon="-3.5104">
        <ele>244</ele>
        <time>2013-02-24T13:30:52.1Z</time>
      </trkpt>
      <trkpt lat="48.48461" lon="-3.51039">
        <ele>244</ele>
        <time>2013-02-24T13:30:54.1Z</time>
      </trkpt>
      <trkpt lat="48.48462" lon="-3.51038">
        <ele>244</ele>
        <time>2013-02-24T13:30:56.1Z</time>
      </trkpt>
      <trkpt lat="48.48462" lon="-3.51036">
        <ele>244</ele>
        <time>2013-02-24T13:30:58.1Z</time>
      </trkpt>
      <trkpt lat="48.48462" lon="-3.51035">
        <ele>245</ele>
        <time>2013-02-24T13:31:00.1Z</time>
      </trkpt>
      <trkpt lat="48.48462" lon="-3.51034">
        <ele>245</ele>
        <time>2013-02-24T13:31:02.1Z</time>
      </trkpt>
      <trkpt lat="48.48462" lon="-3.51035">
        <ele>245</ele>
        <time>2013-02-24T13:31:04.1Z</time>
      </trkpt>
      <trkpt lat="48.48462" lon="-3.51035">
        <ele>245</ele>
        <time>2013-02-24T13:31:06.1Z</time>
      </trkpt>
      <trkpt lat="48.48462" lon="-3.51036">
        <ele>245</ele>
        <time>2013-02-24T13:31:08.1Z</time>
      </trkpt>
      <trkpt lat="48.48462" lon="-3.51035">
        <ele>245</ele>
        <time>2013-02-24T13:31:10.1Z</time>
      </trkpt>
      <trkpt lat="48.48462" lon="-3.51035">
        <ele>245</ele>
        <time>2013-02-24T13:31:13.1Z</time>
      </trkpt>
      <trkpt lat="48.48462" lon="-3.51035">
        <ele>246</ele>
        <time>2013-02-24T13:31:15.1Z</time>
      </trkpt>
      <trkpt lat="48.48462" lon="-3.51035">
        <ele>246</ele>
        <time>2013-02-24T13:31:17.1Z</time>
      </trkpt>
      <trkpt lat="48.48462" lon="-3.51036">
        <ele>246</ele>
        <time>2013-02-24T13:31:19.1Z</time>
      </trkpt>
      <trkpt lat="48.48462" lon="-3.51036">
        <ele>246</ele>
        <time>2013-02-24T13:31:21.1Z</time>
      </trkpt>
      <trkpt lat="48.48462" lon="-3.51037">
        <ele>246</ele>
        <time>2013-02-24T13:31:23.1Z</time>
      </trkpt>
      <trkpt lat="48.48462" lon="-3.51037">
        <ele>246</ele>
        <time>2013-02-24T13:31:25.1Z</time>
      </trkpt>
      <trkpt lat="48.48462" lon="-3.51038">
        <ele>246</ele>
        <time>2013-02-24T13:31:27.1Z</time>
      </trkpt>
      <trkpt lat="48.48461" lon="-3.51039">
        <ele>246</ele>
        <time>2013-02-24T13:31:30.1Z</time>
      </trkpt>
      <trkpt lat="48.48461" lon="-3.5104">
        <ele>246</ele>
        <time>2013-02-24T13:31:32.1Z</time>
      </trkpt>
      <trkpt lat="48.48461" lon="-3.5104">
        <ele>246</ele>
        <time>2013-02-24T13:31:34.1Z</time>
      </trkpt>
      <trkpt lat="48.4846" lon="-3.51041">
        <ele>246</ele>
        <time>2013-02-24T13:31:36.1Z</time>
      </trkpt>
      <trkpt lat="48.4846" lon="-3.51042">
        <ele>246</ele>
        <time>2013-02-24T13:31:38.1Z</time>
      </trkpt>
      <trkpt lat="48.4846" lon="-3.51043">
        <ele>246</ele>
        <time>2013-02-24T13:31:40.1Z</time>
      </trkpt>
      <trkpt lat="48.48459" lon="-3.51044">
        <ele>246</ele>
        <time>2013-02-24T13:31:42.1Z</time>
      </trkpt>
      <trkpt lat="48.48459" lon="-3.51045">
        <ele>246</ele>
        <time>2013-02-24T13:31:44.1Z</time>
      </trkpt>
      <trkpt lat="48.48459" lon="-3.51046">
        <ele>246</ele>
        <time>2013-02-24T13:31:46.1Z</time>
      </trkpt>
      <trkpt lat="48.48459" lon="-3.51046">
        <ele>246</ele>
        <time>2013-02-24T13:31:48.1Z</time>
      </trkpt>
      <trkpt lat="48.48458" lon="-3.51047">
        <ele>246</ele>
        <time>2013-02-24T13:31:50.1Z</time>
      </trkpt>
      <trkpt lat="48.48458" lon="-3.51048">
        <ele>246</ele>
        <time>2013-02-24T13:31:52.1Z</time>
      </trkpt>
      <trkpt lat="48.48457" lon="-3.51049">
        <ele>246</ele>
        <time>2013-02-24T13:31:55.1Z</time>
      </trkpt>
      <trkpt lat="48.48457" lon="-3.5105">
        <ele>246</ele>
        <time>2013-02-24T13:31:57.1Z</time>
      </trkpt>
      <trkpt lat="48.48457" lon="-3.5105">
        <ele>246</ele>
        <time>2013-02-24T13:31:59.1Z</time>
      </trkpt>
      <trkpt lat="48.48456" lon="-3.51051">
        <ele>246</ele>
        <time>2013-02-24T13:32:01.1Z</time>
      </trkpt>
      <trkpt lat="48.48456" lon="-3.51052">
        <ele>246</ele>
        <time>2013-02-24T13:32:03.1Z</time>
      </trkpt>
      <trkpt lat="48.48456" lon="-3.51052">
        <ele>246</ele>
        <time>2013-02-24T13:32:05.1Z</time>
      </trkpt>
      <trkpt lat="48.48456" lon="-3.51052">
        <ele>246</ele>
        <time>2013-02-24T13:32:07.1Z</time>
      </trkpt>
      <trkpt lat="48.48455" lon="-3.51052">
        <ele>246</ele>
        <time>2013-02-24T13:32:09.1Z</time>
      </trkpt>
      <trkpt lat="48.48455" lon="-3.51052">
        <ele>246</ele>
        <time>2013-02-24T13:32:11.1Z</time>
      </trkpt>
      <trkpt lat="48.48455" lon="-3.51052">
        <ele>246</ele>
        <time>2013-02-24T13:32:13.1Z</time>
      </trkpt>
      <trkpt lat="48.48455" lon="-3.51052">
        <ele>246</ele>
        <time>2013-02-24T13:32:15.1Z</time>
      </trkpt>
      <trkpt lat="48.48455" lon="-3.51052">
        <ele>246</ele>
        <time>2013-02-24T13:32:17.1Z</time>
      </trkpt>
      <trkpt lat="48.48455" lon="-3.51051">
        <ele>246</ele>
        <time>2013-02-24T13:32:19.1Z</time>
      </trkpt>
      <trkpt lat="48.48455" lon="-3.51049">
        <ele>247</ele>
        <time>2013-02-24T13:32:22.1Z</time>
      </trkpt>
      <trkpt lat="48.48456" lon="-3.51047">
        <ele>247</ele>
        <time>2013-02-24T13:32:24.1Z</time>
      </trkpt>
      <trkpt lat="48.48457" lon="-3.51045">
        <ele>247</ele>
        <time>2013-02-24T13:32:26.1Z</time>
      </trkpt>
      <trkpt lat="48.48458" lon="-3.51042">
        <ele>247</ele>
        <time>2013-02-24T13:32:28.1Z</time>
      </trkpt>
      <trkpt lat="48.48458" lon="-3.5104">
        <ele>248</ele>
        <time>2013-02-24T13:32:30.1Z</time>
      </trkpt>
      <trkpt lat="48.48459" lon="-3.51037">
        <ele>248</ele>
        <time>2013-02-24T13:32:32.1Z</time>
      </trkpt>
      <trkpt lat="48.4846" lon="-3.51035">
        <ele>249</ele>
        <time>2013-02-24T13:32:34.1Z</time>
      </trkpt>
      <trkpt lat="48.4846" lon="-3.51032">
        <ele>249</ele>
        <time>2013-02-24T13:32:36.1Z</time>
      </trkpt>
      <trkpt lat="48.4846" lon="-3.5103">
        <ele>249</ele>
        <time>2013-02-24T13:32:38.1Z</time>
      </trkpt>
      <trkpt lat="48.48461" lon="-3.51027">
        <ele>249</ele>
        <time>2013-02-24T13:32:40.1Z</time>
      </trkpt>
      <trkpt lat="48.48461" lon="-3.51024">
        <ele>250</ele>
        <time>2013-02-24T13:32:42.1Z</time>
      </trkpt>
      <trkpt lat="48.48462" lon="-3.51022">
        <ele>250</ele>
        <time>2013-02-24T13:32:44.1Z</time>
      </trkpt>
      <trkpt lat="48.48462" lon="-3.5102">
        <ele>250</ele>
        <time>2013-02-24T13:32:46.1Z</time>
      </trkpt>
      <trkpt lat="48.48463" lon="-3.51018">
        <ele>251</ele>
        <time>2013-02-24T13:32:48.1Z</time>
      </trkpt>
      <trkpt lat="48.48463" lon="-3.51015">
        <ele>251</ele>
        <time>2013-02-24T13:32:50.1Z</time>
      </trkpt>
      <trkpt lat="48.48463" lon="-3.51013">
        <ele>251</ele>
        <time>2013-02-24T13:32:52.1Z</time>
      </trkpt>
      <trkpt lat="48.48463" lon="-3.51011">
        <ele>251</ele>
        <time>2013-02-24T13:32:54.1Z</time>
      </trkpt>
      <trkpt lat="48.48464" lon="-3.51009">
        <ele>251</ele>
        <time>2013-02-24T13:32:57.1Z</time>
      </trkpt>
      <trkpt lat="48.48464" lon="-3.51008">
        <ele>252</ele>
        <time>2013-02-24T13:32:59.1Z</time>
      </trkpt>
      <trkpt lat="48.48464" lon="-3.51006">
        <ele>252</ele>
        <time>2013-02-24T13:33:01.1Z</time>
      </trkpt>
      <trkpt lat="48.48465" lon="-3.51004">
        <ele>252</ele>
        <time>2013-02-24T13:33:03.1Z</time>
      </trkpt>
      <trkpt lat="48.48464" lon="-3.51002">
        <ele>252</ele>
        <time>2013-02-24T13:33:05.1Z</time>
      </trkpt>
      <trkpt lat="48.48464" lon="-3.50999">
        <ele>252</ele>
        <time>2013-02-24T13:33:07.1Z</time>
      </trkpt>
      <trkpt lat="48.48464" lon="-3.50997">
        <ele>252</ele>
        <time>2013-02-24T13:33:09.1Z</time>
      </trkpt>
      <trkpt lat="48.48464" lon="-3.50996">
        <ele>252</ele>
        <time>2013-02-24T13:33:11.1Z</time>
      </trkpt>
      <trkpt lat="48.48464" lon="-3.50994">
        <ele>252</ele>
        <time>2013-02-24T13:33:13.1Z</time>
      </trkpt>
      <trkpt lat="48.48464" lon="-3.50992">
        <ele>252</ele>
        <time>2013-02-24T13:33:15.1Z</time>
      </trkpt>
      <trkpt lat="48.48465" lon="-3.50991">
        <ele>253</ele>
        <time>2013-02-24T13:33:17.1Z</time>
      </trkpt>
      <trkpt lat="48.48465" lon="-3.50991">
        <ele>253</ele>
        <time>2013-02-24T13:33:19.1Z</time>
      </trkpt>
      <trkpt lat="48.48465" lon="-3.5099">
        <ele>253</ele>
        <time>2013-02-24T13:33:21.1Z</time>
      </trkpt>
      <trkpt lat="48.48466" lon="-3.5099">
        <ele>253</ele>
        <time>2013-02-24T13:33:23.1Z</time>
      </trkpt>
      <trkpt lat="48.48466" lon="-3.50989">
        <ele>253</ele>
        <time>2013-02-24T13:33:25.1Z</time>
      </trkpt>
      <trkpt lat="48.48465" lon="-3.50987">
        <ele>253</ele>
        <time>2013-02-24T13:33:27.1Z</time>
      </trkpt>
      <trkpt lat="48.48465" lon="-3.50986">
        <ele>253</ele>
        <time>2013-02-24T13:33:29.1Z</time>
      </trkpt>
      <trkpt lat="48.48466" lon="-3.50985">
        <ele>253</ele>
        <time>2013-02-24T13:33:32.1Z</time>
      </trkpt>
      <trkpt lat="48.48466" lon="-3.50983">
        <ele>253</ele>
        <time>2013-02-24T13:33:34.1Z</time>
      </trkpt>
      <trkpt lat="48.48466" lon="-3.50981">
        <ele>253</ele>
        <time>2013-02-24T13:33:36.1Z</time>
      </trkpt>
      <trkpt lat="48.48466" lon="-3.50979">
        <ele>253</ele>
        <time>2013-02-24T13:33:38.1Z</time>
      </trkpt>
      <trkpt lat="48.48468" lon="-3.50976">
        <ele>254</ele>
        <time>2013-02-24T13:33:40.1Z</time>
      </trkpt>
      <trkpt lat="48.48468" lon="-3.50975">
        <ele>254</ele>
        <time>2013-02-24T13:33:42.1Z</time>
      </trkpt>
      <trkpt lat="48.48468" lon="-3.50974">
        <ele>254</ele>
        <time>2013-02-24T13:33:44.1Z</time>
      </trkpt>
      <trkpt lat="48.48468" lon="-3.50973">
        <ele>254</ele>
        <time>2013-02-24T13:33:46.1Z</time>
      </trkpt>
      <trkpt lat="48.48468" lon="-3.50971">
        <ele>255</ele>
        <time>2013-02-24T13:33:48.1Z</time>
      </trkpt>
      <trkpt lat="48.48468" lon="-3.5097">
        <ele>255</ele>
        <time>2013-02-24T13:33:50.1Z</time>
      </trkpt>
      <trkpt lat="48.48468" lon="-3.50968">
        <ele>255</ele>
        <time>2013-02-24T13:33:52.1Z</time>
      </trkpt>
      <trkpt lat="48.48468" lon="-3.50966">
        <ele>255</ele>
        <time>2013-02-24T13:33:55.1Z</time>
      </trkpt>
      <trkpt lat="48.48468" lon="-3.50964">
        <ele>256</ele>
        <time>2013-02-24T13:33:57.1Z</time>
      </trkpt>
      <trkpt lat="48.48467" lon="-3.50963">
        <ele>256</ele>
        <time>2013-02-24T13:33:59.1Z</time>
      </trkpt>
      <trkpt lat="48.48467" lon="-3.5096">
        <ele>256</ele>
        <time>2013-02-24T13:34:01.1Z</time>
      </trkpt>
      <trkpt lat="48.48468" lon="-3.50959">
        <ele>256</ele>
        <time>2013-02-24T13:34:03.1Z</time>
      </trkpt>
      <trkpt lat="48.48468" lon="-3.50957">
        <ele>256</ele>
        <time>2013-02-24T13:34:05.1Z</time>
      </trkpt>
      <trkpt lat="48.48467" lon="-3.50956">
        <ele>257</ele>
        <time>2013-02-24T13:34:07.1Z</time>
      </trkpt>
      <trkpt lat="48.48467" lon="-3.50954">
        <ele>257</ele>
        <time>2013-02-24T13:34:09.1Z</time>
      </trkpt>
      <trkpt lat="48.48467" lon="-3.50952">
        <ele>257</ele>
        <time>2013-02-24T13:34:11.1Z</time>
      </trkpt>
      <trkpt lat="48.48467" lon="-3.50951">
        <ele>257</ele>
        <time>2013-02-24T13:34:14.1Z</time>
      </trkpt>
      <trkpt lat="48.48467" lon="-3.50949">
        <ele>257</ele>
        <time>2013-02-24T13:34:16.1Z</time>
      </trkpt>
      <trkpt lat="48.48468" lon="-3.50947">
        <ele>258</ele>
        <time>2013-02-24T13:34:18.1Z</time>
      </trkpt>
      <trkpt lat="48.48468" lon="-3.50944">
        <ele>258</ele>
        <time>2013-02-24T13:34:20.1Z</time>
      </trkpt>
      <trkpt lat="48.48468" lon="-3.50942">
        <ele>258</ele>
        <time>2013-02-24T13:34:22.1Z</time>
      </trkpt>
      <trkpt lat="48.48468" lon="-3.5094">
        <ele>258</ele>
        <time>2013-02-24T13:34:24.1Z</time>
      </trkpt>
      <trkpt lat="48.48468" lon="-3.50938">
        <ele>258</ele>
        <time>2013-02-24T13:34:26.1Z</time>
      </trkpt>
      <trkpt lat="48.48469" lon="-3.50936">
        <ele>258</ele>
        <time>2013-02-24T13:34:28.1Z</time>
      </trkpt>
      <trkpt lat="48.48469" lon="-3.50934">
        <ele>258</ele>
        <time>2013-02-24T13:34:30.1Z</time>
      </trkpt>
      <trkpt lat="48.48469" lon="-3.50932">
        <ele>258</ele>
        <time>2013-02-24T13:34:32.1Z</time>
      </trkpt>
      <trkpt lat="48.48469" lon="-3.50929">
        <ele>259</ele>
        <time>2013-02-24T13:34:34.1Z</time>
      </trkpt>
      <trkpt lat="48.4847" lon="-3.50926">
        <ele>259</ele>
        <time>2013-02-24T13:34:36.1Z</time>
      </trkpt>
      <trkpt lat="48.4847" lon="-3.50924">
        <ele>259</ele>
        <time>2013-02-24T13:34:39.1Z</time>
      </trkpt>
      <trkpt lat="48.48471" lon="-3.50921">
        <ele>259</ele>
        <time>2013-02-24T13:34:41.1Z</time>
      </trkpt>
      <trkpt lat="48.48471" lon="-3.50918">
        <ele>259</ele>
        <time>2013-02-24T13:34:43.1Z</time>
      </trkpt>
      <trkpt lat="48.48472" lon="-3.50914">
        <ele>259</ele>
        <time>2013-02-24T13:34:45.1Z</time>
      </trkpt>
      <trkpt lat="48.48472" lon="-3.50912">
        <ele>259</ele>
        <time>2013-02-24T13:34:47.1Z</time>
      </trkpt>
      <trkpt lat="48.48472" lon="-3.5091">
        <ele>260</ele>
        <time>2013-02-24T13:34:49.1Z</time>
      </trkpt>
      <trkpt lat="48.48473" lon="-3.50908">
        <ele>260</ele>
        <time>2013-02-24T13:34:51.1Z</time>
      </trkpt>
      <trkpt lat="48.48473" lon="-3.50906">
        <ele>260</ele>
        <time>2013-02-24T13:34:53.1Z</time>
      </trkpt>
      <trkpt lat="48.48474" lon="-3.50904">
        <ele>260</ele>
        <time>2013-02-24T13:34:55.1Z</time>
      </trkpt>
      <trkpt lat="48.48474" lon="-3.50902">
        <ele>260</ele>
        <time>2013-02-24T13:34:57.1Z</time>
      </trkpt>
      <trkpt lat="48.48474" lon="-3.509">
        <ele>260</ele>
        <time>2013-02-24T13:34:59.1Z</time>
      </trkpt>
      <trkpt lat="48.48474" lon="-3.50898">
        <ele>261</ele>
        <time>2013-02-24T13:35:01.1Z</time>
      </trkpt>
      <trkpt lat="48.48475" lon="-3.50897">
        <ele>261</ele>
        <time>2013-02-24T13:35:04.1Z</time>
      </trkpt>
      <trkpt lat="48.48475" lon="-3.50896">
        <ele>261</ele>
        <time>2013-02-24T13:35:06.1Z</time>
      </trkpt>
      <trkpt lat="48.48475" lon="-3.50893">
        <ele>261</ele>
        <time>2013-02-24T13:35:08.1Z</time>
      </trkpt>
      <trkpt lat="48.48476" lon="-3.5089">
        <ele>261</ele>
        <time>2013-02-24T13:35:10.1Z</time>
      </trkpt>
      <trkpt lat="48.48476" lon="-3.50888">
        <ele>261</ele>
        <time>2013-02-24T13:35:12.1Z</time>
      </trkpt>
      <trkpt lat="48.48477" lon="-3.50885">
        <ele>261</ele>
        <time>2013-02-24T13:35:14.1Z</time>
      </trkpt>
      <trkpt lat="48.48477" lon="-3.50883">
        <ele>261</ele>
        <time>2013-02-24T13:35:16.1Z</time>
      </trkpt>
      <trkpt lat="48.48477" lon="-3.50881">
        <ele>261</ele>
        <time>2013-02-24T13:35:18.1Z</time>
      </trkpt>
      <trkpt lat="48.48477" lon="-3.5088">
        <ele>261</ele>
        <time>2013-02-24T13:35:20.1Z</time>
      </trkpt>
      <trkpt lat="48.48477" lon="-3.50877">
        <ele>261</ele>
        <time>2013-02-24T13:35:22.1Z</time>
      </trkpt>
      <trkpt lat="48.48476" lon="-3.50875">
        <ele>261</ele>
        <time>2013-02-24T13:35:24.1Z</time>
      </trkpt>
      <trkpt lat="48.48476" lon="-3.50874">
        <ele>262</ele>
        <time>2013-02-24T13:35:26.1Z</time>
      </trkpt>
      <trkpt lat="48.48476" lon="-3.50873">
        <ele>262</ele>
        <time>2013-02-24T13:35:28.1Z</time>
      </trkpt>
      <trkpt lat="48.48477" lon="-3.50872">
        <ele>262</ele>
        <time>2013-02-24T13:35:30.1Z</time>
      </trkpt>
      <trkpt lat="48.48477" lon="-3.50872">
        <ele>262</ele>
        <time>2013-02-24T13:35:32.1Z</time>
      </trkpt>
      <trkpt lat="48.48478" lon="-3.50871">
        <ele>262</ele>
        <time>2013-02-24T13:35:34.1Z</time>
      </trkpt>
      <trkpt lat="48.48478" lon="-3.5087">
        <ele>262</ele>
        <time>2013-02-24T13:35:37.1Z</time>
      </trkpt>
      <trkpt lat="48.48478" lon="-3.5087">
        <ele>262</ele>
        <time>2013-02-24T13:35:39.1Z</time>
      </trkpt>
      <trkpt lat="48.48478" lon="-3.50869">
        <ele>262</ele>
        <time>2013-02-24T13:35:41.1Z</time>
      </trkpt>
      <trkpt lat="48.48478" lon="-3.50869">
        <ele>262</ele>
        <time>2013-02-24T13:35:43.1Z</time>
      </trkpt>
      <trkpt lat="48.48477" lon="-3.50868">
        <ele>262</ele>
        <time>2013-02-24T13:35:45.1Z</time>
      </trkpt>
      <trkpt lat="48.48476" lon="-3.50868">
        <ele>262</ele>
        <time>2013-02-24T13:35:47.1Z</time>
      </trkpt>
      <trkpt lat="48.48475" lon="-3.50867">
        <ele>261</ele>
        <time>2013-02-24T13:35:49.1Z</time>
      </trkpt>
      <trkpt lat="48.48474" lon="-3.50867">
        <ele>262</ele>
        <time>2013-02-24T13:35:51.1Z</time>
      </trkpt>
      <trkpt lat="48.48473" lon="-3.50867">
        <ele>261</ele>
        <time>2013-02-24T13:35:53.1Z</time>
      </trkpt>
      <trkpt lat="48.48471" lon="-3.50867">
        <ele>261</ele>
        <time>2013-02-24T13:35:55.1Z</time>
      </trkpt>
      <trkpt lat="48.48471" lon="-3.50866">
        <ele>261</ele>
        <time>2013-02-24T13:35:57.1Z</time>
      </trkpt>
      <trkpt lat="48.48471" lon="-3.50865">
        <ele>262</ele>
        <time>2013-02-24T13:35:59.1Z</time>
      </trkpt>
      <trkpt lat="48.48471" lon="-3.50863">
        <ele>262</ele>
        <time>2013-02-24T13:36:01.1Z</time>
      </trkpt>
      <trkpt lat="48.48471" lon="-3.50861">
        <ele>262</ele>
        <time>2013-02-24T13:36:04.1Z</time>
      </trkpt>
      <trkpt lat="48.48472" lon="-3.50859">
        <ele>262</ele>
        <time>2013-02-24T13:36:06.1Z</time>
      </trkpt>
      <trkpt lat="48.48472" lon="-3.50856">
        <ele>262</ele>
        <time>2013-02-24T13:36:08.1Z</time>
      </trkpt>
      <trkpt lat="48.48472" lon="-3.50854">
        <ele>262</ele>
        <time>2013-02-24T13:36:10.1Z</time>
      </trkpt>
      <trkpt lat="48.48473" lon="-3.50852">
        <ele>262</ele>
        <time>2013-02-24T13:36:12.1Z</time>
      </trkpt>
      <trkpt lat="48.48474" lon="-3.50851">
        <ele>263</ele>
        <time>2013-02-24T13:36:14.1Z</time>
      </trkpt>
      <trkpt lat="48.48474" lon="-3.50849">
        <ele>263</ele>
        <time>2013-02-24T13:36:16.1Z</time>
      </trkpt>
      <trkpt lat="48.48474" lon="-3.50847">
        <ele>263</ele>
        <time>2013-02-24T13:36:18.1Z</time>
      </trkpt>
      <trkpt lat="48.48474" lon="-3.50844">
        <ele>263</ele>
        <time>2013-02-24T13:36:20.1Z</time>
      </trkpt>
      <trkpt lat="48.48474" lon="-3.50841">
        <ele>263</ele>
        <time>2013-02-24T13:36:22.1Z</time>
      </trkpt>
      <trkpt lat="48.48474" lon="-3.50839">
        <ele>263</ele>
        <time>2013-02-24T13:36:24.1Z</time>
      </trkpt>
      <trkpt lat="48.48475" lon="-3.50837">
        <ele>263</ele>
        <time>2013-02-24T13:36:26.1Z</time>
      </trkpt>
      <trkpt lat="48.48476" lon="-3.50834">
        <ele>263</ele>
        <time>2013-02-24T13:36:29.1Z</time>
      </trkpt>
      <trkpt lat="48.48477" lon="-3.50832">
        <ele>263</ele>
        <time>2013-02-24T13:36:31.1Z</time>
      </trkpt>
      <trkpt lat="48.48477" lon="-3.50829">
        <ele>263</ele>
        <time>2013-02-24T13:36:33.1Z</time>
      </trkpt>
      <trkpt lat="48.48477" lon="-3.50824">
        <ele>263</ele>
        <time>2013-02-24T13:36:35.1Z</time>
      </trkpt>
      <trkpt lat="48.48477" lon="-3.50822">
        <ele>264</ele>
        <time>2013-02-24T13:36:37.1Z</time>
      </trkpt>
      <trkpt lat="48.48477" lon="-3.50819">
        <ele>264</ele>
        <time>2013-02-24T13:36:39.1Z</time>
      </trkpt>
      <trkpt lat="48.48477" lon="-3.50816">
        <ele>264</ele>
        <time>2013-02-24T13:36:41.1Z</time>
      </trkpt>
      <trkpt lat="48.48477" lon="-3.50814">
        <ele>264</ele>
        <time>2013-02-24T13:36:43.1Z</time>
      </trkpt>
      <trkpt lat="48.48477" lon="-3.50812">
        <ele>264</ele>
        <time>2013-02-24T13:36:45.1Z</time>
      </trkpt>
      <trkpt lat="48.48476" lon="-3.50809">
        <ele>264</ele>
        <time>2013-02-24T13:36:47.1Z</time>
      </trkpt>
      <trkpt lat="48.48476" lon="-3.50807">
        <ele>264</ele>
        <time>2013-02-24T13:36:49.1Z</time>
      </trkpt>
      <trkpt lat="48.48476" lon="-3.50805">
        <ele>264</ele>
        <time>2013-02-24T13:36:52.1Z</time>
      </trkpt>
      <trkpt lat="48.48476" lon="-3.50802">
        <ele>264</ele>
        <time>2013-02-24T13:36:54.1Z</time>
      </trkpt>
      <trkpt lat="48.48476" lon="-3.50799">
        <ele>264</ele>
        <time>2013-02-24T13:36:56.1Z</time>
      </trkpt>
      <trkpt lat="48.48476" lon="-3.50796">
        <ele>264</ele>
        <time>2013-02-24T13:36:58.1Z</time>
      </trkpt>
      <trkpt lat="48.48476" lon="-3.50792">
        <ele>264</ele>
        <time>2013-02-24T13:37:00.1Z</time>
      </trkpt>
      <trkpt lat="48.48476" lon="-3.50788">
        <ele>264</ele>
        <time>2013-02-24T13:37:02.1Z</time>
      </trkpt>
      <trkpt lat="48.48476" lon="-3.50786">
        <ele>264</ele>
        <time>2013-02-24T13:37:04.1Z</time>
      </trkpt>
      <trkpt lat="48.48476" lon="-3.50782">
        <ele>264</ele>
        <time>2013-02-24T13:37:06.1Z</time>
      </trkpt>
      <trkpt lat="48.48477" lon="-3.50779">
        <ele>264</ele>
        <time>2013-02-24T13:37:08.1Z</time>
      </trkpt>
      <trkpt lat="48.48477" lon="-3.50776">
        <ele>265</ele>
        <time>2013-02-24T13:37:11.1Z</time>
      </trkpt>
      <trkpt lat="48.48477" lon="-3.50773">
        <ele>265</ele>
        <time>2013-02-24T13:37:13.1Z</time>
      </trkpt>
      <trkpt lat="48.48477" lon="-3.50768">
        <ele>265</ele>
        <time>2013-02-24T13:37:15.1Z</time>
      </trkpt>
      <trkpt lat="48.48477" lon="-3.50765">
        <ele>265</ele>
        <time>2013-02-24T13:37:17.1Z</time>
      </trkpt>
      <trkpt lat="48.48478" lon="-3.50762">
        <ele>265</ele>
        <time>2013-02-24T13:37:19.1Z</time>
      </trkpt>
      <trkpt lat="48.48478" lon="-3.5076">
        <ele>265</ele>
        <time>2013-02-24T13:37:21.1Z</time>
      </trkpt>
      <trkpt lat="48.48479" lon="-3.50757">
        <ele>265</ele>
        <time>2013-02-24T13:37:23.1Z</time>
      </trkpt>
      <trkpt lat="48.4848" lon="-3.50754">
        <ele>265</ele>
        <time>2013-02-24T13:37:26.1Z</time>
      </trkpt>
      <trkpt lat="48.48481" lon="-3.50751">
        <ele>265</ele>
        <time>2013-02-24T13:37:28.1Z</time>
      </trkpt>
      <trkpt lat="48.48481" lon="-3.50747">
        <ele>265</ele>
        <time>2013-02-24T13:37:30.1Z</time>
      </trkpt>
      <trkpt lat="48.48481" lon="-3.50744">
        <ele>265</ele>
        <time>2013-02-24T13:37:32.1Z</time>
      </trkpt>
      <trkpt lat="48.48482" lon="-3.50741">
        <ele>265</ele>
        <time>2013-02-24T13:37:34.1Z</time>
      </trkpt>
      <trkpt lat="48.48482" lon="-3.50738">
        <ele>265</ele>
        <time>2013-02-24T13:37:36.1Z</time>
      </trkpt>
      <trkpt lat="48.48482" lon="-3.50735">
        <ele>265</ele>
        <time>2013-02-24T13:37:38.1Z</time>
      </trkpt>
      <trkpt lat="48.48482" lon="-3.50732">
        <ele>265</ele>
        <time>2013-02-24T13:37:40.1Z</time>
      </trkpt>
      <trkpt lat="48.48481" lon="-3.50729">
        <ele>266</ele>
        <time>2013-02-24T13:37:42.1Z</time>
      </trkpt>
      <trkpt lat="48.4848" lon="-3.50726">
        <ele>266</ele>
        <time>2013-02-24T13:37:44.1Z</time>
      </trkpt>
      <trkpt lat="48.48481" lon="-3.50724">
        <ele>266</ele>
        <time>2013-02-24T13:37:46.1Z</time>
      </trkpt>
      <trkpt lat="48.48481" lon="-3.50723">
        <ele>266</ele>
        <time>2013-02-24T13:37:48.1Z</time>
      </trkpt>
      <trkpt lat="48.48481" lon="-3.50723">
        <ele>266</ele>
        <time>2013-02-24T13:37:50.1Z</time>
      </trkpt>
      <trkpt lat="48.48482" lon="-3.50721">
        <ele>266</ele>
        <time>2013-02-24T13:37:52.1Z</time>
      </trkpt>
      <trkpt lat="48.48482" lon="-3.50718">
        <ele>266</ele>
        <time>2013-02-24T13:37:54.1Z</time>
      </trkpt>
      <trkpt lat="48.48481" lon="-3.50715">
        <ele>266</ele>
        <time>2013-02-24T13:37:56.1Z</time>
      </trkpt>
      <trkpt lat="48.48481" lon="-3.50713">
        <ele>266</ele>
        <time>2013-02-24T13:37:59.1Z</time>
      </trkpt>
      <trkpt lat="48.48481" lon="-3.5071">
        <ele>266</ele>
        <time>2013-02-24T13:38:01.1Z</time>
      </trkpt>
      <trkpt lat="48.4848" lon="-3.50707">
        <ele>266</ele>
        <time>2013-02-24T13:38:03.1Z</time>
      </trkpt>
      <trkpt lat="48.4848" lon="-3.50703">
        <ele>266</ele>
        <time>2013-02-24T13:38:05.1Z</time>
      </trkpt>
      <trkpt lat="48.4848" lon="-3.50699">
        <ele>266</ele>
        <time>2013-02-24T13:38:07.1Z</time>
      </trkpt>
      <trkpt lat="48.48481" lon="-3.50696">
        <ele>266</ele>
        <time>2013-02-24T13:38:09.1Z</time>
      </trkpt>
      <trkpt lat="48.48481" lon="-3.50693">
        <ele>266</ele>
        <time>2013-02-24T13:38:11.1Z</time>
      </trkpt>
      <trkpt lat="48.48481" lon="-3.50691">
        <ele>266</ele>
        <time>2013-02-24T13:38:13.1Z</time>
      </trkpt>
      <trkpt lat="48.48481" lon="-3.50688">
        <ele>266</ele>
        <time>2013-02-24T13:38:15.1Z</time>
      </trkpt>
      <trkpt lat="48.48481" lon="-3.50687">
        <ele>266</ele>
        <time>2013-02-24T13:38:17.1Z</time>
      </trkpt>
      <trkpt lat="48.48481" lon="-3.50687">
        <ele>266</ele>
        <time>2013-02-24T13:38:19.1Z</time>
      </trkpt>
      <trkpt lat="48.4848" lon="-3.50687">
        <ele>266</ele>
        <time>2013-02-24T13:38:21.1Z</time>
      </trkpt>
      <trkpt lat="48.4848" lon="-3.50687">
        <ele>266</ele>
        <time>2013-02-24T13:38:23.1Z</time>
      </trkpt>
      <trkpt lat="48.48478" lon="-3.50684">
        <ele>266</ele>
        <time>2013-02-24T13:38:25.1Z</time>
      </trkpt>
      <trkpt lat="48.48478" lon="-3.50681">
        <ele>266</ele>
        <time>2013-02-24T13:38:27.1Z</time>
      </trkpt>
      <trkpt lat="48.48477" lon="-3.50678">
        <ele>266</ele>
        <time>2013-02-24T13:38:29.1Z</time>
      </trkpt>
      <trkpt lat="48.48477" lon="-3.50675">
        <ele>266</ele>
        <time>2013-02-24T13:38:31.1Z</time>
      </trkpt>
      <trkpt lat="48.48478" lon="-3.50672">
        <ele>266</ele>
        <time>2013-02-24T13:38:33.1Z</time>
      </trkpt>
      <trkpt lat="48.48478" lon="-3.50669">
        <ele>266</ele>
        <time>2013-02-24T13:38:35.1Z</time>
      </trkpt>
      <trkpt lat="48.48479" lon="-3.50666">
        <ele>266</ele>
        <time>2013-02-24T13:38:38.1Z</time>
      </trkpt>
      <trkpt lat="48.48479" lon="-3.50663">
        <ele>267</ele>
        <time>2013-02-24T13:38:40.1Z</time>
      </trkpt>
      <trkpt lat="48.48481" lon="-3.50659">
        <ele>267</ele>
        <time>2013-02-24T13:38:42.1Z</time>
      </trkpt>
      <trkpt lat="48.48482" lon="-3.50657">
        <ele>267</ele>
        <time>2013-02-24T13:38:44.1Z</time>
      </trkpt>
      <trkpt lat="48.48482" lon="-3.50653">
        <ele>267</ele>
        <time>2013-02-24T13:38:46.1Z</time>
      </trkpt>
      <trkpt lat="48.48483" lon="-3.5065">
        <ele>267</ele>
        <time>2013-02-24T13:38:48.1Z</time>
      </trkpt>
      <trkpt lat="48.48483" lon="-3.50647">
        <ele>267</ele>
        <time>2013-02-24T13:38:51.1Z</time>
      </trkpt>
      <trkpt lat="48.48484" lon="-3.50643">
        <ele>267</ele>
        <time>2013-02-24T13:38:53.1Z</time>
      </trkpt>
      <trkpt lat="48.48484" lon="-3.50641">
        <ele>267</ele>
        <time>2013-02-24T13:38:55.1Z</time>
      </trkpt>
      <trkpt lat="48.48485" lon="-3.50638">
        <ele>267</ele>
        <time>2013-02-24T13:38:57.1Z</time>
      </trkpt>
      <trkpt lat="48.48484" lon="-3.50635">
        <ele>267</ele>
        <time>2013-02-24T13:38:59.1Z</time>
      </trkpt>
      <trkpt lat="48.48485" lon="-3.50631">
        <ele>266</ele>
        <time>2013-02-24T13:39:01.1Z</time>
      </trkpt>
      <trkpt lat="48.48485" lon="-3.50627">
        <ele>266</ele>
        <time>2013-02-24T13:39:03.1Z</time>
      </trkpt>
      <trkpt lat="48.48485" lon="-3.50624">
        <ele>266</ele>
        <time>2013-02-24T13:39:05.1Z</time>
      </trkpt>
      <trkpt lat="48.48486" lon="-3.50623">
        <ele>266</ele>
        <time>2013-02-24T13:39:07.1Z</time>
      </trkpt>
      <trkpt lat="48.48487" lon="-3.5062">
        <ele>266</ele>
        <time>2013-02-24T13:39:10.1Z</time>
      </trkpt>
      <trkpt lat="48.48487" lon="-3.50615">
        <ele>267</ele>
        <time>2013-02-24T13:39:12.1Z</time>
      </trkpt>
      <trkpt lat="48.48486" lon="-3.50611">
        <ele>266</ele>
        <time>2013-02-24T13:39:14.1Z</time>
      </trkpt>
      <trkpt lat="48.48486" lon="-3.50607">
        <ele>266</ele>
        <time>2013-02-24T13:39:16.1Z</time>
      </trkpt>
      <trkpt lat="48.48486" lon="-3.50604">
        <ele>267</ele>
        <time>2013-02-24T13:39:18.1Z</time>
      </trkpt>
      <trkpt lat="48.48486" lon="-3.50601">
        <ele>267</ele>
        <time>2013-02-24T13:39:20.1Z</time>
      </trkpt>
      <trkpt lat="48.48486" lon="-3.50597">
        <ele>267</ele>
        <time>2013-02-24T13:39:22.1Z</time>
      </trkpt>
      <trkpt lat="48.48486" lon="-3.50594">
        <ele>267</ele>
        <time>2013-02-24T13:39:24.1Z</time>
      </trkpt>
      <trkpt lat="48.48486" lon="-3.5059">
        <ele>267</ele>
        <time>2013-02-24T13:39:26.1Z</time>
      </trkpt>
      <trkpt lat="48.48486" lon="-3.50586">
        <ele>267</ele>
        <time>2013-02-24T13:39:28.1Z</time>
      </trkpt>
      <trkpt lat="48.48486" lon="-3.50583">
        <ele>267</ele>
        <time>2013-02-24T13:39:31.1Z</time>
      </trkpt>
      <trkpt lat="48.48486" lon="-3.50577">
        <ele>267</ele>
        <time>2013-02-24T13:39:33.1Z</time>
      </trkpt>
      <trkpt lat="48.48486" lon="-3.50574">
        <ele>267</ele>
        <time>2013-02-24T13:39:35.1Z</time>
      </trkpt>
      <trkpt lat="48.48486" lon="-3.5057">
        <ele>267</ele>
        <time>2013-02-24T13:39:37.1Z</time>
      </trkpt>
      <trkpt lat="48.48486" lon="-3.50567">
        <ele>267</ele>
        <time>2013-02-24T13:39:39.1Z</time>
      </trkpt>
      <trkpt lat="48.48486" lon="-3.50564">
        <ele>267</ele>
        <time>2013-02-24T13:39:41.1Z</time>
      </trkpt>
      <trkpt lat="48.48485" lon="-3.5056">
        <ele>267</ele>
        <time>2013-02-24T13:39:43.1Z</time>
      </trkpt>
      <trkpt lat="48.48485" lon="-3.50557">
        <ele>267</ele>
        <time>2013-02-24T13:39:45.1Z</time>
      </trkpt>
      <trkpt lat="48.48484" lon="-3.50553">
        <ele>267</ele>
        <time>2013-02-24T13:39:47.1Z</time>
      </trkpt>
      <trkpt lat="48.48484" lon="-3.5055">
        <ele>267</ele>
        <time>2013-02-24T13:39:49.1Z</time>
      </trkpt>
      <trkpt lat="48.48484" lon="-3.50547">
        <ele>267</ele>
        <time>2013-02-24T13:39:52.1Z</time>
      </trkpt>
      <trkpt lat="48.48484" lon="-3.50544">
        <ele>267</ele>
        <time>2013-02-24T13:39:54.1Z</time>
      </trkpt>
      <trkpt lat="48.48483" lon="-3.50539">
        <ele>267</ele>
        <time>2013-02-24T13:39:56.1Z</time>
      </trkpt>
      <trkpt lat="48.48483" lon="-3.50536">
        <ele>267</ele>
        <time>2013-02-24T13:39:58.1Z</time>
      </trkpt>
      <trkpt lat="48.48482" lon="-3.50533">
        <ele>268</ele>
        <time>2013-02-24T13:40:00.1Z</time>
      </trkpt>
      <trkpt lat="48.48482" lon="-3.5053">
        <ele>267</ele>
        <time>2013-02-24T13:40:02.1Z</time>
      </trkpt>
      <trkpt lat="48.48483" lon="-3.50526">
        <ele>267</ele>
        <time>2013-02-24T13:40:04.1Z</time>
      </trkpt>
      <trkpt lat="48.48483" lon="-3.50523">
        <ele>267</ele>
        <time>2013-02-24T13:40:06.1Z</time>
      </trkpt>
      <trkpt lat="48.48483" lon="-3.5052">
        <ele>267</ele>
        <time>2013-02-24T13:40:08.1Z</time>
      </trkpt>
      <trkpt lat="48.48483" lon="-3.50517">
        <ele>268</ele>
        <time>2013-02-24T13:40:10.1Z</time>
      </trkpt>
      <trkpt lat="48.48483" lon="-3.50514">
        <ele>268</ele>
        <time>2013-02-24T13:40:13.1Z</time>
      </trkpt>
      <trkpt lat="48.48483" lon="-3.50511">
        <ele>268</ele>
        <time>2013-02-24T13:40:15.1Z</time>
      </trkpt>
      <trkpt lat="48.48483" lon="-3.50508">
        <ele>268</ele>
        <time>2013-02-24T13:40:17.1Z</time>
      </trkpt>
      <trkpt lat="48.48483" lon="-3.50505">
        <ele>268</ele>
        <time>2013-02-24T13:40:19.1Z</time>
      </trkpt>
      <trkpt lat="48.48483" lon="-3.505">
        <ele>268</ele>
        <time>2013-02-24T13:40:21.1Z</time>
      </trkpt>
      <trkpt lat="48.48483" lon="-3.50497">
        <ele>268</ele>
        <time>2013-02-24T13:40:23.1Z</time>
      </trkpt>
      <trkpt lat="48.48483" lon="-3.50494">
        <ele>268</ele>
        <time>2013-02-24T13:40:25.1Z</time>
      </trkpt>
      <trkpt lat="48.48483" lon="-3.50491">
        <ele>268</ele>
        <time>2013-02-24T13:40:27.1Z</time>
      </trkpt>
      <trkpt lat="48.48483" lon="-3.50488">
        <ele>268</ele>
        <time>2013-02-24T13:40:29.1Z</time>
      </trkpt>
      <trkpt lat="48.48483" lon="-3.50485">
        <ele>268</ele>
        <time>2013-02-24T13:40:31.1Z</time>
      </trkpt>
      <trkpt lat="48.48483" lon="-3.50482">
        <ele>268</ele>
        <time>2013-02-24T13:40:33.1Z</time>
      </trkpt>
      <trkpt lat="48.48483" lon="-3.50479">
        <ele>268</ele>
        <time>2013-02-24T13:40:35.1Z</time>
      </trkpt>
      <trkpt lat="48.48483" lon="-3.50476">
        <ele>268</ele>
        <time>2013-02-24T13:40:37.1Z</time>
      </trkpt>
      <trkpt lat="48.48483" lon="-3.50473">
        <ele>268</ele>
        <time>2013-02-24T13:40:39.1Z</time>
      </trkpt>
      <trkpt lat="48.48483" lon="-3.5047">
        <ele>268</ele>
        <time>2013-02-24T13:40:41.1Z</time>
      </trkpt>
      <trkpt lat="48.48483" lon="-3.50466">
        <ele>269</ele>
        <time>2013-02-24T13:40:43.1Z</time>
      </trkpt>
      <trkpt lat="48.48482" lon="-3.50463">
        <ele>269</ele>
        <time>2013-02-24T13:40:45.1Z</time>
      </trkpt>
      <trkpt lat="48.48482" lon="-3.5046">
        <ele>269</ele>
        <time>2013-02-24T13:40:47.1Z</time>
      </trkpt>
      <trkpt lat="48.48482" lon="-3.50457">
        <ele>269</ele>
        <time>2013-02-24T13:40:49.1Z</time>
      </trkpt>
      <trkpt lat="48.48482" lon="-3.50454">
        <ele>269</ele>
        <time>2013-02-24T13:40:52.1Z</time>
      </trkpt>
      <trkpt lat="48.48482" lon="-3.50451">
        <ele>269</ele>
        <time>2013-02-24T13:40:54.1Z</time>
      </trkpt>
      <trkpt lat="48.48482" lon="-3.50446">
        <ele>269</ele>
        <time>2013-02-24T13:40:56.1Z</time>
      </trkpt>
      <trkpt lat="48.48482" lon="-3.50443">
        <ele>270</ele>
        <time>2013-02-24T13:40:58.1Z</time>
      </trkpt>
      <trkpt lat="48.48482" lon="-3.5044">
        <ele>270</ele>
        <time>2013-02-24T13:41:00.1Z</time>
      </trkpt>
      <trkpt lat="48.48482" lon="-3.50438">
        <ele>270</ele>
        <time>2013-02-24T13:41:02.1Z</time>
      </trkpt>
      <trkpt lat="48.48482" lon="-3.50435">
        <ele>270</ele>
        <time>2013-02-24T13:41:04.1Z</time>
      </trkpt>
      <trkpt lat="48.48483" lon="-3.50432">
        <ele>269</ele>
        <time>2013-02-24T13:41:06.1Z</time>
      </trkpt>
      <trkpt lat="48.48482" lon="-3.5043">
        <ele>269</ele>
        <time>2013-02-24T13:41:08.1Z</time>
      </trkpt>
      <trkpt lat="48.48482" lon="-3.50427">
        <ele>269</ele>
        <time>2013-02-24T13:41:10.1Z</time>
      </trkpt>
      <trkpt lat="48.48481" lon="-3.50425">
        <ele>269</ele>
        <time>2013-02-24T13:41:12.1Z</time>
      </trkpt>
      <trkpt lat="48.48482" lon="-3.50422">
        <ele>269</ele>
        <time>2013-02-24T13:41:14.1Z</time>
      </trkpt>
      <trkpt lat="48.48481" lon="-3.50419">
        <ele>269</ele>
        <time>2013-02-24T13:41:16.1Z</time>
      </trkpt>
      <trkpt lat="48.48481" lon="-3.50416">
        <ele>269</ele>
        <time>2013-02-24T13:41:18.1Z</time>
      </trkpt>
      <trkpt lat="48.48481" lon="-3.50413">
        <ele>269</ele>
        <time>2013-02-24T13:41:20.1Z</time>
      </trkpt>
      <trkpt lat="48.48481" lon="-3.5041">
        <ele>269</ele>
        <time>2013-02-24T13:41:22.1Z</time>
      </trkpt>
      <trkpt lat="48.48481" lon="-3.50407">
        <ele>269</ele>
        <time>2013-02-24T13:41:25.1Z</time>
      </trkpt>
      <trkpt lat="48.48481" lon="-3.50404">
        <ele>270</ele>
        <time>2013-02-24T13:41:27.1Z</time>
      </trkpt>
      <trkpt lat="48.48481" lon="-3.50401">
        <ele>270</ele>
        <time>2013-02-24T13:41:29.1Z</time>
      </trkpt>
      <trkpt lat="48.48481" lon="-3.50398">
        <ele>269</ele>
        <time>2013-02-24T13:41:31.1Z</time>
      </trkpt>
      <trkpt lat="48.48481" lon="-3.50395">
        <ele>269</ele>
        <time>2013-02-24T13:41:33.1Z</time>
      </trkpt>
      <trkpt lat="48.48481" lon="-3.50392">
        <ele>269</ele>
        <time>2013-02-24T13:41:35.1Z</time>
      </trkpt>
      <trkpt lat="48.48481" lon="-3.50389">
        <ele>269</ele>
        <time>2013-02-24T13:41:37.1Z</time>
      </trkpt>
      <trkpt lat="48.48481" lon="-3.50387">
        <ele>269</ele>
        <time>2013-02-24T13:41:39.1Z</time>
      </trkpt>
      <trkpt lat="48.48481" lon="-3.50385">
        <ele>269</ele>
        <time>2013-02-24T13:41:41.1Z</time>
      </trkpt>
      <trkpt lat="48.48481" lon="-3.50382">
        <ele>270</ele>
        <time>2013-02-24T13:41:43.1Z</time>
      </trkpt>
      <trkpt lat="48.48481" lon="-3.5038">
        <ele>270</ele>
        <time>2013-02-24T13:41:45.1Z</time>
      </trkpt>
      <trkpt lat="48.48481" lon="-3.50377">
        <ele>270</ele>
        <time>2013-02-24T13:41:47.1Z</time>
      </trkpt>
      <trkpt lat="48.48481" lon="-3.50375">
        <ele>270</ele>
        <time>2013-02-24T13:41:49.1Z</time>
      </trkpt>
      <trkpt lat="48.48481" lon="-3.50372">
        <ele>269</ele>
        <time>2013-02-24T13:41:51.1Z</time>
      </trkpt>
      <trkpt lat="48.48481" lon="-3.50369">
        <ele>269</ele>
        <time>2013-02-24T13:41:53.1Z</time>
      </trkpt>
      <trkpt lat="48.48481" lon="-3.50365">
        <ele>269</ele>
        <time>2013-02-24T13:41:55.1Z</time>
      </trkpt>
      <trkpt lat="48.48481" lon="-3.50362">
        <ele>269</ele>
        <time>2013-02-24T13:41:58.1Z</time>
      </trkpt>
      <trkpt lat="48.48482" lon="-3.50358">
        <ele>270</ele>
        <time>2013-02-24T13:42:00.1Z</time>
      </trkpt>
      <trkpt lat="48.48482" lon="-3.50355">
        <ele>270</ele>
        <time>2013-02-24T13:42:02.1Z</time>
      </trkpt>
      <trkpt lat="48.48482" lon="-3.50351">
        <ele>270</ele>
        <time>2013-02-24T13:42:04.1Z</time>
      </trkpt>
      <trkpt lat="48.48483" lon="-3.50348">
        <ele>270</ele>
        <time>2013-02-24T13:42:06.1Z</time>
      </trkpt>
      <trkpt lat="48.48482" lon="-3.50345">
        <ele>270</ele>
        <time>2013-02-24T13:42:08.1Z</time>
      </trkpt>
      <trkpt lat="48.48482" lon="-3.50342">
        <ele>270</ele>
        <time>2013-02-24T13:42:10.1Z</time>
      </trkpt>
      <trkpt lat="48.48483" lon="-3.5034">
        <ele>270</ele>
        <time>2013-02-24T13:42:12.1Z</time>
      </trkpt>
      <trkpt lat="48.48483" lon="-3.50337">
        <ele>271</ele>
        <time>2013-02-24T13:42:14.1Z</time>
      </trkpt>
      <trkpt lat="48.48484" lon="-3.50334">
        <ele>271</ele>
        <time>2013-02-24T13:42:16.1Z</time>
      </trkpt>
      <trkpt lat="48.48484" lon="-3.50331">
        <ele>271</ele>
        <time>2013-02-24T13:42:18.1Z</time>
      </trkpt>
      <trkpt lat="48.48484" lon="-3.50328">
        <ele>271</ele>
        <time>2013-02-24T13:42:20.1Z</time>
      </trkpt>
      <trkpt lat="48.48484" lon="-3.50326">
        <ele>271</ele>
        <time>2013-02-24T13:42:22.1Z</time>
      </trkpt>
      <trkpt lat="48.48484" lon="-3.50323">
        <ele>271</ele>
        <time>2013-02-24T13:42:24.1Z</time>
      </trkpt>
      <trkpt lat="48.48485" lon="-3.5032">
        <ele>272</ele>
        <time>2013-02-24T13:42:26.1Z</time>
      </trkpt>
      <trkpt lat="48.48485" lon="-3.50317">
        <ele>272</ele>
        <time>2013-02-24T13:42:28.1Z</time>
      </trkpt>
      <trkpt lat="48.48485" lon="-3.50314">
        <ele>273</ele>
        <time>2013-02-24T13:42:31.1Z</time>
      </trkpt>
      <trkpt lat="48.48485" lon="-3.5031">
        <ele>273</ele>
        <time>2013-02-24T13:42:33.1Z</time>
      </trkpt>
      <trkpt lat="48.48486" lon="-3.50307">
        <ele>273</ele>
        <time>2013-02-24T13:42:35.1Z</time>
      </trkpt>
      <trkpt lat="48.48486" lon="-3.50305">
        <ele>273</ele>
        <time>2013-02-24T13:42:37.1Z</time>
      </trkpt>
      <trkpt lat="48.48486" lon="-3.50302">
        <ele>273</ele>
        <time>2013-02-24T13:42:39.1Z</time>
      </trkpt>
      <trkpt lat="48.48486" lon="-3.503">
        <ele>273</ele>
        <time>2013-02-24T13:42:41.1Z</time>
      </trkpt>
      <trkpt lat="48.48487" lon="-3.50297">
        <ele>273</ele>
        <time>2013-02-24T13:42:43.1Z</time>
      </trkpt>
      <trkpt lat="48.48487" lon="-3.50294">
        <ele>273</ele>
        <time>2013-02-24T13:42:45.1Z</time>
      </trkpt>
      <trkpt lat="48.48487" lon="-3.50292">
        <ele>273</ele>
        <time>2013-02-24T13:42:47.1Z</time>
      </trkpt>
      <trkpt lat="48.48487" lon="-3.50289">
        <ele>274</ele>
        <time>2013-02-24T13:42:50.1Z</time>
      </trkpt>
      <trkpt lat="48.48486" lon="-3.50285">
        <ele>274</ele>
        <time>2013-02-24T13:42:52.1Z</time>
      </trkpt>
      <trkpt lat="48.48486" lon="-3.50282">
        <ele>274</ele>
        <time>2013-02-24T13:42:54.1Z</time>
      </trkpt>
      <trkpt lat="48.48487" lon="-3.50279">
        <ele>274</ele>
        <time>2013-02-24T13:42:56.1Z</time>
      </trkpt>
      <trkpt lat="48.48487" lon="-3.50277">
        <ele>274</ele>
        <time>2013-02-24T13:42:58.1Z</time>
      </trkpt>
      <trkpt lat="48.48487" lon="-3.50274">
        <ele>274</ele>
        <time>2013-02-24T13:43:00.1Z</time>
      </trkpt>
      <trkpt lat="48.48487" lon="-3.50272">
        <ele>274</ele>
        <time>2013-02-24T13:43:02.1Z</time>
      </trkpt>
      <trkpt lat="48.48487" lon="-3.50269">
        <ele>275</ele>
        <time>2013-02-24T13:43:04.1Z</time>
      </trkpt>
      <trkpt lat="48.48487" lon="-3.50267">
        <ele>274</ele>
        <time>2013-02-24T13:43:06.1Z</time>
      </trkpt>
      <trkpt lat="48.48486" lon="-3.50264">
        <ele>274</ele>
        <time>2013-02-24T13:43:08.1Z</time>
      </trkpt>
      <trkpt lat="48.48486" lon="-3.50261">
        <ele>275</ele>
        <time>2013-02-24T13:43:10.1Z</time>
      </trkpt>
      <trkpt lat="48.48486" lon="-3.50259">
        <ele>274</ele>
        <time>2013-02-24T13:43:12.1Z</time>
      </trkpt>
      <trkpt lat="48.48486" lon="-3.50256">
        <ele>275</ele>
        <time>2013-02-24T13:43:15.1Z</time>
      </trkpt>
      <trkpt lat="48.48486" lon="-3.50254">
        <ele>275</ele>
        <time>2013-02-24T13:43:17.1Z</time>
      </trkpt>
      <trkpt lat="48.48486" lon="-3.50254">
        <ele>275</ele>
        <time>2013-02-24T13:43:19.1Z</time>
      </trkpt>
      <trkpt lat="48.48485" lon="-3.50251">
        <ele>275</ele>
        <time>2013-02-24T13:43:21.1Z</time>
      </trkpt>
      <trkpt lat="48.48485" lon="-3.50248">
        <ele>275</ele>
        <time>2013-02-24T13:43:23.1Z</time>
      </trkpt>
      <trkpt lat="48.48485" lon="-3.50245">
        <ele>275</ele>
        <time>2013-02-24T13:43:25.1Z</time>
      </trkpt>
      <trkpt lat="48.48485" lon="-3.50243">
        <ele>275</ele>
        <time>2013-02-24T13:43:27.1Z</time>
      </trkpt>
      <trkpt lat="48.48485" lon="-3.50241">
        <ele>275</ele>
        <time>2013-02-24T13:43:29.1Z</time>
      </trkpt>
      <trkpt lat="48.48485" lon="-3.50238">
        <ele>275</ele>
        <time>2013-02-24T13:43:31.1Z</time>
      </trkpt>
      <trkpt lat="48.48484" lon="-3.50236">
        <ele>275</ele>
        <time>2013-02-24T13:43:33.1Z</time>
      </trkpt>
      <trkpt lat="48.48484" lon="-3.50234">
        <ele>276</ele>
        <time>2013-02-24T13:43:35.1Z</time>
      </trkpt>
      <trkpt lat="48.48485" lon="-3.50231">
        <ele>276</ele>
        <time>2013-02-24T13:43:37.1Z</time>
      </trkpt>
      <trkpt lat="48.48485" lon="-3.50228">
        <ele>276</ele>
        <time>2013-02-24T13:43:39.1Z</time>
      </trkpt>
      <trkpt lat="48.48485" lon="-3.50226">
        <ele>276</ele>
        <time>2013-02-24T13:43:41.1Z</time>
      </trkpt>
      <trkpt lat="48.48486" lon="-3.50223">
        <ele>276</ele>
        <time>2013-02-24T13:43:43.1Z</time>
      </trkpt>
      <trkpt lat="48.48486" lon="-3.5022">
        <ele>277</ele>
        <time>2013-02-24T13:43:45.1Z</time>
      </trkpt>
      <trkpt lat="48.48486" lon="-3.50217">
        <ele>277</ele>
        <time>2013-02-24T13:43:48.1Z</time>
      </trkpt>
      <trkpt lat="48.48486" lon="-3.50213">
        <ele>277</ele>
        <time>2013-02-24T13:43:50.1Z</time>
      </trkpt>
      <trkpt lat="48.48486" lon="-3.5021">
        <ele>277</ele>
        <time>2013-02-24T13:43:52.1Z</time>
      </trkpt>
      <trkpt lat="48.48486" lon="-3.50208">
        <ele>277</ele>
        <time>2013-02-24T13:43:54.1Z</time>
      </trkpt>
      <trkpt lat="48.48486" lon="-3.50205">
        <ele>277</ele>
        <time>2013-02-24T13:43:56.1Z</time>
      </trkpt>
      <trkpt lat="48.48486" lon="-3.50203">
        <ele>277</ele>
        <time>2013-02-24T13:43:58.1Z</time>
      </trkpt>
      <trkpt lat="48.48486" lon="-3.50201">
        <ele>277</ele>
        <time>2013-02-24T13:44:00.1Z</time>
      </trkpt>
      <trkpt lat="48.48486" lon="-3.50199">
        <ele>278</ele>
        <time>2013-02-24T13:44:03.1Z</time>
      </trkpt>
      <trkpt lat="48.48486" lon="-3.50196">
        <ele>278</ele>
        <time>2013-02-24T13:44:05.1Z</time>
      </trkpt>
      <trkpt lat="48.48487" lon="-3.50192">
        <ele>278</ele>
        <time>2013-02-24T13:44:07.1Z</time>
      </trkpt>
      <trkpt lat="48.48486" lon="-3.5019">
        <ele>278</ele>
        <time>2013-02-24T13:44:09.1Z</time>
      </trkpt>
      <trkpt lat="48.48486" lon="-3.50188">
        <ele>278</ele>
        <time>2013-02-24T13:44:11.1Z</time>
      </trkpt>
      <trkpt lat="48.48487" lon="-3.50186">
        <ele>278</ele>
        <time>2013-02-24T13:44:13.1Z</time>
      </trkpt>
      <trkpt lat="48.48487" lon="-3.50183">
        <ele>278</ele>
        <time>2013-02-24T13:44:15.1Z</time>
      </trkpt>
      <trkpt lat="48.48487" lon="-3.50181">
        <ele>278</ele>
        <time>2013-02-24T13:44:17.1Z</time>
      </trkpt>
      <trkpt lat="48.48487" lon="-3.50178">
        <ele>278</ele>
        <time>2013-02-24T13:44:19.1Z</time>
      </trkpt>
      <trkpt lat="48.48487" lon="-3.50176">
        <ele>279</ele>
        <time>2013-02-24T13:44:21.1Z</time>
      </trkpt>
      <trkpt lat="48.48487" lon="-3.50173">
        <ele>279</ele>
        <time>2013-02-24T13:44:23.1Z</time>
      </trkpt>
      <trkpt lat="48.48488" lon="-3.50171">
        <ele>279</ele>
        <time>2013-02-24T13:44:25.1Z</time>
      </trkpt>
      <trkpt lat="48.48488" lon="-3.50168">
        <ele>279</ele>
        <time>2013-02-24T13:44:27.1Z</time>
      </trkpt>
      <trkpt lat="48.48488" lon="-3.50166">
        <ele>279</ele>
        <time>2013-02-24T13:44:29.1Z</time>
      </trkpt>
      <trkpt lat="48.48488" lon="-3.50164">
        <ele>279</ele>
        <time>2013-02-24T13:44:32.1Z</time>
      </trkpt>
      <trkpt lat="48.48488" lon="-3.50161">
        <ele>280</ele>
        <time>2013-02-24T13:44:34.1Z</time>
      </trkpt>
      <trkpt lat="48.48488" lon="-3.50159">
        <ele>280</ele>
        <time>2013-02-24T13:44:36.1Z</time>
      </trkpt>
      <trkpt lat="48.48488" lon="-3.50154">
        <ele>280</ele>
        <time>2013-02-24T13:44:38.1Z</time>
      </trkpt>
      <trkpt lat="48.48488" lon="-3.50151">
        <ele>281</ele>
        <time>2013-02-24T13:44:40.1Z</time>
      </trkpt>
      <trkpt lat="48.48488" lon="-3.50149">
        <ele>281</ele>
        <time>2013-02-24T13:44:42.1Z</time>
      </trkpt>
      <trkpt lat="48.48488" lon="-3.50147">
        <ele>281</ele>
        <time>2013-02-24T13:44:44.1Z</time>
      </trkpt>
      <trkpt lat="48.48488" lon="-3.50145">
        <ele>281</ele>
        <time>2013-02-24T13:44:46.1Z</time>
      </trkpt>
      <trkpt lat="48.48488" lon="-3.50142">
        <ele>281</ele>
        <time>2013-02-24T13:44:48.1Z</time>
      </trkpt>
      <trkpt lat="48.48488" lon="-3.5014">
        <ele>281</ele>
        <time>2013-02-24T13:44:50.1Z</time>
      </trkpt>
      <trkpt lat="48.48488" lon="-3.50138">
        <ele>281</ele>
        <time>2013-02-24T13:44:52.1Z</time>
      </trkpt>
      <trkpt lat="48.48488" lon="-3.50135">
        <ele>281</ele>
        <time>2013-02-24T13:44:54.1Z</time>
      </trkpt>
      <trkpt lat="48.48489" lon="-3.50133">
        <ele>282</ele>
        <time>2013-02-24T13:44:56.1Z</time>
      </trkpt>
      <trkpt lat="48.48489" lon="-3.50131">
        <ele>282</ele>
        <time>2013-02-24T13:44:59.1Z</time>
      </trkpt>
      <trkpt lat="48.4849" lon="-3.50128">
        <ele>282</ele>
        <time>2013-02-24T13:45:01.1Z</time>
      </trkpt>
      <trkpt lat="48.4849" lon="-3.50125">
        <ele>282</ele>
        <time>2013-02-24T13:45:03.1Z</time>
      </trkpt>
      <trkpt lat="48.48491" lon="-3.50123">
        <ele>282</ele>
        <time>2013-02-24T13:45:05.1Z</time>
      </trkpt>
      <trkpt lat="48.48491" lon="-3.5012">
        <ele>282</ele>
        <time>2013-02-24T13:45:07.1Z</time>
      </trkpt>
      <trkpt lat="48.48491" lon="-3.50117">
        <ele>282</ele>
        <time>2013-02-24T13:45:09.1Z</time>
      </trkpt>
      <trkpt lat="48.48491" lon="-3.50115">
        <ele>282</ele>
        <time>2013-02-24T13:45:11.1Z</time>
      </trkpt>
      <trkpt lat="48.48491" lon="-3.50112">
        <ele>283</ele>
        <time>2013-02-24T13:45:13.1Z</time>
      </trkpt>
      <trkpt lat="48.48491" lon="-3.5011">
        <ele>283</ele>
        <time>2013-02-24T13:45:15.1Z</time>
      </trkpt>
      <trkpt lat="48.48491" lon="-3.50107">
        <ele>283</ele>
        <time>2013-02-24T13:45:17.1Z</time>
      </trkpt>
      <trkpt lat="48.48491" lon="-3.50105">
        <ele>283</ele>
        <time>2013-02-24T13:45:19.1Z</time>
      </trkpt>
      <trkpt lat="48.48491" lon="-3.50102">
        <ele>283</ele>
        <time>2013-02-24T13:45:21.1Z</time>
      </trkpt>
      <trkpt lat="48.48491" lon="-3.501">
        <ele>283</ele>
        <time>2013-02-24T13:45:23.1Z</time>
      </trkpt>
      <trkpt lat="48.4849" lon="-3.50098">
        <ele>283</ele>
        <time>2013-02-24T13:45:25.1Z</time>
      </trkpt>
      <trkpt lat="48.48489" lon="-3.50096">
        <ele>283</ele>
        <time>2013-02-24T13:45:27.1Z</time>
      </trkpt>
      <trkpt lat="48.48489" lon="-3.50094">
        <ele>284</ele>
        <time>2013-02-24T13:45:29.1Z</time>
      </trkpt>
      <trkpt lat="48.48489" lon="-3.50092">
        <ele>284</ele>
        <time>2013-02-24T13:45:31.1Z</time>
      </trkpt>
      <trkpt lat="48.48488" lon="-3.50089">
        <ele>284</ele>
        <time>2013-02-24T13:45:33.1Z</time>
      </trkpt>
      <trkpt lat="48.48488" lon="-3.50086">
        <ele>284</ele>
        <time>2013-02-24T13:45:35.1Z</time>
      </trkpt>
      <trkpt lat="48.48488" lon="-3.50084">
        <ele>284</ele>
        <time>2013-02-24T13:45:37.1Z</time>
      </trkpt>
      <trkpt lat="48.48487" lon="-3.50082">
        <ele>285</ele>
        <time>2013-02-24T13:45:40.1Z</time>
      </trkpt>
      <trkpt lat="48.48487" lon="-3.50078">
        <ele>285</ele>
        <time>2013-02-24T13:45:42.1Z</time>
      </trkpt>
      <trkpt lat="48.48488" lon="-3.50076">
        <ele>285</ele>
        <time>2013-02-24T13:45:44.1Z</time>
      </trkpt>
      <trkpt lat="48.48487" lon="-3.50074">
        <ele>285</ele>
        <time>2013-02-24T13:45:46.1Z</time>
      </trkpt>
      <trkpt lat="48.48488" lon="-3.50072">
        <ele>286</ele>
        <time>2013-02-24T13:45:48.1Z</time>
      </trkpt>
      <trkpt lat="48.48488" lon="-3.5007">
        <ele>286</ele>
        <time>2013-02-24T13:45:50.1Z</time>
      </trkpt>
      <trkpt lat="48.48487" lon="-3.50068">
        <ele>286</ele>
        <time>2013-02-24T13:45:52.1Z</time>
      </trkpt>
      <trkpt lat="48.48487" lon="-3.50066">
        <ele>286</ele>
        <time>2013-02-24T13:45:54.1Z</time>
      </trkpt>
      <trkpt lat="48.48488" lon="-3.50064">
        <ele>286</ele>
        <time>2013-02-24T13:45:56.1Z</time>
      </trkpt>
      <trkpt lat="48.48488" lon="-3.50061">
        <ele>286</ele>
        <time>2013-02-24T13:45:58.1Z</time>
      </trkpt>
      <trkpt lat="48.48488" lon="-3.50059">
        <ele>286</ele>
        <time>2013-02-24T13:46:00.1Z</time>
      </trkpt>
      <trkpt lat="48.48488" lon="-3.50056">
        <ele>287</ele>
        <time>2013-02-24T13:46:02.1Z</time>
      </trkpt>
      <trkpt lat="48.48488" lon="-3.50054">
        <ele>287</ele>
        <time>2013-02-24T13:46:04.1Z</time>
      </trkpt>
      <trkpt lat="48.48488" lon="-3.50051">
        <ele>287</ele>
        <time>2013-02-24T13:46:06.1Z</time>
      </trkpt>
      <trkpt lat="48.48489" lon="-3.50049">
        <ele>287</ele>
        <time>2013-02-24T13:46:08.1Z</time>
      </trkpt>
      <trkpt lat="48.48489" lon="-3.50046">
        <ele>287</ele>
        <time>2013-02-24T13:46:10.1Z</time>
      </trkpt>
      <trkpt lat="48.48489" lon="-3.50044">
        <ele>288</ele>
        <time>2013-02-24T13:46:13.1Z</time>
      </trkpt>
      <trkpt lat="48.48489" lon="-3.50041">
        <ele>288</ele>
        <time>2013-02-24T13:46:15.1Z</time>
      </trkpt>
      <trkpt lat="48.48489" lon="-3.50039">
        <ele>288</ele>
        <time>2013-02-24T13:46:17.1Z</time>
      </trkpt>
      <trkpt lat="48.48489" lon="-3.50037">
        <ele>288</ele>
        <time>2013-02-24T13:46:19.1Z</time>
      </trkpt>
      <trkpt lat="48.48489" lon="-3.50035">
        <ele>288</ele>
        <time>2013-02-24T13:46:21.1Z</time>
      </trkpt>
      <trkpt lat="48.4849" lon="-3.50032">
        <ele>289</ele>
        <time>2013-02-24T13:46:23.1Z</time>
      </trkpt>
      <trkpt lat="48.4849" lon="-3.50029">
        <ele>289</ele>
        <time>2013-02-24T13:46:25.1Z</time>
      </trkpt>
      <trkpt lat="48.4849" lon="-3.50027">
        <ele>289</ele>
        <time>2013-02-24T13:46:27.1Z</time>
      </trkpt>
      <trkpt lat="48.48491" lon="-3.50024">
        <ele>289</ele>
        <time>2013-02-24T13:46:29.1Z</time>
      </trkpt>
      <trkpt lat="48.48491" lon="-3.50021">
        <ele>290</ele>
        <time>2013-02-24T13:46:31.1Z</time>
      </trkpt>
      <trkpt lat="48.48492" lon="-3.50018">
        <ele>290</ele>
        <time>2013-02-24T13:46:33.1Z</time>
      </trkpt>
      <trkpt lat="48.48492" lon="-3.50016">
        <ele>290</ele>
        <time>2013-02-24T13:46:35.1Z</time>
      </trkpt>
      <trkpt lat="48.48492" lon="-3.50013">
        <ele>290</ele>
        <time>2013-02-24T13:46:37.1Z</time>
      </trkpt>
      <trkpt lat="48.48492" lon="-3.5001">
        <ele>290</ele>
        <time>2013-02-24T13:46:39.1Z</time>
      </trkpt>
      <trkpt lat="48.48493" lon="-3.50008">
        <ele>290</ele>
        <time>2013-02-24T13:46:41.1Z</time>
      </trkpt>
      <trkpt lat="48.48493" lon="-3.50006">
        <ele>290</ele>
        <time>2013-02-24T13:46:43.1Z</time>
      </trkpt>
      <trkpt lat="48.48494" lon="-3.50003">
        <ele>290</ele>
        <time>2013-02-24T13:46:46.1Z</time>
      </trkpt>
      <trkpt lat="48.48494" lon="-3.50001">
        <ele>291</ele>
        <time>2013-02-24T13:46:48.1Z</time>
      </trkpt>
      <trkpt lat="48.48494" lon="-3.49998">
        <ele>291</ele>
        <time>2013-02-24T13:46:50.1Z</time>
      </trkpt>
      <trkpt lat="48.48494" lon="-3.49996">
        <ele>291</ele>
        <time>2013-02-24T13:46:52.1Z</time>
      </trkpt>
      <trkpt lat="48.48494" lon="-3.49994">
        <ele>291</ele>
        <time>2013-02-24T13:46:54.1Z</time>
      </trkpt>
      <trkpt lat="48.48493" lon="-3.49992">
        <ele>291</ele>
        <time>2013-02-24T13:46:56.1Z</time>
      </trkpt>
      <trkpt lat="48.48494" lon="-3.4999">
        <ele>291</ele>
        <time>2013-02-24T13:46:58.1Z</time>
      </trkpt>
      <trkpt lat="48.48494" lon="-3.49988">
        <ele>292</ele>
        <time>2013-02-24T13:47:00.1Z</time>
      </trkpt>
      <trkpt lat="48.48494" lon="-3.49985">
        <ele>292</ele>
        <time>2013-02-24T13:47:03.1Z</time>
      </trkpt>
      <trkpt lat="48.48494" lon="-3.49982">
        <ele>292</ele>
        <time>2013-02-24T13:47:05.1Z</time>
      </trkpt>
      <trkpt lat="48.48494" lon="-3.49981">
        <ele>292</ele>
        <time>2013-02-24T13:47:07.1Z</time>
      </trkpt>
      <trkpt lat="48.48494" lon="-3.49978">
        <ele>293</ele>
        <time>2013-02-24T13:47:09.1Z</time>
      </trkpt>
      <trkpt lat="48.48494" lon="-3.49976">
        <ele>293</ele>
        <time>2013-02-24T13:47:11.1Z</time>
      </trkpt>
      <trkpt lat="48.48494" lon="-3.49974">
        <ele>293</ele>
        <time>2013-02-24T13:47:13.1Z</time>
      </trkpt>
      <trkpt lat="48.48494" lon="-3.49973">
        <ele>293</ele>
        <time>2013-02-24T13:47:15.1Z</time>
      </trkpt>
      <trkpt lat="48.48494" lon="-3.4997">
        <ele>293</ele>
        <time>2013-02-24T13:47:17.1Z</time>
      </trkpt>
      <trkpt lat="48.48494" lon="-3.49968">
        <ele>294</ele>
        <time>2013-02-24T13:47:19.1Z</time>
      </trkpt>
      <trkpt lat="48.48494" lon="-3.49966">
        <ele>294</ele>
        <time>2013-02-24T13:47:22.1Z</time>
      </trkpt>
      <trkpt lat="48.48495" lon="-3.49963">
        <ele>294</ele>
        <time>2013-02-24T13:47:24.1Z</time>
      </trkpt>
      <trkpt lat="48.48495" lon="-3.49961">
        <ele>294</ele>
        <time>2013-02-24T13:47:26.1Z</time>
      </trkpt>
      <trkpt lat="48.48496" lon="-3.49959">
        <ele>294</ele>
        <time>2013-02-24T13:47:28.1Z</time>
      </trkpt>
      <trkpt lat="48.48496" lon="-3.49957">
        <ele>295</ele>
        <time>2013-02-24T13:47:30.1Z</time>
      </trkpt>
      <trkpt lat="48.48496" lon="-3.49955">
        <ele>295</ele>
        <time>2013-02-24T13:47:32.1Z</time>
      </trkpt>
      <trkpt lat="48.48496" lon="-3.49952">
        <ele>295</ele>
        <time>2013-02-24T13:47:34.1Z</time>
      </trkpt>
      <trkpt lat="48.48496" lon="-3.4995">
        <ele>296</ele>
        <time>2013-02-24T13:47:36.1Z</time>
      </trkpt>
      <trkpt lat="48.48496" lon="-3.49949">
        <ele>296</ele>
        <time>2013-02-24T13:47:38.1Z</time>
      </trkpt>
      <trkpt lat="48.48496" lon="-3.49948">
        <ele>296</ele>
        <time>2013-02-24T13:47:40.1Z</time>
      </trkpt>
      <trkpt lat="48.48496" lon="-3.49948">
        <ele>296</ele>
        <time>2013-02-24T13:47:43.1Z</time>
      </trkpt>
      <trkpt lat="48.48496" lon="-3.49945">
        <ele>296</ele>
        <time>2013-02-24T13:47:45.1Z</time>
      </trkpt>
      <trkpt lat="48.48496" lon="-3.49943">
        <ele>296</ele>
        <time>2013-02-24T13:47:47.1Z</time>
      </trkpt>
      <trkpt lat="48.48496" lon="-3.4994">
        <ele>296</ele>
        <time>2013-02-24T13:47:49.1Z</time>
      </trkpt>
      <trkpt lat="48.48495" lon="-3.49938">
        <ele>296</ele>
        <time>2013-02-24T13:47:51.1Z</time>
      </trkpt>
      <trkpt lat="48.48495" lon="-3.49936">
        <ele>297</ele>
        <time>2013-02-24T13:47:53.1Z</time>
      </trkpt>
      <trkpt lat="48.48495" lon="-3.49933">
        <ele>297</ele>
        <time>2013-02-24T13:47:56.1Z</time>
      </trkpt>
      <trkpt lat="48.48494" lon="-3.4993">
        <ele>298</ele>
        <time>2013-02-24T13:47:58.1Z</time>
      </trkpt>
      <trkpt lat="48.48494" lon="-3.49928">
        <ele>298</ele>
        <time>2013-02-24T13:48:00.1Z</time>
      </trkpt>
      <trkpt lat="48.48494" lon="-3.49927">
        <ele>298</ele>
        <time>2013-02-24T13:48:02.1Z</time>
      </trkpt>
      <trkpt lat="48.48493" lon="-3.49925">
        <ele>298</ele>
        <time>2013-02-24T13:48:04.1Z</time>
      </trkpt>
      <trkpt lat="48.48493" lon="-3.49922">
        <ele>299</ele>
        <time>2013-02-24T13:48:06.1Z</time>
      </trkpt>
      <trkpt lat="48.48493" lon="-3.49921">
        <ele>299</ele>
        <time>2013-02-24T13:48:08.1Z</time>
      </trkpt>
      <trkpt lat="48.48493" lon="-3.49919">
        <ele>299</ele>
        <time>2013-02-24T13:48:10.1Z</time>
      </trkpt>
      <trkpt lat="48.48494" lon="-3.49917">
        <ele>299</ele>
        <time>2013-02-24T13:48:12.1Z</time>
      </trkpt>
      <trkpt lat="48.48494" lon="-3.49916">
        <ele>299</ele>
        <time>2013-02-24T13:48:14.1Z</time>
      </trkpt>
      <trkpt lat="48.48494" lon="-3.49914">
        <ele>300</ele>
        <time>2013-02-24T13:48:16.1Z</time>
      </trkpt>
      <trkpt lat="48.48494" lon="-3.49912">
        <ele>300</ele>
        <time>2013-02-24T13:48:18.1Z</time>
      </trkpt>
      <trkpt lat="48.48494" lon="-3.49911">
        <ele>300</ele>
        <time>2013-02-24T13:48:21.1Z</time>
      </trkpt>
      <trkpt lat="48.48494" lon="-3.49908">
        <ele>300</ele>
        <time>2013-02-24T13:48:23.1Z</time>
      </trkpt>
      <trkpt lat="48.48494" lon="-3.49906">
        <ele>300</ele>
        <time>2013-02-24T13:48:25.1Z</time>
      </trkpt>
      <trkpt lat="48.48495" lon="-3.49904">
        <ele>300</ele>
        <time>2013-02-24T13:48:27.1Z</time>
      </trkpt>
      <trkpt lat="48.48495" lon="-3.49901">
        <ele>301</ele>
        <time>2013-02-24T13:48:29.1Z</time>
      </trkpt>
      <trkpt lat="48.48495" lon="-3.49898">
        <ele>301</ele>
        <time>2013-02-24T13:48:31.1Z</time>
      </trkpt>
      <trkpt lat="48.48495" lon="-3.49896">
        <ele>302</ele>
        <time>2013-02-24T13:48:33.1Z</time>
      </trkpt>
      <trkpt lat="48.48496" lon="-3.49894">
        <ele>302</ele>
        <time>2013-02-24T13:48:35.1Z</time>
      </trkpt>
      <trkpt lat="48.48497" lon="-3.49892">
        <ele>302</ele>
        <time>2013-02-24T13:48:37.1Z</time>
      </trkpt>
      <trkpt lat="48.48496" lon="-3.49891">
        <ele>302</ele>
        <time>2013-02-24T13:48:39.1Z</time>
      </trkpt>
      <trkpt lat="48.48496" lon="-3.4989">
        <ele>302</ele>
        <time>2013-02-24T13:48:42.1Z</time>
      </trkpt>
      <trkpt lat="48.48496" lon="-3.49889">
        <ele>302</ele>
        <time>2013-02-24T13:48:44.1Z</time>
      </trkpt>
      <trkpt lat="48.48496" lon="-3.49887">
        <ele>302</ele>
        <time>2013-02-24T13:48:46.1Z</time>
      </trkpt>
      <trkpt lat="48.48496" lon="-3.49886">
        <ele>302</ele>
        <time>2013-02-24T13:48:48.1Z</time>
      </trkpt>
      <trkpt lat="48.48495" lon="-3.49884">
        <ele>302</ele>
        <time>2013-02-24T13:48:50.1Z</time>
      </trkpt>
      <trkpt lat="48.48495" lon="-3.49882">
        <ele>302</ele>
        <time>2013-02-24T13:48:52.1Z</time>
      </trkpt>
      <trkpt lat="48.48495" lon="-3.49881">
        <ele>303</ele>
        <time>2013-02-24T13:48:54.1Z</time>
      </trkpt>
      <trkpt lat="48.48495" lon="-3.49879">
        <ele>303</ele>
        <time>2013-02-24T13:48:56.1Z</time>
      </trkpt>
      <trkpt lat="48.48495" lon="-3.49878">
        <ele>303</ele>
        <time>2013-02-24T13:48:58.1Z</time>
      </trkpt>
      <trkpt lat="48.48495" lon="-3.49876">
        <ele>303</ele>
        <time>2013-02-24T13:49:00.1Z</time>
      </trkpt>
      <trkpt lat="48.48495" lon="-3.49875">
        <ele>303</ele>
        <time>2013-02-24T13:49:02.1Z</time>
      </trkpt>
      <trkpt lat="48.48495" lon="-3.49873">
        <ele>304</ele>
        <time>2013-02-24T13:49:04.1Z</time>
      </trkpt>
      <trkpt lat="48.48495" lon="-3.49872">
        <ele>304</ele>
        <time>2013-02-24T13:49:06.1Z</time>
      </trkpt>
      <trkpt lat="48.48496" lon="-3.49871">
        <ele>304</ele>
        <time>2013-02-24T13:49:08.1Z</time>
      </trkpt>
      <trkpt lat="48.48496" lon="-3.49871">
        <ele>304</ele>
        <time>2013-02-24T13:49:10.1Z</time>
      </trkpt>
      <trkpt lat="48.48496" lon="-3.49869">
        <ele>304</ele>
        <time>2013-02-24T13:49:12.1Z</time>
      </trkpt>
      <trkpt lat="48.48496" lon="-3.49868">
        <ele>304</ele>
        <time>2013-02-24T13:49:14.1Z</time>
      </trkpt>
      <trkpt lat="48.48496" lon="-3.49868">
        <ele>304</ele>
        <time>2013-02-24T13:49:16.1Z</time>
      </trkpt>
      <trkpt lat="48.48496" lon="-3.49867">
        <ele>304</ele>
        <time>2013-02-24T13:49:18.1Z</time>
      </trkpt>
      <trkpt lat="48.48495" lon="-3.49866">
        <ele>304</ele>
        <time>2013-02-24T13:49:21.1Z</time>
      </trkpt>
      <trkpt lat="48.48495" lon="-3.49865">
        <ele>304</ele>
        <time>2013-02-24T13:49:23.1Z</time>
      </trkpt>
      <trkpt lat="48.48494" lon="-3.49865">
        <ele>304</ele>
        <time>2013-02-24T13:49:25.1Z</time>
      </trkpt>
      <trkpt lat="48.48494" lon="-3.49864">
        <ele>304</ele>
        <time>2013-02-24T13:49:27.1Z</time>
      </trkpt>
      <trkpt lat="48.48493" lon="-3.49864">
        <ele>304</ele>
        <time>2013-02-24T13:49:29.1Z</time>
      </trkpt>
      <trkpt lat="48.48493" lon="-3.49863">
        <ele>304</ele>
        <time>2013-02-24T13:49:31.1Z</time>
      </trkpt>
      <trkpt lat="48.48493" lon="-3.49862">
        <ele>304</ele>
        <time>2013-02-24T13:49:33.1Z</time>
      </trkpt>
      <trkpt lat="48.48493" lon="-3.49862">
        <ele>304</ele>
        <time>2013-02-24T13:49:35.1Z</time>
      </trkpt>
      <trkpt lat="48.48493" lon="-3.49861">
        <ele>305</ele>
        <time>2013-02-24T13:49:38.1Z</time>
      </trkpt>
      <trkpt lat="48.48492" lon="-3.49861">
        <ele>305</ele>
        <time>2013-02-24T13:49:40.1Z</time>
      </trkpt>
      <trkpt lat="48.48492" lon="-3.49862">
        <ele>305</ele>
        <time>2013-02-24T13:49:42.1Z</time>
      </trkpt>
      <trkpt lat="48.48492" lon="-3.49862">
        <ele>305</ele>
        <time>2013-02-24T13:49:44.1Z</time>
      </trkpt>
      <trkpt lat="48.48491" lon="-3.49862">
        <ele>305</ele>
        <time>2013-02-24T13:49:46.1Z</time>
      </trkpt>
      <trkpt lat="48.48492" lon="-3.49862">
        <ele>305</ele>
        <time>2013-02-24T13:49:48.1Z</time>
      </trkpt>
      <trkpt lat="48.48492" lon="-3.49862">
        <ele>305</ele>
        <time>2013-02-24T13:49:50.1Z</time>
      </trkpt>
      <trkpt lat="48.48492" lon="-3.49862">
        <ele>305</ele>
        <time>2013-02-24T13:49:52.1Z</time>
      </trkpt>
      <trkpt lat="48.48492" lon="-3.49862">
        <ele>305</ele>
        <time>2013-02-24T13:49:54.1Z</time>
      </trkpt>
      <trkpt lat="48.48492" lon="-3.49863">
        <ele>305</ele>
        <time>2013-02-24T13:49:57.1Z</time>
      </trkpt>
      <trkpt lat="48.48491" lon="-3.49862">
        <ele>305</ele>
        <time>2013-02-24T13:49:59.1Z</time>
      </trkpt>
      <trkpt lat="48.48491" lon="-3.49863">
        <ele>305</ele>
        <time>2013-02-24T13:50:01.1Z</time>
      </trkpt>
      <trkpt lat="48.48491" lon="-3.49863">
        <ele>305</ele>
        <time>2013-02-24T13:50:03.1Z</time>
      </trkpt>
      <trkpt lat="48.48492" lon="-3.49863">
        <ele>305</ele>
        <time>2013-02-24T13:50:05.1Z</time>
      </trkpt>
      <trkpt lat="48.48492" lon="-3.49864">
        <ele>305</ele>
        <time>2013-02-24T13:50:07.1Z</time>
      </trkpt>
      <trkpt lat="48.48492" lon="-3.49864">
        <ele>305</ele>
        <time>2013-02-24T13:50:09.1Z</time>
      </trkpt>
      <trkpt lat="48.48491" lon="-3.49864">
        <ele>305</ele>
        <time>2013-02-24T13:50:11.1Z</time>
      </trkpt>
      <trkpt lat="48.48491" lon="-3.49865">
        <ele>305</ele>
        <time>2013-02-24T13:50:13.1Z</time>
      </trkpt>
      <trkpt lat="48.48491" lon="-3.49865">
        <ele>305</ele>
        <time>2013-02-24T13:50:15.1Z</time>
      </trkpt>
      <trkpt lat="48.48491" lon="-3.49865">
        <ele>304</ele>
        <time>2013-02-24T13:50:17.1Z</time>
      </trkpt>
      <trkpt lat="48.48491" lon="-3.49866">
        <ele>304</ele>
        <time>2013-02-24T13:50:20.1Z</time>
      </trkpt>
      <trkpt lat="48.48491" lon="-3.49866">
        <ele>305</ele>
        <time>2013-02-24T13:50:22.1Z</time>
      </trkpt>
      <trkpt lat="48.48491" lon="-3.49867">
        <ele>304</ele>
        <time>2013-02-24T13:50:24.1Z</time>
      </trkpt>
      <trkpt lat="48.48491" lon="-3.49867">
        <ele>305</ele>
        <time>2013-02-24T13:50:26.1Z</time>
      </trkpt>
      <trkpt lat="48.48492" lon="-3.49866">
        <ele>304</ele>
        <time>2013-02-24T13:50:28.1Z</time>
      </trkpt>
      <trkpt lat="48.48493" lon="-3.49865">
        <ele>304</ele>
        <time>2013-02-24T13:50:30.1Z</time>
      </trkpt>
      <trkpt lat="48.48493" lon="-3.49866">
        <ele>304</ele>
        <time>2013-02-24T13:50:32.1Z</time>
      </trkpt>
      <trkpt lat="48.48494" lon="-3.49866">
        <ele>305</ele>
        <time>2013-02-24T13:50:35.1Z</time>
      </trkpt>
      <trkpt lat="48.48494" lon="-3.49866">
        <ele>305</ele>
        <time>2013-02-24T13:50:37.1Z</time>
      </trkpt>
      <trkpt lat="48.48494" lon="-3.49864">
        <ele>305</ele>
        <time>2013-02-24T13:50:39.1Z</time>
      </trkpt>
      <trkpt lat="48.48494" lon="-3.49862">
        <ele>305</ele>
        <time>2013-02-24T13:50:41.1Z</time>
      </trkpt>
      <trkpt lat="48.48494" lon="-3.4986">
        <ele>306</ele>
        <time>2013-02-24T13:50:43.1Z</time>
      </trkpt>
      <trkpt lat="48.48494" lon="-3.49859">
        <ele>306</ele>
        <time>2013-02-24T13:50:45.1Z</time>
      </trkpt>
      <trkpt lat="48.48494" lon="-3.49858">
        <ele>306</ele>
        <time>2013-02-24T13:50:47.1Z</time>
      </trkpt>
      <trkpt lat="48.48494" lon="-3.49858">
        <ele>306</ele>
        <time>2013-02-24T13:50:49.1Z</time>
      </trkpt>
      <trkpt lat="48.48496" lon="-3.49859">
        <ele>306</ele>
        <time>2013-02-24T13:50:52.1Z</time>
      </trkpt>
      <trkpt lat="48.48497" lon="-3.4986">
        <ele>306</ele>
        <time>2013-02-24T13:50:54.1Z</time>
      </trkpt>
      <trkpt lat="48.48498" lon="-3.4986">
        <ele>306</ele>
        <time>2013-02-24T13:50:56.1Z</time>
      </trkpt>
      <trkpt lat="48.48498" lon="-3.4986">
        <ele>306</ele>
        <time>2013-02-24T13:50:58.1Z</time>
      </trkpt>
      <trkpt lat="48.48497" lon="-3.49859">
        <ele>306</ele>
        <time>2013-02-24T13:51:00.1Z</time>
      </trkpt>
      <trkpt lat="48.48497" lon="-3.49859">
        <ele>306</ele>
        <time>2013-02-24T13:51:02.1Z</time>
      </trkpt>
      <trkpt lat="48.48497" lon="-3.49858">
        <ele>306</ele>
        <time>2013-02-24T13:51:04.1Z</time>
      </trkpt>
      <trkpt lat="48.48497" lon="-3.49857">
        <ele>306</ele>
        <time>2013-02-24T13:51:06.1Z</time>
      </trkpt>
      <trkpt lat="48.48497" lon="-3.49857">
        <ele>306</ele>
        <time>2013-02-24T13:51:08.1Z</time>
      </trkpt>
      <trkpt lat="48.48498" lon="-3.49856">
        <ele>306</ele>
        <time>2013-02-24T13:51:10.1Z</time>
      </trkpt>
      <trkpt lat="48.48499" lon="-3.49855">
        <ele>306</ele>
        <time>2013-02-24T13:51:12.1Z</time>
      </trkpt>
      <trkpt lat="48.485" lon="-3.49855">
        <ele>306</ele>
        <time>2013-02-24T13:51:14.1Z</time>
      </trkpt>
      <trkpt lat="48.485" lon="-3.49855">
        <ele>306</ele>
        <time>2013-02-24T13:51:17.1Z</time>
      </trkpt>
      <trkpt lat="48.485" lon="-3.49854">
        <ele>306</ele>
        <time>2013-02-24T13:51:19.1Z</time>
      </trkpt>
      <trkpt lat="48.485" lon="-3.49852">
        <ele>306</ele>
        <time>2013-02-24T13:51:21.1Z</time>
      </trkpt>
      <trkpt lat="48.48499" lon="-3.49851">
        <ele>307</ele>
        <time>2013-02-24T13:51:23.1Z</time>
      </trkpt>
      <trkpt lat="48.48499" lon="-3.4985">
        <ele>307</ele>
        <time>2013-02-24T13:51:25.1Z</time>
      </trkpt>
      <trkpt lat="48.48498" lon="-3.49849">
        <ele>307</ele>
        <time>2013-02-24T13:51:27.1Z</time>
      </trkpt>
      <trkpt lat="48.48497" lon="-3.49848">
        <ele>307</ele>
        <time>2013-02-24T13:51:29.1Z</time>
      </trkpt>
      <trkpt lat="48.48497" lon="-3.49848">
        <ele>307</ele>
        <time>2013-02-24T13:51:31.1Z</time>
      </trkpt>
      <trkpt lat="48.48495" lon="-3.49848">
        <ele>307</ele>
        <time>2013-02-24T13:51:33.1Z</time>
      </trkpt>
      <trkpt lat="48.48495" lon="-3.49848">
        <ele>307</ele>
        <time>2013-02-24T13:51:35.1Z</time>
      </trkpt>
      <trkpt lat="48.48495" lon="-3.49848">
        <ele>307</ele>
        <time>2013-02-24T13:51:37.1Z</time>
      </trkpt>
      <trkpt lat="48.48495" lon="-3.49848">
        <ele>307</ele>
        <time>2013-02-24T13:51:39.1Z</time>
      </trkpt>
      <trkpt lat="48.48495" lon="-3.49848">
        <ele>307</ele>
        <time>2013-02-24T13:51:42.1Z</time>
      </trkpt>
      <trkpt lat="48.48494" lon="-3.49849">
        <ele>307</ele>
        <time>2013-02-24T13:51:44.1Z</time>
      </trkpt>
      <trkpt lat="48.48494" lon="-3.4985">
        <ele>307</ele>
        <time>2013-02-24T13:51:46.1Z</time>
      </trkpt>
      <trkpt lat="48.48493" lon="-3.49851">
        <ele>307</ele>
        <time>2013-02-24T13:51:48.1Z</time>
      </trkpt>
      <trkpt lat="48.48493" lon="-3.49852">
        <ele>307</ele>
        <time>2013-02-24T13:51:50.1Z</time>
      </trkpt>
      <trkpt lat="48.48494" lon="-3.49852">
        <ele>307</ele>
        <time>2013-02-24T13:51:52.1Z</time>
      </trkpt>
      <trkpt lat="48.48495" lon="-3.49853">
        <ele>306</ele>
        <time>2013-02-24T13:51:54.1Z</time>
      </trkpt>
      <trkpt lat="48.48494" lon="-3.49855">
        <ele>306</ele>
        <time>2013-02-24T13:51:56.1Z</time>
      </trkpt>
      <trkpt lat="48.48495" lon="-3.49856">
        <ele>306</ele>
        <time>2013-02-24T13:51:58.1Z</time>
      </trkpt>
      <trkpt lat="48.48495" lon="-3.49855">
        <ele>306</ele>
        <time>2013-02-24T13:52:01.1Z</time>
      </trkpt>
      <trkpt lat="48.48495" lon="-3.49856">
        <ele>306</ele>
        <time>2013-02-24T13:52:03.1Z</time>
      </trkpt>
      <trkpt lat="48.48494" lon="-3.49858">
        <ele>306</ele>
        <time>2013-02-24T13:52:05.1Z</time>
      </trkpt>
      <trkpt lat="48.48494" lon="-3.49858">
        <ele>306</ele>
        <time>2013-02-24T13:52:07.1Z</time>
      </trkpt>
      <trkpt lat="48.48493" lon="-3.49857">
        <ele>306</ele>
        <time>2013-02-24T13:52:09.1Z</time>
      </trkpt>
      <trkpt lat="48.48494" lon="-3.49857">
        <ele>306</ele>
        <time>2013-02-24T13:52:11.1Z</time>
      </trkpt>
      <trkpt lat="48.48493" lon="-3.49858">
        <ele>306</ele>
        <time>2013-02-24T13:52:13.1Z</time>
      </trkpt>
      <trkpt lat="48.48492" lon="-3.49859">
        <ele>306</ele>
        <time>2013-02-24T13:52:15.1Z</time>
      </trkpt>
      <trkpt lat="48.48492" lon="-3.49859">
        <ele>306</ele>
        <time>2013-02-24T13:52:17.1Z</time>
      </trkpt>
      <trkpt lat="48.48492" lon="-3.49858">
        <ele>306</ele>
        <time>2013-02-24T13:52:19.1Z</time>
      </trkpt>
      <trkpt lat="48.48491" lon="-3.49858">
        <ele>306</ele>
        <time>2013-02-24T13:52:21.1Z</time>
      </trkpt>
      <trkpt lat="48.48492" lon="-3.49857">
        <ele>306</ele>
        <time>2013-02-24T13:52:23.1Z</time>
      </trkpt>
      <trkpt lat="48.48492" lon="-3.49856">
        <ele>306</ele>
        <time>2013-02-24T13:52:25.1Z</time>
      </trkpt>
      <trkpt lat="48.48492" lon="-3.49855">
        <ele>306</ele>
        <time>2013-02-24T13:52:28.1Z</time>
      </trkpt>
      <trkpt lat="48.48491" lon="-3.49855">
        <ele>306</ele>
        <time>2013-02-24T13:52:30.1Z</time>
      </trkpt>
      <trkpt lat="48.48491" lon="-3.49855">
        <ele>306</ele>
        <time>2013-02-24T13:52:32.1Z</time>
      </trkpt>
      <trkpt lat="48.48491" lon="-3.49854">
        <ele>306</ele>
        <time>2013-02-24T13:52:34.1Z</time>
      </trkpt>
      <trkpt lat="48.48491" lon="-3.49853">
        <ele>306</ele>
        <time>2013-02-24T13:52:36.1Z</time>
      </trkpt>
      <trkpt lat="48.48491" lon="-3.49853">
        <ele>306</ele>
        <time>2013-02-24T13:52:38.1Z</time>
      </trkpt>
      <trkpt lat="48.48491" lon="-3.49853">
        <ele>306</ele>
        <time>2013-02-24T13:52:40.1Z</time>
      </trkpt>
      <trkpt lat="48.48491" lon="-3.49852">
        <ele>306</ele>
        <time>2013-02-24T13:52:42.1Z</time>
      </trkpt>
      <trkpt lat="48.48492" lon="-3.49852">
        <ele>306</ele>
        <time>2013-02-24T13:52:44.1Z</time>
      </trkpt>
      <trkpt lat="48.48492" lon="-3.49852">
        <ele>307</ele>
        <time>2013-02-24T13:52:46.1Z</time>
      </trkpt>
      <trkpt lat="48.48492" lon="-3.49851">
        <ele>307</ele>
        <time>2013-02-24T13:52:48.1Z</time>
      </trkpt>
      <trkpt lat="48.48492" lon="-3.49851">
        <ele>307</ele>
        <time>2013-02-24T13:52:50.1Z</time>
      </trkpt>
      <trkpt lat="48.48492" lon="-3.49851">
        <ele>307</ele>
        <time>2013-02-24T13:52:52.1Z</time>
      </trkpt>
      <trkpt lat="48.48492" lon="-3.49851">
        <ele>307</ele>
        <time>2013-02-24T13:52:54.1Z</time>
      </trkpt>
      <trkpt lat="48.48493" lon="-3.49851">
        <ele>307</ele>
        <time>2013-02-24T13:52:56.1Z</time>
      </trkpt>
      <trkpt lat="48.48493" lon="-3.49851">
        <ele>307</ele>
        <time>2013-02-24T13:52:58.1Z</time>
      </trkpt>
      <trkpt lat="48.48493" lon="-3.49851">
        <ele>306</ele>
        <time>2013-02-24T13:53:00.1Z</time>
      </trkpt>
      <trkpt lat="48.48493" lon="-3.49851">
        <ele>306</ele>
        <time>2013-02-24T13:53:02.1Z</time>
      </trkpt>
      <trkpt lat="48.48493" lon="-3.49851">
        <ele>306</ele>
        <time>2013-02-24T13:53:05.1Z</time>
      </trkpt>
      <trkpt lat="48.48493" lon="-3.49851">
        <ele>306</ele>
        <time>2013-02-24T13:53:07.1Z</time>
      </trkpt>
      <trkpt lat="48.48493" lon="-3.49851">
        <ele>306</ele>
        <time>2013-02-24T13:53:09.1Z</time>
      </trkpt>
      <trkpt lat="48.48492" lon="-3.49851">
        <ele>306</ele>
        <time>2013-02-24T13:53:11.1Z</time>
      </trkpt>
      <trkpt lat="48.48492" lon="-3.49851">
        <ele>306</ele>
        <time>2013-02-24T13:53:13.1Z</time>
      </trkpt>
      <trkpt lat="48.48492" lon="-3.49851">
        <ele>307</ele>
        <time>2013-02-24T13:53:15.1Z</time>
      </trkpt>
      <trkpt lat="48.48491" lon="-3.49851">
        <ele>307</ele>
        <time>2013-02-24T13:53:17.1Z</time>
      </trkpt>
      <trkpt lat="48.48491" lon="-3.49851">
        <ele>307</ele>
        <time>2013-02-24T13:53:19.1Z</time>
      </trkpt>
      <trkpt lat="48.4849" lon="-3.49852">
        <ele>307</ele>
        <time>2013-02-24T13:53:21.1Z</time>
      </trkpt>
      <trkpt lat="48.4849" lon="-3.49853">
        <ele>307</ele>
        <time>2013-02-24T13:53:23.1Z</time>
      </trkpt>
      <trkpt lat="48.48489" lon="-3.49853">
        <ele>307</ele>
        <time>2013-02-24T13:53:25.1Z</time>
      </trkpt>
      <trkpt lat="48.48489" lon="-3.49854">
        <ele>307</ele>
        <time>2013-02-24T13:53:27.1Z</time>
      </trkpt>
      <trkpt lat="48.48489" lon="-3.49854">
        <ele>307</ele>
        <time>2013-02-24T13:53:29.1Z</time>
      </trkpt>
      <trkpt lat="48.48489" lon="-3.49854">
        <ele>307</ele>
        <time>2013-02-24T13:53:31.1Z</time>
      </trkpt>
      <trkpt lat="48.48489" lon="-3.49855">
        <ele>307</ele>
        <time>2013-02-24T13:53:33.1Z</time>
      </trkpt>
      <trkpt lat="48.48489" lon="-3.49854">
        <ele>307</ele>
        <time>2013-02-24T13:53:35.1Z</time>
      </trkpt>
      <trkpt lat="48.48489" lon="-3.49854">
        <ele>307</ele>
        <time>2013-02-24T13:53:38.1Z</time>
      </trkpt>
      <trkpt lat="48.48489" lon="-3.49854">
        <ele>307</ele>
        <time>2013-02-24T13:53:40.1Z</time>
      </trkpt>
      <trkpt lat="48.48489" lon="-3.49854">
        <ele>307</ele>
        <time>2013-02-24T13:53:42.1Z</time>
      </trkpt>
      <trkpt lat="48.48489" lon="-3.49853">
        <ele>307</ele>
        <time>2013-02-24T13:53:44.1Z</time>
      </trkpt>
      <trkpt lat="48.4849" lon="-3.49853">
        <ele>307</ele>
        <time>2013-02-24T13:53:46.1Z</time>
      </trkpt>
      <trkpt lat="48.48491" lon="-3.49853">
        <ele>307</ele>
        <time>2013-02-24T13:53:48.1Z</time>
      </trkpt>
      <trkpt lat="48.48491" lon="-3.49852">
        <ele>307</ele>
        <time>2013-02-24T13:53:50.1Z</time>
      </trkpt>
      <trkpt lat="48.48492" lon="-3.49851">
        <ele>307</ele>
        <time>2013-02-24T13:53:52.1Z</time>
      </trkpt>
      <trkpt lat="48.48493" lon="-3.49852">
        <ele>306</ele>
        <time>2013-02-24T13:53:54.1Z</time>
      </trkpt>
      <trkpt lat="48.48494" lon="-3.49851">
        <ele>306</ele>
        <time>2013-02-24T13:53:56.1Z</time>
      </trkpt>
      <trkpt lat="48.48493" lon="-3.49851">
        <ele>306</ele>
        <time>2013-02-24T13:53:58.1Z</time>
      </trkpt>
      <trkpt lat="48.48493" lon="-3.49851">
        <ele>306</ele>
        <time>2013-02-24T13:54:00.1Z</time>
      </trkpt>
      <trkpt lat="48.48493" lon="-3.49852">
        <ele>306</ele>
        <time>2013-02-24T13:54:02.1Z</time>
      </trkpt>
      <trkpt lat="48.48493" lon="-3.49851">
        <ele>306</ele>
        <time>2013-02-24T13:54:04.1Z</time>
      </trkpt>
      <trkpt lat="48.48492" lon="-3.49851">
        <ele>306</ele>
        <time>2013-02-24T13:54:06.1Z</time>
      </trkpt>
      <trkpt lat="48.48492" lon="-3.49851">
        <ele>306</ele>
        <time>2013-02-24T13:54:08.1Z</time>
      </trkpt>
      <trkpt lat="48.48492" lon="-3.49851">
        <ele>306</ele>
        <time>2013-02-24T13:54:11.1Z</time>
      </trkpt>
      <trkpt lat="48.48492" lon="-3.49852">
        <ele>306</ele>
        <time>2013-02-24T13:54:13.1Z</time>
      </trkpt>
      <trkpt lat="48.48492" lon="-3.49852">
        <ele>306</ele>
        <time>2013-02-24T13:54:15.1Z</time>
      </trkpt>
      <trkpt lat="48.48492" lon="-3.49852">
        <ele>306</ele>
        <time>2013-02-24T13:54:17.1Z</time>
      </trkpt>
      <trkpt lat="48.48492" lon="-3.49852">
        <ele>306</ele>
        <time>2013-02-24T13:54:19.1Z</time>
      </trkpt>
      <trkpt lat="48.48492" lon="-3.49853">
        <ele>306</ele>
        <time>2013-02-24T13:54:21.1Z</time>
      </trkpt>
      <trkpt lat="48.48492" lon="-3.49853">
        <ele>306</ele>
        <time>2013-02-24T13:54:23.1Z</time>
      </trkpt>
      <trkpt lat="48.48492" lon="-3.49854">
        <ele>306</ele>
        <time>2013-02-24T13:54:25.1Z</time>
      </trkpt>
      <trkpt lat="48.48492" lon="-3.49854">
        <ele>306</ele>
        <time>2013-02-24T13:54:27.1Z</time>
      </trkpt>
      <trkpt lat="48.48491" lon="-3.49854">
        <ele>306</ele>
        <time>2013-02-24T13:54:29.1Z</time>
      </trkpt>
      <trkpt lat="48.48491" lon="-3.49854">
        <ele>306</ele>
        <time>2013-02-24T13:54:31.1Z</time>
      </trkpt>
      <trkpt lat="48.48491" lon="-3.49855">
        <ele>306</ele>
        <time>2013-02-24T13:54:33.1Z</time>
      </trkpt>
      <trkpt lat="48.48491" lon="-3.49855">
        <ele>306</ele>
        <time>2013-02-24T13:54:35.1Z</time>
      </trkpt>
      <trkpt lat="48.48491" lon="-3.49855">
        <ele>306</ele>
        <time>2013-02-24T13:54:37.1Z</time>
      </trkpt>
      <trkpt lat="48.48491" lon="-3.49855">
        <ele>306</ele>
        <time>2013-02-24T13:54:39.1Z</time>
      </trkpt>
      <trkpt lat="48.48491" lon="-3.49854">
        <ele>307</ele>
        <time>2013-02-24T13:54:41.1Z</time>
      </trkpt>
      <trkpt lat="48.48491" lon="-3.49853">
        <ele>307</ele>
        <time>2013-02-24T13:54:43.1Z</time>
      </trkpt>
      <trkpt lat="48.48491" lon="-3.49853">
        <ele>307</ele>
        <time>2013-02-24T13:54:45.1Z</time>
      </trkpt>
      <trkpt lat="48.48491" lon="-3.49853">
        <ele>306</ele>
        <time>2013-02-24T13:54:48.1Z</time>
      </trkpt>
      <trkpt lat="48.48491" lon="-3.49852">
        <ele>306</ele>
        <time>2013-02-24T13:54:50.1Z</time>
      </trkpt>
      <trkpt lat="48.48492" lon="-3.49852">
        <ele>306</ele>
        <time>2013-02-24T13:54:52.1Z</time>
      </trkpt>
      <trkpt lat="48.48492" lon="-3.49852">
        <ele>306</ele>
        <time>2013-02-24T13:54:54.1Z</time>
      </trkpt>
      <trkpt lat="48.48492" lon="-3.49852">
        <ele>306</ele>
        <time>2013-02-24T13:54:56.1Z</time>
      </trkpt>
      <trkpt lat="48.48492" lon="-3.49852">
        <ele>306</ele>
        <time>2013-02-24T13:54:58.1Z</time>
      </trkpt>
      <trkpt lat="48.48492" lon="-3.49852">
        <ele>306</ele>
        <time>2013-02-24T13:55:00.1Z</time>
      </trkpt>
      <trkpt lat="48.48492" lon="-3.49851">
        <ele>306</ele>
        <time>2013-02-24T13:55:02.1Z</time>
      </trkpt>
      <trkpt lat="48.48493" lon="-3.49851">
        <ele>306</ele>
        <time>2013-02-24T13:55:04.1Z</time>
      </trkpt>
      <trkpt lat="48.48492" lon="-3.49851">
        <ele>306</ele>
        <time>2013-02-24T13:55:06.1Z</time>
      </trkpt>
      <trkpt lat="48.48492" lon="-3.49852">
        <ele>306</ele>
        <time>2013-02-24T13:55:08.1Z</time>
      </trkpt>
      <trkpt lat="48.48492" lon="-3.49852">
        <ele>306</ele>
        <time>2013-02-24T13:55:10.1Z</time>
      </trkpt>
      <trkpt lat="48.48492" lon="-3.49852">
        <ele>306</ele>
        <time>2013-02-24T13:55:12.1Z</time>
      </trkpt>
      <trkpt lat="48.48492" lon="-3.49853">
        <ele>306</ele>
        <time>2013-02-24T13:55:14.1Z</time>
      </trkpt>
      <trkpt lat="48.48492" lon="-3.49853">
        <ele>307</ele>
        <time>2013-02-24T13:55:16.1Z</time>
      </trkpt>
      <trkpt lat="48.48493" lon="-3.49852">
        <ele>307</ele>
        <time>2013-02-24T13:55:18.1Z</time>
      </trkpt>
      <trkpt lat="48.48493" lon="-3.49852">
        <ele>306</ele>
        <time>2013-02-24T13:55:20.1Z</time>
      </trkpt>
      <trkpt lat="48.48494" lon="-3.49852">
        <ele>306</ele>
        <time>2013-02-24T13:55:22.1Z</time>
      </trkpt>
      <trkpt lat="48.48494" lon="-3.49852">
        <ele>306</ele>
        <time>2013-02-24T13:55:25.1Z</time>
      </trkpt>
      <trkpt lat="48.48494" lon="-3.49852">
        <ele>306</ele>
        <time>2013-02-24T13:55:27.1Z</time>
      </trkpt>
      <trkpt lat="48.48494" lon="-3.49852">
        <ele>306</ele>
        <time>2013-02-24T13:55:29.1Z</time>
      </trkpt>
      <trkpt lat="48.48494" lon="-3.49851">
        <ele>307</ele>
        <time>2013-02-24T13:55:31.1Z</time>
      </trkpt>
      <trkpt lat="48.48494" lon="-3.49851">
        <ele>307</ele>
        <time>2013-02-24T13:55:33.1Z</time>
      </trkpt>
      <trkpt lat="48.48494" lon="-3.49851">
        <ele>307</ele>
        <time>2013-02-24T13:55:35.1Z</time>
      </trkpt>
      <trkpt lat="48.48494" lon="-3.49851">
        <ele>306</ele>
        <time>2013-02-24T13:55:37.1Z</time>
      </trkpt>
      <trkpt lat="48.48494" lon="-3.49851">
        <ele>306</ele>
        <time>2013-02-24T13:55:39.1Z</time>
      </trkpt>
      <trkpt lat="48.48494" lon="-3.49852">
        <ele>306</ele>
        <time>2013-02-24T13:55:41.1Z</time>
      </trkpt>
      <trkpt lat="48.48494" lon="-3.49852">
        <ele>307</ele>
        <time>2013-02-24T13:55:43.1Z</time>
      </trkpt>
      <trkpt lat="48.48494" lon="-3.49852">
        <ele>306</ele>
        <time>2013-02-24T13:55:45.1Z</time>
      </trkpt>
      <trkpt lat="48.48495" lon="-3.49852">
        <ele>306</ele>
        <time>2013-02-24T13:55:47.1Z</time>
      </trkpt>
      <trkpt lat="48.48495" lon="-3.49852">
        <ele>306</ele>
        <time>2013-02-24T13:55:49.1Z</time>
      </trkpt>
      <trkpt lat="48.48495" lon="-3.49853">
        <ele>306</ele>
        <time>2013-02-24T13:55:51.1Z</time>
      </trkpt>
      <trkpt lat="48.48495" lon="-3.49853">
        <ele>306</ele>
        <time>2013-02-24T13:55:53.1Z</time>
      </trkpt>
      <trkpt lat="48.48495" lon="-3.49854">
        <ele>306</ele>
        <time>2013-02-24T13:55:55.1Z</time>
      </trkpt>
      <trkpt lat="48.48495" lon="-3.49854">
        <ele>306</ele>
        <time>2013-02-24T13:55:57.1Z</time>
      </trkpt>
      <trkpt lat="48.48496" lon="-3.49853">
        <ele>306</ele>
        <time>2013-02-24T13:55:59.1Z</time>
      </trkpt>
      <trkpt lat="48.48496" lon="-3.49854">
        <ele>306</ele>
        <time>2013-02-24T13:56:01.1Z</time>
      </trkpt>
      <trkpt lat="48.48496" lon="-3.49854">
        <ele>306</ele>
        <time>2013-02-24T13:56:03.1Z</time>
      </trkpt>
      <trkpt lat="48.48495" lon="-3.49854">
        <ele>307</ele>
        <time>2013-02-24T13:56:05.1Z</time>
      </trkpt>
      <trkpt lat="48.48495" lon="-3.49855">
        <ele>307</ele>
        <time>2013-02-24T13:56:07.1Z</time>
      </trkpt>
      <trkpt lat="48.48495" lon="-3.49856">
        <ele>306</ele>
        <time>2013-02-24T13:56:10.1Z</time>
      </trkpt>
      <trkpt lat="48.48494" lon="-3.49856">
        <ele>307</ele>
        <time>2013-02-24T13:56:12.1Z</time>
      </trkpt>
      <trkpt lat="48.48494" lon="-3.49856">
        <ele>307</ele>
        <time>2013-02-24T13:56:14.1Z</time>
      </trkpt>
      <trkpt lat="48.48493" lon="-3.49857">
        <ele>306</ele>
        <time>2013-02-24T13:56:16.1Z</time>
      </trkpt>
      <trkpt lat="48.48493" lon="-3.49857">
        <ele>306</ele>
        <time>2013-02-24T13:56:18.1Z</time>
      </trkpt>
      <trkpt lat="48.48492" lon="-3.49857">
        <ele>306</ele>
        <time>2013-02-24T13:56:20.1Z</time>
      </trkpt>
      <trkpt lat="48.48493" lon="-3.49856">
        <ele>306</ele>
        <time>2013-02-24T13:56:22.1Z</time>
      </trkpt>
      <trkpt lat="48.48493" lon="-3.49856">
        <ele>306</ele>
        <time>2013-02-24T13:56:24.1Z</time>
      </trkpt>
      <trkpt lat="48.48493" lon="-3.49856">
        <ele>306</ele>
        <time>2013-02-24T13:56:26.1Z</time>
      </trkpt>
      <trkpt lat="48.48494" lon="-3.49855">
        <ele>306</ele>
        <time>2013-02-24T13:56:28.1Z</time>
      </trkpt>
      <trkpt lat="48.48494" lon="-3.49854">
        <ele>306</ele>
        <time>2013-02-24T13:56:30.1Z</time>
      </trkpt>
      <trkpt lat="48.48494" lon="-3.49853">
        <ele>307</ele>
        <time>2013-02-24T13:56:32.1Z</time>
      </trkpt>
      <trkpt lat="48.48494" lon="-3.49853">
        <ele>307</ele>
        <time>2013-02-24T13:56:35.1Z</time>
      </trkpt>
      <trkpt lat="48.48494" lon="-3.49852">
        <ele>307</ele>
        <time>2013-02-24T13:56:37.1Z</time>
      </trkpt>
      <trkpt lat="48.48494" lon="-3.49851">
        <ele>306</ele>
        <time>2013-02-24T13:56:39.1Z</time>
      </trkpt>
      <trkpt lat="48.48494" lon="-3.49851">
        <ele>306</ele>
        <time>2013-02-24T13:56:41.1Z</time>
      </trkpt>
      <trkpt lat="48.48494" lon="-3.4985">
        <ele>306</ele>
        <time>2013-02-24T13:56:43.1Z</time>
      </trkpt>
      <trkpt lat="48.48494" lon="-3.49849">
        <ele>307</ele>
        <time>2013-02-24T13:56:45.1Z</time>
      </trkpt>
      <trkpt lat="48.48494" lon="-3.49848">
        <ele>307</ele>
        <time>2013-02-24T13:56:47.1Z</time>
      </trkpt>
      <trkpt lat="48.48494" lon="-3.49846">
        <ele>307</ele>
        <time>2013-02-24T13:56:50.1Z</time>
      </trkpt>
      <trkpt lat="48.48494" lon="-3.49846">
        <ele>307</ele>
        <time>2013-02-24T13:56:52.1Z</time>
      </trkpt>
      <trkpt lat="48.48493" lon="-3.49845">
        <ele>307</ele>
        <time>2013-02-24T13:56:54.1Z</time>
      </trkpt>
      <trkpt lat="48.48492" lon="-3.49845">
        <ele>307</ele>
        <time>2013-02-24T13:56:56.1Z</time>
      </trkpt>
      <trkpt lat="48.48491" lon="-3.49845">
        <ele>307</ele>
        <time>2013-02-24T13:56:58.1Z</time>
      </trkpt>
      <trkpt lat="48.4849" lon="-3.49844">
        <ele>307</ele>
        <time>2013-02-24T13:57:00.1Z</time>
      </trkpt>
      <trkpt lat="48.48489" lon="-3.49844">
        <ele>307</ele>
        <time>2013-02-24T13:57:02.1Z</time>
      </trkpt>
      <trkpt lat="48.48488" lon="-3.49844">
        <ele>307</ele>
        <time>2013-02-24T13:57:04.1Z</time>
      </trkpt>
      <trkpt lat="48.48487" lon="-3.49843">
        <ele>307</ele>
        <time>2013-02-24T13:57:06.1Z</time>
      </trkpt>
      <trkpt lat="48.48486" lon="-3.49843">
        <ele>307</ele>
        <time>2013-02-24T13:57:08.1Z</time>
      </trkpt>
      <trkpt lat="48.48486" lon="-3.49843">
        <ele>307</ele>
        <time>2013-02-24T13:57:10.1Z</time>
      </trkpt>
      <trkpt lat="48.48486" lon="-3.49843">
        <ele>306</ele>
        <time>2013-02-24T13:57:12.1Z</time>
      </trkpt>
      <trkpt lat="48.48486" lon="-3.49844">
        <ele>307</ele>
        <time>2013-02-24T13:57:14.1Z</time>
      </trkpt>
      <trkpt lat="48.48486" lon="-3.49844">
        <ele>307</ele>
        <time>2013-02-24T13:57:17.1Z</time>
      </trkpt>
      <trkpt lat="48.48486" lon="-3.49845">
        <ele>307</ele>
        <time>2013-02-24T13:57:19.1Z</time>
      </trkpt>
      <trkpt lat="48.48486" lon="-3.49846">
        <ele>307</ele>
        <time>2013-02-24T13:57:21.1Z</time>
      </trkpt>
      <trkpt lat="48.48487" lon="-3.49847">
        <ele>307</ele>
        <time>2013-02-24T13:57:23.1Z</time>
      </trkpt>
      <trkpt lat="48.48487" lon="-3.49848">
        <ele>307</ele>
        <time>2013-02-24T13:57:25.1Z</time>
      </trkpt>
      <trkpt lat="48.48487" lon="-3.49849">
        <ele>307</ele>
        <time>2013-02-24T13:57:27.1Z</time>
      </trkpt>
      <trkpt lat="48.48487" lon="-3.4985">
        <ele>306</ele>
        <time>2013-02-24T13:57:29.1Z</time>
      </trkpt>
      <trkpt lat="48.48487" lon="-3.49851">
        <ele>307</ele>
        <time>2013-02-24T13:57:31.1Z</time>
      </trkpt>
      <trkpt lat="48.48488" lon="-3.49851">
        <ele>306</ele>
        <time>2013-02-24T13:57:33.1Z</time>
      </trkpt>
      <trkpt lat="48.48489" lon="-3.49851">
        <ele>306</ele>
        <time>2013-02-24T13:57:35.1Z</time>
      </trkpt>
      <trkpt lat="48.48489" lon="-3.49851">
        <ele>306</ele>
        <time>2013-02-24T13:57:37.1Z</time>
      </trkpt>
      <trkpt lat="48.48489" lon="-3.49851">
        <ele>306</ele>
        <time>2013-02-24T13:57:39.1Z</time>
      </trkpt>
      <trkpt lat="48.48489" lon="-3.49852">
        <ele>306</ele>
        <time>2013-02-24T13:57:41.1Z</time>
      </trkpt>
      <trkpt lat="48.4849" lon="-3.49852">
        <ele>306</ele>
        <time>2013-02-24T13:57:43.1Z</time>
      </trkpt>
      <trkpt lat="48.4849" lon="-3.49852">
        <ele>306</ele>
        <time>2013-02-24T13:57:45.1Z</time>
      </trkpt>
      <trkpt lat="48.4849" lon="-3.49853">
        <ele>306</ele>
        <time>2013-02-24T13:57:47.1Z</time>
      </trkpt>
      <trkpt lat="48.48491" lon="-3.49853">
        <ele>306</ele>
        <time>2013-02-24T13:57:49.1Z</time>
      </trkpt>
      <trkpt lat="48.48491" lon="-3.49854">
        <ele>306</ele>
        <time>2013-02-24T13:57:52.1Z</time>
      </trkpt>
      <trkpt lat="48.4849" lon="-3.49855">
        <ele>306</ele>
        <time>2013-02-24T13:57:54.1Z</time>
      </trkpt>
      <trkpt lat="48.48491" lon="-3.49855">
        <ele>307</ele>
        <time>2013-02-24T13:57:56.1Z</time>
      </trkpt>
      <trkpt lat="48.48491" lon="-3.49855">
        <ele>306</ele>
        <time>2013-02-24T13:57:58.1Z</time>
      </trkpt>
      <trkpt lat="48.48492" lon="-3.49856">
        <ele>307</ele>
        <time>2013-02-24T13:58:00.1Z</time>
      </trkpt>
      <trkpt lat="48.48492" lon="-3.49856">
        <ele>306</ele>
        <time>2013-02-24T13:58:02.1Z</time>
      </trkpt>
      <trkpt lat="48.48493" lon="-3.49856">
        <ele>307</ele>
        <time>2013-02-24T13:58:04.1Z</time>
      </trkpt>
      <trkpt lat="48.48493" lon="-3.49856">
        <ele>307</ele>
        <time>2013-02-24T13:58:06.1Z</time>
      </trkpt>
      <trkpt lat="48.48494" lon="-3.49857">
        <ele>307</ele>
        <time>2013-02-24T13:58:08.1Z</time>
      </trkpt>
      <trkpt lat="48.48494" lon="-3.49857">
        <ele>307</ele>
        <time>2013-02-24T13:58:10.1Z</time>
      </trkpt>
      <trkpt lat="48.48494" lon="-3.49857">
        <ele>307</ele>
        <time>2013-02-24T13:58:12.1Z</time>
      </trkpt>
      <trkpt lat="48.48494" lon="-3.49857">
        <ele>307</ele>
        <time>2013-02-24T13:58:14.1Z</time>
      </trkpt>
      <trkpt lat="48.48494" lon="-3.49857">
        <ele>307</ele>
        <time>2013-02-24T13:58:16.1Z</time>
      </trkpt>
      <trkpt lat="48.48494" lon="-3.49857">
        <ele>307</ele>
        <time>2013-02-24T13:58:18.1Z</time>
      </trkpt>
      <trkpt lat="48.48494" lon="-3.49857">
        <ele>307</ele>
        <time>2013-02-24T13:58:20.1Z</time>
      </trkpt>
      <trkpt lat="48.48494" lon="-3.49857">
        <ele>307</ele>
        <time>2013-02-24T13:58:22.1Z</time>
      </trkpt>
      <trkpt lat="48.48494" lon="-3.49856">
        <ele>307</ele>
        <time>2013-02-24T13:58:24.1Z</time>
      </trkpt>
      <trkpt lat="48.48493" lon="-3.49855">
        <ele>307</ele>
        <time>2013-02-24T13:58:26.1Z</time>
      </trkpt>
      <trkpt lat="48.48493" lon="-3.49853">
        <ele>307</ele>
        <time>2013-02-24T13:58:29.1Z</time>
      </trkpt>
      <trkpt lat="48.48493" lon="-3.49853">
        <ele>307</ele>
        <time>2013-02-24T13:58:31.1Z</time>
      </trkpt>
      <trkpt lat="48.48492" lon="-3.49852">
        <ele>307</ele>
        <time>2013-02-24T13:58:33.1Z</time>
      </trkpt>
      <trkpt lat="48.48492" lon="-3.49852">
        <ele>307</ele>
        <time>2013-02-24T13:58:35.1Z</time>
      </trkpt>
      <trkpt lat="48.48492" lon="-3.49851">
        <ele>307</ele>
        <time>2013-02-24T13:58:37.1Z</time>
      </trkpt>
      <trkpt lat="48.48493" lon="-3.4985">
        <ele>307</ele>
        <time>2013-02-24T13:58:39.1Z</time>
      </trkpt>
      <trkpt lat="48.48493" lon="-3.4985">
        <ele>307</ele>
        <time>2013-02-24T13:58:41.1Z</time>
      </trkpt>
      <trkpt lat="48.48495" lon="-3.49851">
        <ele>307</ele>
        <time>2013-02-24T13:58:43.1Z</time>
      </trkpt>
      <trkpt lat="48.48496" lon="-3.4985">
        <ele>306</ele>
        <time>2013-02-24T13:58:45.1Z</time>
      </trkpt>
      <trkpt lat="48.48496" lon="-3.49849">
        <ele>306</ele>
        <time>2013-02-24T13:58:47.1Z</time>
      </trkpt>
      <trkpt lat="48.48495" lon="-3.49851">
        <ele>306</ele>
        <time>2013-02-24T13:58:50.1Z</time>
      </trkpt>
      <trkpt lat="48.48494" lon="-3.49851">
        <ele>307</ele>
        <time>2013-02-24T13:58:52.1Z</time>
      </trkpt>
      <trkpt lat="48.48494" lon="-3.49851">
        <ele>307</ele>
        <time>2013-02-24T13:58:54.1Z</time>
      </trkpt>
      <trkpt lat="48.48494" lon="-3.49851">
        <ele>307</ele>
        <time>2013-02-24T13:58:56.1Z</time>
      </trkpt>
      <trkpt lat="48.48493" lon="-3.4985">
        <ele>307</ele>
        <time>2013-02-24T13:58:58.1Z</time>
      </trkpt>
      <trkpt lat="48.48493" lon="-3.49849">
        <ele>307</ele>
        <time>2013-02-24T13:59:00.1Z</time>
      </trkpt>
      <trkpt lat="48.48493" lon="-3.49849">
        <ele>307</ele>
        <time>2013-02-24T13:59:02.1Z</time>
      </trkpt>
      <trkpt lat="48.48494" lon="-3.49849">
        <ele>307</ele>
        <time>2013-02-24T13:59:04.1Z</time>
      </trkpt>
      <trkpt lat="48.48494" lon="-3.49848">
        <ele>307</ele>
        <time>2013-02-24T13:59:06.1Z</time>
      </trkpt>
      <trkpt lat="48.48495" lon="-3.49845">
        <ele>307</ele>
        <time>2013-02-24T13:59:09.1Z</time>
      </trkpt>
      <trkpt lat="48.48495" lon="-3.49842">
        <ele>307</ele>
        <time>2013-02-24T13:59:11.1Z</time>
      </trkpt>
      <trkpt lat="48.48495" lon="-3.4984">
        <ele>308</ele>
        <time>2013-02-24T13:59:13.1Z</time>
      </trkpt>
      <trkpt lat="48.48495" lon="-3.49838">
        <ele>308</ele>
        <time>2013-02-24T13:59:15.1Z</time>
      </trkpt>
      <trkpt lat="48.48496" lon="-3.49837">
        <ele>308</ele>
        <time>2013-02-24T13:59:17.1Z</time>
      </trkpt>
      <trkpt lat="48.48496" lon="-3.49835">
        <ele>309</ele>
        <time>2013-02-24T13:59:19.1Z</time>
      </trkpt>
      <trkpt lat="48.48496" lon="-3.49833">
        <ele>309</ele>
        <time>2013-02-24T13:59:21.1Z</time>
      </trkpt>
      <trkpt lat="48.48496" lon="-3.4983">
        <ele>309</ele>
        <time>2013-02-24T13:59:23.1Z</time>
      </trkpt>
      <trkpt lat="48.48496" lon="-3.49828">
        <ele>310</ele>
        <time>2013-02-24T13:59:25.1Z</time>
      </trkpt>
      <trkpt lat="48.48496" lon="-3.49826">
        <ele>310</ele>
        <time>2013-02-24T13:59:27.1Z</time>
      </trkpt>
      <trkpt lat="48.48496" lon="-3.49823">
        <ele>310</ele>
        <time>2013-02-24T13:59:29.1Z</time>
      </trkpt>
      <trkpt lat="48.48496" lon="-3.49821">
        <ele>311</ele>
        <time>2013-02-24T13:59:31.1Z</time>
      </trkpt>
      <trkpt lat="48.48497" lon="-3.49819">
        <ele>311</ele>
        <time>2013-02-24T13:59:33.1Z</time>
      </trkpt>
      <trkpt lat="48.48497" lon="-3.49816">
        <ele>311</ele>
        <time>2013-02-24T13:59:36.1Z</time>
      </trkpt>
      <trkpt lat="48.48497" lon="-3.49814">
        <ele>311</ele>
        <time>2013-02-24T13:59:38.1Z</time>
      </trkpt>
      <trkpt lat="48.48497" lon="-3.49812">
        <ele>311</ele>
        <time>2013-02-24T13:59:40.1Z</time>
      </trkpt>
      <trkpt lat="48.48497" lon="-3.4981">
        <ele>311</ele>
        <time>2013-02-24T13:59:42.1Z</time>
      </trkpt>
      <trkpt lat="48.48497" lon="-3.49807">
        <ele>312</ele>
        <time>2013-02-24T13:59:44.1Z</time>
      </trkpt>
      <trkpt lat="48.48497" lon="-3.49805">
        <ele>312</ele>
        <time>2013-02-24T13:59:46.1Z</time>
      </trkpt>
      <trkpt lat="48.48498" lon="-3.49803">
        <ele>312</ele>
        <time>2013-02-24T13:59:48.1Z</time>
      </trkpt>
      <trkpt lat="48.48498" lon="-3.49801">
        <ele>312</ele>
        <time>2013-02-24T13:59:50.1Z</time>
      </trkpt>
      <trkpt lat="48.48498" lon="-3.49798">
        <ele>313</ele>
        <time>2013-02-24T13:59:52.1Z</time>
      </trkpt>
      <trkpt lat="48.48498" lon="-3.49796">
        <ele>313</ele>
        <time>2013-02-24T13:59:54.1Z</time>
      </trkpt>
      <trkpt lat="48.48498" lon="-3.49793">
        <ele>313</ele>
        <time>2013-02-24T13:59:56.1Z</time>
      </trkpt>
      <trkpt lat="48.48499" lon="-3.4979">
        <ele>314</ele>
        <time>2013-02-24T13:59:58.1Z</time>
      </trkpt>
      <trkpt lat="48.48499" lon="-3.49787">
        <ele>314</ele>
        <time>2013-02-24T14:00:00.1Z</time>
      </trkpt>
      <trkpt lat="48.485" lon="-3.49785">
        <ele>314</ele>
        <time>2013-02-24T14:00:02.1Z</time>
      </trkpt>
      <trkpt lat="48.485" lon="-3.49783">
        <ele>314</ele>
        <time>2013-02-24T14:00:04.1Z</time>
      </trkpt>
      <trkpt lat="48.485" lon="-3.49781">
        <ele>315</ele>
        <time>2013-02-24T14:00:06.1Z</time>
      </trkpt>
      <trkpt lat="48.485" lon="-3.49779">
        <ele>315</ele>
        <time>2013-02-24T14:00:08.1Z</time>
      </trkpt>
      <trkpt lat="48.485" lon="-3.49778">
        <ele>315</ele>
        <time>2013-02-24T14:00:10.1Z</time>
      </trkpt>
      <trkpt lat="48.48502" lon="-3.49775">
        <ele>315</ele>
        <time>2013-02-24T14:00:13.1Z</time>
      </trkpt>
      <trkpt lat="48.48502" lon="-3.49774">
        <ele>316</ele>
        <time>2013-02-24T14:00:15.1Z</time>
      </trkpt>
      <trkpt lat="48.48502" lon="-3.49771">
        <ele>316</ele>
        <time>2013-02-24T14:00:17.1Z</time>
      </trkpt>
      <trkpt lat="48.48502" lon="-3.49769">
        <ele>316</ele>
        <time>2013-02-24T14:00:19.1Z</time>
      </trkpt>
      <trkpt lat="48.48502" lon="-3.49767">
        <ele>316</ele>
        <time>2013-02-24T14:00:21.1Z</time>
      </trkpt>
      <trkpt lat="48.48503" lon="-3.49765">
        <ele>317</ele>
        <time>2013-02-24T14:00:23.1Z</time>
      </trkpt>
      <trkpt lat="48.48502" lon="-3.49763">
        <ele>317</ele>
        <time>2013-02-24T14:00:25.1Z</time>
      </trkpt>
      <trkpt lat="48.48503" lon="-3.49761">
        <ele>317</ele>
        <time>2013-02-24T14:00:27.1Z</time>
      </trkpt>
      <trkpt lat="48.48503" lon="-3.4976">
        <ele>317</ele>
        <time>2013-02-24T14:00:29.1Z</time>
      </trkpt>
      <trkpt lat="48.48503" lon="-3.49758">
        <ele>317</ele>
        <time>2013-02-24T14:00:31.1Z</time>
      </trkpt>
      <trkpt lat="48.48503" lon="-3.49755">
        <ele>317</ele>
        <time>2013-02-24T14:00:33.1Z</time>
      </trkpt>
      <trkpt lat="48.48503" lon="-3.49753">
        <ele>318</ele>
        <time>2013-02-24T14:00:35.1Z</time>
      </trkpt>
      <trkpt lat="48.48503" lon="-3.49749">
        <ele>318</ele>
        <time>2013-02-24T14:00:38.1Z</time>
      </trkpt>
      <trkpt lat="48.48502" lon="-3.49747">
        <ele>318</ele>
        <time>2013-02-24T14:00:40.1Z</time>
      </trkpt>
      <trkpt lat="48.48503" lon="-3.49745">
        <ele>318</ele>
        <time>2013-02-24T14:00:42.1Z</time>
      </trkpt>
      <trkpt lat="48.48503" lon="-3.49742">
        <ele>318</ele>
        <time>2013-02-24T14:00:44.1Z</time>
      </trkpt>
      <trkpt lat="48.48503" lon="-3.49741">
        <ele>318</ele>
        <time>2013-02-24T14:00:46.1Z</time>
      </trkpt>
      <trkpt lat="48.48503" lon="-3.49738">
        <ele>318</ele>
        <time>2013-02-24T14:00:48.1Z</time>
      </trkpt>
      <trkpt lat="48.48503" lon="-3.49737">
        <ele>318</ele>
        <time>2013-02-24T14:00:50.1Z</time>
      </trkpt>
      <trkpt lat="48.48504" lon="-3.49736">
        <ele>319</ele>
        <time>2013-02-24T14:00:52.1Z</time>
      </trkpt>
      <trkpt lat="48.48504" lon="-3.49736">
        <ele>319</ele>
        <time>2013-02-24T14:00:54.1Z</time>
      </trkpt>
      <trkpt lat="48.48505" lon="-3.49733">
        <ele>319</ele>
        <time>2013-02-24T14:00:56.1Z</time>
      </trkpt>
      <trkpt lat="48.48504" lon="-3.49731">
        <ele>319</ele>
        <time>2013-02-24T14:00:58.1Z</time>
      </trkpt>
      <trkpt lat="48.48505" lon="-3.49728">
        <ele>319</ele>
        <time>2013-02-24T14:01:00.1Z</time>
      </trkpt>
      <trkpt lat="48.48506" lon="-3.49726">
        <ele>319</ele>
        <time>2013-02-24T14:01:02.1Z</time>
      </trkpt>
      <trkpt lat="48.48507" lon="-3.49723">
        <ele>320</ele>
        <time>2013-02-24T14:01:05.1Z</time>
      </trkpt>
      <trkpt lat="48.48507" lon="-3.49721">
        <ele>320</ele>
        <time>2013-02-24T14:01:07.1Z</time>
      </trkpt>
      <trkpt lat="48.48508" lon="-3.49718">
        <ele>320</ele>
        <time>2013-02-24T14:01:09.1Z</time>
      </trkpt>
      <trkpt lat="48.48508" lon="-3.49716">
        <ele>320</ele>
        <time>2013-02-24T14:01:11.1Z</time>
      </trkpt>
      <trkpt lat="48.48508" lon="-3.49713">
        <ele>321</ele>
        <time>2013-02-24T14:01:13.1Z</time>
      </trkpt>
      <trkpt lat="48.48509" lon="-3.49711">
        <ele>321</ele>
        <time>2013-02-24T14:01:15.1Z</time>
      </trkpt>
      <trkpt lat="48.4851" lon="-3.49709">
        <ele>321</ele>
        <time>2013-02-24T14:01:17.1Z</time>
      </trkpt>
      <trkpt lat="48.4851" lon="-3.49707">
        <ele>321</ele>
        <time>2013-02-24T14:01:19.1Z</time>
      </trkpt>
      <trkpt lat="48.48511" lon="-3.49704">
        <ele>321</ele>
        <time>2013-02-24T14:01:21.1Z</time>
      </trkpt>
      <trkpt lat="48.48511" lon="-3.49701">
        <ele>322</ele>
        <time>2013-02-24T14:01:23.1Z</time>
      </trkpt>
      <trkpt lat="48.48511" lon="-3.49699">
        <ele>322</ele>
        <time>2013-02-24T14:01:25.1Z</time>
      </trkpt>
      <trkpt lat="48.48511" lon="-3.49697">
        <ele>322</ele>
        <time>2013-02-24T14:01:27.1Z</time>
      </trkpt>
      <trkpt lat="48.48512" lon="-3.49694">
        <ele>322</ele>
        <time>2013-02-24T14:01:29.1Z</time>
      </trkpt>
      <trkpt lat="48.48512" lon="-3.49692">
        <ele>322</ele>
        <time>2013-02-24T14:01:31.1Z</time>
      </trkpt>
      <trkpt lat="48.48512" lon="-3.49689">
        <ele>322</ele>
        <time>2013-02-24T14:01:33.1Z</time>
      </trkpt>
      <trkpt lat="48.48512" lon="-3.49686">
        <ele>323</ele>
        <time>2013-02-24T14:01:35.1Z</time>
      </trkpt>
      <trkpt lat="48.48512" lon="-3.49682">
        <ele>323</ele>
        <time>2013-02-24T14:01:38.1Z</time>
      </trkpt>
      <trkpt lat="48.48513" lon="-3.4968">
        <ele>323</ele>
        <time>2013-02-24T14:01:40.1Z</time>
      </trkpt>
      <trkpt lat="48.48513" lon="-3.49677">
        <ele>324</ele>
        <time>2013-02-24T14:01:42.1Z</time>
      </trkpt>
      <trkpt lat="48.48513" lon="-3.49675">
        <ele>324</ele>
        <time>2013-02-24T14:01:44.1Z</time>
      </trkpt>
      <trkpt lat="48.48513" lon="-3.49672">
        <ele>324</ele>
        <time>2013-02-24T14:01:46.1Z</time>
      </trkpt>
      <trkpt lat="48.48513" lon="-3.4967">
        <ele>324</ele>
        <time>2013-02-24T14:01:48.1Z</time>
      </trkpt>
      <trkpt lat="48.48513" lon="-3.49668">
        <ele>324</ele>
        <time>2013-02-24T14:01:50.1Z</time>
      </trkpt>
      <trkpt lat="48.48513" lon="-3.49665">
        <ele>324</ele>
        <time>2013-02-24T14:01:52.1Z</time>
      </trkpt>
      <trkpt lat="48.48512" lon="-3.49662">
        <ele>324</ele>
        <time>2013-02-24T14:01:54.1Z</time>
      </trkpt>
      <trkpt lat="48.48512" lon="-3.49661">
        <ele>325</ele>
        <time>2013-02-24T14:01:56.1Z</time>
      </trkpt>
      <trkpt lat="48.48512" lon="-3.49659">
        <ele>325</ele>
        <time>2013-02-24T14:01:58.1Z</time>
      </trkpt>
      <trkpt lat="48.48513" lon="-3.49658">
        <ele>325</ele>
        <time>2013-02-24T14:02:00.1Z</time>
      </trkpt>
      <trkpt lat="48.48513" lon="-3.49656">
        <ele>325</ele>
        <time>2013-02-24T14:02:02.1Z</time>
      </trkpt>
      <trkpt lat="48.48513" lon="-3.49653">
        <ele>325</ele>
        <time>2013-02-24T14:02:04.1Z</time>
      </trkpt>
      <trkpt lat="48.48513" lon="-3.4965">
        <ele>325</ele>
        <time>2013-02-24T14:02:06.1Z</time>
      </trkpt>
      <trkpt lat="48.48512" lon="-3.49648">
        <ele>326</ele>
        <time>2013-02-24T14:02:08.1Z</time>
      </trkpt>
      <trkpt lat="48.48512" lon="-3.49645">
        <ele>326</ele>
        <time>2013-02-24T14:02:10.1Z</time>
      </trkpt>
      <trkpt lat="48.48512" lon="-3.49643">
        <ele>326</ele>
        <time>2013-02-24T14:02:12.1Z</time>
      </trkpt>
      <trkpt lat="48.48513" lon="-3.49641">
        <ele>326</ele>
        <time>2013-02-24T14:02:14.1Z</time>
      </trkpt>
      <trkpt lat="48.48513" lon="-3.4964">
        <ele>326</ele>
        <time>2013-02-24T14:02:16.1Z</time>
      </trkpt>
      <trkpt lat="48.48514" lon="-3.49638">
        <ele>327</ele>
        <time>2013-02-24T14:02:19.1Z</time>
      </trkpt>
      <trkpt lat="48.48514" lon="-3.49635">
        <ele>327</ele>
        <time>2013-02-24T14:02:21.1Z</time>
      </trkpt>
      <trkpt lat="48.48513" lon="-3.49633">
        <ele>327</ele>
        <time>2013-02-24T14:02:23.1Z</time>
      </trkpt>
      <trkpt lat="48.48513" lon="-3.49631">
        <ele>327</ele>
        <time>2013-02-24T14:02:25.1Z</time>
      </trkpt>
      <trkpt lat="48.48513" lon="-3.49629">
        <ele>327</ele>
        <time>2013-02-24T14:02:27.1Z</time>
      </trkpt>
      <trkpt lat="48.48514" lon="-3.49627">
        <ele>327</ele>
        <time>2013-02-24T14:02:29.1Z</time>
      </trkpt>
      <trkpt lat="48.48513" lon="-3.49623">
        <ele>327</ele>
        <time>2013-02-24T14:02:31.1Z</time>
      </trkpt>
      <trkpt lat="48.48513" lon="-3.49621">
        <ele>327</ele>
        <time>2013-02-24T14:02:33.1Z</time>
      </trkpt>
      <trkpt lat="48.48512" lon="-3.49619">
        <ele>328</ele>
        <time>2013-02-24T14:02:35.1Z</time>
      </trkpt>
      <trkpt lat="48.48513" lon="-3.49617">
        <ele>328</ele>
        <time>2013-02-24T14:02:37.1Z</time>
      </trkpt>
      <trkpt lat="48.48513" lon="-3.49615">
        <ele>328</ele>
        <time>2013-02-24T14:02:39.1Z</time>
      </trkpt>
      <trkpt lat="48.48513" lon="-3.49613">
        <ele>328</ele>
        <time>2013-02-24T14:02:41.1Z</time>
      </trkpt>
      <trkpt lat="48.48513" lon="-3.4961">
        <ele>329</ele>
        <time>2013-02-24T14:02:43.1Z</time>
      </trkpt>
      <trkpt lat="48.48513" lon="-3.49608">
        <ele>329</ele>
        <time>2013-02-24T14:02:45.1Z</time>
      </trkpt>
      <trkpt lat="48.48512" lon="-3.49606">
        <ele>329</ele>
        <time>2013-02-24T14:02:47.1Z</time>
      </trkpt>
      <trkpt lat="48.48511" lon="-3.49603">
        <ele>329</ele>
        <time>2013-02-24T14:02:50.1Z</time>
      </trkpt>
      <trkpt lat="48.48511" lon="-3.49601">
        <ele>330</ele>
        <time>2013-02-24T14:02:52.1Z</time>
      </trkpt>
      <trkpt lat="48.48511" lon="-3.49599">
        <ele>330</ele>
        <time>2013-02-24T14:02:54.1Z</time>
      </trkpt>
      <trkpt lat="48.48511" lon="-3.49597">
        <ele>330</ele>
        <time>2013-02-24T14:02:56.1Z</time>
      </trkpt>
      <trkpt lat="48.48512" lon="-3.49595">
        <ele>330</ele>
        <time>2013-02-24T14:02:58.1Z</time>
      </trkpt>
      <trkpt lat="48.48511" lon="-3.49593">
        <ele>330</ele>
        <time>2013-02-24T14:03:00.1Z</time>
      </trkpt>
      <trkpt lat="48.48511" lon="-3.49591">
        <ele>330</ele>
        <time>2013-02-24T14:03:02.1Z</time>
      </trkpt>
      <trkpt lat="48.48511" lon="-3.49589">
        <ele>330</ele>
        <time>2013-02-24T14:03:04.1Z</time>
      </trkpt>
      <trkpt lat="48.48511" lon="-3.49587">
        <ele>330</ele>
        <time>2013-02-24T14:03:06.1Z</time>
      </trkpt>
      <trkpt lat="48.48511" lon="-3.49584">
        <ele>330</ele>
        <time>2013-02-24T14:03:08.1Z</time>
      </trkpt>
      <trkpt lat="48.48512" lon="-3.49581">
        <ele>330</ele>
        <time>2013-02-24T14:03:10.1Z</time>
      </trkpt>
      <trkpt lat="48.48511" lon="-3.49579">
        <ele>331</ele>
        <time>2013-02-24T14:03:12.1Z</time>
      </trkpt>
      <trkpt lat="48.48511" lon="-3.49577">
        <ele>331</ele>
        <time>2013-02-24T14:03:14.1Z</time>
      </trkpt>
      <trkpt lat="48.48511" lon="-3.49573">
        <ele>331</ele>
        <time>2013-02-24T14:03:16.1Z</time>
      </trkpt>
      <trkpt lat="48.48511" lon="-3.4957">
        <ele>331</ele>
        <time>2013-02-24T14:03:19.1Z</time>
      </trkpt>
      <trkpt lat="48.48511" lon="-3.49568">
        <ele>331</ele>
        <time>2013-02-24T14:03:21.1Z</time>
      </trkpt>
      <trkpt lat="48.48511" lon="-3.49565">
        <ele>332</ele>
        <time>2013-02-24T14:03:23.1Z</time>
      </trkpt>
      <trkpt lat="48.48512" lon="-3.49562">
        <ele>332</ele>
        <time>2013-02-24T14:03:25.1Z</time>
      </trkpt>
      <trkpt lat="48.48512" lon="-3.49559">
        <ele>332</ele>
        <time>2013-02-24T14:03:27.1Z</time>
      </trkpt>
      <trkpt lat="48.48512" lon="-3.49557">
        <ele>332</ele>
        <time>2013-02-24T14:03:29.1Z</time>
      </trkpt>
      <trkpt lat="48.48513" lon="-3.49555">
        <ele>333</ele>
        <time>2013-02-24T14:03:31.1Z</time>
      </trkpt>
      <trkpt lat="48.48513" lon="-3.49552">
        <ele>333</ele>
        <time>2013-02-24T14:03:33.1Z</time>
      </trkpt>
      <trkpt lat="48.48513" lon="-3.4955">
        <ele>333</ele>
        <time>2013-02-24T14:03:35.1Z</time>
      </trkpt>
      <trkpt lat="48.48513" lon="-3.49547">
        <ele>333</ele>
        <time>2013-02-24T14:03:37.1Z</time>
      </trkpt>
      <trkpt lat="48.48513" lon="-3.49545">
        <ele>333</ele>
        <time>2013-02-24T14:03:39.1Z</time>
      </trkpt>
      <trkpt lat="48.48514" lon="-3.49541">
        <ele>333</ele>
        <time>2013-02-24T14:03:41.1Z</time>
      </trkpt>
      <trkpt lat="48.48514" lon="-3.49539">
        <ele>333</ele>
        <time>2013-02-24T14:03:44.1Z</time>
      </trkpt>
      <trkpt lat="48.48515" lon="-3.49536">
        <ele>333</ele>
        <time>2013-02-24T14:03:46.1Z</time>
      </trkpt>
      <trkpt lat="48.48514" lon="-3.49534">
        <ele>333</ele>
        <time>2013-02-24T14:03:48.1Z</time>
      </trkpt>
      <trkpt lat="48.48513" lon="-3.49533">
        <ele>334</ele>
        <time>2013-02-24T14:03:50.1Z</time>
      </trkpt>
      <trkpt lat="48.48513" lon="-3.49531">
        <ele>334</ele>
        <time>2013-02-24T14:03:52.1Z</time>
      </trkpt>
      <trkpt lat="48.4851" lon="-3.49529">
        <ele>334</ele>
        <time>2013-02-24T14:03:54.1Z</time>
      </trkpt>
      <trkpt lat="48.48509" lon="-3.49528">
        <ele>334</ele>
        <time>2013-02-24T14:03:56.1Z</time>
      </trkpt>
      <trkpt lat="48.48507" lon="-3.49526">
        <ele>335</ele>
        <time>2013-02-24T14:03:58.1Z</time>
      </trkpt>
      <trkpt lat="48.48503" lon="-3.49523">
        <ele>335</ele>
        <time>2013-02-24T14:04:01.1Z</time>
      </trkpt>
      <trkpt lat="48.48501" lon="-3.49521">
        <ele>335</ele>
        <time>2013-02-24T14:04:03.1Z</time>
      </trkpt>
      <trkpt lat="48.48499" lon="-3.4952">
        <ele>335</ele>
        <time>2013-02-24T14:04:05.1Z</time>
      </trkpt>
      <trkpt lat="48.48496" lon="-3.49519">
        <ele>335</ele>
        <time>2013-02-24T14:04:07.1Z</time>
      </trkpt>
      <trkpt lat="48.48494" lon="-3.49518">
        <ele>335</ele>
        <time>2013-02-24T14:04:09.1Z</time>
      </trkpt>
      <trkpt lat="48.48491" lon="-3.49516">
        <ele>335</ele>
        <time>2013-02-24T14:04:11.1Z</time>
      </trkpt>
      <trkpt lat="48.48488" lon="-3.49516">
        <ele>335</ele>
        <time>2013-02-24T14:04:13.1Z</time>
      </trkpt>
      <trkpt lat="48.48486" lon="-3.49515">
        <ele>335</ele>
        <time>2013-02-24T14:04:15.1Z</time>
      </trkpt>
      <trkpt lat="48.48483" lon="-3.49515">
        <ele>335</ele>
        <time>2013-02-24T14:04:17.1Z</time>
      </trkpt>
      <trkpt lat="48.48481" lon="-3.49515">
        <ele>335</ele>
        <time>2013-02-24T14:04:19.1Z</time>
      </trkpt>
      <trkpt lat="48.48479" lon="-3.49515">
        <ele>335</ele>
        <time>2013-02-24T14:04:21.1Z</time>
      </trkpt>
      <trkpt lat="48.48476" lon="-3.49515">
        <ele>335</ele>
        <time>2013-02-24T14:04:23.1Z</time>
      </trkpt>
      <trkpt lat="48.48473" lon="-3.49514">
        <ele>335</ele>
        <time>2013-02-24T14:04:25.1Z</time>
      </trkpt>
      <trkpt lat="48.48471" lon="-3.49514">
        <ele>335</ele>
        <time>2013-02-24T14:04:27.1Z</time>
      </trkpt>
      <trkpt lat="48.48469" lon="-3.49514">
        <ele>335</ele>
        <time>2013-02-24T14:04:29.1Z</time>
      </trkpt>
      <trkpt lat="48.48467" lon="-3.49514">
        <ele>335</ele>
        <time>2013-02-24T14:04:31.1Z</time>
      </trkpt>
      <trkpt lat="48.48465" lon="-3.49513">
        <ele>336</ele>
        <time>2013-02-24T14:04:33.1Z</time>
      </trkpt>
      <trkpt lat="48.48461" lon="-3.49513">
        <ele>336</ele>
        <time>2013-02-24T14:04:36.1Z</time>
      </trkpt>
      <trkpt lat="48.48459" lon="-3.49514">
        <ele>335</ele>
        <time>2013-02-24T14:04:38.1Z</time>
      </trkpt>
      <trkpt lat="48.48457" lon="-3.49514">
        <ele>335</ele>
        <time>2013-02-24T14:04:40.1Z</time>
      </trkpt>
      <trkpt lat="48.48454" lon="-3.49514">
        <ele>335</ele>
        <time>2013-02-24T14:04:42.1Z</time>
      </trkpt>
      <trkpt lat="48.48452" lon="-3.49515">
        <ele>335</ele>
        <time>2013-02-24T14:04:44.1Z</time>
      </trkpt>
      <trkpt lat="48.4845" lon="-3.49515">
        <ele>335</ele>
        <time>2013-02-24T14:04:46.1Z</time>
      </trkpt>
      <trkpt lat="48.48448" lon="-3.49515">
        <ele>335</ele>
        <time>2013-02-24T14:04:48.1Z</time>
      </trkpt>
      <trkpt lat="48.48446" lon="-3.49516">
        <ele>336</ele>
        <time>2013-02-24T14:04:50.1Z</time>
      </trkpt>
      <trkpt lat="48.48444" lon="-3.49516">
        <ele>335</ele>
        <time>2013-02-24T14:04:52.1Z</time>
      </trkpt>
      <trkpt lat="48.48442" lon="-3.49517">
        <ele>336</ele>
        <time>2013-02-24T14:04:54.1Z</time>
      </trkpt>
      <trkpt lat="48.4844" lon="-3.49516">
        <ele>336</ele>
        <time>2013-02-24T14:04:56.1Z</time>
      </trkpt>
      <trkpt lat="48.48437" lon="-3.49518">
        <ele>336</ele>
        <time>2013-02-24T14:04:59.1Z</time>
      </trkpt>
      <trkpt lat="48.48436" lon="-3.49518">
        <ele>336</ele>
        <time>2013-02-24T14:05:01.1Z</time>
      </trkpt>
      <trkpt lat="48.48434" lon="-3.49518">
        <ele>336</ele>
        <time>2013-02-24T14:05:03.1Z</time>
      </trkpt>
      <trkpt lat="48.48432" lon="-3.49518">
        <ele>336</ele>
        <time>2013-02-24T14:05:05.1Z</time>
      </trkpt>
      <trkpt lat="48.4843" lon="-3.49518">
        <ele>336</ele>
        <time>2013-02-24T14:05:07.1Z</time>
      </trkpt>
      <trkpt lat="48.48428" lon="-3.49518">
        <ele>337</ele>
        <time>2013-02-24T14:05:09.1Z</time>
      </trkpt>
      <trkpt lat="48.48426" lon="-3.49518">
        <ele>337</ele>
        <time>2013-02-24T14:05:11.1Z</time>
      </trkpt>
      <trkpt lat="48.48423" lon="-3.49518">
        <ele>337</ele>
        <time>2013-02-24T14:05:13.1Z</time>
      </trkpt>
      <trkpt lat="48.48421" lon="-3.49518">
        <ele>337</ele>
        <time>2013-02-24T14:05:15.1Z</time>
      </trkpt>
      <trkpt lat="48.48419" lon="-3.49518">
        <ele>337</ele>
        <time>2013-02-24T14:05:17.1Z</time>
      </trkpt>
      <trkpt lat="48.48418" lon="-3.49519">
        <ele>337</ele>
        <time>2013-02-24T14:05:19.1Z</time>
      </trkpt>
      <trkpt lat="48.48416" lon="-3.4952">
        <ele>337</ele>
        <time>2013-02-24T14:05:21.1Z</time>
      </trkpt>
      <trkpt lat="48.48414" lon="-3.4952">
        <ele>337</ele>
        <time>2013-02-24T14:05:23.1Z</time>
      </trkpt>
      <trkpt lat="48.48412" lon="-3.49521">
        <ele>337</ele>
        <time>2013-02-24T14:05:25.1Z</time>
      </trkpt>
      <trkpt lat="48.4841" lon="-3.49521">
        <ele>338</ele>
        <time>2013-02-24T14:05:27.1Z</time>
      </trkpt>
      <trkpt lat="48.48409" lon="-3.49521">
        <ele>338</ele>
        <time>2013-02-24T14:05:29.1Z</time>
      </trkpt>
      <trkpt lat="48.48407" lon="-3.4952">
        <ele>338</ele>
        <time>2013-02-24T14:05:32.1Z</time>
      </trkpt>
      <trkpt lat="48.48404" lon="-3.4952">
        <ele>338</ele>
        <time>2013-02-24T14:05:34.1Z</time>
      </trkpt>
      <trkpt lat="48.48402" lon="-3.4952">
        <ele>338</ele>
        <time>2013-02-24T14:05:36.1Z</time>
      </trkpt>
      <trkpt lat="48.484" lon="-3.4952">
        <ele>338</ele>
        <time>2013-02-24T14:05:38.1Z</time>
      </trkpt>
      <trkpt lat="48.48398" lon="-3.4952">
        <ele>338</ele>
        <time>2013-02-24T14:05:40.1Z</time>
      </trkpt>
      <trkpt lat="48.48396" lon="-3.49519">
        <ele>339</ele>
        <time>2013-02-24T14:05:42.1Z</time>
      </trkpt>
      <trkpt lat="48.48394" lon="-3.49519">
        <ele>339</ele>
        <time>2013-02-24T14:05:44.1Z</time>
      </trkpt>
      <trkpt lat="48.48393" lon="-3.49519">
        <ele>339</ele>
        <time>2013-02-24T14:05:46.1Z</time>
      </trkpt>
      <trkpt lat="48.4839" lon="-3.49518">
        <ele>338</ele>
        <time>2013-02-24T14:05:48.1Z</time>
      </trkpt>
      <trkpt lat="48.48389" lon="-3.49517">
        <ele>338</ele>
        <time>2013-02-24T14:05:50.1Z</time>
      </trkpt>
      <trkpt lat="48.48386" lon="-3.49518">
        <ele>338</ele>
        <time>2013-02-24T14:05:52.1Z</time>
      </trkpt>
      <trkpt lat="48.48384" lon="-3.49518">
        <ele>338</ele>
        <time>2013-02-24T14:05:54.1Z</time>
      </trkpt>
      <trkpt lat="48.48383" lon="-3.49519">
        <ele>338</ele>
        <time>2013-02-24T14:05:56.1Z</time>
      </trkpt>
      <trkpt lat="48.48381" lon="-3.49519">
        <ele>338</ele>
        <time>2013-02-24T14:05:58.1Z</time>
      </trkpt>
      <trkpt lat="48.48379" lon="-3.49519">
        <ele>338</ele>
        <time>2013-02-24T14:06:01.1Z</time>
      </trkpt>
      <trkpt lat="48.48377" lon="-3.49519">
        <ele>338</ele>
        <time>2013-02-24T14:06:03.1Z</time>
      </trkpt>
      <trkpt lat="48.48375" lon="-3.49519">
        <ele>338</ele>
        <time>2013-02-24T14:06:05.1Z</time>
      </trkpt>
      <trkpt lat="48.48373" lon="-3.49519">
        <ele>338</ele>
        <time>2013-02-24T14:06:07.1Z</time>
      </trkpt>
      <trkpt lat="48.48371" lon="-3.49519">
        <ele>338</ele>
        <time>2013-02-24T14:06:09.1Z</time>
      </trkpt>
      <trkpt lat="48.48369" lon="-3.4952">
        <ele>338</ele>
        <time>2013-02-24T14:06:11.1Z</time>
      </trkpt>
      <trkpt lat="48.48367" lon="-3.4952">
        <ele>338</ele>
        <time>2013-02-24T14:06:13.1Z</time>
      </trkpt>
      <trkpt lat="48.48365" lon="-3.49521">
        <ele>338</ele>
        <time>2013-02-24T14:06:15.1Z</time>
      </trkpt>
      <trkpt lat="48.48363" lon="-3.4952">
        <ele>338</ele>
        <time>2013-02-24T14:06:17.1Z</time>
      </trkpt>
      <trkpt lat="48.4836" lon="-3.4952">
        <ele>338</ele>
        <time>2013-02-24T14:06:19.1Z</time>
      </trkpt>
      <trkpt lat="48.48358" lon="-3.4952">
        <ele>338</ele>
        <time>2013-02-24T14:06:21.1Z</time>
      </trkpt>
      <trkpt lat="48.48355" lon="-3.4952">
        <ele>338</ele>
        <time>2013-02-24T14:06:23.1Z</time>
      </trkpt>
      <trkpt lat="48.48353" lon="-3.49519">
        <ele>338</ele>
        <time>2013-02-24T14:06:25.1Z</time>
      </trkpt>
      <trkpt lat="48.48349" lon="-3.49519">
        <ele>338</ele>
        <time>2013-02-24T14:06:27.1Z</time>
      </trkpt>
      <trkpt lat="48.48347" lon="-3.49519">
        <ele>338</ele>
        <time>2013-02-24T14:06:30.1Z</time>
      </trkpt>
      <trkpt lat="48.48344" lon="-3.49518">
        <ele>338</ele>
        <time>2013-02-24T14:06:32.1Z</time>
      </trkpt>
      <trkpt lat="48.48342" lon="-3.49518">
        <ele>338</ele>
        <time>2013-02-24T14:06:34.1Z</time>
      </trkpt>
      <trkpt lat="48.4834" lon="-3.49518">
        <ele>338</ele>
        <time>2013-02-24T14:06:36.1Z</time>
      </trkpt>
      <trkpt lat="48.48338" lon="-3.49518">
        <ele>338</ele>
        <time>2013-02-24T14:06:38.1Z</time>
      </trkpt>
      <trkpt lat="48.48337" lon="-3.49518">
        <ele>338</ele>
        <time>2013-02-24T14:06:40.1Z</time>
      </trkpt>
      <trkpt lat="48.48335" lon="-3.49518">
        <ele>338</ele>
        <time>2013-02-24T14:06:42.1Z</time>
      </trkpt>
      <trkpt lat="48.48333" lon="-3.49518">
        <ele>338</ele>
        <time>2013-02-24T14:06:44.1Z</time>
      </trkpt>
      <trkpt lat="48.48331" lon="-3.49518">
        <ele>338</ele>
        <time>2013-02-24T14:06:46.1Z</time>
      </trkpt>
      <trkpt lat="48.48328" lon="-3.49518">
        <ele>338</ele>
        <time>2013-02-24T14:06:48.1Z</time>
      </trkpt>
      <trkpt lat="48.48326" lon="-3.49518">
        <ele>338</ele>
        <time>2013-02-24T14:06:50.1Z</time>
      </trkpt>
      <trkpt lat="48.48324" lon="-3.49517">
        <ele>338</ele>
        <time>2013-02-24T14:06:52.1Z</time>
      </trkpt>
      <trkpt lat="48.48323" lon="-3.49518">
        <ele>338</ele>
        <time>2013-02-24T14:06:54.1Z</time>
      </trkpt>
      <trkpt lat="48.48321" lon="-3.49518">
        <ele>338</ele>
        <time>2013-02-24T14:06:56.1Z</time>
      </trkpt>
      <trkpt lat="48.4832" lon="-3.49518">
        <ele>338</ele>
        <time>2013-02-24T14:06:59.1Z</time>
      </trkpt>
      <trkpt lat="48.48318" lon="-3.49518">
        <ele>338</ele>
        <time>2013-02-24T14:07:01.1Z</time>
      </trkpt>
      <trkpt lat="48.48317" lon="-3.49518">
        <ele>338</ele>
        <time>2013-02-24T14:07:03.1Z</time>
      </trkpt>
      <trkpt lat="48.48315" lon="-3.49518">
        <ele>337</ele>
        <time>2013-02-24T14:07:05.1Z</time>
      </trkpt>
      <trkpt lat="48.48313" lon="-3.49519">
        <ele>338</ele>
        <time>2013-02-24T14:07:07.1Z</time>
      </trkpt>
      <trkpt lat="48.48311" lon="-3.4952">
        <ele>338</ele>
        <time>2013-02-24T14:07:09.1Z</time>
      </trkpt>
      <trkpt lat="48.4831" lon="-3.4952">
        <ele>338</ele>
        <time>2013-02-24T14:07:11.1Z</time>
      </trkpt>
      <trkpt lat="48.48308" lon="-3.4952">
        <ele>338</ele>
        <time>2013-02-24T14:07:13.1Z</time>
      </trkpt>
      <trkpt lat="48.48306" lon="-3.4952">
        <ele>338</ele>
        <time>2013-02-24T14:07:15.1Z</time>
      </trkpt>
      <trkpt lat="48.48304" lon="-3.49521">
        <ele>338</ele>
        <time>2013-02-24T14:07:17.1Z</time>
      </trkpt>
      <trkpt lat="48.483" lon="-3.4952">
        <ele>338</ele>
        <time>2013-02-24T14:07:19.1Z</time>
      </trkpt>
      <trkpt lat="48.48299" lon="-3.49521">
        <ele>337</ele>
        <time>2013-02-24T14:07:22.1Z</time>
      </trkpt>
      <trkpt lat="48.48297" lon="-3.49521">
        <ele>337</ele>
        <time>2013-02-24T14:07:24.1Z</time>
      </trkpt>
      <trkpt lat="48.48295" lon="-3.49521">
        <ele>337</ele>
        <time>2013-02-24T14:07:26.1Z</time>
      </trkpt>
      <trkpt lat="48.48293" lon="-3.4952">
        <ele>337</ele>
        <time>2013-02-24T14:07:28.1Z</time>
      </trkpt>
      <trkpt lat="48.48292" lon="-3.49519">
        <ele>337</ele>
        <time>2013-02-24T14:07:30.1Z</time>
      </trkpt>
      <trkpt lat="48.4829" lon="-3.4952">
        <ele>338</ele>
        <time>2013-02-24T14:07:32.1Z</time>
      </trkpt>
      <trkpt lat="48.48288" lon="-3.49519">
        <ele>337</ele>
        <time>2013-02-24T14:07:34.1Z</time>
      </trkpt>
      <trkpt lat="48.48286" lon="-3.49519">
        <ele>337</ele>
        <time>2013-02-24T14:07:36.1Z</time>
      </trkpt>
      <trkpt lat="48.48283" lon="-3.49519">
        <ele>338</ele>
        <time>2013-02-24T14:07:38.1Z</time>
      </trkpt>
      <trkpt lat="48.48281" lon="-3.49519">
        <ele>337</ele>
        <time>2013-02-24T14:07:40.1Z</time>
      </trkpt>
      <trkpt lat="48.48278" lon="-3.49518">
        <ele>337</ele>
        <time>2013-02-24T14:07:42.1Z</time>
      </trkpt>
      <trkpt lat="48.48275" lon="-3.49518">
        <ele>337</ele>
        <time>2013-02-24T14:07:44.1Z</time>
      </trkpt>
      <trkpt lat="48.48273" lon="-3.49518">
        <ele>337</ele>
        <time>2013-02-24T14:07:46.1Z</time>
      </trkpt>
      <trkpt lat="48.4827" lon="-3.49517">
        <ele>337</ele>
        <time>2013-02-24T14:07:48.1Z</time>
      </trkpt>
      <trkpt lat="48.48268" lon="-3.49517">
        <ele>337</ele>
        <time>2013-02-24T14:07:50.1Z</time>
      </trkpt>
      <trkpt lat="48.48264" lon="-3.49516">
        <ele>337</ele>
        <time>2013-02-24T14:07:52.1Z</time>
      </trkpt>
      <trkpt lat="48.48262" lon="-3.49516">
        <ele>337</ele>
        <time>2013-02-24T14:07:54.1Z</time>
      </trkpt>
      <trkpt lat="48.4826" lon="-3.49517">
        <ele>338</ele>
        <time>2013-02-24T14:07:57.1Z</time>
      </trkpt>
      <trkpt lat="48.48258" lon="-3.49517">
        <ele>337</ele>
        <time>2013-02-24T14:07:59.1Z</time>
      </trkpt>
      <trkpt lat="48.48256" lon="-3.49517">
        <ele>337</ele>
        <time>2013-02-24T14:08:01.1Z</time>
      </trkpt>
      <trkpt lat="48.48254" lon="-3.49517">
        <ele>337</ele>
        <time>2013-02-24T14:08:03.1Z</time>
      </trkpt>
      <trkpt lat="48.48252" lon="-3.49517">
        <ele>336</ele>
        <time>2013-02-24T14:08:05.1Z</time>
      </trkpt>
      <trkpt lat="48.48249" lon="-3.49516">
        <ele>336</ele>
        <time>2013-02-24T14:08:07.1Z</time>
      </trkpt>
      <trkpt lat="48.48247" lon="-3.49515">
        <ele>336</ele>
        <time>2013-02-24T14:08:09.1Z</time>
      </trkpt>
      <trkpt lat="48.48244" lon="-3.49515">
        <ele>336</ele>
        <time>2013-02-24T14:08:11.1Z</time>
      </trkpt>
      <trkpt lat="48.48241" lon="-3.49514">
        <ele>336</ele>
        <time>2013-02-24T14:08:13.1Z</time>
      </trkpt>
      <trkpt lat="48.48239" lon="-3.49514">
        <ele>336</ele>
        <time>2013-02-24T14:08:15.1Z</time>
      </trkpt>
      <trkpt lat="48.48237" lon="-3.49514">
        <ele>336</ele>
        <time>2013-02-24T14:08:17.1Z</time>
      </trkpt>
      <trkpt lat="48.48233" lon="-3.49514">
        <ele>336</ele>
        <time>2013-02-24T14:08:19.1Z</time>
      </trkpt>
      <trkpt lat="48.4823" lon="-3.49513">
        <ele>335</ele>
        <time>2013-02-24T14:08:22.1Z</time>
      </trkpt>
      <trkpt lat="48.48228" lon="-3.49513">
        <ele>335</ele>
        <time>2013-02-24T14:08:24.1Z</time>
      </trkpt>
      <trkpt lat="48.48225" lon="-3.49513">
        <ele>335</ele>
        <time>2013-02-24T14:08:26.1Z</time>
      </trkpt>
      <trkpt lat="48.48223" lon="-3.49513">
        <ele>335</ele>
        <time>2013-02-24T14:08:28.1Z</time>
      </trkpt>
      <trkpt lat="48.4822" lon="-3.49512">
        <ele>335</ele>
        <time>2013-02-24T14:08:30.1Z</time>
      </trkpt>
      <trkpt lat="48.48218" lon="-3.49513">
        <ele>334</ele>
        <time>2013-02-24T14:08:32.1Z</time>
      </trkpt>
      <trkpt lat="48.48215" lon="-3.49513">
        <ele>334</ele>
        <time>2013-02-24T14:08:34.1Z</time>
      </trkpt>
      <trkpt lat="48.48213" lon="-3.49513">
        <ele>334</ele>
        <time>2013-02-24T14:08:36.1Z</time>
      </trkpt>
      <trkpt lat="48.4821" lon="-3.49513">
        <ele>334</ele>
        <time>2013-02-24T14:08:38.1Z</time>
      </trkpt>
      <trkpt lat="48.48207" lon="-3.49513">
        <ele>334</ele>
        <time>2013-02-24T14:08:40.1Z</time>
      </trkpt>
      <trkpt lat="48.48204" lon="-3.49513">
        <ele>334</ele>
        <time>2013-02-24T14:08:42.1Z</time>
      </trkpt>
      <trkpt lat="48.48201" lon="-3.49513">
        <ele>333</ele>
        <time>2013-02-24T14:08:45.1Z</time>
      </trkpt>
      <trkpt lat="48.48199" lon="-3.49514">
        <ele>333</ele>
        <time>2013-02-24T14:08:47.1Z</time>
      </trkpt>
      <trkpt lat="48.48197" lon="-3.49514">
        <ele>333</ele>
        <time>2013-02-24T14:08:49.1Z</time>
      </trkpt>
      <trkpt lat="48.48195" lon="-3.49513">
        <ele>333</ele>
        <time>2013-02-24T14:08:51.1Z</time>
      </trkpt>
      <trkpt lat="48.48194" lon="-3.49513">
        <ele>333</ele>
        <time>2013-02-24T14:08:53.1Z</time>
      </trkpt>
      <trkpt lat="48.48191" lon="-3.49513">
        <ele>333</ele>
        <time>2013-02-24T14:08:55.1Z</time>
      </trkpt>
      <trkpt lat="48.4819" lon="-3.49514">
        <ele>333</ele>
        <time>2013-02-24T14:08:57.1Z</time>
      </trkpt>
      <trkpt lat="48.48188" lon="-3.49514">
        <ele>333</ele>
        <time>2013-02-24T14:08:59.1Z</time>
      </trkpt>
      <trkpt lat="48.48186" lon="-3.49514">
        <ele>333</ele>
        <time>2013-02-24T14:09:01.1Z</time>
      </trkpt>
      <trkpt lat="48.48184" lon="-3.49515">
        <ele>333</ele>
        <time>2013-02-24T14:09:03.1Z</time>
      </trkpt>
      <trkpt lat="48.48182" lon="-3.49516">
        <ele>333</ele>
        <time>2013-02-24T14:09:05.1Z</time>
      </trkpt>
      <trkpt lat="48.4818" lon="-3.49516">
        <ele>332</ele>
        <time>2013-02-24T14:09:08.1Z</time>
      </trkpt>
      <trkpt lat="48.48178" lon="-3.49516">
        <ele>332</ele>
        <time>2013-02-24T14:09:10.1Z</time>
      </trkpt>
      <trkpt lat="48.48176" lon="-3.49517">
        <ele>332</ele>
        <time>2013-02-24T14:09:12.1Z</time>
      </trkpt>
      <trkpt lat="48.48174" lon="-3.49517">
        <ele>332</ele>
        <time>2013-02-24T14:09:14.1Z</time>
      </trkpt>
      <trkpt lat="48.48172" lon="-3.49517">
        <ele>332</ele>
        <time>2013-02-24T14:09:16.1Z</time>
      </trkpt>
      <trkpt lat="48.4817" lon="-3.49517">
        <ele>331</ele>
        <time>2013-02-24T14:09:18.1Z</time>
      </trkpt>
      <trkpt lat="48.48167" lon="-3.49517">
        <ele>331</ele>
        <time>2013-02-24T14:09:20.1Z</time>
      </trkpt>
      <trkpt lat="48.48165" lon="-3.49517">
        <ele>331</ele>
        <time>2013-02-24T14:09:22.1Z</time>
      </trkpt>
      <trkpt lat="48.48164" lon="-3.49517">
        <ele>331</ele>
        <time>2013-02-24T14:09:24.1Z</time>
      </trkpt>
      <trkpt lat="48.48161" lon="-3.49518">
        <ele>331</ele>
        <time>2013-02-24T14:09:26.1Z</time>
      </trkpt>
      <trkpt lat="48.4816" lon="-3.49518">
        <ele>331</ele>
        <time>2013-02-24T14:09:28.1Z</time>
      </trkpt>
      <trkpt lat="48.48158" lon="-3.49518">
        <ele>331</ele>
        <time>2013-02-24T14:09:30.1Z</time>
      </trkpt>
      <trkpt lat="48.48156" lon="-3.49518">
        <ele>331</ele>
        <time>2013-02-24T14:09:32.1Z</time>
      </trkpt>
      <trkpt lat="48.48154" lon="-3.49518">
        <ele>330</ele>
        <time>2013-02-24T14:09:34.1Z</time>
      </trkpt>
      <trkpt lat="48.48151" lon="-3.49518">
        <ele>330</ele>
        <time>2013-02-24T14:09:36.1Z</time>
      </trkpt>
      <trkpt lat="48.48149" lon="-3.49519">
        <ele>330</ele>
        <time>2013-02-24T14:09:38.1Z</time>
      </trkpt>
      <trkpt lat="48.48147" lon="-3.4952">
        <ele>330</ele>
        <time>2013-02-24T14:09:40.1Z</time>
      </trkpt>
      <trkpt lat="48.48144" lon="-3.49521">
        <ele>330</ele>
        <time>2013-02-24T14:09:42.1Z</time>
      </trkpt>
      <trkpt lat="48.48142" lon="-3.49521">
        <ele>330</ele>
        <time>2013-02-24T14:09:45.1Z</time>
      </trkpt>
      <trkpt lat="48.4814" lon="-3.49521">
        <ele>330</ele>
        <time>2013-02-24T14:09:47.1Z</time>
      </trkpt>
      <trkpt lat="48.48138" lon="-3.49521">
        <ele>330</ele>
        <time>2013-02-24T14:09:49.1Z</time>
      </trkpt>
      <trkpt lat="48.48136" lon="-3.49521">
        <ele>330</ele>
        <time>2013-02-24T14:09:51.1Z</time>
      </trkpt>
      <trkpt lat="48.48134" lon="-3.49521">
        <ele>330</ele>
        <time>2013-02-24T14:09:53.1Z</time>
      </trkpt>
      <trkpt lat="48.48132" lon="-3.49521">
        <ele>329</ele>
        <time>2013-02-24T14:09:55.1Z</time>
      </trkpt>
      <trkpt lat="48.4813" lon="-3.49522">
        <ele>329</ele>
        <time>2013-02-24T14:09:57.1Z</time>
      </trkpt>
      <trkpt lat="48.48127" lon="-3.49523">
        <ele>329</ele>
        <time>2013-02-24T14:09:59.1Z</time>
      </trkpt>
      <trkpt lat="48.48125" lon="-3.49522">
        <ele>329</ele>
        <time>2013-02-24T14:10:01.1Z</time>
      </trkpt>
      <trkpt lat="48.48121" lon="-3.49522">
        <ele>328</ele>
        <time>2013-02-24T14:10:03.1Z</time>
      </trkpt>
      <trkpt lat="48.48119" lon="-3.49522">
        <ele>328</ele>
        <time>2013-02-24T14:10:06.1Z</time>
      </trkpt>
      <trkpt lat="48.48117" lon="-3.49522">
        <ele>328</ele>
        <time>2013-02-24T14:10:08.1Z</time>
      </trkpt>
      <trkpt lat="48.48115" lon="-3.49523">
        <ele>328</ele>
        <time>2013-02-24T14:10:10.1Z</time>
      </trkpt>
      <trkpt lat="48.48112" lon="-3.49523">
        <ele>328</ele>
        <time>2013-02-24T14:10:12.1Z</time>
      </trkpt>
      <trkpt lat="48.4811" lon="-3.49523">
        <ele>328</ele>
        <time>2013-02-24T14:10:14.1Z</time>
      </trkpt>
      <trkpt lat="48.48108" lon="-3.49523">
        <ele>327</ele>
        <time>2013-02-24T14:10:16.1Z</time>
      </trkpt>
      <trkpt lat="48.48106" lon="-3.49524">
        <ele>328</ele>
        <time>2013-02-24T14:10:18.1Z</time>
      </trkpt>
      <trkpt lat="48.48103" lon="-3.49524">
        <ele>328</ele>
        <time>2013-02-24T14:10:20.1Z</time>
      </trkpt>
      <trkpt lat="48.48101" lon="-3.49524">
        <ele>328</ele>
        <time>2013-02-24T14:10:22.1Z</time>
      </trkpt>
      <trkpt lat="48.48098" lon="-3.49524">
        <ele>327</ele>
        <time>2013-02-24T14:10:25.1Z</time>
      </trkpt>
      <trkpt lat="48.48096" lon="-3.49524">
        <ele>327</ele>
        <time>2013-02-24T14:10:27.1Z</time>
      </trkpt>
      <trkpt lat="48.48094" lon="-3.49524">
        <ele>327</ele>
        <time>2013-02-24T14:10:29.1Z</time>
      </trkpt>
      <trkpt lat="48.48092" lon="-3.49524">
        <ele>327</ele>
        <time>2013-02-24T14:10:31.1Z</time>
      </trkpt>
      <trkpt lat="48.48089" lon="-3.49524">
        <ele>327</ele>
        <time>2013-02-24T14:10:33.1Z</time>
      </trkpt>
      <trkpt lat="48.48087" lon="-3.49523">
        <ele>326</ele>
        <time>2013-02-24T14:10:35.1Z</time>
      </trkpt>
      <trkpt lat="48.48084" lon="-3.49523">
        <ele>326</ele>
        <time>2013-02-24T14:10:37.1Z</time>
      </trkpt>
      <trkpt lat="48.48082" lon="-3.49523">
        <ele>326</ele>
        <time>2013-02-24T14:10:39.1Z</time>
      </trkpt>
      <trkpt lat="48.48079" lon="-3.49523">
        <ele>326</ele>
        <time>2013-02-24T14:10:41.1Z</time>
      </trkpt>
      <trkpt lat="48.48077" lon="-3.49523">
        <ele>326</ele>
        <time>2013-02-24T14:10:43.1Z</time>
      </trkpt>
      <trkpt lat="48.48074" lon="-3.49523">
        <ele>326</ele>
        <time>2013-02-24T14:10:45.1Z</time>
      </trkpt>
      <trkpt lat="48.48072" lon="-3.49523">
        <ele>326</ele>
        <time>2013-02-24T14:10:47.1Z</time>
      </trkpt>
      <trkpt lat="48.48069" lon="-3.49524">
        <ele>326</ele>
        <time>2013-02-24T14:10:49.1Z</time>
      </trkpt>
      <trkpt lat="48.48067" lon="-3.49523">
        <ele>326</ele>
        <time>2013-02-24T14:10:51.1Z</time>
      </trkpt>
      <trkpt lat="48.48064" lon="-3.49523">
        <ele>326</ele>
        <time>2013-02-24T14:10:53.1Z</time>
      </trkpt>
      <trkpt lat="48.48062" lon="-3.49523">
        <ele>326</ele>
        <time>2013-02-24T14:10:55.1Z</time>
      </trkpt>
      <trkpt lat="48.48059" lon="-3.49523">
        <ele>325</ele>
        <time>2013-02-24T14:10:57.1Z</time>
      </trkpt>
      <trkpt lat="48.48057" lon="-3.49523">
        <ele>325</ele>
        <time>2013-02-24T14:10:59.1Z</time>
      </trkpt>
      <trkpt lat="48.48053" lon="-3.49522">
        <ele>325</ele>
        <time>2013-02-24T14:11:01.1Z</time>
      </trkpt>
      <trkpt lat="48.4805" lon="-3.49523">
        <ele>325</ele>
        <time>2013-02-24T14:11:03.1Z</time>
      </trkpt>
      <trkpt lat="48.48048" lon="-3.49523">
        <ele>325</ele>
        <time>2013-02-24T14:11:05.1Z</time>
      </trkpt>
      <trkpt lat="48.48045" lon="-3.49524">
        <ele>325</ele>
        <time>2013-02-24T14:11:07.1Z</time>
      </trkpt>
      <trkpt lat="48.48043" lon="-3.49524">
        <ele>325</ele>
        <time>2013-02-24T14:11:10.1Z</time>
      </trkpt>
      <trkpt lat="48.4804" lon="-3.49524">
        <ele>324</ele>
        <time>2013-02-24T14:11:12.1Z</time>
      </trkpt>
      <trkpt lat="48.48037" lon="-3.49524">
        <ele>324</ele>
        <time>2013-02-24T14:11:14.1Z</time>
      </trkpt>
      <trkpt lat="48.48036" lon="-3.49524">
        <ele>324</ele>
        <time>2013-02-24T14:11:16.1Z</time>
      </trkpt>
      <trkpt lat="48.48034" lon="-3.49524">
        <ele>324</ele>
        <time>2013-02-24T14:11:18.1Z</time>
      </trkpt>
      <trkpt lat="48.48031" lon="-3.49524">
        <ele>324</ele>
        <time>2013-02-24T14:11:20.1Z</time>
      </trkpt>
      <trkpt lat="48.48029" lon="-3.49524">
        <ele>324</ele>
        <time>2013-02-24T14:11:22.1Z</time>
      </trkpt>
      <trkpt lat="48.48026" lon="-3.49524">
        <ele>323</ele>
        <time>2013-02-24T14:11:24.1Z</time>
      </trkpt>
      <trkpt lat="48.48024" lon="-3.49524">
        <ele>323</ele>
        <time>2013-02-24T14:11:26.1Z</time>
      </trkpt>
      <trkpt lat="48.48021" lon="-3.49524">
        <ele>323</ele>
        <time>2013-02-24T14:11:28.1Z</time>
      </trkpt>
      <trkpt lat="48.48019" lon="-3.49524">
        <ele>323</ele>
        <time>2013-02-24T14:11:31.1Z</time>
      </trkpt>
      <trkpt lat="48.48017" lon="-3.49524">
        <ele>323</ele>
        <time>2013-02-24T14:11:33.1Z</time>
      </trkpt>
      <trkpt lat="48.48015" lon="-3.49524">
        <ele>323</ele>
        <time>2013-02-24T14:11:35.1Z</time>
      </trkpt>
      <trkpt lat="48.48012" lon="-3.49524">
        <ele>323</ele>
        <time>2013-02-24T14:11:37.1Z</time>
      </trkpt>
      <trkpt lat="48.4801" lon="-3.49524">
        <ele>323</ele>
        <time>2013-02-24T14:11:39.1Z</time>
      </trkpt>
      <trkpt lat="48.48007" lon="-3.49524">
        <ele>323</ele>
        <time>2013-02-24T14:11:41.1Z</time>
      </trkpt>
      <trkpt lat="48.48005" lon="-3.49524">
        <ele>323</ele>
        <time>2013-02-24T14:11:43.1Z</time>
      </trkpt>
      <trkpt lat="48.48003" lon="-3.49524">
        <ele>323</ele>
        <time>2013-02-24T14:11:45.1Z</time>
      </trkpt>
      <trkpt lat="48.48001" lon="-3.49524">
        <ele>323</ele>
        <time>2013-02-24T14:11:47.1Z</time>
      </trkpt>
      <trkpt lat="48.47997" lon="-3.49524">
        <ele>323</ele>
        <time>2013-02-24T14:11:49.1Z</time>
      </trkpt>
      <trkpt lat="48.47995" lon="-3.49524">
        <ele>323</ele>
        <time>2013-02-24T14:11:51.1Z</time>
      </trkpt>
      <trkpt lat="48.47992" lon="-3.49523">
        <ele>323</ele>
        <time>2013-02-24T14:11:53.1Z</time>
      </trkpt>
      <trkpt lat="48.4799" lon="-3.49523">
        <ele>323</ele>
        <time>2013-02-24T14:11:56.1Z</time>
      </trkpt>
      <trkpt lat="48.47987" lon="-3.49523">
        <ele>323</ele>
        <time>2013-02-24T14:11:58.1Z</time>
      </trkpt>
      <trkpt lat="48.47985" lon="-3.49524">
        <ele>323</ele>
        <time>2013-02-24T14:12:00.1Z</time>
      </trkpt>
      <trkpt lat="48.47983" lon="-3.49524">
        <ele>322</ele>
        <time>2013-02-24T14:12:02.1Z</time>
      </trkpt>
      <trkpt lat="48.4798" lon="-3.49524">
        <ele>322</ele>
        <time>2013-02-24T14:12:04.1Z</time>
      </trkpt>
      <trkpt lat="48.47977" lon="-3.49523">
        <ele>322</ele>
        <time>2013-02-24T14:12:06.1Z</time>
      </trkpt>
      <trkpt lat="48.47975" lon="-3.49523">
        <ele>322</ele>
        <time>2013-02-24T14:12:08.1Z</time>
      </trkpt>
      <trkpt lat="48.47972" lon="-3.49523">
        <ele>322</ele>
        <time>2013-02-24T14:12:10.1Z</time>
      </trkpt>
      <trkpt lat="48.47969" lon="-3.49523">
        <ele>322</ele>
        <time>2013-02-24T14:12:12.1Z</time>
      </trkpt>
      <trkpt lat="48.47966" lon="-3.49522">
        <ele>322</ele>
        <time>2013-02-24T14:12:15.1Z</time>
      </trkpt>
      <trkpt lat="48.47964" lon="-3.49522">
        <ele>322</ele>
        <time>2013-02-24T14:12:17.1Z</time>
      </trkpt>
      <trkpt lat="48.47961" lon="-3.49522">
        <ele>322</ele>
        <time>2013-02-24T14:12:19.1Z</time>
      </trkpt>
      <trkpt lat="48.47958" lon="-3.49522">
        <ele>322</ele>
        <time>2013-02-24T14:12:21.1Z</time>
      </trkpt>
      <trkpt lat="48.47956" lon="-3.49522">
        <ele>322</ele>
        <time>2013-02-24T14:12:23.1Z</time>
      </trkpt>
      <trkpt lat="48.47953" lon="-3.49522">
        <ele>322</ele>
        <time>2013-02-24T14:12:25.1Z</time>
      </trkpt>
      <trkpt lat="48.47951" lon="-3.49521">
        <ele>322</ele>
        <time>2013-02-24T14:12:27.1Z</time>
      </trkpt>
      <trkpt lat="48.47948" lon="-3.49521">
        <ele>322</ele>
        <time>2013-02-24T14:12:29.1Z</time>
      </trkpt>
      <trkpt lat="48.47946" lon="-3.49521">
        <ele>322</ele>
        <time>2013-02-24T14:12:31.1Z</time>
      </trkpt>
      <trkpt lat="48.47944" lon="-3.49521">
        <ele>322</ele>
        <time>2013-02-24T14:12:33.1Z</time>
      </trkpt>
      <trkpt lat="48.47942" lon="-3.4952">
        <ele>322</ele>
        <time>2013-02-24T14:12:35.1Z</time>
      </trkpt>
      <trkpt lat="48.4794" lon="-3.4952">
        <ele>322</ele>
        <time>2013-02-24T14:12:37.1Z</time>
      </trkpt>
      <trkpt lat="48.47938" lon="-3.49521">
        <ele>321</ele>
        <time>2013-02-24T14:12:39.1Z</time>
      </trkpt>
      <trkpt lat="48.47934" lon="-3.4952">
        <ele>321</ele>
        <time>2013-02-24T14:12:41.1Z</time>
      </trkpt>
      <trkpt lat="48.47932" lon="-3.4952">
        <ele>321</ele>
        <time>2013-02-24T14:12:43.1Z</time>
      </trkpt>
      <trkpt lat="48.4793" lon="-3.4952">
        <ele>321</ele>
        <time>2013-02-24T14:12:46.1Z</time>
      </trkpt>
      <trkpt lat="48.47928" lon="-3.4952">
        <ele>321</ele>
        <time>2013-02-24T14:12:48.1Z</time>
      </trkpt>
      <trkpt lat="48.47925" lon="-3.4952">
        <ele>321</ele>
        <time>2013-02-24T14:12:50.1Z</time>
      </trkpt>
      <trkpt lat="48.47923" lon="-3.4952">
        <ele>321</ele>
        <time>2013-02-24T14:12:52.1Z</time>
      </trkpt>
      <trkpt lat="48.47921" lon="-3.4952">
        <ele>321</ele>
        <time>2013-02-24T14:12:54.1Z</time>
      </trkpt>
      <trkpt lat="48.47918" lon="-3.4952">
        <ele>321</ele>
        <time>2013-02-24T14:12:56.1Z</time>
      </trkpt>
      <trkpt lat="48.47916" lon="-3.4952">
        <ele>321</ele>
        <time>2013-02-24T14:12:58.1Z</time>
      </trkpt>
      <trkpt lat="48.47914" lon="-3.4952">
        <ele>321</ele>
        <time>2013-02-24T14:13:00.1Z</time>
      </trkpt>
      <trkpt lat="48.47912" lon="-3.4952">
        <ele>321</ele>
        <time>2013-02-24T14:13:02.1Z</time>
      </trkpt>
      <trkpt lat="48.4791" lon="-3.4952">
        <ele>321</ele>
        <time>2013-02-24T14:13:04.1Z</time>
      </trkpt>
      <trkpt lat="48.47907" lon="-3.4952">
        <ele>321</ele>
        <time>2013-02-24T14:13:06.1Z</time>
      </trkpt>
      <trkpt lat="48.47905" lon="-3.4952">
        <ele>320</ele>
        <time>2013-02-24T14:13:08.1Z</time>
      </trkpt>
      <trkpt lat="48.47903" lon="-3.4952">
        <ele>320</ele>
        <time>2013-02-24T14:13:10.1Z</time>
      </trkpt>
      <trkpt lat="48.47901" lon="-3.4952">
        <ele>320</ele>
        <time>2013-02-24T14:13:12.1Z</time>
      </trkpt>
      <trkpt lat="48.47898" lon="-3.4952">
        <ele>320</ele>
        <time>2013-02-24T14:13:14.1Z</time>
      </trkpt>
      <trkpt lat="48.47897" lon="-3.4952">
        <ele>320</ele>
        <time>2013-02-24T14:13:16.1Z</time>
      </trkpt>
      <trkpt lat="48.47894" lon="-3.49519">
        <ele>320</ele>
        <time>2013-02-24T14:13:18.1Z</time>
      </trkpt>
      <trkpt lat="48.47892" lon="-3.49519">
        <ele>320</ele>
        <time>2013-02-24T14:13:21.1Z</time>
      </trkpt>
      <trkpt lat="48.47889" lon="-3.49518">
        <ele>320</ele>
        <time>2013-02-24T14:13:23.1Z</time>
      </trkpt>
      <trkpt lat="48.47887" lon="-3.49518">
        <ele>320</ele>
        <time>2013-02-24T14:13:25.1Z</time>
      </trkpt>
      <trkpt lat="48.47885" lon="-3.49517">
        <ele>320</ele>
        <time>2013-02-24T14:13:27.1Z</time>
      </trkpt>
      <trkpt lat="48.47883" lon="-3.49517">
        <ele>320</ele>
        <time>2013-02-24T14:13:29.1Z</time>
      </trkpt>
      <trkpt lat="48.47881" lon="-3.49516">
        <ele>320</ele>
        <time>2013-02-24T14:13:31.1Z</time>
      </trkpt>
      <trkpt lat="48.47879" lon="-3.49516">
        <ele>320</ele>
        <time>2013-02-24T14:13:33.1Z</time>
      </trkpt>
      <trkpt lat="48.47877" lon="-3.49516">
        <ele>320</ele>
        <time>2013-02-24T14:13:35.1Z</time>
      </trkpt>
      <trkpt lat="48.47875" lon="-3.49516">
        <ele>320</ele>
        <time>2013-02-24T14:13:37.1Z</time>
      </trkpt>
      <trkpt lat="48.47873" lon="-3.49515">
        <ele>320</ele>
        <time>2013-02-24T14:13:39.1Z</time>
      </trkpt>
      <trkpt lat="48.47871" lon="-3.49515">
        <ele>320</ele>
        <time>2013-02-24T14:13:41.1Z</time>
      </trkpt>
      <trkpt lat="48.47869" lon="-3.49514">
        <ele>320</ele>
        <time>2013-02-24T14:13:43.1Z</time>
      </trkpt>
      <trkpt lat="48.47866" lon="-3.49514">
        <ele>320</ele>
        <time>2013-02-24T14:13:45.1Z</time>
      </trkpt>
      <trkpt lat="48.47864" lon="-3.49514">
        <ele>320</ele>
        <time>2013-02-24T14:13:47.1Z</time>
      </trkpt>
      <trkpt lat="48.47861" lon="-3.49514">
        <ele>320</ele>
        <time>2013-02-24T14:13:49.1Z</time>
      </trkpt>
      <trkpt lat="48.47859" lon="-3.49514">
        <ele>320</ele>
        <time>2013-02-24T14:13:52.1Z</time>
      </trkpt>
      <trkpt lat="48.47857" lon="-3.49513">
        <ele>320</ele>
        <time>2013-02-24T14:13:54.1Z</time>
      </trkpt>
      <trkpt lat="48.47854" lon="-3.49513">
        <ele>320</ele>
        <time>2013-02-24T14:13:56.1Z</time>
      </trkpt>
      <trkpt lat="48.47851" lon="-3.49513">
        <ele>320</ele>
        <time>2013-02-24T14:13:58.1Z</time>
      </trkpt>
      <trkpt lat="48.47849" lon="-3.49512">
        <ele>320</ele>
        <time>2013-02-24T14:14:00.1Z</time>
      </trkpt>
      <trkpt lat="48.47847" lon="-3.49512">
        <ele>320</ele>
        <time>2013-02-24T14:14:02.1Z</time>
      </trkpt>
      <trkpt lat="48.47844" lon="-3.49511">
        <ele>320</ele>
        <time>2013-02-24T14:14:04.1Z</time>
      </trkpt>
      <trkpt lat="48.47842" lon="-3.4951">
        <ele>320</ele>
        <time>2013-02-24T14:14:06.1Z</time>
      </trkpt>
      <trkpt lat="48.4784" lon="-3.49509">
        <ele>320</ele>
        <time>2013-02-24T14:14:08.1Z</time>
      </trkpt>
      <trkpt lat="48.47837" lon="-3.49509">
        <ele>320</ele>
        <time>2013-02-24T14:14:10.1Z</time>
      </trkpt>
      <trkpt lat="48.47835" lon="-3.49508">
        <ele>320</ele>
        <time>2013-02-24T14:14:12.1Z</time>
      </trkpt>
      <trkpt lat="48.47832" lon="-3.49508">
        <ele>320</ele>
        <time>2013-02-24T14:14:14.1Z</time>
      </trkpt>
      <trkpt lat="48.47831" lon="-3.49509">
        <ele>320</ele>
        <time>2013-02-24T14:14:16.1Z</time>
      </trkpt>
      <trkpt lat="48.47829" lon="-3.49509">
        <ele>320</ele>
        <time>2013-02-24T14:14:18.1Z</time>
      </trkpt>
      <trkpt lat="48.47826" lon="-3.49508">
        <ele>320</ele>
        <time>2013-02-24T14:14:20.1Z</time>
      </trkpt>
      <trkpt lat="48.47824" lon="-3.49508">
        <ele>320</ele>
        <time>2013-02-24T14:14:22.1Z</time>
      </trkpt>
      <trkpt lat="48.47823" lon="-3.49508">
        <ele>320</ele>
        <time>2013-02-24T14:14:24.1Z</time>
      </trkpt>
      <trkpt lat="48.4782" lon="-3.49508">
        <ele>320</ele>
        <time>2013-02-24T14:14:26.1Z</time>
      </trkpt>
      <trkpt lat="48.47819" lon="-3.49508">
        <ele>320</ele>
        <time>2013-02-24T14:14:28.1Z</time>
      </trkpt>
      <trkpt lat="48.47817" lon="-3.49508">
        <ele>320</ele>
        <time>2013-02-24T14:14:31.1Z</time>
      </trkpt>
      <trkpt lat="48.47815" lon="-3.49509">
        <ele>320</ele>
        <time>2013-02-24T14:14:33.1Z</time>
      </trkpt>
      <trkpt lat="48.47813" lon="-3.49508">
        <ele>320</ele>
        <time>2013-02-24T14:14:35.1Z</time>
      </trkpt>
      <trkpt lat="48.4781" lon="-3.49508">
        <ele>320</ele>
        <time>2013-02-24T14:14:37.1Z</time>
      </trkpt>
      <trkpt lat="48.47808" lon="-3.49508">
        <ele>320</ele>
        <time>2013-02-24T14:14:39.1Z</time>
      </trkpt>
      <trkpt lat="48.47806" lon="-3.49508">
        <ele>320</ele>
        <time>2013-02-24T14:14:41.1Z</time>
      </trkpt>
      <trkpt lat="48.47803" lon="-3.49507">
        <ele>320</ele>
        <time>2013-02-24T14:14:43.1Z</time>
      </trkpt>
      <trkpt lat="48.478" lon="-3.49506">
        <ele>320</ele>
        <time>2013-02-24T14:14:45.1Z</time>
      </trkpt>
      <trkpt lat="48.47798" lon="-3.49506">
        <ele>320</ele>
        <time>2013-02-24T14:14:47.1Z</time>
      </trkpt>
      <trkpt lat="48.47796" lon="-3.49506">
        <ele>320</ele>
        <time>2013-02-24T14:14:49.1Z</time>
      </trkpt>
      <trkpt lat="48.47794" lon="-3.49506">
        <ele>320</ele>
        <time>2013-02-24T14:14:51.1Z</time>
      </trkpt>
      <trkpt lat="48.47793" lon="-3.49506">
        <ele>320</ele>
        <time>2013-02-24T14:14:53.1Z</time>
      </trkpt>
      <trkpt lat="48.47791" lon="-3.49505">
        <ele>320</ele>
        <time>2013-02-24T14:14:55.1Z</time>
      </trkpt>
      <trkpt lat="48.47789" lon="-3.49506">
        <ele>320</ele>
        <time>2013-02-24T14:14:57.1Z</time>
      </trkpt>
      <trkpt lat="48.47786" lon="-3.49506">
        <ele>320</ele>
        <time>2013-02-24T14:14:59.1Z</time>
      </trkpt>
      <trkpt lat="48.47783" lon="-3.49505">
        <ele>320</ele>
        <time>2013-02-24T14:15:01.1Z</time>
      </trkpt>
      <trkpt lat="48.47781" lon="-3.49505">
        <ele>320</ele>
        <time>2013-02-24T14:15:04.1Z</time>
      </trkpt>
      <trkpt lat="48.47778" lon="-3.49505">
        <ele>320</ele>
        <time>2013-02-24T14:15:06.1Z</time>
      </trkpt>
      <trkpt lat="48.47776" lon="-3.49504">
        <ele>320</ele>
        <time>2013-02-24T14:15:08.1Z</time>
      </trkpt>
      <trkpt lat="48.47773" lon="-3.49503">
        <ele>320</ele>
        <time>2013-02-24T14:15:10.1Z</time>
      </trkpt>
      <trkpt lat="48.4777" lon="-3.49502">
        <ele>320</ele>
        <time>2013-02-24T14:15:12.1Z</time>
      </trkpt>
      <trkpt lat="48.47768" lon="-3.49502">
        <ele>320</ele>
        <time>2013-02-24T14:15:14.1Z</time>
      </trkpt>
      <trkpt lat="48.47765" lon="-3.49501">
        <ele>320</ele>
        <time>2013-02-24T14:15:16.1Z</time>
      </trkpt>
      <trkpt lat="48.47763" lon="-3.495">
        <ele>320</ele>
        <time>2013-02-24T14:15:18.1Z</time>
      </trkpt>
      <trkpt lat="48.47761" lon="-3.495">
        <ele>320</ele>
        <time>2013-02-24T14:15:20.1Z</time>
      </trkpt>
      <trkpt lat="48.47758" lon="-3.495">
        <ele>320</ele>
        <time>2013-02-24T14:15:22.1Z</time>
      </trkpt>
      <trkpt lat="48.47756" lon="-3.495">
        <ele>320</ele>
        <time>2013-02-24T14:15:24.1Z</time>
      </trkpt>
      <trkpt lat="48.47754" lon="-3.49499">
        <ele>320</ele>
        <time>2013-02-24T14:15:26.1Z</time>
      </trkpt>
      <trkpt lat="48.47752" lon="-3.49499">
        <ele>320</ele>
        <time>2013-02-24T14:15:28.1Z</time>
      </trkpt>
      <trkpt lat="48.47749" lon="-3.49498">
        <ele>319</ele>
        <time>2013-02-24T14:15:30.1Z</time>
      </trkpt>
      <trkpt lat="48.47746" lon="-3.49498">
        <ele>319</ele>
        <time>2013-02-24T14:15:32.1Z</time>
      </trkpt>
      <trkpt lat="48.47743" lon="-3.49497">
        <ele>319</ele>
        <time>2013-02-24T14:15:34.1Z</time>
      </trkpt>
      <trkpt lat="48.47741" lon="-3.49497">
        <ele>319</ele>
        <time>2013-02-24T14:15:37.1Z</time>
      </trkpt>
      <trkpt lat="48.47739" lon="-3.49496">
        <ele>319</ele>
        <time>2013-02-24T14:15:39.1Z</time>
      </trkpt>
      <trkpt lat="48.47736" lon="-3.49496">
        <ele>319</ele>
        <time>2013-02-24T14:15:41.1Z</time>
      </trkpt>
      <trkpt lat="48.47734" lon="-3.49496">
        <ele>319</ele>
        <time>2013-02-24T14:15:43.1Z</time>
      </trkpt>
      <trkpt lat="48.47732" lon="-3.49495">
        <ele>319</ele>
        <time>2013-02-24T14:15:45.1Z</time>
      </trkpt>
      <trkpt lat="48.47729" lon="-3.49495">
        <ele>320</ele>
        <time>2013-02-24T14:15:47.1Z</time>
      </trkpt>
      <trkpt lat="48.47727" lon="-3.49494">
        <ele>319</ele>
        <time>2013-02-24T14:15:49.1Z</time>
      </trkpt>
      <trkpt lat="48.47725" lon="-3.49494">
        <ele>319</ele>
        <time>2013-02-24T14:15:51.1Z</time>
      </trkpt>
      <trkpt lat="48.47722" lon="-3.49493">
        <ele>319</ele>
        <time>2013-02-24T14:15:53.1Z</time>
      </trkpt>
      <trkpt lat="48.4772" lon="-3.49492">
        <ele>319</ele>
        <time>2013-02-24T14:15:55.1Z</time>
      </trkpt>
      <trkpt lat="48.47718" lon="-3.49492">
        <ele>319</ele>
        <time>2013-02-24T14:15:57.1Z</time>
      </trkpt>
      <trkpt lat="48.47715" lon="-3.49491">
        <ele>319</ele>
        <time>2013-02-24T14:15:59.1Z</time>
      </trkpt>
      <trkpt lat="48.47712" lon="-3.49491">
        <ele>319</ele>
        <time>2013-02-24T14:16:01.1Z</time>
      </trkpt>
      <trkpt lat="48.47709" lon="-3.4949">
        <ele>319</ele>
        <time>2013-02-24T14:16:04.1Z</time>
      </trkpt>
      <trkpt lat="48.47707" lon="-3.49489">
        <ele>319</ele>
        <time>2013-02-24T14:16:06.1Z</time>
      </trkpt>
      <trkpt lat="48.47704" lon="-3.49489">
        <ele>319</ele>
        <time>2013-02-24T14:16:08.1Z</time>
      </trkpt>
      <trkpt lat="48.47702" lon="-3.49488">
        <ele>318</ele>
        <time>2013-02-24T14:16:10.1Z</time>
      </trkpt>
      <trkpt lat="48.47699" lon="-3.49488">
        <ele>318</ele>
        <time>2013-02-24T14:16:12.1Z</time>
      </trkpt>
      <trkpt lat="48.47697" lon="-3.49488">
        <ele>318</ele>
        <time>2013-02-24T14:16:14.1Z</time>
      </trkpt>
      <trkpt lat="48.47695" lon="-3.49487">
        <ele>318</ele>
        <time>2013-02-24T14:16:16.1Z</time>
      </trkpt>
      <trkpt lat="48.47691" lon="-3.49486">
        <ele>318</ele>
        <time>2013-02-24T14:16:18.1Z</time>
      </trkpt>
      <trkpt lat="48.47689" lon="-3.49485">
        <ele>318</ele>
        <time>2013-02-24T14:16:20.1Z</time>
      </trkpt>
      <trkpt lat="48.47687" lon="-3.49485">
        <ele>318</ele>
        <time>2013-02-24T14:16:23.1Z</time>
      </trkpt>
      <trkpt lat="48.47684" lon="-3.49485">
        <ele>319</ele>
        <time>2013-02-24T14:16:25.1Z</time>
      </trkpt>
      <trkpt lat="48.47682" lon="-3.49485">
        <ele>319</ele>
        <time>2013-02-24T14:16:27.1Z</time>
      </trkpt>
      <trkpt lat="48.4768" lon="-3.49485">
        <ele>318</ele>
        <time>2013-02-24T14:16:29.1Z</time>
      </trkpt>
      <trkpt lat="48.47678" lon="-3.49485">
        <ele>318</ele>
        <time>2013-02-24T14:16:31.1Z</time>
      </trkpt>
      <trkpt lat="48.47676" lon="-3.49485">
        <ele>319</ele>
        <time>2013-02-24T14:16:33.1Z</time>
      </trkpt>
      <trkpt lat="48.47674" lon="-3.49485">
        <ele>319</ele>
        <time>2013-02-24T14:16:35.1Z</time>
      </trkpt>
      <trkpt lat="48.47672" lon="-3.49485">
        <ele>319</ele>
        <time>2013-02-24T14:16:37.1Z</time>
      </trkpt>
      <trkpt lat="48.47669" lon="-3.49485">
        <ele>319</ele>
        <time>2013-02-24T14:16:39.1Z</time>
      </trkpt>
      <trkpt lat="48.47667" lon="-3.49485">
        <ele>319</ele>
        <time>2013-02-24T14:16:41.1Z</time>
      </trkpt>
      <trkpt lat="48.47665" lon="-3.49485">
        <ele>319</ele>
        <time>2013-02-24T14:16:43.1Z</time>
      </trkpt>
      <trkpt lat="48.47662" lon="-3.49484">
        <ele>319</ele>
        <time>2013-02-24T14:16:45.1Z</time>
      </trkpt>
      <trkpt lat="48.4766" lon="-3.49484">
        <ele>318</ele>
        <time>2013-02-24T14:16:47.1Z</time>
      </trkpt>
      <trkpt lat="48.47658" lon="-3.49484">
        <ele>318</ele>
        <time>2013-02-24T14:16:50.1Z</time>
      </trkpt>
      <trkpt lat="48.47656" lon="-3.49483">
        <ele>318</ele>
        <time>2013-02-24T14:16:52.1Z</time>
      </trkpt>
      <trkpt lat="48.47654" lon="-3.49483">
        <ele>319</ele>
        <time>2013-02-24T14:16:54.1Z</time>
      </trkpt>
      <trkpt lat="48.47651" lon="-3.49482">
        <ele>319</ele>
        <time>2013-02-24T14:16:56.1Z</time>
      </trkpt>
      <trkpt lat="48.47649" lon="-3.49482">
        <ele>319</ele>
        <time>2013-02-24T14:16:58.1Z</time>
      </trkpt>
      <trkpt lat="48.47646" lon="-3.49481">
        <ele>319</ele>
        <time>2013-02-24T14:17:00.1Z</time>
      </trkpt>
      <trkpt lat="48.47644" lon="-3.4948">
        <ele>319</ele>
        <time>2013-02-24T14:17:02.1Z</time>
      </trkpt>
      <trkpt lat="48.47641" lon="-3.49479">
        <ele>319</ele>
        <time>2013-02-24T14:17:04.1Z</time>
      </trkpt>
      <trkpt lat="48.47639" lon="-3.49479">
        <ele>318</ele>
        <time>2013-02-24T14:17:06.1Z</time>
      </trkpt>
      <trkpt lat="48.47637" lon="-3.49478">
        <ele>318</ele>
        <time>2013-02-24T14:17:08.1Z</time>
      </trkpt>
      <trkpt lat="48.47635" lon="-3.49477">
        <ele>318</ele>
        <time>2013-02-24T14:17:10.1Z</time>
      </trkpt>
      <trkpt lat="48.47633" lon="-3.49477">
        <ele>318</ele>
        <time>2013-02-24T14:17:12.1Z</time>
      </trkpt>
      <trkpt lat="48.4763" lon="-3.49477">
        <ele>318</ele>
        <time>2013-02-24T14:17:14.1Z</time>
      </trkpt>
      <trkpt lat="48.47628" lon="-3.49476">
        <ele>318</ele>
        <time>2013-02-24T14:17:16.1Z</time>
      </trkpt>
      <trkpt lat="48.47626" lon="-3.49476">
        <ele>318</ele>
        <time>2013-02-24T14:17:18.1Z</time>
      </trkpt>
      <trkpt lat="48.47625" lon="-3.49476">
        <ele>318</ele>
        <time>2013-02-24T14:17:20.1Z</time>
      </trkpt>
      <trkpt lat="48.47622" lon="-3.49476">
        <ele>318</ele>
        <time>2013-02-24T14:17:22.1Z</time>
      </trkpt>
      <trkpt lat="48.47619" lon="-3.49475">
        <ele>318</ele>
        <time>2013-02-24T14:17:24.1Z</time>
      </trkpt>
      <trkpt lat="48.47617" lon="-3.49474">
        <ele>318</ele>
        <time>2013-02-24T14:17:27.1Z</time>
      </trkpt>
      <trkpt lat="48.47615" lon="-3.49473">
        <ele>318</ele>
        <time>2013-02-24T14:17:29.1Z</time>
      </trkpt>
      <trkpt lat="48.47613" lon="-3.49472">
        <ele>318</ele>
        <time>2013-02-24T14:17:31.1Z</time>
      </trkpt>
      <trkpt lat="48.4761" lon="-3.49472">
        <ele>318</ele>
        <time>2013-02-24T14:17:33.1Z</time>
      </trkpt>
      <trkpt lat="48.47608" lon="-3.49472">
        <ele>318</ele>
        <time>2013-02-24T14:17:35.1Z</time>
      </trkpt>
      <trkpt lat="48.47606" lon="-3.49471">
        <ele>318</ele>
        <time>2013-02-24T14:17:37.1Z</time>
      </trkpt>
      <trkpt lat="48.47603" lon="-3.49469">
        <ele>318</ele>
        <time>2013-02-24T14:17:39.1Z</time>
      </trkpt>
      <trkpt lat="48.47601" lon="-3.49469">
        <ele>318</ele>
        <time>2013-02-24T14:17:42.1Z</time>
      </trkpt>
      <trkpt lat="48.47599" lon="-3.49468">
        <ele>318</ele>
        <time>2013-02-24T14:17:44.1Z</time>
      </trkpt>
      <trkpt lat="48.47597" lon="-3.49468">
        <ele>319</ele>
        <time>2013-02-24T14:17:46.1Z</time>
      </trkpt>
      <trkpt lat="48.47594" lon="-3.49468">
        <ele>318</ele>
        <time>2013-02-24T14:17:48.1Z</time>
      </trkpt>
      <trkpt lat="48.47592" lon="-3.49467">
        <ele>319</ele>
        <time>2013-02-24T14:17:50.1Z</time>
      </trkpt>
      <trkpt lat="48.4759" lon="-3.49468">
        <ele>319</ele>
        <time>2013-02-24T14:17:52.1Z</time>
      </trkpt>
      <trkpt lat="48.47588" lon="-3.49468">
        <ele>318</ele>
        <time>2013-02-24T14:17:54.1Z</time>
      </trkpt>
      <trkpt lat="48.47588" lon="-3.49469">
        <ele>318</ele>
        <time>2013-02-24T14:17:56.1Z</time>
      </trkpt>
      <trkpt lat="48.47587" lon="-3.49469">
        <ele>318</ele>
        <time>2013-02-24T14:17:58.1Z</time>
      </trkpt>
      <trkpt lat="48.47586" lon="-3.49471">
        <ele>318</ele>
        <time>2013-02-24T14:18:00.1Z</time>
      </trkpt>
      <trkpt lat="48.47584" lon="-3.49473">
        <ele>318</ele>
        <time>2013-02-24T14:18:02.1Z</time>
      </trkpt>
      <trkpt lat="48.47583" lon="-3.49476">
        <ele>318</ele>
        <time>2013-02-24T14:18:05.1Z</time>
      </trkpt>
      <trkpt lat="48.47581" lon="-3.49478">
        <ele>318</ele>
        <time>2013-02-24T14:18:07.1Z</time>
      </trkpt>
      <trkpt lat="48.47579" lon="-3.49481">
        <ele>318</ele>
        <time>2013-02-24T14:18:09.1Z</time>
      </trkpt>
      <trkpt lat="48.47578" lon="-3.49484">
        <ele>317</ele>
        <time>2013-02-24T14:18:11.1Z</time>
      </trkpt>
      <trkpt lat="48.47577" lon="-3.49487">
        <ele>317</ele>
        <time>2013-02-24T14:18:13.1Z</time>
      </trkpt>
      <trkpt lat="48.47575" lon="-3.4949">
        <ele>317</ele>
        <time>2013-02-24T14:18:15.1Z</time>
      </trkpt>
      <trkpt lat="48.47574" lon="-3.49493">
        <ele>317</ele>
        <time>2013-02-24T14:18:17.1Z</time>
      </trkpt>
      <trkpt lat="48.47573" lon="-3.49496">
        <ele>317</ele>
        <time>2013-02-24T14:18:19.1Z</time>
      </trkpt>
      <trkpt lat="48.47572" lon="-3.49499">
        <ele>317</ele>
        <time>2013-02-24T14:18:21.1Z</time>
      </trkpt>
      <trkpt lat="48.47571" lon="-3.49502">
        <ele>317</ele>
        <time>2013-02-24T14:18:23.1Z</time>
      </trkpt>
      <trkpt lat="48.4757" lon="-3.49505">
        <ele>317</ele>
        <time>2013-02-24T14:18:25.1Z</time>
      </trkpt>
      <trkpt lat="48.47569" lon="-3.49508">
        <ele>317</ele>
        <time>2013-02-24T14:18:27.1Z</time>
      </trkpt>
      <trkpt lat="48.47568" lon="-3.49513">
        <ele>317</ele>
        <time>2013-02-24T14:18:29.1Z</time>
      </trkpt>
      <trkpt lat="48.47568" lon="-3.49517">
        <ele>316</ele>
        <time>2013-02-24T14:18:31.1Z</time>
      </trkpt>
      <trkpt lat="48.47567" lon="-3.4952">
        <ele>317</ele>
        <time>2013-02-24T14:18:34.1Z</time>
      </trkpt>
      <trkpt lat="48.47567" lon="-3.49524">
        <ele>316</ele>
        <time>2013-02-24T14:18:36.1Z</time>
      </trkpt>
      <trkpt lat="48.47566" lon="-3.49527">
        <ele>316</ele>
        <time>2013-02-24T14:18:38.1Z</time>
      </trkpt>
      <trkpt lat="48.47566" lon="-3.49531">
        <ele>316</ele>
        <time>2013-02-24T14:18:40.1Z</time>
      </trkpt>
      <trkpt lat="48.47566" lon="-3.49534">
        <ele>316</ele>
        <time>2013-02-24T14:18:42.1Z</time>
      </trkpt>
      <trkpt lat="48.47566" lon="-3.49538">
        <ele>317</ele>
        <time>2013-02-24T14:18:44.1Z</time>
      </trkpt>
      <trkpt lat="48.47566" lon="-3.49541">
        <ele>317</ele>
        <time>2013-02-24T14:18:46.1Z</time>
      </trkpt>
      <trkpt lat="48.47567" lon="-3.49546">
        <ele>317</ele>
        <time>2013-02-24T14:18:48.1Z</time>
      </trkpt>
      <trkpt lat="48.47567" lon="-3.49549">
        <ele>317</ele>
        <time>2013-02-24T14:18:51.1Z</time>
      </trkpt>
      <trkpt lat="48.47567" lon="-3.49552">
        <ele>317</ele>
        <time>2013-02-24T14:18:53.1Z</time>
      </trkpt>
      <trkpt lat="48.47567" lon="-3.49555">
        <ele>317</ele>
        <time>2013-02-24T14:18:55.1Z</time>
      </trkpt>
      <trkpt lat="48.47568" lon="-3.49558">
        <ele>317</ele>
        <time>2013-02-24T14:18:57.1Z</time>
      </trkpt>
      <trkpt lat="48.47568" lon="-3.49562">
        <ele>317</ele>
        <time>2013-02-24T14:18:59.1Z</time>
      </trkpt>
      <trkpt lat="48.47568" lon="-3.49565">
        <ele>316</ele>
        <time>2013-02-24T14:19:01.1Z</time>
      </trkpt>
      <trkpt lat="48.47568" lon="-3.49568">
        <ele>317</ele>
        <time>2013-02-24T14:19:03.1Z</time>
      </trkpt>
      <trkpt lat="48.47568" lon="-3.49571">
        <ele>317</ele>
        <time>2013-02-24T14:19:05.1Z</time>
      </trkpt>
      <trkpt lat="48.47568" lon="-3.49575">
        <ele>317</ele>
        <time>2013-02-24T14:19:07.1Z</time>
      </trkpt>
      <trkpt lat="48.47568" lon="-3.49578">
        <ele>317</ele>
        <time>2013-02-24T14:19:09.1Z</time>
      </trkpt>
      <trkpt lat="48.47567" lon="-3.49581">
        <ele>317</ele>
        <time>2013-02-24T14:19:11.1Z</time>
      </trkpt>
      <trkpt lat="48.47565" lon="-3.49583">
        <ele>317</ele>
        <time>2013-02-24T14:19:13.1Z</time>
      </trkpt>
      <trkpt lat="48.47563" lon="-3.49584">
        <ele>317</ele>
        <time>2013-02-24T14:19:16.1Z</time>
      </trkpt>
      <trkpt lat="48.47561" lon="-3.49585">
        <ele>317</ele>
        <time>2013-02-24T14:19:18.1Z</time>
      </trkpt>
      <trkpt lat="48.47559" lon="-3.49585">
        <ele>317</ele>
        <time>2013-02-24T14:19:20.1Z</time>
      </trkpt>
      <trkpt lat="48.47557" lon="-3.49586">
        <ele>317</ele>
        <time>2013-02-24T14:19:22.1Z</time>
      </trkpt>
      <trkpt lat="48.47555" lon="-3.49587">
        <ele>317</ele>
        <time>2013-02-24T14:19:24.1Z</time>
      </trkpt>
      <trkpt lat="48.47553" lon="-3.49587">
        <ele>317</ele>
        <time>2013-02-24T14:19:26.1Z</time>
      </trkpt>
      <trkpt lat="48.47551" lon="-3.49588">
        <ele>317</ele>
        <time>2013-02-24T14:19:28.1Z</time>
      </trkpt>
      <trkpt lat="48.47549" lon="-3.49589">
        <ele>317</ele>
        <time>2013-02-24T14:19:30.1Z</time>
      </trkpt>
      <trkpt lat="48.47548" lon="-3.49589">
        <ele>317</ele>
        <time>2013-02-24T14:19:32.1Z</time>
      </trkpt>
      <trkpt lat="48.47546" lon="-3.49589">
        <ele>317</ele>
        <time>2013-02-24T14:19:34.1Z</time>
      </trkpt>
      <trkpt lat="48.47545" lon="-3.4959">
        <ele>317</ele>
        <time>2013-02-24T14:19:36.1Z</time>
      </trkpt>
      <trkpt lat="48.47543" lon="-3.49589">
        <ele>317</ele>
        <time>2013-02-24T14:19:38.1Z</time>
      </trkpt>
      <trkpt lat="48.47541" lon="-3.49589">
        <ele>317</ele>
        <time>2013-02-24T14:19:40.1Z</time>
      </trkpt>
      <trkpt lat="48.47539" lon="-3.49589">
        <ele>317</ele>
        <time>2013-02-24T14:19:42.1Z</time>
      </trkpt>
      <trkpt lat="48.47537" lon="-3.49588">
        <ele>317</ele>
        <time>2013-02-24T14:19:44.1Z</time>
      </trkpt>
      <trkpt lat="48.47536" lon="-3.49588">
        <ele>317</ele>
        <time>2013-02-24T14:19:46.1Z</time>
      </trkpt>
      <trkpt lat="48.47534" lon="-3.49587">
        <ele>317</ele>
        <time>2013-02-24T14:19:48.1Z</time>
      </trkpt>
      <trkpt lat="48.47533" lon="-3.49586">
        <ele>317</ele>
        <time>2013-02-24T14:19:51.1Z</time>
      </trkpt>
      <trkpt lat="48.47532" lon="-3.49586">
        <ele>317</ele>
        <time>2013-02-24T14:19:53.1Z</time>
      </trkpt>
      <trkpt lat="48.4753" lon="-3.49585">
        <ele>317</ele>
        <time>2013-02-24T14:19:55.1Z</time>
      </trkpt>
      <trkpt lat="48.47528" lon="-3.49585">
        <ele>316</ele>
        <time>2013-02-24T14:19:57.1Z</time>
      </trkpt>
      <trkpt lat="48.47526" lon="-3.49584">
        <ele>317</ele>
        <time>2013-02-24T14:19:59.1Z</time>
      </trkpt>
      <trkpt lat="48.47524" lon="-3.49584">
        <ele>317</ele>
        <time>2013-02-24T14:20:01.1Z</time>
      </trkpt>
      <trkpt lat="48.47522" lon="-3.49583">
        <ele>317</ele>
        <time>2013-02-24T14:20:03.1Z</time>
      </trkpt>
      <trkpt lat="48.4752" lon="-3.49583">
        <ele>317</ele>
        <time>2013-02-24T14:20:05.1Z</time>
      </trkpt>
      <trkpt lat="48.47519" lon="-3.49582">
        <ele>317</ele>
        <time>2013-02-24T14:20:07.1Z</time>
      </trkpt>
      <trkpt lat="48.47517" lon="-3.49582">
        <ele>317</ele>
        <time>2013-02-24T14:20:10.1Z</time>
      </trkpt>
      <trkpt lat="48.47515" lon="-3.49581">
        <ele>317</ele>
        <time>2013-02-24T14:20:12.1Z</time>
      </trkpt>
      <trkpt lat="48.47513" lon="-3.49581">
        <ele>317</ele>
        <time>2013-02-24T14:20:14.1Z</time>
      </trkpt>
      <trkpt lat="48.47511" lon="-3.49581">
        <ele>316</ele>
        <time>2013-02-24T14:20:16.1Z</time>
      </trkpt>
      <trkpt lat="48.47509" lon="-3.49581">
        <ele>316</ele>
        <time>2013-02-24T14:20:18.1Z</time>
      </trkpt>
      <trkpt lat="48.47507" lon="-3.49581">
        <ele>316</ele>
        <time>2013-02-24T14:20:20.1Z</time>
      </trkpt>
      <trkpt lat="48.47505" lon="-3.49581">
        <ele>316</ele>
        <time>2013-02-24T14:20:22.1Z</time>
      </trkpt>
      <trkpt lat="48.47504" lon="-3.4958">
        <ele>316</ele>
        <time>2013-02-24T14:20:24.1Z</time>
      </trkpt>
      <trkpt lat="48.47503" lon="-3.4958">
        <ele>316</ele>
        <time>2013-02-24T14:20:26.1Z</time>
      </trkpt>
      <trkpt lat="48.47501" lon="-3.4958">
        <ele>316</ele>
        <time>2013-02-24T14:20:28.1Z</time>
      </trkpt>
      <trkpt lat="48.47498" lon="-3.49579">
        <ele>316</ele>
        <time>2013-02-24T14:20:30.1Z</time>
      </trkpt>
      <trkpt lat="48.47497" lon="-3.4958">
        <ele>316</ele>
        <time>2013-02-24T14:20:32.1Z</time>
      </trkpt>
      <trkpt lat="48.47495" lon="-3.4958">
        <ele>316</ele>
        <time>2013-02-24T14:20:34.1Z</time>
      </trkpt>
      <trkpt lat="48.47493" lon="-3.4958">
        <ele>316</ele>
        <time>2013-02-24T14:20:36.1Z</time>
      </trkpt>
      <trkpt lat="48.4749" lon="-3.49579">
        <ele>316</ele>
        <time>2013-02-24T14:20:38.1Z</time>
      </trkpt>
      <trkpt lat="48.47487" lon="-3.49579">
        <ele>316</ele>
        <time>2013-02-24T14:20:40.1Z</time>
      </trkpt>
      <trkpt lat="48.47485" lon="-3.49579">
        <ele>316</ele>
        <time>2013-02-24T14:20:43.1Z</time>
      </trkpt>
      <trkpt lat="48.47482" lon="-3.49578">
        <ele>316</ele>
        <time>2013-02-24T14:20:45.1Z</time>
      </trkpt>
      <trkpt lat="48.4748" lon="-3.49577">
        <ele>316</ele>
        <time>2013-02-24T14:20:47.1Z</time>
      </trkpt>
      <trkpt lat="48.47477" lon="-3.49576">
        <ele>316</ele>
        <time>2013-02-24T14:20:49.1Z</time>
      </trkpt>
      <trkpt lat="48.47475" lon="-3.49576">
        <ele>316</ele>
        <time>2013-02-24T14:20:51.1Z</time>
      </trkpt>
      <trkpt lat="48.47472" lon="-3.49575">
        <ele>316</ele>
        <time>2013-02-24T14:20:53.1Z</time>
      </trkpt>
      <trkpt lat="48.4747" lon="-3.49575">
        <ele>316</ele>
        <time>2013-02-24T14:20:55.1Z</time>
      </trkpt>
      <trkpt lat="48.47469" lon="-3.49574">
        <ele>315</ele>
        <time>2013-02-24T14:20:57.1Z</time>
      </trkpt>
      <trkpt lat="48.47466" lon="-3.49575">
        <ele>316</ele>
        <time>2013-02-24T14:20:59.1Z</time>
      </trkpt>
      <trkpt lat="48.47464" lon="-3.49575">
        <ele>315</ele>
        <time>2013-02-24T14:21:01.1Z</time>
      </trkpt>
      <trkpt lat="48.47461" lon="-3.49575">
        <ele>315</ele>
        <time>2013-02-24T14:21:03.1Z</time>
      </trkpt>
      <trkpt lat="48.47459" lon="-3.49575">
        <ele>315</ele>
        <time>2013-02-24T14:21:05.1Z</time>
      </trkpt>
      <trkpt lat="48.47457" lon="-3.49576">
        <ele>315</ele>
        <time>2013-02-24T14:21:07.1Z</time>
      </trkpt>
      <trkpt lat="48.47455" lon="-3.49576">
        <ele>315</ele>
        <time>2013-02-24T14:21:09.1Z</time>
      </trkpt>
      <trkpt lat="48.47453" lon="-3.49576">
        <ele>315</ele>
        <time>2013-02-24T14:21:11.1Z</time>
      </trkpt>
      <trkpt lat="48.47449" lon="-3.49577">
        <ele>315</ele>
        <time>2013-02-24T14:21:13.1Z</time>
      </trkpt>
      <trkpt lat="48.47447" lon="-3.49577">
        <ele>315</ele>
        <time>2013-02-24T14:21:15.1Z</time>
      </trkpt>
      <trkpt lat="48.47445" lon="-3.49577">
        <ele>315</ele>
        <time>2013-02-24T14:21:17.1Z</time>
      </trkpt>
      <trkpt lat="48.47443" lon="-3.49578">
        <ele>314</ele>
        <time>2013-02-24T14:21:20.1Z</time>
      </trkpt>
      <trkpt lat="48.47442" lon="-3.49578">
        <ele>314</ele>
        <time>2013-02-24T14:21:22.1Z</time>
      </trkpt>
      <trkpt lat="48.4744" lon="-3.49578">
        <ele>314</ele>
        <time>2013-02-24T14:21:24.1Z</time>
      </trkpt>
      <trkpt lat="48.47439" lon="-3.49578">
        <ele>314</ele>
        <time>2013-02-24T14:21:26.1Z</time>
      </trkpt>
      <trkpt lat="48.47437" lon="-3.49578">
        <ele>314</ele>
        <time>2013-02-24T14:21:28.1Z</time>
      </trkpt>
      <trkpt lat="48.47435" lon="-3.49579">
        <ele>313</ele>
        <time>2013-02-24T14:21:30.1Z</time>
      </trkpt>
      <trkpt lat="48.47434" lon="-3.4958">
        <ele>313</ele>
        <time>2013-02-24T14:21:32.1Z</time>
      </trkpt>
      <trkpt lat="48.47432" lon="-3.4958">
        <ele>314</ele>
        <time>2013-02-24T14:21:34.1Z</time>
      </trkpt>
      <trkpt lat="48.4743" lon="-3.49582">
        <ele>314</ele>
        <time>2013-02-24T14:21:37.1Z</time>
      </trkpt>
      <trkpt lat="48.4743" lon="-3.49583">
        <ele>314</ele>
        <time>2013-02-24T14:21:39.1Z</time>
      </trkpt>
      <trkpt lat="48.47428" lon="-3.49585">
        <ele>313</ele>
        <time>2013-02-24T14:21:41.1Z</time>
      </trkpt>
      <trkpt lat="48.47427" lon="-3.49585">
        <ele>313</ele>
        <time>2013-02-24T14:21:43.1Z</time>
      </trkpt>
      <trkpt lat="48.47425" lon="-3.49587">
        <ele>314</ele>
        <time>2013-02-24T14:21:45.1Z</time>
      </trkpt>
      <trkpt lat="48.47424" lon="-3.49588">
        <ele>314</ele>
        <time>2013-02-24T14:21:47.1Z</time>
      </trkpt>
      <trkpt lat="48.47424" lon="-3.49591">
        <ele>314</ele>
        <time>2013-02-24T14:21:49.1Z</time>
      </trkpt>
      <trkpt lat="48.47425" lon="-3.49592">
        <ele>314</ele>
        <time>2013-02-24T14:21:51.1Z</time>
      </trkpt>
      <trkpt lat="48.47425" lon="-3.49594">
        <ele>313</ele>
        <time>2013-02-24T14:21:54.1Z</time>
      </trkpt>
      <trkpt lat="48.47425" lon="-3.49596">
        <ele>313</ele>
        <time>2013-02-24T14:21:56.1Z</time>
      </trkpt>
      <trkpt lat="48.47426" lon="-3.49598">
        <ele>313</ele>
        <time>2013-02-24T14:21:58.1Z</time>
      </trkpt>
      <trkpt lat="48.47426" lon="-3.496">
        <ele>313</ele>
        <time>2013-02-24T14:22:00.1Z</time>
      </trkpt>
      <trkpt lat="48.47427" lon="-3.49602">
        <ele>313</ele>
        <time>2013-02-24T14:22:02.1Z</time>
      </trkpt>
      <trkpt lat="48.47427" lon="-3.49605">
        <ele>313</ele>
        <time>2013-02-24T14:22:04.1Z</time>
      </trkpt>
      <trkpt lat="48.47427" lon="-3.49606">
        <ele>312</ele>
        <time>2013-02-24T14:22:06.1Z</time>
      </trkpt>
      <trkpt lat="48.47426" lon="-3.49608">
        <ele>312</ele>
        <time>2013-02-24T14:22:09.1Z</time>
      </trkpt>
      <trkpt lat="48.47425" lon="-3.49609">
        <ele>312</ele>
        <time>2013-02-24T14:22:11.1Z</time>
      </trkpt>
      <trkpt lat="48.47424" lon="-3.49609">
        <ele>312</ele>
        <time>2013-02-24T14:22:13.1Z</time>
      </trkpt>
      <trkpt lat="48.47423" lon="-3.49609">
        <ele>312</ele>
        <time>2013-02-24T14:22:15.1Z</time>
      </trkpt>
      <trkpt lat="48.47422" lon="-3.49608">
        <ele>313</ele>
        <time>2013-02-24T14:22:17.1Z</time>
      </trkpt>
      <trkpt lat="48.47421" lon="-3.49608">
        <ele>313</ele>
        <time>2013-02-24T14:22:19.1Z</time>
      </trkpt>
      <trkpt lat="48.4742" lon="-3.49607">
        <ele>313</ele>
        <time>2013-02-24T14:22:21.1Z</time>
      </trkpt>
      <trkpt lat="48.4742" lon="-3.49606">
        <ele>313</ele>
        <time>2013-02-24T14:22:23.1Z</time>
      </trkpt>
      <trkpt lat="48.4742" lon="-3.49606">
        <ele>313</ele>
        <time>2013-02-24T14:22:25.1Z</time>
      </trkpt>
      <trkpt lat="48.4742" lon="-3.49606">
        <ele>313</ele>
        <time>2013-02-24T14:22:27.1Z</time>
      </trkpt>
      <trkpt lat="48.47419" lon="-3.49607">
        <ele>313</ele>
        <time>2013-02-24T14:22:29.1Z</time>
      </trkpt>
      <trkpt lat="48.47419" lon="-3.49607">
        <ele>313</ele>
        <time>2013-02-24T14:22:31.1Z</time>
      </trkpt>
      <trkpt lat="48.47419" lon="-3.49607">
        <ele>313</ele>
        <time>2013-02-24T14:22:33.1Z</time>
      </trkpt>
      <trkpt lat="48.4742" lon="-3.49606">
        <ele>313</ele>
        <time>2013-02-24T14:22:35.1Z</time>
      </trkpt>
      <trkpt lat="48.47421" lon="-3.49607">
        <ele>313</ele>
        <time>2013-02-24T14:22:37.1Z</time>
      </trkpt>
      <trkpt lat="48.47421" lon="-3.49607">
        <ele>313</ele>
        <time>2013-02-24T14:22:39.1Z</time>
      </trkpt>
      <trkpt lat="48.47421" lon="-3.49608">
        <ele>313</ele>
        <time>2013-02-24T14:22:41.1Z</time>
      </trkpt>
      <trkpt lat="48.47421" lon="-3.49608">
        <ele>313</ele>
        <time>2013-02-24T14:22:43.1Z</time>
      </trkpt>
      <trkpt lat="48.47421" lon="-3.49608">
        <ele>313</ele>
        <time>2013-02-24T14:22:45.1Z</time>
      </trkpt>
      <trkpt lat="48.47421" lon="-3.49608">
        <ele>313</ele>
        <time>2013-02-24T14:22:48.1Z</time>
      </trkpt>
      <trkpt lat="48.4742" lon="-3.49608">
        <ele>313</ele>
        <time>2013-02-24T14:22:50.1Z</time>
      </trkpt>
      <trkpt lat="48.4742" lon="-3.49609">
        <ele>313</ele>
        <time>2013-02-24T14:22:52.1Z</time>
      </trkpt>
      <trkpt lat="48.4742" lon="-3.49609">
        <ele>313</ele>
        <time>2013-02-24T14:22:54.1Z</time>
      </trkpt>
      <trkpt lat="48.47419" lon="-3.49609">
        <ele>313</ele>
        <time>2013-02-24T14:22:56.1Z</time>
      </trkpt>
      <trkpt lat="48.4742" lon="-3.49609">
        <ele>313</ele>
        <time>2013-02-24T14:22:58.1Z</time>
      </trkpt>
      <trkpt lat="48.4742" lon="-3.49609">
        <ele>313</ele>
        <time>2013-02-24T14:23:00.1Z</time>
      </trkpt>
      <trkpt lat="48.4742" lon="-3.49609">
        <ele>313</ele>
        <time>2013-02-24T14:23:02.1Z</time>
      </trkpt>
      <trkpt lat="48.4742" lon="-3.49609">
        <ele>313</ele>
        <time>2013-02-24T14:23:04.1Z</time>
      </trkpt>
      <trkpt lat="48.47419" lon="-3.4961">
        <ele>313</ele>
        <time>2013-02-24T14:23:07.1Z</time>
      </trkpt>
      <trkpt lat="48.47419" lon="-3.49611">
        <ele>313</ele>
        <time>2013-02-24T14:23:09.1Z</time>
      </trkpt>
      <trkpt lat="48.47418" lon="-3.49611">
        <ele>313</ele>
        <time>2013-02-24T14:23:11.1Z</time>
      </trkpt>
      <trkpt lat="48.47417" lon="-3.49611">
        <ele>313</ele>
        <time>2013-02-24T14:23:13.1Z</time>
      </trkpt>
      <trkpt lat="48.47417" lon="-3.49611">
        <ele>313</ele>
        <time>2013-02-24T14:23:15.1Z</time>
      </trkpt>
      <trkpt lat="48.47418" lon="-3.4961">
        <ele>313</ele>
        <time>2013-02-24T14:23:17.1Z</time>
      </trkpt>
      <trkpt lat="48.47418" lon="-3.49611">
        <ele>312</ele>
        <time>2013-02-24T14:23:19.1Z</time>
      </trkpt>
      <trkpt lat="48.47418" lon="-3.49612">
        <ele>313</ele>
        <time>2013-02-24T14:23:21.1Z</time>
      </trkpt>
      <trkpt lat="48.47417" lon="-3.49613">
        <ele>313</ele>
        <time>2013-02-24T14:23:23.1Z</time>
      </trkpt>
      <trkpt lat="48.47416" lon="-3.49614">
        <ele>313</ele>
        <time>2013-02-24T14:23:25.1Z</time>
      </trkpt>
      <trkpt lat="48.47416" lon="-3.49613">
        <ele>313</ele>
        <time>2013-02-24T14:23:27.1Z</time>
      </trkpt>
      <trkpt lat="48.47415" lon="-3.49613">
        <ele>313</ele>
        <time>2013-02-24T14:23:29.1Z</time>
      </trkpt>
      <trkpt lat="48.47416" lon="-3.49612">
        <ele>313</ele>
        <time>2013-02-24T14:23:32.1Z</time>
      </trkpt>
      <trkpt lat="48.47416" lon="-3.49612">
        <ele>313</ele>
        <time>2013-02-24T14:23:34.1Z</time>
      </trkpt>
      <trkpt lat="48.47416" lon="-3.49612">
        <ele>313</ele>
        <time>2013-02-24T14:23:36.1Z</time>
      </trkpt>
      <trkpt lat="48.47416" lon="-3.49611">
        <ele>313</ele>
        <time>2013-02-24T14:23:38.1Z</time>
      </trkpt>
      <trkpt lat="48.47417" lon="-3.49611">
        <ele>313</ele>
        <time>2013-02-24T14:23:40.1Z</time>
      </trkpt>
      <trkpt lat="48.47417" lon="-3.49611">
        <ele>313</ele>
        <time>2013-02-24T14:23:42.1Z</time>
      </trkpt>
      <trkpt lat="48.47416" lon="-3.49611">
        <ele>313</ele>
        <time>2013-02-24T14:23:44.1Z</time>
      </trkpt>
      <trkpt lat="48.47417" lon="-3.49611">
        <ele>313</ele>
        <time>2013-02-24T14:23:46.1Z</time>
      </trkpt>
      <trkpt lat="48.47417" lon="-3.4961">
        <ele>313</ele>
        <time>2013-02-24T14:23:48.1Z</time>
      </trkpt>
      <trkpt lat="48.47417" lon="-3.4961">
        <ele>313</ele>
        <time>2013-02-24T14:23:50.1Z</time>
      </trkpt>
      <trkpt lat="48.47417" lon="-3.4961">
        <ele>313</ele>
        <time>2013-02-24T14:23:52.1Z</time>
      </trkpt>
      <trkpt lat="48.47416" lon="-3.4961">
        <ele>313</ele>
        <time>2013-02-24T14:23:54.1Z</time>
      </trkpt>
      <trkpt lat="48.47416" lon="-3.4961">
        <ele>313</ele>
        <time>2013-02-24T14:23:56.1Z</time>
      </trkpt>
      <trkpt lat="48.47415" lon="-3.49611">
        <ele>313</ele>
        <time>2013-02-24T14:23:58.1Z</time>
      </trkpt>
      <trkpt lat="48.47415" lon="-3.49611">
        <ele>313</ele>
        <time>2013-02-24T14:24:00.1Z</time>
      </trkpt>
      <trkpt lat="48.47416" lon="-3.49611">
        <ele>313</ele>
        <time>2013-02-24T14:24:03.1Z</time>
      </trkpt>
      <trkpt lat="48.47415" lon="-3.49611">
        <ele>313</ele>
        <time>2013-02-24T14:24:05.1Z</time>
      </trkpt>
      <trkpt lat="48.47416" lon="-3.49612">
        <ele>313</ele>
        <time>2013-02-24T14:24:07.1Z</time>
      </trkpt>
      <trkpt lat="48.47417" lon="-3.49614">
        <ele>313</ele>
        <time>2013-02-24T14:24:09.1Z</time>
      </trkpt>
      <trkpt lat="48.47418" lon="-3.49615">
        <ele>313</ele>
        <time>2013-02-24T14:24:11.1Z</time>
      </trkpt>
      <trkpt lat="48.47419" lon="-3.49616">
        <ele>312</ele>
        <time>2013-02-24T14:24:13.1Z</time>
      </trkpt>
      <trkpt lat="48.4742" lon="-3.49615">
        <ele>312</ele>
        <time>2013-02-24T14:24:16.1Z</time>
      </trkpt>
      <trkpt lat="48.47421" lon="-3.49614">
        <ele>312</ele>
        <time>2013-02-24T14:24:18.1Z</time>
      </trkpt>
      <trkpt lat="48.47421" lon="-3.49613">
        <ele>312</ele>
        <time>2013-02-24T14:24:20.1Z</time>
      </trkpt>
      <trkpt lat="48.47421" lon="-3.49612">
        <ele>313</ele>
        <time>2013-02-24T14:24:22.1Z</time>
      </trkpt>
      <trkpt lat="48.47421" lon="-3.49611">
        <ele>313</ele>
        <time>2013-02-24T14:24:24.1Z</time>
      </trkpt>
      <trkpt lat="48.47421" lon="-3.4961">
        <ele>313</ele>
        <time>2013-02-24T14:24:26.1Z</time>
      </trkpt>
      <trkpt lat="48.4742" lon="-3.49607">
        <ele>313</ele>
        <time>2013-02-24T14:24:28.1Z</time>
      </trkpt>
      <trkpt lat="48.4742" lon="-3.49606">
        <ele>313</ele>
        <time>2013-02-24T14:24:30.1Z</time>
      </trkpt>
      <trkpt lat="48.47419" lon="-3.49605">
        <ele>313</ele>
        <time>2013-02-24T14:24:33.1Z</time>
      </trkpt>
      <trkpt lat="48.47418" lon="-3.49604">
        <ele>313</ele>
        <time>2013-02-24T14:24:35.1Z</time>
      </trkpt>
      <trkpt lat="48.47417" lon="-3.49602">
        <ele>313</ele>
        <time>2013-02-24T14:24:37.1Z</time>
      </trkpt>
      <trkpt lat="48.47416" lon="-3.496">
        <ele>313</ele>
        <time>2013-02-24T14:24:39.1Z</time>
      </trkpt>
      <trkpt lat="48.47416" lon="-3.49599">
        <ele>313</ele>
        <time>2013-02-24T14:24:41.1Z</time>
      </trkpt>
      <trkpt lat="48.47416" lon="-3.49597">
        <ele>313</ele>
        <time>2013-02-24T14:24:43.1Z</time>
      </trkpt>
      <trkpt lat="48.47417" lon="-3.49594">
        <ele>313</ele>
        <time>2013-02-24T14:24:45.1Z</time>
      </trkpt>
      <trkpt lat="48.47419" lon="-3.49593">
        <ele>313</ele>
        <time>2013-02-24T14:24:47.1Z</time>
      </trkpt>
      <trkpt lat="48.47421" lon="-3.49592">
        <ele>314</ele>
        <time>2013-02-24T14:24:50.1Z</time>
      </trkpt>
      <trkpt lat="48.47422" lon="-3.49591">
        <ele>314</ele>
        <time>2013-02-24T14:24:52.1Z</time>
      </trkpt>
      <trkpt lat="48.47423" lon="-3.49591">
        <ele>314</ele>
        <time>2013-02-24T14:24:54.1Z</time>
      </trkpt>
      <trkpt lat="48.47424" lon="-3.4959">
        <ele>314</ele>
        <time>2013-02-24T14:24:56.1Z</time>
      </trkpt>
      <trkpt lat="48.47426" lon="-3.49589">
        <ele>314</ele>
        <time>2013-02-24T14:24:58.1Z</time>
      </trkpt>
      <trkpt lat="48.47427" lon="-3.49589">
        <ele>314</ele>
        <time>2013-02-24T14:25:00.1Z</time>
      </trkpt>
      <trkpt lat="48.47429" lon="-3.49588">
        <ele>314</ele>
        <time>2013-02-24T14:25:03.1Z</time>
      </trkpt>
      <trkpt lat="48.4743" lon="-3.49588">
        <ele>314</ele>
        <time>2013-02-24T14:25:05.1Z</time>
      </trkpt>
      <trkpt lat="48.47433" lon="-3.49587">
        <ele>314</ele>
        <time>2013-02-24T14:25:07.1Z</time>
      </trkpt>
      <trkpt lat="48.47435" lon="-3.49587">
        <ele>314</ele>
        <time>2013-02-24T14:25:09.1Z</time>
      </trkpt>
      <trkpt lat="48.47436" lon="-3.49586">
        <ele>314</ele>
        <time>2013-02-24T14:25:11.1Z</time>
      </trkpt>
      <trkpt lat="48.47439" lon="-3.49586">
        <ele>315</ele>
        <time>2013-02-24T14:25:13.1Z</time>
      </trkpt>
      <trkpt lat="48.47441" lon="-3.49586">
        <ele>315</ele>
        <time>2013-02-24T14:25:15.1Z</time>
      </trkpt>
      <trkpt lat="48.47443" lon="-3.49585">
        <ele>315</ele>
        <time>2013-02-24T14:25:17.1Z</time>
      </trkpt>
      <trkpt lat="48.47445" lon="-3.49585">
        <ele>315</ele>
        <time>2013-02-24T14:25:20.1Z</time>
      </trkpt>
      <trkpt lat="48.47446" lon="-3.49585">
        <ele>315</ele>
        <time>2013-02-24T14:25:22.1Z</time>
      </trkpt>
      <trkpt lat="48.47447" lon="-3.49585">
        <ele>315</ele>
        <time>2013-02-24T14:25:24.1Z</time>
      </trkpt>
      <trkpt lat="48.47449" lon="-3.49585">
        <ele>315</ele>
        <time>2013-02-24T14:25:26.1Z</time>
      </trkpt>
      <trkpt lat="48.47451" lon="-3.49585">
        <ele>315</ele>
        <time>2013-02-24T14:25:28.1Z</time>
      </trkpt>
      <trkpt lat="48.47454" lon="-3.49585">
        <ele>315</ele>
        <time>2013-02-24T14:25:30.1Z</time>
      </trkpt>
      <trkpt lat="48.47455" lon="-3.49584">
        <ele>315</ele>
        <time>2013-02-24T14:25:32.1Z</time>
      </trkpt>
      <trkpt lat="48.47458" lon="-3.49584">
        <ele>315</ele>
        <time>2013-02-24T14:25:34.1Z</time>
      </trkpt>
      <trkpt lat="48.47459" lon="-3.49584">
        <ele>315</ele>
        <time>2013-02-24T14:25:37.1Z</time>
      </trkpt>
      <trkpt lat="48.47462" lon="-3.49584">
        <ele>315</ele>
        <time>2013-02-24T14:25:39.1Z</time>
      </trkpt>
      <trkpt lat="48.47464" lon="-3.49584">
        <ele>315</ele>
        <time>2013-02-24T14:25:41.1Z</time>
      </trkpt>
      <trkpt lat="48.47466" lon="-3.49585">
        <ele>316</ele>
        <time>2013-02-24T14:25:43.1Z</time>
      </trkpt>
      <trkpt lat="48.47469" lon="-3.49585">
        <ele>316</ele>
        <time>2013-02-24T14:25:45.1Z</time>
      </trkpt>
      <trkpt lat="48.47471" lon="-3.49586">
        <ele>316</ele>
        <time>2013-02-24T14:25:47.1Z</time>
      </trkpt>
      <trkpt lat="48.47473" lon="-3.49586">
        <ele>316</ele>
        <time>2013-02-24T14:25:49.1Z</time>
      </trkpt>
      <trkpt lat="48.47475" lon="-3.49586">
        <ele>316</ele>
        <time>2013-02-24T14:25:52.1Z</time>
      </trkpt>
      <trkpt lat="48.47476" lon="-3.49585">
        <ele>316</ele>
        <time>2013-02-24T14:25:54.1Z</time>
      </trkpt>
      <trkpt lat="48.47478" lon="-3.49585">
        <ele>316</ele>
        <time>2013-02-24T14:25:56.1Z</time>
      </trkpt>
      <trkpt lat="48.47479" lon="-3.49585">
        <ele>316</ele>
        <time>2013-02-24T14:25:58.1Z</time>
      </trkpt>
      <trkpt lat="48.47481" lon="-3.49586">
        <ele>316</ele>
        <time>2013-02-24T14:26:00.1Z</time>
      </trkpt>
      <trkpt lat="48.47483" lon="-3.49586">
        <ele>316</ele>
        <time>2013-02-24T14:26:02.1Z</time>
      </trkpt>
      <trkpt lat="48.47486" lon="-3.49585">
        <ele>316</ele>
        <time>2013-02-24T14:26:04.1Z</time>
      </trkpt>
      <trkpt lat="48.47488" lon="-3.49586">
        <ele>316</ele>
        <time>2013-02-24T14:26:06.1Z</time>
      </trkpt>
      <trkpt lat="48.4749" lon="-3.49586">
        <ele>316</ele>
        <time>2013-02-24T14:26:09.1Z</time>
      </trkpt>
      <trkpt lat="48.47491" lon="-3.49585">
        <ele>316</ele>
        <time>2013-02-24T14:26:11.1Z</time>
      </trkpt>
      <trkpt lat="48.47493" lon="-3.49585">
        <ele>316</ele>
        <time>2013-02-24T14:26:13.1Z</time>
      </trkpt>
      <trkpt lat="48.47496" lon="-3.49585">
        <ele>316</ele>
        <time>2013-02-24T14:26:15.1Z</time>
      </trkpt>
      <trkpt lat="48.47498" lon="-3.49585">
        <ele>316</ele>
        <time>2013-02-24T14:26:17.1Z</time>
      </trkpt>
      <trkpt lat="48.475" lon="-3.49586">
        <ele>317</ele>
        <time>2013-02-24T14:26:19.1Z</time>
      </trkpt>
      <trkpt lat="48.47502" lon="-3.49586">
        <ele>317</ele>
        <time>2013-02-24T14:26:21.1Z</time>
      </trkpt>
      <trkpt lat="48.47504" lon="-3.49586">
        <ele>317</ele>
        <time>2013-02-24T14:26:23.1Z</time>
      </trkpt>
      <trkpt lat="48.47506" lon="-3.49586">
        <ele>317</ele>
        <time>2013-02-24T14:26:25.1Z</time>
      </trkpt>
      <trkpt lat="48.47507" lon="-3.49587">
        <ele>317</ele>
        <time>2013-02-24T14:26:27.1Z</time>
      </trkpt>
      <trkpt lat="48.47509" lon="-3.49588">
        <ele>317</ele>
        <time>2013-02-24T14:26:29.1Z</time>
      </trkpt>
      <trkpt lat="48.4751" lon="-3.49588">
        <ele>317</ele>
        <time>2013-02-24T14:26:31.1Z</time>
      </trkpt>
      <trkpt lat="48.47512" lon="-3.49588">
        <ele>317</ele>
        <time>2013-02-24T14:26:33.1Z</time>
      </trkpt>
      <trkpt lat="48.47514" lon="-3.49589">
        <ele>317</ele>
        <time>2013-02-24T14:26:35.1Z</time>
      </trkpt>
      <trkpt lat="48.47516" lon="-3.4959">
        <ele>317</ele>
        <time>2013-02-24T14:26:37.1Z</time>
      </trkpt>
      <trkpt lat="48.47518" lon="-3.49591">
        <ele>317</ele>
        <time>2013-02-24T14:26:39.1Z</time>
      </trkpt>
      <trkpt lat="48.4752" lon="-3.49591">
        <ele>317</ele>
        <time>2013-02-24T14:26:42.1Z</time>
      </trkpt>
      <trkpt lat="48.47522" lon="-3.49591">
        <ele>316</ele>
        <time>2013-02-24T14:26:44.1Z</time>
      </trkpt>
      <trkpt lat="48.47522" lon="-3.4959">
        <ele>316</ele>
        <time>2013-02-24T14:26:46.1Z</time>
      </trkpt>
      <trkpt lat="48.47524" lon="-3.49591">
        <ele>317</ele>
        <time>2013-02-24T14:26:48.1Z</time>
      </trkpt>
      <trkpt lat="48.47525" lon="-3.49592">
        <ele>317</ele>
        <time>2013-02-24T14:26:50.1Z</time>
      </trkpt>
      <trkpt lat="48.47527" lon="-3.49592">
        <ele>317</ele>
        <time>2013-02-24T14:26:52.1Z</time>
      </trkpt>
      <trkpt lat="48.47528" lon="-3.49593">
        <ele>317</ele>
        <time>2013-02-24T14:26:54.1Z</time>
      </trkpt>
      <trkpt lat="48.4753" lon="-3.49593">
        <ele>317</ele>
        <time>2013-02-24T14:26:56.1Z</time>
      </trkpt>
      <trkpt lat="48.47533" lon="-3.49593">
        <ele>317</ele>
        <time>2013-02-24T14:26:58.1Z</time>
      </trkpt>
      <trkpt lat="48.47535" lon="-3.49593">
        <ele>317</ele>
        <time>2013-02-24T14:27:00.1Z</time>
      </trkpt>
      <trkpt lat="48.47538" lon="-3.49593">
        <ele>317</ele>
        <time>2013-02-24T14:27:02.1Z</time>
      </trkpt>
      <trkpt lat="48.4754" lon="-3.49592">
        <ele>317</ele>
        <time>2013-02-24T14:27:04.1Z</time>
      </trkpt>
      <trkpt lat="48.47543" lon="-3.49592">
        <ele>317</ele>
        <time>2013-02-24T14:27:06.1Z</time>
      </trkpt>
      <trkpt lat="48.47545" lon="-3.49592">
        <ele>317</ele>
        <time>2013-02-24T14:27:08.1Z</time>
      </trkpt>
      <trkpt lat="48.47548" lon="-3.49591">
        <ele>317</ele>
        <time>2013-02-24T14:27:11.1Z</time>
      </trkpt>
      <trkpt lat="48.4755" lon="-3.4959">
        <ele>317</ele>
        <time>2013-02-24T14:27:13.1Z</time>
      </trkpt>
      <trkpt lat="48.47552" lon="-3.49589">
        <ele>317</ele>
        <time>2013-02-24T14:27:15.1Z</time>
      </trkpt>
      <trkpt lat="48.47553" lon="-3.49588">
        <ele>317</ele>
        <time>2013-02-24T14:27:17.1Z</time>
      </trkpt>
      <trkpt lat="48.47555" lon="-3.49587">
        <ele>317</ele>
        <time>2013-02-24T14:27:19.1Z</time>
      </trkpt>
      <trkpt lat="48.47557" lon="-3.49587">
        <ele>317</ele>
        <time>2013-02-24T14:27:21.1Z</time>
      </trkpt>
      <trkpt lat="48.47559" lon="-3.49586">
        <ele>317</ele>
        <time>2013-02-24T14:27:23.1Z</time>
      </trkpt>
      <trkpt lat="48.47561" lon="-3.49585">
        <ele>317</ele>
        <time>2013-02-24T14:27:25.1Z</time>
      </trkpt>
      <trkpt lat="48.47563" lon="-3.49583">
        <ele>317</ele>
        <time>2013-02-24T14:27:27.1Z</time>
      </trkpt>
      <trkpt lat="48.47564" lon="-3.49581">
        <ele>317</ele>
        <time>2013-02-24T14:27:29.1Z</time>
      </trkpt>
      <trkpt lat="48.47565" lon="-3.49578">
        <ele>317</ele>
        <time>2013-02-24T14:27:31.1Z</time>
      </trkpt>
      <trkpt lat="48.47566" lon="-3.49573">
        <ele>317</ele>
        <time>2013-02-24T14:27:33.1Z</time>
      </trkpt>
      <trkpt lat="48.47567" lon="-3.4957">
        <ele>317</ele>
        <time>2013-02-24T14:27:35.1Z</time>
      </trkpt>
      <trkpt lat="48.47567" lon="-3.49567">
        <ele>316</ele>
        <time>2013-02-24T14:27:37.1Z</time>
      </trkpt>
      <trkpt lat="48.47567" lon="-3.49564">
        <ele>316</ele>
        <time>2013-02-24T14:27:40.1Z</time>
      </trkpt>
      <trkpt lat="48.47567" lon="-3.4956">
        <ele>316</ele>
        <time>2013-02-24T14:27:42.1Z</time>
      </trkpt>
      <trkpt lat="48.47567" lon="-3.49557">
        <ele>316</ele>
        <time>2013-02-24T14:27:44.1Z</time>
      </trkpt>
      <trkpt lat="48.47567" lon="-3.49554">
        <ele>316</ele>
        <time>2013-02-24T14:27:46.1Z</time>
      </trkpt>
      <trkpt lat="48.47567" lon="-3.49551">
        <ele>316</ele>
        <time>2013-02-24T14:27:48.1Z</time>
      </trkpt>
      <trkpt lat="48.47567" lon="-3.49548">
        <ele>316</ele>
        <time>2013-02-24T14:27:50.1Z</time>
      </trkpt>
      <trkpt lat="48.47567" lon="-3.49544">
        <ele>316</ele>
        <time>2013-02-24T14:27:52.1Z</time>
      </trkpt>
      <trkpt lat="48.47567" lon="-3.49541">
        <ele>316</ele>
        <time>2013-02-24T14:27:54.1Z</time>
      </trkpt>
      <trkpt lat="48.47567" lon="-3.49538">
        <ele>316</ele>
        <time>2013-02-24T14:27:56.1Z</time>
      </trkpt>
      <trkpt lat="48.47567" lon="-3.49533">
        <ele>316</ele>
        <time>2013-02-24T14:27:58.1Z</time>
      </trkpt>
      <trkpt lat="48.47568" lon="-3.4953">
        <ele>316</ele>
        <time>2013-02-24T14:28:00.1Z</time>
      </trkpt>
      <trkpt lat="48.47568" lon="-3.49527">
        <ele>316</ele>
        <time>2013-02-24T14:28:02.1Z</time>
      </trkpt>
      <trkpt lat="48.47569" lon="-3.49524">
        <ele>316</ele>
        <time>2013-02-24T14:28:04.1Z</time>
      </trkpt>
      <trkpt lat="48.47569" lon="-3.49521">
        <ele>316</ele>
        <time>2013-02-24T14:28:06.1Z</time>
      </trkpt>
      <trkpt lat="48.47569" lon="-3.49518">
        <ele>316</ele>
        <time>2013-02-24T14:28:09.1Z</time>
      </trkpt>
      <trkpt lat="48.4757" lon="-3.49515">
        <ele>316</ele>
        <time>2013-02-24T14:28:11.1Z</time>
      </trkpt>
      <trkpt lat="48.4757" lon="-3.49512">
        <ele>316</ele>
        <time>2013-02-24T14:28:13.1Z</time>
      </trkpt>
      <trkpt lat="48.47571" lon="-3.49509">
        <ele>316</ele>
        <time>2013-02-24T14:28:15.1Z</time>
      </trkpt>
      <trkpt lat="48.47572" lon="-3.49507">
        <ele>317</ele>
        <time>2013-02-24T14:28:17.1Z</time>
      </trkpt>
      <trkpt lat="48.47573" lon="-3.49504">
        <ele>317</ele>
        <time>2013-02-24T14:28:19.1Z</time>
      </trkpt>
      <trkpt lat="48.47574" lon="-3.49501">
        <ele>317</ele>
        <time>2013-02-24T14:28:21.1Z</time>
      </trkpt>
      <trkpt lat="48.47575" lon="-3.49499">
        <ele>317</ele>
        <time>2013-02-24T14:28:23.1Z</time>
      </trkpt>
      <trkpt lat="48.47576" lon="-3.49496">
        <ele>317</ele>
        <time>2013-02-24T14:28:25.1Z</time>
      </trkpt>
      <trkpt lat="48.47577" lon="-3.49494">
        <ele>317</ele>
        <time>2013-02-24T14:28:27.1Z</time>
      </trkpt>
      <trkpt lat="48.47578" lon="-3.4949">
        <ele>317</ele>
        <time>2013-02-24T14:28:29.1Z</time>
      </trkpt>
      <trkpt lat="48.4758" lon="-3.49487">
        <ele>317</ele>
        <time>2013-02-24T14:28:31.1Z</time>
      </trkpt>
      <trkpt lat="48.47581" lon="-3.49485">
        <ele>317</ele>
        <time>2013-02-24T14:28:33.1Z</time>
      </trkpt>
      <trkpt lat="48.47582" lon="-3.49483">
        <ele>318</ele>
        <time>2013-02-24T14:28:36.1Z</time>
      </trkpt>
      <trkpt lat="48.47583" lon="-3.49481">
        <ele>318</ele>
        <time>2013-02-24T14:28:38.1Z</time>
      </trkpt>
      <trkpt lat="48.47585" lon="-3.49479">
        <ele>318</ele>
        <time>2013-02-24T14:28:40.1Z</time>
      </trkpt>
      <trkpt lat="48.47587" lon="-3.49478">
        <ele>318</ele>
        <time>2013-02-24T14:28:42.1Z</time>
      </trkpt>
      <trkpt lat="48.47589" lon="-3.49476">
        <ele>318</ele>
        <time>2013-02-24T14:28:44.1Z</time>
      </trkpt>
      <trkpt lat="48.47592" lon="-3.49474">
        <ele>318</ele>
        <time>2013-02-24T14:28:46.1Z</time>
      </trkpt>
      <trkpt lat="48.47594" lon="-3.49473">
        <ele>318</ele>
        <time>2013-02-24T14:28:48.1Z</time>
      </trkpt>
      <trkpt lat="48.47596" lon="-3.49472">
        <ele>318</ele>
        <time>2013-02-24T14:28:51.1Z</time>
      </trkpt>
      <trkpt lat="48.47599" lon="-3.49472">
        <ele>319</ele>
        <time>2013-02-24T14:28:53.1Z</time>
      </trkpt>
      <trkpt lat="48.47601" lon="-3.49473">
        <ele>318</ele>
        <time>2013-02-24T14:28:55.1Z</time>
      </trkpt>
      <trkpt lat="48.47603" lon="-3.49473">
        <ele>318</ele>
        <time>2013-02-24T14:28:57.1Z</time>
      </trkpt>
      <trkpt lat="48.47605" lon="-3.49473">
        <ele>318</ele>
        <time>2013-02-24T14:28:59.1Z</time>
      </trkpt>
      <trkpt lat="48.47607" lon="-3.49473">
        <ele>318</ele>
        <time>2013-02-24T14:29:01.1Z</time>
      </trkpt>
      <trkpt lat="48.4761" lon="-3.49474">
        <ele>318</ele>
        <time>2013-02-24T14:29:03.1Z</time>
      </trkpt>
      <trkpt lat="48.47613" lon="-3.49474">
        <ele>318</ele>
        <time>2013-02-24T14:29:05.1Z</time>
      </trkpt>
      <trkpt lat="48.47615" lon="-3.49475">
        <ele>318</ele>
        <time>2013-02-24T14:29:07.1Z</time>
      </trkpt>
      <trkpt lat="48.47617" lon="-3.49476">
        <ele>319</ele>
        <time>2013-02-24T14:29:09.1Z</time>
      </trkpt>
      <trkpt lat="48.4762" lon="-3.49476">
        <ele>319</ele>
        <time>2013-02-24T14:29:12.1Z</time>
      </trkpt>
      <trkpt lat="48.47622" lon="-3.49477">
        <ele>319</ele>
        <time>2013-02-24T14:29:14.1Z</time>
      </trkpt>
      <trkpt lat="48.47624" lon="-3.49478">
        <ele>319</ele>
        <time>2013-02-24T14:29:16.1Z</time>
      </trkpt>
      <trkpt lat="48.47626" lon="-3.49479">
        <ele>319</ele>
        <time>2013-02-24T14:29:18.1Z</time>
      </trkpt>
      <trkpt lat="48.47628" lon="-3.49479">
        <ele>319</ele>
        <time>2013-02-24T14:29:20.1Z</time>
      </trkpt>
      <trkpt lat="48.4763" lon="-3.4948">
        <ele>319</ele>
        <time>2013-02-24T14:29:22.1Z</time>
      </trkpt>
      <trkpt lat="48.47632" lon="-3.4948">
        <ele>319</ele>
        <time>2013-02-24T14:29:24.1Z</time>
      </trkpt>
      <trkpt lat="48.47634" lon="-3.49481">
        <ele>319</ele>
        <time>2013-02-24T14:29:26.1Z</time>
      </trkpt>
      <trkpt lat="48.47636" lon="-3.49482">
        <ele>319</ele>
        <time>2013-02-24T14:29:28.1Z</time>
      </trkpt>
      <trkpt lat="48.47638" lon="-3.49482">
        <ele>319</ele>
        <time>2013-02-24T14:29:30.1Z</time>
      </trkpt>
      <trkpt lat="48.4764" lon="-3.49483">
        <ele>319</ele>
        <time>2013-02-24T14:29:32.1Z</time>
      </trkpt>
      <trkpt lat="48.47642" lon="-3.49483">
        <ele>319</ele>
        <time>2013-02-24T14:29:34.1Z</time>
      </trkpt>
      <trkpt lat="48.47645" lon="-3.49484">
        <ele>319</ele>
        <time>2013-02-24T14:29:36.1Z</time>
      </trkpt>
      <trkpt lat="48.47647" lon="-3.49485">
        <ele>319</ele>
        <time>2013-02-24T14:29:38.1Z</time>
      </trkpt>
      <trkpt lat="48.47649" lon="-3.49486">
        <ele>319</ele>
        <time>2013-02-24T14:29:40.1Z</time>
      </trkpt>
      <trkpt lat="48.47651" lon="-3.49487">
        <ele>319</ele>
        <time>2013-02-24T14:29:42.1Z</time>
      </trkpt>
      <trkpt lat="48.47653" lon="-3.49487">
        <ele>319</ele>
        <time>2013-02-24T14:29:44.1Z</time>
      </trkpt>
      <trkpt lat="48.47655" lon="-3.49487">
        <ele>319</ele>
        <time>2013-02-24T14:29:47.1Z</time>
      </trkpt>
      <trkpt lat="48.47658" lon="-3.49487">
        <ele>319</ele>
        <time>2013-02-24T14:29:49.1Z</time>
      </trkpt>
      <trkpt lat="48.4766" lon="-3.49487">
        <ele>318</ele>
        <time>2013-02-24T14:29:51.1Z</time>
      </trkpt>
      <trkpt lat="48.47662" lon="-3.49488">
        <ele>319</ele>
        <time>2013-02-24T14:29:53.1Z</time>
      </trkpt>
      <trkpt lat="48.47664" lon="-3.49488">
        <ele>318</ele>
        <time>2013-02-24T14:29:55.1Z</time>
      </trkpt>
      <trkpt lat="48.47666" lon="-3.49488">
        <ele>319</ele>
        <time>2013-02-24T14:29:57.1Z</time>
      </trkpt>
      <trkpt lat="48.47668" lon="-3.49488">
        <ele>318</ele>
        <time>2013-02-24T14:29:59.1Z</time>
      </trkpt>
      <trkpt lat="48.4767" lon="-3.49489">
        <ele>318</ele>
        <time>2013-02-24T14:30:01.1Z</time>
      </trkpt>
      <trkpt lat="48.47673" lon="-3.49489">
        <ele>319</ele>
        <time>2013-02-24T14:30:03.1Z</time>
      </trkpt>
      <trkpt lat="48.47675" lon="-3.49489">
        <ele>319</ele>
        <time>2013-02-24T14:30:05.1Z</time>
      </trkpt>
      <trkpt lat="48.47678" lon="-3.4949">
        <ele>319</ele>
        <time>2013-02-24T14:30:07.1Z</time>
      </trkpt>
      <trkpt lat="48.47681" lon="-3.49489">
        <ele>319</ele>
        <time>2013-02-24T14:30:09.1Z</time>
      </trkpt>
      <trkpt lat="48.47683" lon="-3.49489">
        <ele>319</ele>
        <time>2013-02-24T14:30:11.1Z</time>
      </trkpt>
      <trkpt lat="48.47685" lon="-3.49488">
        <ele>319</ele>
        <time>2013-02-24T14:30:14.1Z</time>
      </trkpt>
      <trkpt lat="48.47688" lon="-3.49487">
        <ele>319</ele>
        <time>2013-02-24T14:30:16.1Z</time>
      </trkpt>
      <trkpt lat="48.4769" lon="-3.49486">
        <ele>319</ele>
        <time>2013-02-24T14:30:18.1Z</time>
      </trkpt>
      <trkpt lat="48.47692" lon="-3.49484">
        <ele>319</ele>
        <time>2013-02-24T14:30:20.1Z</time>
      </trkpt>
      <trkpt lat="48.47694" lon="-3.49483">
        <ele>318</ele>
        <time>2013-02-24T14:30:22.1Z</time>
      </trkpt>
      <trkpt lat="48.47696" lon="-3.49481">
        <ele>318</ele>
        <time>2013-02-24T14:30:24.1Z</time>
      </trkpt>
      <trkpt lat="48.47698" lon="-3.49478">
        <ele>319</ele>
        <time>2013-02-24T14:30:26.1Z</time>
      </trkpt>
      <trkpt lat="48.477" lon="-3.49476">
        <ele>319</ele>
        <time>2013-02-24T14:30:28.1Z</time>
      </trkpt>
      <trkpt lat="48.47701" lon="-3.49474">
        <ele>318</ele>
        <time>2013-02-24T14:30:31.1Z</time>
      </trkpt>
      <trkpt lat="48.47702" lon="-3.49471">
        <ele>318</ele>
        <time>2013-02-24T14:30:33.1Z</time>
      </trkpt>
      <trkpt lat="48.47704" lon="-3.49469">
        <ele>318</ele>
        <time>2013-02-24T14:30:35.1Z</time>
      </trkpt>
      <trkpt lat="48.47705" lon="-3.49467">
        <ele>318</ele>
        <time>2013-02-24T14:30:37.1Z</time>
      </trkpt>
      <trkpt lat="48.47707" lon="-3.49464">
        <ele>319</ele>
        <time>2013-02-24T14:30:39.1Z</time>
      </trkpt>
      <trkpt lat="48.47708" lon="-3.49462">
        <ele>319</ele>
        <time>2013-02-24T14:30:41.1Z</time>
      </trkpt>
      <trkpt lat="48.4771" lon="-3.49458">
        <ele>319</ele>
        <time>2013-02-24T14:30:43.1Z</time>
      </trkpt>
      <trkpt lat="48.47711" lon="-3.49455">
        <ele>319</ele>
        <time>2013-02-24T14:30:45.1Z</time>
      </trkpt>
      <trkpt lat="48.47712" lon="-3.49452">
        <ele>318</ele>
        <time>2013-02-24T14:30:48.1Z</time>
      </trkpt>
      <trkpt lat="48.47714" lon="-3.49449">
        <ele>318</ele>
        <time>2013-02-24T14:30:50.1Z</time>
      </trkpt>
      <trkpt lat="48.47715" lon="-3.49447">
        <ele>318</ele>
        <time>2013-02-24T14:30:52.1Z</time>
      </trkpt>
      <trkpt lat="48.47717" lon="-3.49444">
        <ele>318</ele>
        <time>2013-02-24T14:30:54.1Z</time>
      </trkpt>
      <trkpt lat="48.47718" lon="-3.49442">
        <ele>318</ele>
        <time>2013-02-24T14:30:56.1Z</time>
      </trkpt>
      <trkpt lat="48.4772" lon="-3.49438">
        <ele>319</ele>
        <time>2013-02-24T14:30:58.1Z</time>
      </trkpt>
      <trkpt lat="48.47721" lon="-3.49435">
        <ele>319</ele>
        <time>2013-02-24T14:31:00.1Z</time>
      </trkpt>
      <trkpt lat="48.47723" lon="-3.49432">
        <ele>319</ele>
        <time>2013-02-24T14:31:03.1Z</time>
      </trkpt>
      <trkpt lat="48.47724" lon="-3.4943">
        <ele>319</ele>
        <time>2013-02-24T14:31:05.1Z</time>
      </trkpt>
      <trkpt lat="48.47726" lon="-3.49427">
        <ele>319</ele>
        <time>2013-02-24T14:31:07.1Z</time>
      </trkpt>
      <trkpt lat="48.47727" lon="-3.49424">
        <ele>319</ele>
        <time>2013-02-24T14:31:09.1Z</time>
      </trkpt>
      <trkpt lat="48.47728" lon="-3.49422">
        <ele>319</ele>
        <time>2013-02-24T14:31:11.1Z</time>
      </trkpt>
      <trkpt lat="48.47729" lon="-3.49419">
        <ele>319</ele>
        <time>2013-02-24T14:31:13.1Z</time>
      </trkpt>
      <trkpt lat="48.47731" lon="-3.49415">
        <ele>318</ele>
        <time>2013-02-24T14:31:15.1Z</time>
      </trkpt>
      <trkpt lat="48.47733" lon="-3.49413">
        <ele>318</ele>
        <time>2013-02-24T14:31:17.1Z</time>
      </trkpt>
      <trkpt lat="48.47734" lon="-3.4941">
        <ele>318</ele>
        <time>2013-02-24T14:31:20.1Z</time>
      </trkpt>
      <trkpt lat="48.47735" lon="-3.49408">
        <ele>318</ele>
        <time>2013-02-24T14:31:22.1Z</time>
      </trkpt>
      <trkpt lat="48.47736" lon="-3.49405">
        <ele>318</ele>
        <time>2013-02-24T14:31:24.1Z</time>
      </trkpt>
      <trkpt lat="48.47738" lon="-3.49403">
        <ele>318</ele>
        <time>2013-02-24T14:31:26.1Z</time>
      </trkpt>
      <trkpt lat="48.4774" lon="-3.494">
        <ele>318</ele>
        <time>2013-02-24T14:31:28.1Z</time>
      </trkpt>
      <trkpt lat="48.47741" lon="-3.49398">
        <ele>318</ele>
        <time>2013-02-24T14:31:30.1Z</time>
      </trkpt>
      <trkpt lat="48.47743" lon="-3.49395">
        <ele>318</ele>
        <time>2013-02-24T14:31:32.1Z</time>
      </trkpt>
      <trkpt lat="48.47744" lon="-3.49393">
        <ele>318</ele>
        <time>2013-02-24T14:31:34.1Z</time>
      </trkpt>
      <trkpt lat="48.47746" lon="-3.49391">
        <ele>318</ele>
        <time>2013-02-24T14:31:36.1Z</time>
      </trkpt>
      <trkpt lat="48.47747" lon="-3.49389">
        <ele>318</ele>
        <time>2013-02-24T14:31:38.1Z</time>
      </trkpt>
      <trkpt lat="48.47749" lon="-3.49386">
        <ele>318</ele>
        <time>2013-02-24T14:31:40.1Z</time>
      </trkpt>
      <trkpt lat="48.47751" lon="-3.49384">
        <ele>318</ele>
        <time>2013-02-24T14:31:42.1Z</time>
      </trkpt>
      <trkpt lat="48.47752" lon="-3.49382">
        <ele>318</ele>
        <time>2013-02-24T14:31:44.1Z</time>
      </trkpt>
      <trkpt lat="48.47754" lon="-3.49379">
        <ele>318</ele>
        <time>2013-02-24T14:31:46.1Z</time>
      </trkpt>
      <trkpt lat="48.47755" lon="-3.49376">
        <ele>318</ele>
        <time>2013-02-24T14:31:48.1Z</time>
      </trkpt>
      <trkpt lat="48.47757" lon="-3.49374">
        <ele>318</ele>
        <time>2013-02-24T14:31:50.1Z</time>
      </trkpt>
      <trkpt lat="48.47758" lon="-3.49371">
        <ele>318</ele>
        <time>2013-02-24T14:31:52.1Z</time>
      </trkpt>
      <trkpt lat="48.4776" lon="-3.49369">
        <ele>318</ele>
        <time>2013-02-24T14:31:54.1Z</time>
      </trkpt>
      <trkpt lat="48.4776" lon="-3.49366">
        <ele>318</ele>
        <time>2013-02-24T14:31:57.1Z</time>
      </trkpt>
      <trkpt lat="48.47762" lon="-3.49364">
        <ele>318</ele>
        <time>2013-02-24T14:31:59.1Z</time>
      </trkpt>
      <trkpt lat="48.47763" lon="-3.49361">
        <ele>318</ele>
        <time>2013-02-24T14:32:01.1Z</time>
      </trkpt>
      <trkpt lat="48.47764" lon="-3.49359">
        <ele>318</ele>
        <time>2013-02-24T14:32:03.1Z</time>
      </trkpt>
      <trkpt lat="48.47765" lon="-3.49356">
        <ele>318</ele>
        <time>2013-02-24T14:32:05.1Z</time>
      </trkpt>
      <trkpt lat="48.47768" lon="-3.49353">
        <ele>318</ele>
        <time>2013-02-24T14:32:07.1Z</time>
      </trkpt>
      <trkpt lat="48.47769" lon="-3.49351">
        <ele>318</ele>
        <time>2013-02-24T14:32:09.1Z</time>
      </trkpt>
      <trkpt lat="48.47771" lon="-3.49348">
        <ele>318</ele>
        <time>2013-02-24T14:32:11.1Z</time>
      </trkpt>
      <trkpt lat="48.47772" lon="-3.49346">
        <ele>318</ele>
        <time>2013-02-24T14:32:14.1Z</time>
      </trkpt>
      <trkpt lat="48.47774" lon="-3.49344">
        <ele>318</ele>
        <time>2013-02-24T14:32:16.1Z</time>
      </trkpt>
      <trkpt lat="48.47775" lon="-3.49342">
        <ele>318</ele>
        <time>2013-02-24T14:32:18.1Z</time>
      </trkpt>
      <trkpt lat="48.47777" lon="-3.49339">
        <ele>318</ele>
        <time>2013-02-24T14:32:20.1Z</time>
      </trkpt>
      <trkpt lat="48.47779" lon="-3.49338">
        <ele>318</ele>
        <time>2013-02-24T14:32:22.1Z</time>
      </trkpt>
      <trkpt lat="48.47781" lon="-3.49336">
        <ele>318</ele>
        <time>2013-02-24T14:32:24.1Z</time>
      </trkpt>
      <trkpt lat="48.47783" lon="-3.49333">
        <ele>318</ele>
        <time>2013-02-24T14:32:26.1Z</time>
      </trkpt>
      <trkpt lat="48.47785" lon="-3.49331">
        <ele>318</ele>
        <time>2013-02-24T14:32:28.1Z</time>
      </trkpt>
      <trkpt lat="48.47787" lon="-3.49329">
        <ele>318</ele>
        <time>2013-02-24T14:32:31.1Z</time>
      </trkpt>
      <trkpt lat="48.47789" lon="-3.49328">
        <ele>318</ele>
        <time>2013-02-24T14:32:33.1Z</time>
      </trkpt>
      <trkpt lat="48.47791" lon="-3.49326">
        <ele>318</ele>
        <time>2013-02-24T14:32:35.1Z</time>
      </trkpt>
      <trkpt lat="48.47793" lon="-3.49324">
        <ele>318</ele>
        <time>2013-02-24T14:32:37.1Z</time>
      </trkpt>
      <trkpt lat="48.47795" lon="-3.49323">
        <ele>318</ele>
        <time>2013-02-24T14:32:39.1Z</time>
      </trkpt>
      <trkpt lat="48.47797" lon="-3.49321">
        <ele>319</ele>
        <time>2013-02-24T14:32:41.1Z</time>
      </trkpt>
      <trkpt lat="48.478" lon="-3.49318">
        <ele>319</ele>
        <time>2013-02-24T14:32:43.1Z</time>
      </trkpt>
      <trkpt lat="48.47801" lon="-3.49316">
        <ele>319</ele>
        <time>2013-02-24T14:32:45.1Z</time>
      </trkpt>
      <trkpt lat="48.47803" lon="-3.49314">
        <ele>319</ele>
        <time>2013-02-24T14:32:47.1Z</time>
      </trkpt>
      <trkpt lat="48.47805" lon="-3.49312">
        <ele>319</ele>
        <time>2013-02-24T14:32:49.1Z</time>
      </trkpt>
      <trkpt lat="48.47807" lon="-3.4931">
        <ele>319</ele>
        <time>2013-02-24T14:32:52.1Z</time>
      </trkpt>
      <trkpt lat="48.47808" lon="-3.49308">
        <ele>319</ele>
        <time>2013-02-24T14:32:54.1Z</time>
      </trkpt>
      <trkpt lat="48.4781" lon="-3.49307">
        <ele>319</ele>
        <time>2013-02-24T14:32:56.1Z</time>
      </trkpt>
      <trkpt lat="48.47811" lon="-3.49304">
        <ele>319</ele>
        <time>2013-02-24T14:32:58.1Z</time>
      </trkpt>
      <trkpt lat="48.47813" lon="-3.49302">
        <ele>319</ele>
        <time>2013-02-24T14:33:00.1Z</time>
      </trkpt>
      <trkpt lat="48.47814" lon="-3.493">
        <ele>319</ele>
        <time>2013-02-24T14:33:02.1Z</time>
      </trkpt>
      <trkpt lat="48.47816" lon="-3.49297">
        <ele>319</ele>
        <time>2013-02-24T14:33:04.1Z</time>
      </trkpt>
      <trkpt lat="48.47817" lon="-3.49295">
        <ele>319</ele>
        <time>2013-02-24T14:33:06.1Z</time>
      </trkpt>
      <trkpt lat="48.47819" lon="-3.49292">
        <ele>319</ele>
        <time>2013-02-24T14:33:08.1Z</time>
      </trkpt>
      <trkpt lat="48.4782" lon="-3.4929">
        <ele>319</ele>
        <time>2013-02-24T14:33:10.1Z</time>
      </trkpt>
      <trkpt lat="48.47822" lon="-3.49286">
        <ele>319</ele>
        <time>2013-02-24T14:33:12.1Z</time>
      </trkpt>
      <trkpt lat="48.47823" lon="-3.49284">
        <ele>319</ele>
        <time>2013-02-24T14:33:14.1Z</time>
      </trkpt>
      <trkpt lat="48.47824" lon="-3.49281">
        <ele>319</ele>
        <time>2013-02-24T14:33:17.1Z</time>
      </trkpt>
      <trkpt lat="48.47825" lon="-3.49278">
        <ele>320</ele>
        <time>2013-02-24T14:33:19.1Z</time>
      </trkpt>
      <trkpt lat="48.47826" lon="-3.49275">
        <ele>320</ele>
        <time>2013-02-24T14:33:21.1Z</time>
      </trkpt>
      <trkpt lat="48.47827" lon="-3.49273">
        <ele>320</ele>
        <time>2013-02-24T14:33:23.1Z</time>
      </trkpt>
      <trkpt lat="48.47828" lon="-3.4927">
        <ele>320</ele>
        <time>2013-02-24T14:33:25.1Z</time>
      </trkpt>
      <trkpt lat="48.47829" lon="-3.49268">
        <ele>320</ele>
        <time>2013-02-24T14:33:27.1Z</time>
      </trkpt>
      <trkpt lat="48.4783" lon="-3.49265">
        <ele>320</ele>
        <time>2013-02-24T14:33:29.1Z</time>
      </trkpt>
      <trkpt lat="48.47831" lon="-3.49262">
        <ele>320</ele>
        <time>2013-02-24T14:33:31.1Z</time>
      </trkpt>
      <trkpt lat="48.47831" lon="-3.49259">
        <ele>320</ele>
        <time>2013-02-24T14:33:33.1Z</time>
      </trkpt>
      <trkpt lat="48.47831" lon="-3.49257">
        <ele>320</ele>
        <time>2013-02-24T14:33:35.1Z</time>
      </trkpt>
      <trkpt lat="48.47832" lon="-3.49254">
        <ele>320</ele>
        <time>2013-02-24T14:33:37.1Z</time>
      </trkpt>
      <trkpt lat="48.47833" lon="-3.49252">
        <ele>319</ele>
        <time>2013-02-24T14:33:39.1Z</time>
      </trkpt>
      <trkpt lat="48.47835" lon="-3.4925">
        <ele>320</ele>
        <time>2013-02-24T14:33:41.1Z</time>
      </trkpt>
      <trkpt lat="48.47837" lon="-3.49247">
        <ele>319</ele>
        <time>2013-02-24T14:33:43.1Z</time>
      </trkpt>
      <trkpt lat="48.47839" lon="-3.49243">
        <ele>319</ele>
        <time>2013-02-24T14:33:45.1Z</time>
      </trkpt>
      <trkpt lat="48.4784" lon="-3.49241">
        <ele>319</ele>
        <time>2013-02-24T14:33:47.1Z</time>
      </trkpt>
      <trkpt lat="48.47842" lon="-3.49239">
        <ele>319</ele>
        <time>2013-02-24T14:33:49.1Z</time>
      </trkpt>
      <trkpt lat="48.47844" lon="-3.49236">
        <ele>319</ele>
        <time>2013-02-24T14:33:51.1Z</time>
      </trkpt>
      <trkpt lat="48.47845" lon="-3.49234">
        <ele>319</ele>
        <time>2013-02-24T14:33:53.1Z</time>
      </trkpt>
      <trkpt lat="48.47846" lon="-3.49232">
        <ele>319</ele>
        <time>2013-02-24T14:33:56.1Z</time>
      </trkpt>
      <trkpt lat="48.47847" lon="-3.4923">
        <ele>319</ele>
        <time>2013-02-24T14:33:58.1Z</time>
      </trkpt>
      <trkpt lat="48.47847" lon="-3.49227">
        <ele>320</ele>
        <time>2013-02-24T14:34:00.1Z</time>
      </trkpt>
      <trkpt lat="48.47849" lon="-3.49225">
        <ele>320</ele>
        <time>2013-02-24T14:34:02.1Z</time>
      </trkpt>
      <trkpt lat="48.4785" lon="-3.49221">
        <ele>319</ele>
        <time>2013-02-24T14:34:04.1Z</time>
      </trkpt>
      <trkpt lat="48.47852" lon="-3.49219">
        <ele>319</ele>
        <time>2013-02-24T14:34:06.1Z</time>
      </trkpt>
      <trkpt lat="48.47853" lon="-3.49217">
        <ele>319</ele>
        <time>2013-02-24T14:34:08.1Z</time>
      </trkpt>
      <trkpt lat="48.47855" lon="-3.49215">
        <ele>319</ele>
        <time>2013-02-24T14:34:11.1Z</time>
      </trkpt>
      <trkpt lat="48.47856" lon="-3.49212">
        <ele>319</ele>
        <time>2013-02-24T14:34:13.1Z</time>
      </trkpt>
      <trkpt lat="48.47857" lon="-3.4921">
        <ele>319</ele>
        <time>2013-02-24T14:34:15.1Z</time>
      </trkpt>
      <trkpt lat="48.47858" lon="-3.49207">
        <ele>319</ele>
        <time>2013-02-24T14:34:17.1Z</time>
      </trkpt>
      <trkpt lat="48.4786" lon="-3.49205">
        <ele>319</ele>
        <time>2013-02-24T14:34:19.1Z</time>
      </trkpt>
      <trkpt lat="48.47861" lon="-3.49201">
        <ele>319</ele>
        <time>2013-02-24T14:34:21.1Z</time>
      </trkpt>
      <trkpt lat="48.47862" lon="-3.49199">
        <ele>319</ele>
        <time>2013-02-24T14:34:23.1Z</time>
      </trkpt>
      <trkpt lat="48.47863" lon="-3.49196">
        <ele>319</ele>
        <time>2013-02-24T14:34:25.1Z</time>
      </trkpt>
      <trkpt lat="48.47864" lon="-3.49193">
        <ele>319</ele>
        <time>2013-02-24T14:34:27.1Z</time>
      </trkpt>
      <trkpt lat="48.47865" lon="-3.49191">
        <ele>319</ele>
        <time>2013-02-24T14:34:30.1Z</time>
      </trkpt>
      <trkpt lat="48.47866" lon="-3.49188">
        <ele>319</ele>
        <time>2013-02-24T14:34:32.1Z</time>
      </trkpt>
      <trkpt lat="48.47868" lon="-3.49186">
        <ele>319</ele>
        <time>2013-02-24T14:34:34.1Z</time>
      </trkpt>
      <trkpt lat="48.47869" lon="-3.49183">
        <ele>319</ele>
        <time>2013-02-24T14:34:36.1Z</time>
      </trkpt>
      <trkpt lat="48.47871" lon="-3.49181">
        <ele>319</ele>
        <time>2013-02-24T14:34:38.1Z</time>
      </trkpt>
      <trkpt lat="48.47873" lon="-3.49178">
        <ele>319</ele>
        <time>2013-02-24T14:34:40.1Z</time>
      </trkpt>
      <trkpt lat="48.47874" lon="-3.49175">
        <ele>319</ele>
        <time>2013-02-24T14:34:42.1Z</time>
      </trkpt>
      <trkpt lat="48.47874" lon="-3.49174">
        <ele>319</ele>
        <time>2013-02-24T14:34:44.1Z</time>
      </trkpt>
      <trkpt lat="48.47873" lon="-3.49173">
        <ele>319</ele>
        <time>2013-02-24T14:34:47.1Z</time>
      </trkpt>
      <trkpt lat="48.47873" lon="-3.49171">
        <ele>319</ele>
        <time>2013-02-24T14:34:49.1Z</time>
      </trkpt>
      <trkpt lat="48.47872" lon="-3.49171">
        <ele>319</ele>
        <time>2013-02-24T14:34:51.1Z</time>
      </trkpt>
      <trkpt lat="48.47872" lon="-3.4917">
        <ele>319</ele>
        <time>2013-02-24T14:34:53.1Z</time>
      </trkpt>
      <trkpt lat="48.47873" lon="-3.49168">
        <ele>319</ele>
        <time>2013-02-24T14:34:55.1Z</time>
      </trkpt>
      <trkpt lat="48.47874" lon="-3.49166">
        <ele>319</ele>
        <time>2013-02-24T14:34:57.1Z</time>
      </trkpt>
      <trkpt lat="48.47874" lon="-3.49163">
        <ele>319</ele>
        <time>2013-02-24T14:34:59.1Z</time>
      </trkpt>
      <trkpt lat="48.47875" lon="-3.49161">
        <ele>319</ele>
        <time>2013-02-24T14:35:01.1Z</time>
      </trkpt>
      <trkpt lat="48.47875" lon="-3.49159">
        <ele>319</ele>
        <time>2013-02-24T14:35:03.1Z</time>
      </trkpt>
      <trkpt lat="48.47875" lon="-3.49158">
        <ele>319</ele>
        <time>2013-02-24T14:35:05.1Z</time>
      </trkpt>
      <trkpt lat="48.47875" lon="-3.49158">
        <ele>319</ele>
        <time>2013-02-24T14:35:07.1Z</time>
      </trkpt>
      <trkpt lat="48.47875" lon="-3.49158">
        <ele>319</ele>
        <time>2013-02-24T14:35:09.1Z</time>
      </trkpt>
      <trkpt lat="48.47876" lon="-3.49158">
        <ele>319</ele>
        <time>2013-02-24T14:35:11.1Z</time>
      </trkpt>
      <trkpt lat="48.47876" lon="-3.49155">
        <ele>319</ele>
        <time>2013-02-24T14:35:13.1Z</time>
      </trkpt>
      <trkpt lat="48.47877" lon="-3.49154">
        <ele>319</ele>
        <time>2013-02-24T14:35:15.1Z</time>
      </trkpt>
      <trkpt lat="48.47878" lon="-3.49152">
        <ele>319</ele>
        <time>2013-02-24T14:35:17.1Z</time>
      </trkpt>
      <trkpt lat="48.47879" lon="-3.49152">
        <ele>319</ele>
        <time>2013-02-24T14:35:19.1Z</time>
      </trkpt>
      <trkpt lat="48.4788" lon="-3.49151">
        <ele>319</ele>
        <time>2013-02-24T14:35:21.1Z</time>
      </trkpt>
      <trkpt lat="48.47881" lon="-3.4915">
        <ele>319</ele>
        <time>2013-02-24T14:35:24.1Z</time>
      </trkpt>
      <trkpt lat="48.47882" lon="-3.49147">
        <ele>319</ele>
        <time>2013-02-24T14:35:26.1Z</time>
      </trkpt>
      <trkpt lat="48.47883" lon="-3.49145">
        <ele>319</ele>
        <time>2013-02-24T14:35:28.1Z</time>
      </trkpt>
      <trkpt lat="48.47885" lon="-3.49143">
        <ele>319</ele>
        <time>2013-02-24T14:35:30.1Z</time>
      </trkpt>
      <trkpt lat="48.47886" lon="-3.49142">
        <ele>319</ele>
        <time>2013-02-24T14:35:32.1Z</time>
      </trkpt>
      <trkpt lat="48.47887" lon="-3.4914">
        <ele>319</ele>
        <time>2013-02-24T14:35:34.1Z</time>
      </trkpt>
      <trkpt lat="48.47889" lon="-3.49139">
        <ele>319</ele>
        <time>2013-02-24T14:35:36.1Z</time>
      </trkpt>
      <trkpt lat="48.4789" lon="-3.49138">
        <ele>319</ele>
        <time>2013-02-24T14:35:38.1Z</time>
      </trkpt>
      <trkpt lat="48.47891" lon="-3.49136">
        <ele>319</ele>
        <time>2013-02-24T14:35:40.1Z</time>
      </trkpt>
      <trkpt lat="48.47893" lon="-3.49134">
        <ele>319</ele>
        <time>2013-02-24T14:35:42.1Z</time>
      </trkpt>
      <trkpt lat="48.47894" lon="-3.49132">
        <ele>319</ele>
        <time>2013-02-24T14:35:44.1Z</time>
      </trkpt>
      <trkpt lat="48.47895" lon="-3.49131">
        <ele>319</ele>
        <time>2013-02-24T14:35:46.1Z</time>
      </trkpt>
      <trkpt lat="48.47896" lon="-3.49129">
        <ele>319</ele>
        <time>2013-02-24T14:35:48.1Z</time>
      </trkpt>
      <trkpt lat="48.47898" lon="-3.49127">
        <ele>319</ele>
        <time>2013-02-24T14:35:50.1Z</time>
      </trkpt>
      <trkpt lat="48.47899" lon="-3.49126">
        <ele>319</ele>
        <time>2013-02-24T14:35:53.1Z</time>
      </trkpt>
      <trkpt lat="48.47901" lon="-3.49124">
        <ele>318</ele>
        <time>2013-02-24T14:35:55.1Z</time>
      </trkpt>
      <trkpt lat="48.47902" lon="-3.49123">
        <ele>318</ele>
        <time>2013-02-24T14:35:57.1Z</time>
      </trkpt>
      <trkpt lat="48.47902" lon="-3.49123">
        <ele>318</ele>
        <time>2013-02-24T14:35:59.1Z</time>
      </trkpt>
      <trkpt lat="48.47903" lon="-3.49121">
        <ele>318</ele>
        <time>2013-02-24T14:36:01.1Z</time>
      </trkpt>
      <trkpt lat="48.47904" lon="-3.49119">
        <ele>318</ele>
        <time>2013-02-24T14:36:03.1Z</time>
      </trkpt>
      <trkpt lat="48.47906" lon="-3.49117">
        <ele>319</ele>
        <time>2013-02-24T14:36:05.1Z</time>
      </trkpt>
      <trkpt lat="48.47908" lon="-3.49115">
        <ele>319</ele>
        <time>2013-02-24T14:36:07.1Z</time>
      </trkpt>
      <trkpt lat="48.47909" lon="-3.49113">
        <ele>319</ele>
        <time>2013-02-24T14:36:09.1Z</time>
      </trkpt>
      <trkpt lat="48.4791" lon="-3.49111">
        <ele>319</ele>
        <time>2013-02-24T14:36:11.1Z</time>
      </trkpt>
      <trkpt lat="48.47911" lon="-3.49109">
        <ele>319</ele>
        <time>2013-02-24T14:36:13.1Z</time>
      </trkpt>
      <trkpt lat="48.47913" lon="-3.49106">
        <ele>319</ele>
        <time>2013-02-24T14:36:16.1Z</time>
      </trkpt>
      <trkpt lat="48.47913" lon="-3.49105">
        <ele>319</ele>
        <time>2013-02-24T14:36:18.1Z</time>
      </trkpt>
      <trkpt lat="48.47913" lon="-3.49104">
        <ele>319</ele>
        <time>2013-02-24T14:36:20.1Z</time>
      </trkpt>
      <trkpt lat="48.47914" lon="-3.49104">
        <ele>319</ele>
        <time>2013-02-24T14:36:22.1Z</time>
      </trkpt>
      <trkpt lat="48.47916" lon="-3.49103">
        <ele>319</ele>
        <time>2013-02-24T14:36:24.1Z</time>
      </trkpt>
      <trkpt lat="48.47917" lon="-3.49101">
        <ele>319</ele>
        <time>2013-02-24T14:36:26.1Z</time>
      </trkpt>
      <trkpt lat="48.47919" lon="-3.49099">
        <ele>319</ele>
        <time>2013-02-24T14:36:28.1Z</time>
      </trkpt>
      <trkpt lat="48.47921" lon="-3.49097">
        <ele>319</ele>
        <time>2013-02-24T14:36:30.1Z</time>
      </trkpt>
      <trkpt lat="48.47921" lon="-3.49095">
        <ele>319</ele>
        <time>2013-02-24T14:36:32.1Z</time>
      </trkpt>
      <trkpt lat="48.47923" lon="-3.49093">
        <ele>319</ele>
        <time>2013-02-24T14:36:35.1Z</time>
      </trkpt>
      <trkpt lat="48.47925" lon="-3.49092">
        <ele>319</ele>
        <time>2013-02-24T14:36:37.1Z</time>
      </trkpt>
      <trkpt lat="48.47926" lon="-3.4909">
        <ele>319</ele>
        <time>2013-02-24T14:36:39.1Z</time>
      </trkpt>
      <trkpt lat="48.47928" lon="-3.49088">
        <ele>319</ele>
        <time>2013-02-24T14:36:41.1Z</time>
      </trkpt>
      <trkpt lat="48.47929" lon="-3.49087">
        <ele>319</ele>
        <time>2013-02-24T14:36:43.1Z</time>
      </trkpt>
      <trkpt lat="48.47932" lon="-3.49085">
        <ele>319</ele>
        <time>2013-02-24T14:36:45.1Z</time>
      </trkpt>
      <trkpt lat="48.47934" lon="-3.49084">
        <ele>319</ele>
        <time>2013-02-24T14:36:47.1Z</time>
      </trkpt>
      <trkpt lat="48.47935" lon="-3.49083">
        <ele>319</ele>
        <time>2013-02-24T14:36:49.1Z</time>
      </trkpt>
      <trkpt lat="48.47935" lon="-3.49082">
        <ele>319</ele>
        <time>2013-02-24T14:36:51.1Z</time>
      </trkpt>
      <trkpt lat="48.47935" lon="-3.49082">
        <ele>319</ele>
        <time>2013-02-24T14:36:54.1Z</time>
      </trkpt>
      <trkpt lat="48.47936" lon="-3.49081">
        <ele>319</ele>
        <time>2013-02-24T14:36:56.1Z</time>
      </trkpt>
      <trkpt lat="48.47936" lon="-3.49081">
        <ele>319</ele>
        <time>2013-02-24T14:36:58.1Z</time>
      </trkpt>
      <trkpt lat="48.47937" lon="-3.49081">
        <ele>319</ele>
        <time>2013-02-24T14:37:00.1Z</time>
      </trkpt>
      <trkpt lat="48.47937" lon="-3.49081">
        <ele>319</ele>
        <time>2013-02-24T14:37:02.1Z</time>
      </trkpt>
      <trkpt lat="48.47938" lon="-3.4908">
        <ele>319</ele>
        <time>2013-02-24T14:37:04.1Z</time>
      </trkpt>
      <trkpt lat="48.47939" lon="-3.49079">
        <ele>319</ele>
        <time>2013-02-24T14:37:06.1Z</time>
      </trkpt>
      <trkpt lat="48.4794" lon="-3.49078">
        <ele>319</ele>
        <time>2013-02-24T14:37:08.1Z</time>
      </trkpt>
      <trkpt lat="48.47941" lon="-3.49077">
        <ele>319</ele>
        <time>2013-02-24T14:37:10.1Z</time>
      </trkpt>
      <trkpt lat="48.47942" lon="-3.49076">
        <ele>319</ele>
        <time>2013-02-24T14:37:12.1Z</time>
      </trkpt>
      <trkpt lat="48.47943" lon="-3.49075">
        <ele>319</ele>
        <time>2013-02-24T14:37:15.1Z</time>
      </trkpt>
      <trkpt lat="48.47944" lon="-3.49075">
        <ele>319</ele>
        <time>2013-02-24T14:37:17.1Z</time>
      </trkpt>
      <trkpt lat="48.47946" lon="-3.49076">
        <ele>319</ele>
        <time>2013-02-24T14:37:19.1Z</time>
      </trkpt>
      <trkpt lat="48.47948" lon="-3.49075">
        <ele>319</ele>
        <time>2013-02-24T14:37:21.1Z</time>
      </trkpt>
      <trkpt lat="48.4795" lon="-3.49075">
        <ele>319</ele>
        <time>2013-02-24T14:37:23.1Z</time>
      </trkpt>
      <trkpt lat="48.47953" lon="-3.49073">
        <ele>319</ele>
        <time>2013-02-24T14:37:25.1Z</time>
      </trkpt>
      <trkpt lat="48.47954" lon="-3.49073">
        <ele>319</ele>
        <time>2013-02-24T14:37:27.1Z</time>
      </trkpt>
      <trkpt lat="48.47956" lon="-3.49072">
        <ele>319</ele>
        <time>2013-02-24T14:37:29.1Z</time>
      </trkpt>
      <trkpt lat="48.47957" lon="-3.49072">
        <ele>319</ele>
        <time>2013-02-24T14:37:31.1Z</time>
      </trkpt>
      <trkpt lat="48.47958" lon="-3.49072">
        <ele>319</ele>
        <time>2013-02-24T14:37:33.1Z</time>
      </trkpt>
      <trkpt lat="48.47958" lon="-3.49072">
        <ele>319</ele>
        <time>2013-02-24T14:37:36.1Z</time>
      </trkpt>
      <trkpt lat="48.47959" lon="-3.49071">
        <ele>319</ele>
        <time>2013-02-24T14:37:38.1Z</time>
      </trkpt>
      <trkpt lat="48.47961" lon="-3.49071">
        <ele>320</ele>
        <time>2013-02-24T14:37:40.1Z</time>
      </trkpt>
      <trkpt lat="48.47963" lon="-3.4907">
        <ele>320</ele>
        <time>2013-02-24T14:37:42.1Z</time>
      </trkpt>
      <trkpt lat="48.47965" lon="-3.4907">
        <ele>320</ele>
        <time>2013-02-24T14:37:44.1Z</time>
      </trkpt>
      <trkpt lat="48.47966" lon="-3.49069">
        <ele>320</ele>
        <time>2013-02-24T14:37:46.1Z</time>
      </trkpt>
      <trkpt lat="48.47968" lon="-3.49069">
        <ele>320</ele>
        <time>2013-02-24T14:37:48.1Z</time>
      </trkpt>
      <trkpt lat="48.4797" lon="-3.49068">
        <ele>320</ele>
        <time>2013-02-24T14:37:50.1Z</time>
      </trkpt>
      <trkpt lat="48.47971" lon="-3.49068">
        <ele>320</ele>
        <time>2013-02-24T14:37:52.1Z</time>
      </trkpt>
      <trkpt lat="48.47973" lon="-3.49068">
        <ele>320</ele>
        <time>2013-02-24T14:37:54.1Z</time>
      </trkpt>
      <trkpt lat="48.47976" lon="-3.49068">
        <ele>320</ele>
        <time>2013-02-24T14:37:56.1Z</time>
      </trkpt>
      <trkpt lat="48.47977" lon="-3.49068">
        <ele>320</ele>
        <time>2013-02-24T14:37:58.1Z</time>
      </trkpt>
      <trkpt lat="48.47979" lon="-3.49068">
        <ele>320</ele>
        <time>2013-02-24T14:38:00.1Z</time>
      </trkpt>
      <trkpt lat="48.47981" lon="-3.49068">
        <ele>320</ele>
        <time>2013-02-24T14:38:02.1Z</time>
      </trkpt>
      <trkpt lat="48.47982" lon="-3.49068">
        <ele>320</ele>
        <time>2013-02-24T14:38:05.1Z</time>
      </trkpt>
      <trkpt lat="48.47984" lon="-3.49067">
        <ele>320</ele>
        <time>2013-02-24T14:38:07.1Z</time>
      </trkpt>
      <trkpt lat="48.47986" lon="-3.49066">
        <ele>320</ele>
        <time>2013-02-24T14:38:09.1Z</time>
      </trkpt>
      <trkpt lat="48.47989" lon="-3.49065">
        <ele>320</ele>
        <time>2013-02-24T14:38:11.1Z</time>
      </trkpt>
      <trkpt lat="48.4799" lon="-3.49065">
        <ele>320</ele>
        <time>2013-02-24T14:38:13.1Z</time>
      </trkpt>
      <trkpt lat="48.47992" lon="-3.49065">
        <ele>320</ele>
        <time>2013-02-24T14:38:15.1Z</time>
      </trkpt>
      <trkpt lat="48.47995" lon="-3.49064">
        <ele>320</ele>
        <time>2013-02-24T14:38:17.1Z</time>
      </trkpt>
      <trkpt lat="48.47997" lon="-3.49065">
        <ele>320</ele>
        <time>2013-02-24T14:38:20.1Z</time>
      </trkpt>
      <trkpt lat="48.47999" lon="-3.49065">
        <ele>320</ele>
        <time>2013-02-24T14:38:22.1Z</time>
      </trkpt>
      <trkpt lat="48.48" lon="-3.49065">
        <ele>320</ele>
        <time>2013-02-24T14:38:24.1Z</time>
      </trkpt>
      <trkpt lat="48.48002" lon="-3.49065">
        <ele>319</ele>
        <time>2013-02-24T14:38:26.1Z</time>
      </trkpt>
      <trkpt lat="48.48004" lon="-3.49065">
        <ele>319</ele>
        <time>2013-02-24T14:38:28.1Z</time>
      </trkpt>
      <trkpt lat="48.48005" lon="-3.49065">
        <ele>319</ele>
        <time>2013-02-24T14:38:30.1Z</time>
      </trkpt>
      <trkpt lat="48.48007" lon="-3.49065">
        <ele>319</ele>
        <time>2013-02-24T14:38:32.1Z</time>
      </trkpt>
      <trkpt lat="48.48008" lon="-3.49064">
        <ele>320</ele>
        <time>2013-02-24T14:38:34.1Z</time>
      </trkpt>
      <trkpt lat="48.48009" lon="-3.49064">
        <ele>320</ele>
        <time>2013-02-24T14:38:36.1Z</time>
      </trkpt>
      <trkpt lat="48.4801" lon="-3.49064">
        <ele>320</ele>
        <time>2013-02-24T14:38:38.1Z</time>
      </trkpt>
      <trkpt lat="48.48011" lon="-3.49064">
        <ele>320</ele>
        <time>2013-02-24T14:38:40.1Z</time>
      </trkpt>
      <trkpt lat="48.48012" lon="-3.49064">
        <ele>320</ele>
        <time>2013-02-24T14:38:42.1Z</time>
      </trkpt>
      <trkpt lat="48.48014" lon="-3.49064">
        <ele>319</ele>
        <time>2013-02-24T14:38:44.1Z</time>
      </trkpt>
      <trkpt lat="48.48015" lon="-3.49064">
        <ele>319</ele>
        <time>2013-02-24T14:38:47.1Z</time>
      </trkpt>
      <trkpt lat="48.48018" lon="-3.49064">
        <ele>319</ele>
        <time>2013-02-24T14:38:49.1Z</time>
      </trkpt>
      <trkpt lat="48.48019" lon="-3.49063">
        <ele>319</ele>
        <time>2013-02-24T14:38:51.1Z</time>
      </trkpt>
      <trkpt lat="48.48021" lon="-3.49063">
        <ele>319</ele>
        <time>2013-02-24T14:38:53.1Z</time>
      </trkpt>
      <trkpt lat="48.48022" lon="-3.49063">
        <ele>318</ele>
        <time>2013-02-24T14:38:55.1Z</time>
      </trkpt>
      <trkpt lat="48.48024" lon="-3.49063">
        <ele>318</ele>
        <time>2013-02-24T14:38:57.1Z</time>
      </trkpt>
      <trkpt lat="48.48025" lon="-3.49063">
        <ele>318</ele>
        <time>2013-02-24T14:38:59.1Z</time>
      </trkpt>
      <trkpt lat="48.48026" lon="-3.49064">
        <ele>318</ele>
        <time>2013-02-24T14:39:01.1Z</time>
      </trkpt>
      <trkpt lat="48.48028" lon="-3.49064">
        <ele>318</ele>
        <time>2013-02-24T14:39:03.1Z</time>
      </trkpt>
      <trkpt lat="48.4803" lon="-3.49064">
        <ele>318</ele>
        <time>2013-02-24T14:39:05.1Z</time>
      </trkpt>
      <trkpt lat="48.48033" lon="-3.49064">
        <ele>318</ele>
        <time>2013-02-24T14:39:07.1Z</time>
      </trkpt>
      <trkpt lat="48.48035" lon="-3.49064">
        <ele>318</ele>
        <time>2013-02-24T14:39:09.1Z</time>
      </trkpt>
      <trkpt lat="48.48036" lon="-3.49065">
        <ele>318</ele>
        <time>2013-02-24T14:39:11.1Z</time>
      </trkpt>
      <trkpt lat="48.48038" lon="-3.49065">
        <ele>317</ele>
        <time>2013-02-24T14:39:13.1Z</time>
      </trkpt>
      <trkpt lat="48.4804" lon="-3.49066">
        <ele>317</ele>
        <time>2013-02-24T14:39:15.1Z</time>
      </trkpt>
      <trkpt lat="48.48042" lon="-3.49067">
        <ele>316</ele>
        <time>2013-02-24T14:39:17.1Z</time>
      </trkpt>
      <trkpt lat="48.48044" lon="-3.49067">
        <ele>316</ele>
        <time>2013-02-24T14:39:20.1Z</time>
      </trkpt>
      <trkpt lat="48.48045" lon="-3.49069">
        <ele>316</ele>
        <time>2013-02-24T14:39:22.1Z</time>
      </trkpt>
      <trkpt lat="48.48047" lon="-3.49069">
        <ele>316</ele>
        <time>2013-02-24T14:39:24.1Z</time>
      </trkpt>
      <trkpt lat="48.48049" lon="-3.49069">
        <ele>316</ele>
        <time>2013-02-24T14:39:26.1Z</time>
      </trkpt>
      <trkpt lat="48.48051" lon="-3.49069">
        <ele>316</ele>
        <time>2013-02-24T14:39:28.1Z</time>
      </trkpt>
      <trkpt lat="48.48052" lon="-3.4907">
        <ele>316</ele>
        <time>2013-02-24T14:39:30.1Z</time>
      </trkpt>
      <trkpt lat="48.48054" lon="-3.49071">
        <ele>316</ele>
        <time>2013-02-24T14:39:32.1Z</time>
      </trkpt>
      <trkpt lat="48.48055" lon="-3.49071">
        <ele>316</ele>
        <time>2013-02-24T14:39:34.1Z</time>
      </trkpt>
      <trkpt lat="48.48056" lon="-3.49071">
        <ele>316</ele>
        <time>2013-02-24T14:39:36.1Z</time>
      </trkpt>
      <trkpt lat="48.48058" lon="-3.49071">
        <ele>316</ele>
        <time>2013-02-24T14:39:38.1Z</time>
      </trkpt>
      <trkpt lat="48.4806" lon="-3.49071">
        <ele>316</ele>
        <time>2013-02-24T14:39:40.1Z</time>
      </trkpt>
      <trkpt lat="48.48062" lon="-3.49071">
        <ele>316</ele>
        <time>2013-02-24T14:39:42.1Z</time>
      </trkpt>
      <trkpt lat="48.48064" lon="-3.49071">
        <ele>316</ele>
        <time>2013-02-24T14:39:44.1Z</time>
      </trkpt>
      <trkpt lat="48.48067" lon="-3.49072">
        <ele>316</ele>
        <time>2013-02-24T14:39:46.1Z</time>
      </trkpt>
      <trkpt lat="48.48069" lon="-3.49072">
        <ele>316</ele>
        <time>2013-02-24T14:39:49.1Z</time>
      </trkpt>
      <trkpt lat="48.48072" lon="-3.49072">
        <ele>316</ele>
        <time>2013-02-24T14:39:51.1Z</time>
      </trkpt>
      <trkpt lat="48.48073" lon="-3.49071">
        <ele>315</ele>
        <time>2013-02-24T14:39:53.1Z</time>
      </trkpt>
      <trkpt lat="48.48074" lon="-3.4907">
        <ele>315</ele>
        <time>2013-02-24T14:39:55.1Z</time>
      </trkpt>
      <trkpt lat="48.48075" lon="-3.49071">
        <ele>315</ele>
        <time>2013-02-24T14:39:57.1Z</time>
      </trkpt>
      <trkpt lat="48.48077" lon="-3.49071">
        <ele>314</ele>
        <time>2013-02-24T14:39:59.1Z</time>
      </trkpt>
      <trkpt lat="48.48079" lon="-3.49071">
        <ele>314</ele>
        <time>2013-02-24T14:40:01.1Z</time>
      </trkpt>
      <trkpt lat="48.48081" lon="-3.49072">
        <ele>314</ele>
        <time>2013-02-24T14:40:03.1Z</time>
      </trkpt>
      <trkpt lat="48.48085" lon="-3.49072">
        <ele>314</ele>
        <time>2013-02-24T14:40:05.1Z</time>
      </trkpt>
      <trkpt lat="48.48086" lon="-3.49073">
        <ele>313</ele>
        <time>2013-02-24T14:40:07.1Z</time>
      </trkpt>
      <trkpt lat="48.48088" lon="-3.49073">
        <ele>313</ele>
        <time>2013-02-24T14:40:09.1Z</time>
      </trkpt>
      <trkpt lat="48.4809" lon="-3.49074">
        <ele>313</ele>
        <time>2013-02-24T14:40:12.1Z</time>
      </trkpt>
      <trkpt lat="48.48093" lon="-3.49074">
        <ele>313</ele>
        <time>2013-02-24T14:40:14.1Z</time>
      </trkpt>
      <trkpt lat="48.48096" lon="-3.49074">
        <ele>313</ele>
        <time>2013-02-24T14:40:16.1Z</time>
      </trkpt>
      <trkpt lat="48.48098" lon="-3.49074">
        <ele>312</ele>
        <time>2013-02-24T14:40:18.1Z</time>
      </trkpt>
      <trkpt lat="48.481" lon="-3.49075">
        <ele>312</ele>
        <time>2013-02-24T14:40:20.1Z</time>
      </trkpt>
      <trkpt lat="48.48101" lon="-3.49075">
        <ele>312</ele>
        <time>2013-02-24T14:40:22.1Z</time>
      </trkpt>
      <trkpt lat="48.48103" lon="-3.49076">
        <ele>312</ele>
        <time>2013-02-24T14:40:24.1Z</time>
      </trkpt>
      <trkpt lat="48.48106" lon="-3.49076">
        <ele>312</ele>
        <time>2013-02-24T14:40:26.1Z</time>
      </trkpt>
      <trkpt lat="48.48108" lon="-3.49076">
        <ele>312</ele>
        <time>2013-02-24T14:40:28.1Z</time>
      </trkpt>
      <trkpt lat="48.4811" lon="-3.49076">
        <ele>312</ele>
        <time>2013-02-24T14:40:30.1Z</time>
      </trkpt>
      <trkpt lat="48.48112" lon="-3.49077">
        <ele>311</ele>
        <time>2013-02-24T14:40:32.1Z</time>
      </trkpt>
      <trkpt lat="48.48114" lon="-3.49078">
        <ele>311</ele>
        <time>2013-02-24T14:40:34.1Z</time>
      </trkpt>
      <trkpt lat="48.48117" lon="-3.49078">
        <ele>311</ele>
        <time>2013-02-24T14:40:36.1Z</time>
      </trkpt>
      <trkpt lat="48.48119" lon="-3.49079">
        <ele>311</ele>
        <time>2013-02-24T14:40:38.1Z</time>
      </trkpt>
      <trkpt lat="48.4812" lon="-3.49079">
        <ele>311</ele>
        <time>2013-02-24T14:40:40.1Z</time>
      </trkpt>
      <trkpt lat="48.48124" lon="-3.49079">
        <ele>311</ele>
        <time>2013-02-24T14:40:42.1Z</time>
      </trkpt>
      <trkpt lat="48.48125" lon="-3.4908">
        <ele>311</ele>
        <time>2013-02-24T14:40:44.1Z</time>
      </trkpt>
      <trkpt lat="48.48127" lon="-3.4908">
        <ele>310</ele>
        <time>2013-02-24T14:40:46.1Z</time>
      </trkpt>
      <trkpt lat="48.48128" lon="-3.4908">
        <ele>310</ele>
        <time>2013-02-24T14:40:49.1Z</time>
      </trkpt>
      <trkpt lat="48.4813" lon="-3.49081">
        <ele>310</ele>
        <time>2013-02-24T14:40:51.1Z</time>
      </trkpt>
      <trkpt lat="48.48132" lon="-3.49081">
        <ele>309</ele>
        <time>2013-02-24T14:40:53.1Z</time>
      </trkpt>
      <trkpt lat="48.48133" lon="-3.49081">
        <ele>309</ele>
        <time>2013-02-24T14:40:55.1Z</time>
      </trkpt>
      <trkpt lat="48.48135" lon="-3.49081">
        <ele>309</ele>
        <time>2013-02-24T14:40:57.1Z</time>
      </trkpt>
      <trkpt lat="48.48137" lon="-3.4908">
        <ele>309</ele>
        <time>2013-02-24T14:40:59.1Z</time>
      </trkpt>
      <trkpt lat="48.48138" lon="-3.4908">
        <ele>309</ele>
        <time>2013-02-24T14:41:01.1Z</time>
      </trkpt>
      <trkpt lat="48.48141" lon="-3.4908">
        <ele>309</ele>
        <time>2013-02-24T14:41:03.1Z</time>
      </trkpt>
      <trkpt lat="48.48143" lon="-3.4908">
        <ele>309</ele>
        <time>2013-02-24T14:41:05.1Z</time>
      </trkpt>
      <trkpt lat="48.48145" lon="-3.4908">
        <ele>308</ele>
        <time>2013-02-24T14:41:07.1Z</time>
      </trkpt>
      <trkpt lat="48.48147" lon="-3.4908">
        <ele>308</ele>
        <time>2013-02-24T14:41:10.1Z</time>
      </trkpt>
      <trkpt lat="48.48149" lon="-3.4908">
        <ele>308</ele>
        <time>2013-02-24T14:41:12.1Z</time>
      </trkpt>
      <trkpt lat="48.48151" lon="-3.4908">
        <ele>308</ele>
        <time>2013-02-24T14:41:14.1Z</time>
      </trkpt>
      <trkpt lat="48.48152" lon="-3.4908">
        <ele>308</ele>
        <time>2013-02-24T14:41:16.1Z</time>
      </trkpt>
      <trkpt lat="48.48153" lon="-3.4908">
        <ele>308</ele>
        <time>2013-02-24T14:41:18.1Z</time>
      </trkpt>
      <trkpt lat="48.48154" lon="-3.49079">
        <ele>308</ele>
        <time>2013-02-24T14:41:20.1Z</time>
      </trkpt>
      <trkpt lat="48.48156" lon="-3.49079">
        <ele>308</ele>
        <time>2013-02-24T14:41:22.1Z</time>
      </trkpt>
      <trkpt lat="48.4816" lon="-3.49078">
        <ele>308</ele>
        <time>2013-02-24T14:41:24.1Z</time>
      </trkpt>
      <trkpt lat="48.48162" lon="-3.49079">
        <ele>307</ele>
        <time>2013-02-24T14:41:26.1Z</time>
      </trkpt>
      <trkpt lat="48.48164" lon="-3.49079">
        <ele>307</ele>
        <time>2013-02-24T14:41:28.1Z</time>
      </trkpt>
      <trkpt lat="48.48166" lon="-3.49078">
        <ele>307</ele>
        <time>2013-02-24T14:41:31.1Z</time>
      </trkpt>
      <trkpt lat="48.48168" lon="-3.49078">
        <ele>307</ele>
        <time>2013-02-24T14:41:33.1Z</time>
      </trkpt>
      <trkpt lat="48.48169" lon="-3.49078">
        <ele>307</ele>
        <time>2013-02-24T14:41:35.1Z</time>
      </trkpt>
      <trkpt lat="48.48171" lon="-3.49078">
        <ele>307</ele>
        <time>2013-02-24T14:41:37.1Z</time>
      </trkpt>
      <trkpt lat="48.48173" lon="-3.49077">
        <ele>307</ele>
        <time>2013-02-24T14:41:39.1Z</time>
      </trkpt>
      <trkpt lat="48.48175" lon="-3.49076">
        <ele>307</ele>
        <time>2013-02-24T14:41:41.1Z</time>
      </trkpt>
      <trkpt lat="48.48177" lon="-3.49076">
        <ele>306</ele>
        <time>2013-02-24T14:41:43.1Z</time>
      </trkpt>
      <trkpt lat="48.48179" lon="-3.49075">
        <ele>306</ele>
        <time>2013-02-24T14:41:45.1Z</time>
      </trkpt>
      <trkpt lat="48.4818" lon="-3.49076">
        <ele>306</ele>
        <time>2013-02-24T14:41:47.1Z</time>
      </trkpt>
      <trkpt lat="48.48181" lon="-3.49076">
        <ele>306</ele>
        <time>2013-02-24T14:41:49.1Z</time>
      </trkpt>
      <trkpt lat="48.48183" lon="-3.49076">
        <ele>306</ele>
        <time>2013-02-24T14:41:51.1Z</time>
      </trkpt>
      <trkpt lat="48.48185" lon="-3.49076">
        <ele>306</ele>
        <time>2013-02-24T14:41:54.1Z</time>
      </trkpt>
      <trkpt lat="48.48186" lon="-3.49077">
        <ele>306</ele>
        <time>2013-02-24T14:41:56.1Z</time>
      </trkpt>
      <trkpt lat="48.48188" lon="-3.49078">
        <ele>305</ele>
        <time>2013-02-24T14:41:58.1Z</time>
      </trkpt>
      <trkpt lat="48.4819" lon="-3.49078">
        <ele>306</ele>
        <time>2013-02-24T14:42:00.1Z</time>
      </trkpt>
      <trkpt lat="48.48191" lon="-3.49079">
        <ele>306</ele>
        <time>2013-02-24T14:42:02.1Z</time>
      </trkpt>
      <trkpt lat="48.48193" lon="-3.4908">
        <ele>306</ele>
        <time>2013-02-24T14:42:04.1Z</time>
      </trkpt>
      <trkpt lat="48.48194" lon="-3.49081">
        <ele>306</ele>
        <time>2013-02-24T14:42:06.1Z</time>
      </trkpt>
      <trkpt lat="48.48195" lon="-3.49082">
        <ele>306</ele>
        <time>2013-02-24T14:42:08.1Z</time>
      </trkpt>
      <trkpt lat="48.48197" lon="-3.49083">
        <ele>306</ele>
        <time>2013-02-24T14:42:10.1Z</time>
      </trkpt>
      <trkpt lat="48.48198" lon="-3.49083">
        <ele>306</ele>
        <time>2013-02-24T14:42:12.1Z</time>
      </trkpt>
      <trkpt lat="48.48201" lon="-3.49083">
        <ele>306</ele>
        <time>2013-02-24T14:42:14.1Z</time>
      </trkpt>
      <trkpt lat="48.48203" lon="-3.49084">
        <ele>306</ele>
        <time>2013-02-24T14:42:16.1Z</time>
      </trkpt>
      <trkpt lat="48.48205" lon="-3.49084">
        <ele>306</ele>
        <time>2013-02-24T14:42:18.1Z</time>
      </trkpt>
      <trkpt lat="48.48206" lon="-3.49085">
        <ele>305</ele>
        <time>2013-02-24T14:42:20.1Z</time>
      </trkpt>
      <trkpt lat="48.48208" lon="-3.49085">
        <ele>305</ele>
        <time>2013-02-24T14:42:23.1Z</time>
      </trkpt>
      <trkpt lat="48.48209" lon="-3.49086">
        <ele>305</ele>
        <time>2013-02-24T14:42:25.1Z</time>
      </trkpt>
      <trkpt lat="48.48211" lon="-3.49086">
        <ele>305</ele>
        <time>2013-02-24T14:42:27.1Z</time>
      </trkpt>
      <trkpt lat="48.48212" lon="-3.49086">
        <ele>305</ele>
        <time>2013-02-24T14:42:29.1Z</time>
      </trkpt>
      <trkpt lat="48.48214" lon="-3.49087">
        <ele>305</ele>
        <time>2013-02-24T14:42:31.1Z</time>
      </trkpt>
      <trkpt lat="48.48216" lon="-3.49087">
        <ele>305</ele>
        <time>2013-02-24T14:42:33.1Z</time>
      </trkpt>
      <trkpt lat="48.48217" lon="-3.49087">
        <ele>306</ele>
        <time>2013-02-24T14:42:35.1Z</time>
      </trkpt>
      <trkpt lat="48.48219" lon="-3.49088">
        <ele>306</ele>
        <time>2013-02-24T14:42:37.1Z</time>
      </trkpt>
      <trkpt lat="48.4822" lon="-3.49088">
        <ele>306</ele>
        <time>2013-02-24T14:42:39.1Z</time>
      </trkpt>
      <trkpt lat="48.4822" lon="-3.49089">
        <ele>305</ele>
        <time>2013-02-24T14:42:41.1Z</time>
      </trkpt>
      <trkpt lat="48.48221" lon="-3.49089">
        <ele>305</ele>
        <time>2013-02-24T14:42:43.1Z</time>
      </trkpt>
      <trkpt lat="48.48222" lon="-3.4909">
        <ele>305</ele>
        <time>2013-02-24T14:42:45.1Z</time>
      </trkpt>
      <trkpt lat="48.48223" lon="-3.4909">
        <ele>305</ele>
        <time>2013-02-24T14:42:47.1Z</time>
      </trkpt>
      <trkpt lat="48.48225" lon="-3.4909">
        <ele>305</ele>
        <time>2013-02-24T14:42:49.1Z</time>
      </trkpt>
      <trkpt lat="48.48225" lon="-3.49091">
        <ele>305</ele>
        <time>2013-02-24T14:42:52.1Z</time>
      </trkpt>
      <trkpt lat="48.48226" lon="-3.49091">
        <ele>305</ele>
        <time>2013-02-24T14:42:54.1Z</time>
      </trkpt>
      <trkpt lat="48.48228" lon="-3.49091">
        <ele>305</ele>
        <time>2013-02-24T14:42:56.1Z</time>
      </trkpt>
      <trkpt lat="48.48229" lon="-3.49091">
        <ele>305</ele>
        <time>2013-02-24T14:42:58.1Z</time>
      </trkpt>
      <trkpt lat="48.4823" lon="-3.49091">
        <ele>304</ele>
        <time>2013-02-24T14:43:00.1Z</time>
      </trkpt>
      <trkpt lat="48.48231" lon="-3.49092">
        <ele>304</ele>
        <time>2013-02-24T14:43:02.1Z</time>
      </trkpt>
      <trkpt lat="48.48232" lon="-3.49092">
        <ele>304</ele>
        <time>2013-02-24T14:43:04.1Z</time>
      </trkpt>
      <trkpt lat="48.48233" lon="-3.49093">
        <ele>304</ele>
        <time>2013-02-24T14:43:06.1Z</time>
      </trkpt>
      <trkpt lat="48.48236" lon="-3.49095">
        <ele>304</ele>
        <time>2013-02-24T14:43:08.1Z</time>
      </trkpt>
      <trkpt lat="48.48237" lon="-3.49095">
        <ele>304</ele>
        <time>2013-02-24T14:43:10.1Z</time>
      </trkpt>
      <trkpt lat="48.48238" lon="-3.49096">
        <ele>304</ele>
        <time>2013-02-24T14:43:12.1Z</time>
      </trkpt>
      <trkpt lat="48.48239" lon="-3.49096">
        <ele>304</ele>
        <time>2013-02-24T14:43:14.1Z</time>
      </trkpt>
      <trkpt lat="48.48239" lon="-3.49097">
        <ele>304</ele>
        <time>2013-02-24T14:43:16.1Z</time>
      </trkpt>
      <trkpt lat="48.48241" lon="-3.49098">
        <ele>304</ele>
        <time>2013-02-24T14:43:18.1Z</time>
      </trkpt>
      <trkpt lat="48.48242" lon="-3.491">
        <ele>304</ele>
        <time>2013-02-24T14:43:21.1Z</time>
      </trkpt>
      <trkpt lat="48.48244" lon="-3.491">
        <ele>304</ele>
        <time>2013-02-24T14:43:23.1Z</time>
      </trkpt>
      <trkpt lat="48.48246" lon="-3.49099">
        <ele>304</ele>
        <time>2013-02-24T14:43:25.1Z</time>
      </trkpt>
      <trkpt lat="48.48248" lon="-3.49098">
        <ele>304</ele>
        <time>2013-02-24T14:43:27.1Z</time>
      </trkpt>
      <trkpt lat="48.4825" lon="-3.49098">
        <ele>303</ele>
        <time>2013-02-24T14:43:29.1Z</time>
      </trkpt>
      <trkpt lat="48.48252" lon="-3.49099">
        <ele>303</ele>
        <time>2013-02-24T14:43:31.1Z</time>
      </trkpt>
      <trkpt lat="48.48254" lon="-3.49098">
        <ele>303</ele>
        <time>2013-02-24T14:43:33.1Z</time>
      </trkpt>
      <trkpt lat="48.48256" lon="-3.49097">
        <ele>302</ele>
        <time>2013-02-24T14:43:35.1Z</time>
      </trkpt>
      <trkpt lat="48.48257" lon="-3.49094">
        <ele>302</ele>
        <time>2013-02-24T14:43:37.1Z</time>
      </trkpt>
      <trkpt lat="48.48257" lon="-3.49092">
        <ele>302</ele>
        <time>2013-02-24T14:43:39.1Z</time>
      </trkpt>
      <trkpt lat="48.48258" lon="-3.49088">
        <ele>301</ele>
        <time>2013-02-24T14:43:41.1Z</time>
      </trkpt>
      <trkpt lat="48.48259" lon="-3.49085">
        <ele>301</ele>
        <time>2013-02-24T14:43:43.1Z</time>
      </trkpt>
      <trkpt lat="48.48261" lon="-3.49083">
        <ele>301</ele>
        <time>2013-02-24T14:43:46.1Z</time>
      </trkpt>
      <trkpt lat="48.48262" lon="-3.49079">
        <ele>301</ele>
        <time>2013-02-24T14:43:48.1Z</time>
      </trkpt>
      <trkpt lat="48.48263" lon="-3.49076">
        <ele>300</ele>
        <time>2013-02-24T14:43:50.1Z</time>
      </trkpt>
      <trkpt lat="48.48262" lon="-3.49073">
        <ele>300</ele>
        <time>2013-02-24T14:43:52.1Z</time>
      </trkpt>
      <trkpt lat="48.48262" lon="-3.4907">
        <ele>300</ele>
        <time>2013-02-24T14:43:54.1Z</time>
      </trkpt>
      <trkpt lat="48.48263" lon="-3.49066">
        <ele>300</ele>
        <time>2013-02-24T14:43:56.1Z</time>
      </trkpt>
      <trkpt lat="48.48264" lon="-3.49063">
        <ele>300</ele>
        <time>2013-02-24T14:43:58.1Z</time>
      </trkpt>
      <trkpt lat="48.48263" lon="-3.4906">
        <ele>300</ele>
        <time>2013-02-24T14:44:00.1Z</time>
      </trkpt>
      <trkpt lat="48.48264" lon="-3.49057">
        <ele>299</ele>
        <time>2013-02-24T14:44:02.1Z</time>
      </trkpt>
      <trkpt lat="48.48265" lon="-3.49054">
        <ele>299</ele>
        <time>2013-02-24T14:44:04.1Z</time>
      </trkpt>
      <trkpt lat="48.48265" lon="-3.4905">
        <ele>299</ele>
        <time>2013-02-24T14:44:06.1Z</time>
      </trkpt>
      <trkpt lat="48.48265" lon="-3.49044">
        <ele>298</ele>
        <time>2013-02-24T14:44:08.1Z</time>
      </trkpt>
      <trkpt lat="48.48265" lon="-3.49041">
        <ele>298</ele>
        <time>2013-02-24T14:44:10.1Z</time>
      </trkpt>
      <trkpt lat="48.48264" lon="-3.49037">
        <ele>297</ele>
        <time>2013-02-24T14:44:12.1Z</time>
      </trkpt>
      <trkpt lat="48.48264" lon="-3.49034">
        <ele>297</ele>
        <time>2013-02-24T14:44:14.1Z</time>
      </trkpt>
      <trkpt lat="48.48263" lon="-3.49031">
        <ele>297</ele>
        <time>2013-02-24T14:44:16.1Z</time>
      </trkpt>
      <trkpt lat="48.48263" lon="-3.49029">
        <ele>296</ele>
        <time>2013-02-24T14:44:18.1Z</time>
      </trkpt>
      <trkpt lat="48.48262" lon="-3.49026">
        <ele>296</ele>
        <time>2013-02-24T14:44:20.1Z</time>
      </trkpt>
      <trkpt lat="48.48262" lon="-3.49023">
        <ele>296</ele>
        <time>2013-02-24T14:44:23.1Z</time>
      </trkpt>
      <trkpt lat="48.48262" lon="-3.4902">
        <ele>296</ele>
        <time>2013-02-24T14:44:25.1Z</time>
      </trkpt>
      <trkpt lat="48.48262" lon="-3.49016">
        <ele>295</ele>
        <time>2013-02-24T14:44:27.1Z</time>
      </trkpt>
      <trkpt lat="48.48262" lon="-3.49013">
        <ele>295</ele>
        <time>2013-02-24T14:44:29.1Z</time>
      </trkpt>
      <trkpt lat="48.48263" lon="-3.49011">
        <ele>295</ele>
        <time>2013-02-24T14:44:31.1Z</time>
      </trkpt>
      <trkpt lat="48.48264" lon="-3.49008">
        <ele>294</ele>
        <time>2013-02-24T14:44:33.1Z</time>
      </trkpt>
      <trkpt lat="48.48265" lon="-3.49005">
        <ele>294</ele>
        <time>2013-02-24T14:44:35.1Z</time>
      </trkpt>
      <trkpt lat="48.48265" lon="-3.49002">
        <ele>293</ele>
        <time>2013-02-24T14:44:37.1Z</time>
      </trkpt>
      <trkpt lat="48.48266" lon="-3.48999">
        <ele>293</ele>
        <time>2013-02-24T14:44:39.1Z</time>
      </trkpt>
      <trkpt lat="48.48267" lon="-3.48995">
        <ele>292</ele>
        <time>2013-02-24T14:44:41.1Z</time>
      </trkpt>
      <trkpt lat="48.48267" lon="-3.48992">
        <ele>292</ele>
        <time>2013-02-24T14:44:43.1Z</time>
      </trkpt>
      <trkpt lat="48.48267" lon="-3.48989">
        <ele>292</ele>
        <time>2013-02-24T14:44:45.1Z</time>
      </trkpt>
      <trkpt lat="48.48267" lon="-3.48986">
        <ele>292</ele>
        <time>2013-02-24T14:44:47.1Z</time>
      </trkpt>
      <trkpt lat="48.48267" lon="-3.48983">
        <ele>291</ele>
        <time>2013-02-24T14:44:50.1Z</time>
      </trkpt>
      <trkpt lat="48.48267" lon="-3.4898">
        <ele>290</ele>
        <time>2013-02-24T14:44:52.1Z</time>
      </trkpt>
      <trkpt lat="48.48267" lon="-3.48977">
        <ele>290</ele>
        <time>2013-02-24T14:44:54.1Z</time>
      </trkpt>
      <trkpt lat="48.48268" lon="-3.48975">
        <ele>290</ele>
        <time>2013-02-24T14:44:56.1Z</time>
      </trkpt>
      <trkpt lat="48.48268" lon="-3.48971">
        <ele>289</ele>
        <time>2013-02-24T14:44:58.1Z</time>
      </trkpt>
      <trkpt lat="48.48269" lon="-3.48969">
        <ele>289</ele>
        <time>2013-02-24T14:45:00.1Z</time>
      </trkpt>
      <trkpt lat="48.48269" lon="-3.48965">
        <ele>289</ele>
        <time>2013-02-24T14:45:02.1Z</time>
      </trkpt>
      <trkpt lat="48.48269" lon="-3.48962">
        <ele>289</ele>
        <time>2013-02-24T14:45:04.1Z</time>
      </trkpt>
      <trkpt lat="48.48269" lon="-3.48958">
        <ele>289</ele>
        <time>2013-02-24T14:45:06.1Z</time>
      </trkpt>
      <trkpt lat="48.48268" lon="-3.48954">
        <ele>288</ele>
        <time>2013-02-24T14:45:08.1Z</time>
      </trkpt>
      <trkpt lat="48.48269" lon="-3.4895">
        <ele>288</ele>
        <time>2013-02-24T14:45:10.1Z</time>
      </trkpt>
      <trkpt lat="48.4827" lon="-3.48945">
        <ele>287</ele>
        <time>2013-02-24T14:45:12.1Z</time>
      </trkpt>
      <trkpt lat="48.4827" lon="-3.48942">
        <ele>287</ele>
        <time>2013-02-24T14:45:14.1Z</time>
      </trkpt>
      <trkpt lat="48.4827" lon="-3.48939">
        <ele>287</ele>
        <time>2013-02-24T14:45:16.1Z</time>
      </trkpt>
      <trkpt lat="48.4827" lon="-3.48936">
        <ele>287</ele>
        <time>2013-02-24T14:45:18.1Z</time>
      </trkpt>
      <trkpt lat="48.48269" lon="-3.48933">
        <ele>287</ele>
        <time>2013-02-24T14:45:20.1Z</time>
      </trkpt>
      <trkpt lat="48.48268" lon="-3.4893">
        <ele>287</ele>
        <time>2013-02-24T14:45:22.1Z</time>
      </trkpt>
      <trkpt lat="48.48268" lon="-3.48927">
        <ele>286</ele>
        <time>2013-02-24T14:45:24.1Z</time>
      </trkpt>
      <trkpt lat="48.48269" lon="-3.48923">
        <ele>286</ele>
        <time>2013-02-24T14:45:26.1Z</time>
      </trkpt>
      <trkpt lat="48.48269" lon="-3.4892">
        <ele>285</ele>
        <time>2013-02-24T14:45:29.1Z</time>
      </trkpt>
      <trkpt lat="48.4827" lon="-3.48917">
        <ele>285</ele>
        <time>2013-02-24T14:45:31.1Z</time>
      </trkpt>
      <trkpt lat="48.4827" lon="-3.48913">
        <ele>284</ele>
        <time>2013-02-24T14:45:33.1Z</time>
      </trkpt>
      <trkpt lat="48.48271" lon="-3.4891">
        <ele>284</ele>
        <time>2013-02-24T14:45:35.1Z</time>
      </trkpt>
      <trkpt lat="48.48271" lon="-3.48907">
        <ele>284</ele>
        <time>2013-02-24T14:45:37.1Z</time>
      </trkpt>
      <trkpt lat="48.48272" lon="-3.48905">
        <ele>284</ele>
        <time>2013-02-24T14:45:39.1Z</time>
      </trkpt>
      <trkpt lat="48.48272" lon="-3.48901">
        <ele>284</ele>
        <time>2013-02-24T14:45:41.1Z</time>
      </trkpt>
      <trkpt lat="48.48273" lon="-3.48898">
        <ele>283</ele>
        <time>2013-02-24T14:45:43.1Z</time>
      </trkpt>
      <trkpt lat="48.48273" lon="-3.48894">
        <ele>283</ele>
        <time>2013-02-24T14:45:45.1Z</time>
      </trkpt>
      <trkpt lat="48.48273" lon="-3.4889">
        <ele>282</ele>
        <time>2013-02-24T14:45:47.1Z</time>
      </trkpt>
      <trkpt lat="48.48274" lon="-3.48888">
        <ele>282</ele>
        <time>2013-02-24T14:45:49.1Z</time>
      </trkpt>
      <trkpt lat="48.48274" lon="-3.48885">
        <ele>282</ele>
        <time>2013-02-24T14:45:51.1Z</time>
      </trkpt>
      <trkpt lat="48.48274" lon="-3.48882">
        <ele>281</ele>
        <time>2013-02-24T14:45:53.1Z</time>
      </trkpt>
      <trkpt lat="48.48274" lon="-3.4888">
        <ele>281</ele>
        <time>2013-02-24T14:45:56.1Z</time>
      </trkpt>
      <trkpt lat="48.48274" lon="-3.48877">
        <ele>281</ele>
        <time>2013-02-24T14:45:58.1Z</time>
      </trkpt>
      <trkpt lat="48.48274" lon="-3.48874">
        <ele>280</ele>
        <time>2013-02-24T14:46:00.1Z</time>
      </trkpt>
      <trkpt lat="48.48274" lon="-3.48871">
        <ele>280</ele>
        <time>2013-02-24T14:46:02.1Z</time>
      </trkpt>
      <trkpt lat="48.48274" lon="-3.48868">
        <ele>280</ele>
        <time>2013-02-24T14:46:04.1Z</time>
      </trkpt>
      <trkpt lat="48.48274" lon="-3.48865">
        <ele>279</ele>
        <time>2013-02-24T14:46:06.1Z</time>
      </trkpt>
      <trkpt lat="48.48274" lon="-3.48862">
        <ele>279</ele>
        <time>2013-02-24T14:46:08.1Z</time>
      </trkpt>
      <trkpt lat="48.48274" lon="-3.48859">
        <ele>279</ele>
        <time>2013-02-24T14:46:10.1Z</time>
      </trkpt>
      <trkpt lat="48.48275" lon="-3.48857">
        <ele>279</ele>
        <time>2013-02-24T14:46:12.1Z</time>
      </trkpt>
      <trkpt lat="48.48275" lon="-3.48854">
        <ele>279</ele>
        <time>2013-02-24T14:46:14.1Z</time>
      </trkpt>
      <trkpt lat="48.48275" lon="-3.48851">
        <ele>279</ele>
        <time>2013-02-24T14:46:17.1Z</time>
      </trkpt>
      <trkpt lat="48.48275" lon="-3.48848">
        <ele>278</ele>
        <time>2013-02-24T14:46:19.1Z</time>
      </trkpt>
      <trkpt lat="48.48275" lon="-3.48847">
        <ele>278</ele>
        <time>2013-02-24T14:46:21.1Z</time>
      </trkpt>
      <trkpt lat="48.48275" lon="-3.48845">
        <ele>277</ele>
        <time>2013-02-24T14:46:23.1Z</time>
      </trkpt>
      <trkpt lat="48.48275" lon="-3.48842">
        <ele>277</ele>
        <time>2013-02-24T14:46:25.1Z</time>
      </trkpt>
      <trkpt lat="48.48275" lon="-3.48839">
        <ele>277</ele>
        <time>2013-02-24T14:46:27.1Z</time>
      </trkpt>
      <trkpt lat="48.48275" lon="-3.48836">
        <ele>277</ele>
        <time>2013-02-24T14:46:29.1Z</time>
      </trkpt>
      <trkpt lat="48.48276" lon="-3.48833">
        <ele>277</ele>
        <time>2013-02-24T14:46:31.1Z</time>
      </trkpt>
      <trkpt lat="48.48276" lon="-3.48829">
        <ele>276</ele>
        <time>2013-02-24T14:46:33.1Z</time>
      </trkpt>
      <trkpt lat="48.48276" lon="-3.48827">
        <ele>276</ele>
        <time>2013-02-24T14:46:35.1Z</time>
      </trkpt>
      <trkpt lat="48.48276" lon="-3.48824">
        <ele>276</ele>
        <time>2013-02-24T14:46:37.1Z</time>
      </trkpt>
      <trkpt lat="48.48277" lon="-3.48821">
        <ele>275</ele>
        <time>2013-02-24T14:46:39.1Z</time>
      </trkpt>
      <trkpt lat="48.48277" lon="-3.48817">
        <ele>275</ele>
        <time>2013-02-24T14:46:41.1Z</time>
      </trkpt>
      <trkpt lat="48.48276" lon="-3.48815">
        <ele>275</ele>
        <time>2013-02-24T14:46:43.1Z</time>
      </trkpt>
      <trkpt lat="48.48276" lon="-3.48811">
        <ele>275</ele>
        <time>2013-02-24T14:46:45.1Z</time>
      </trkpt>
      <trkpt lat="48.48277" lon="-3.48808">
        <ele>275</ele>
        <time>2013-02-24T14:46:47.1Z</time>
      </trkpt>
      <trkpt lat="48.48277" lon="-3.48805">
        <ele>274</ele>
        <time>2013-02-24T14:46:50.1Z</time>
      </trkpt>
      <trkpt lat="48.48277" lon="-3.48802">
        <ele>274</ele>
        <time>2013-02-24T14:46:52.1Z</time>
      </trkpt>
      <trkpt lat="48.48277" lon="-3.48799">
        <ele>274</ele>
        <time>2013-02-24T14:46:54.1Z</time>
      </trkpt>
      <trkpt lat="48.48277" lon="-3.48795">
        <ele>273</ele>
        <time>2013-02-24T14:46:56.1Z</time>
      </trkpt>
      <trkpt lat="48.48277" lon="-3.48791">
        <ele>273</ele>
        <time>2013-02-24T14:46:58.1Z</time>
      </trkpt>
      <trkpt lat="48.48277" lon="-3.48788">
        <ele>273</ele>
        <time>2013-02-24T14:47:00.1Z</time>
      </trkpt>
      <trkpt lat="48.48277" lon="-3.48785">
        <ele>272</ele>
        <time>2013-02-24T14:47:02.1Z</time>
      </trkpt>
      <trkpt lat="48.48277" lon="-3.48781">
        <ele>272</ele>
        <time>2013-02-24T14:47:04.1Z</time>
      </trkpt>
      <trkpt lat="48.48277" lon="-3.48778">
        <ele>271</ele>
        <time>2013-02-24T14:47:06.1Z</time>
      </trkpt>
      <trkpt lat="48.48277" lon="-3.48776">
        <ele>271</ele>
        <time>2013-02-24T14:47:08.1Z</time>
      </trkpt>
      <trkpt lat="48.48278" lon="-3.48773">
        <ele>271</ele>
        <time>2013-02-24T14:47:10.1Z</time>
      </trkpt>
      <trkpt lat="48.48277" lon="-3.4877">
        <ele>270</ele>
        <time>2013-02-24T14:47:12.1Z</time>
      </trkpt>
      <trkpt lat="48.48278" lon="-3.48767">
        <ele>270</ele>
        <time>2013-02-24T14:47:15.1Z</time>
      </trkpt>
      <trkpt lat="48.48278" lon="-3.48764">
        <ele>270</ele>
        <time>2013-02-24T14:47:17.1Z</time>
      </trkpt>
      <trkpt lat="48.48278" lon="-3.4876">
        <ele>269</ele>
        <time>2013-02-24T14:47:19.1Z</time>
      </trkpt>
      <trkpt lat="48.48278" lon="-3.48756">
        <ele>269</ele>
        <time>2013-02-24T14:47:21.1Z</time>
      </trkpt>
      <trkpt lat="48.48279" lon="-3.48753">
        <ele>269</ele>
        <time>2013-02-24T14:47:23.1Z</time>
      </trkpt>
      <trkpt lat="48.48279" lon="-3.48749">
        <ele>269</ele>
        <time>2013-02-24T14:47:25.1Z</time>
      </trkpt>
      <trkpt lat="48.48279" lon="-3.48746">
        <ele>268</ele>
        <time>2013-02-24T14:47:27.1Z</time>
      </trkpt>
      <trkpt lat="48.48279" lon="-3.4874">
        <ele>268</ele>
        <time>2013-02-24T14:47:29.1Z</time>
      </trkpt>
      <trkpt lat="48.4828" lon="-3.48738">
        <ele>268</ele>
        <time>2013-02-24T14:47:31.1Z</time>
      </trkpt>
      <trkpt lat="48.48282" lon="-3.48737">
        <ele>268</ele>
        <time>2013-02-24T14:47:33.1Z</time>
      </trkpt>
      <trkpt lat="48.48283" lon="-3.48737">
        <ele>267</ele>
        <time>2013-02-24T14:47:36.1Z</time>
      </trkpt>
      <trkpt lat="48.48285" lon="-3.48736">
        <ele>268</ele>
        <time>2013-02-24T14:47:38.1Z</time>
      </trkpt>
      <trkpt lat="48.48287" lon="-3.48735">
        <ele>267</ele>
        <time>2013-02-24T14:47:40.1Z</time>
      </trkpt>
      <trkpt lat="48.48289" lon="-3.48734">
        <ele>267</ele>
        <time>2013-02-24T14:47:42.1Z</time>
      </trkpt>
      <trkpt lat="48.4829" lon="-3.48734">
        <ele>267</ele>
        <time>2013-02-24T14:47:44.1Z</time>
      </trkpt>
      <trkpt lat="48.48293" lon="-3.48734">
        <ele>267</ele>
        <time>2013-02-24T14:47:46.1Z</time>
      </trkpt>
      <trkpt lat="48.48295" lon="-3.48734">
        <ele>267</ele>
        <time>2013-02-24T14:47:48.1Z</time>
      </trkpt>
      <trkpt lat="48.48297" lon="-3.48734">
        <ele>267</ele>
        <time>2013-02-24T14:47:50.1Z</time>
      </trkpt>
      <trkpt lat="48.48298" lon="-3.48734">
        <ele>267</ele>
        <time>2013-02-24T14:47:52.1Z</time>
      </trkpt>
      <trkpt lat="48.48299" lon="-3.48734">
        <ele>267</ele>
        <time>2013-02-24T14:47:54.1Z</time>
      </trkpt>
      <trkpt lat="48.48301" lon="-3.48733">
        <ele>267</ele>
        <time>2013-02-24T14:47:57.1Z</time>
      </trkpt>
      <trkpt lat="48.48302" lon="-3.48733">
        <ele>267</ele>
        <time>2013-02-24T14:47:59.1Z</time>
      </trkpt>
      <trkpt lat="48.48304" lon="-3.48733">
        <ele>267</ele>
        <time>2013-02-24T14:48:01.1Z</time>
      </trkpt>
      <trkpt lat="48.48306" lon="-3.48733">
        <ele>267</ele>
        <time>2013-02-24T14:48:03.1Z</time>
      </trkpt>
      <trkpt lat="48.48308" lon="-3.48733">
        <ele>267</ele>
        <time>2013-02-24T14:48:05.1Z</time>
      </trkpt>
      <trkpt lat="48.48309" lon="-3.48733">
        <ele>267</ele>
        <time>2013-02-24T14:48:07.1Z</time>
      </trkpt>
      <trkpt lat="48.48311" lon="-3.48732">
        <ele>266</ele>
        <time>2013-02-24T14:48:09.1Z</time>
      </trkpt>
      <trkpt lat="48.48313" lon="-3.48732">
        <ele>266</ele>
        <time>2013-02-24T14:48:11.1Z</time>
      </trkpt>
      <trkpt lat="48.48315" lon="-3.48731">
        <ele>266</ele>
        <time>2013-02-24T14:48:13.1Z</time>
      </trkpt>
      <trkpt lat="48.48317" lon="-3.48731">
        <ele>266</ele>
        <time>2013-02-24T14:48:15.1Z</time>
      </trkpt>
      <trkpt lat="48.48319" lon="-3.4873">
        <ele>266</ele>
        <time>2013-02-24T14:48:17.1Z</time>
      </trkpt>
      <trkpt lat="48.48321" lon="-3.4873">
        <ele>266</ele>
        <time>2013-02-24T14:48:20.1Z</time>
      </trkpt>
      <trkpt lat="48.48323" lon="-3.4873">
        <ele>266</ele>
        <time>2013-02-24T14:48:22.1Z</time>
      </trkpt>
      <trkpt lat="48.48324" lon="-3.48729">
        <ele>266</ele>
        <time>2013-02-24T14:48:24.1Z</time>
      </trkpt>
      <trkpt lat="48.48326" lon="-3.48729">
        <ele>266</ele>
        <time>2013-02-24T14:48:26.1Z</time>
      </trkpt>
      <trkpt lat="48.48327" lon="-3.4873">
        <ele>266</ele>
        <time>2013-02-24T14:48:28.1Z</time>
      </trkpt>
      <trkpt lat="48.48329" lon="-3.4873">
        <ele>266</ele>
        <time>2013-02-24T14:48:30.1Z</time>
      </trkpt>
      <trkpt lat="48.4833" lon="-3.4873">
        <ele>266</ele>
        <time>2013-02-24T14:48:32.1Z</time>
      </trkpt>
      <trkpt lat="48.48332" lon="-3.48731">
        <ele>266</ele>
        <time>2013-02-24T14:48:34.1Z</time>
      </trkpt>
      <trkpt lat="48.48333" lon="-3.48731">
        <ele>266</ele>
        <time>2013-02-24T14:48:36.1Z</time>
      </trkpt>
      <trkpt lat="48.48335" lon="-3.48731">
        <ele>266</ele>
        <time>2013-02-24T14:48:38.1Z</time>
      </trkpt>
      <trkpt lat="48.48337" lon="-3.48731">
        <ele>266</ele>
        <time>2013-02-24T14:48:40.1Z</time>
      </trkpt>
      <trkpt lat="48.48338" lon="-3.48731">
        <ele>265</ele>
        <time>2013-02-24T14:48:42.1Z</time>
      </trkpt>
      <trkpt lat="48.4834" lon="-3.48731">
        <ele>265</ele>
        <time>2013-02-24T14:48:45.1Z</time>
      </trkpt>
      <trkpt lat="48.48342" lon="-3.48731">
        <ele>265</ele>
        <time>2013-02-24T14:48:47.1Z</time>
      </trkpt>
      <trkpt lat="48.48345" lon="-3.48731">
        <ele>265</ele>
        <time>2013-02-24T14:48:49.1Z</time>
      </trkpt>
      <trkpt lat="48.48346" lon="-3.48731">
        <ele>265</ele>
        <time>2013-02-24T14:48:51.1Z</time>
      </trkpt>
      <trkpt lat="48.48349" lon="-3.48731">
        <ele>265</ele>
        <time>2013-02-24T14:48:53.1Z</time>
      </trkpt>
      <trkpt lat="48.48351" lon="-3.48731">
        <ele>265</ele>
        <time>2013-02-24T14:48:55.1Z</time>
      </trkpt>
      <trkpt lat="48.48353" lon="-3.48732">
        <ele>264</ele>
        <time>2013-02-24T14:48:57.1Z</time>
      </trkpt>
      <trkpt lat="48.48356" lon="-3.48732">
        <ele>264</ele>
        <time>2013-02-24T14:48:59.1Z</time>
      </trkpt>
      <trkpt lat="48.48358" lon="-3.48732">
        <ele>264</ele>
        <time>2013-02-24T14:49:01.1Z</time>
      </trkpt>
      <trkpt lat="48.4836" lon="-3.48732">
        <ele>264</ele>
        <time>2013-02-24T14:49:03.1Z</time>
      </trkpt>
      <trkpt lat="48.48363" lon="-3.48733">
        <ele>264</ele>
        <time>2013-02-24T14:49:06.1Z</time>
      </trkpt>
      <trkpt lat="48.48365" lon="-3.48733">
        <ele>264</ele>
        <time>2013-02-24T14:49:08.1Z</time>
      </trkpt>
      <trkpt lat="48.48367" lon="-3.48733">
        <ele>264</ele>
        <time>2013-02-24T14:49:10.1Z</time>
      </trkpt>
      <trkpt lat="48.4837" lon="-3.48733">
        <ele>264</ele>
        <time>2013-02-24T14:49:12.1Z</time>
      </trkpt>
      <trkpt lat="48.48373" lon="-3.48733">
        <ele>264</ele>
        <time>2013-02-24T14:49:14.1Z</time>
      </trkpt>
      <trkpt lat="48.48376" lon="-3.48733">
        <ele>264</ele>
        <time>2013-02-24T14:49:16.1Z</time>
      </trkpt>
      <trkpt lat="48.4838" lon="-3.48733">
        <ele>264</ele>
        <time>2013-02-24T14:49:18.1Z</time>
      </trkpt>
      <trkpt lat="48.48382" lon="-3.48733">
        <ele>264</ele>
        <time>2013-02-24T14:49:20.1Z</time>
      </trkpt>
      <trkpt lat="48.48384" lon="-3.48733">
        <ele>263</ele>
        <time>2013-02-24T14:49:22.1Z</time>
      </trkpt>
      <trkpt lat="48.48386" lon="-3.48734">
        <ele>263</ele>
        <time>2013-02-24T14:49:24.1Z</time>
      </trkpt>
      <trkpt lat="48.48388" lon="-3.48735">
        <ele>263</ele>
        <time>2013-02-24T14:49:27.1Z</time>
      </trkpt>
      <trkpt lat="48.4839" lon="-3.48735">
        <ele>263</ele>
        <time>2013-02-24T14:49:29.1Z</time>
      </trkpt>
      <trkpt lat="48.48392" lon="-3.48735">
        <ele>263</ele>
        <time>2013-02-24T14:49:31.1Z</time>
      </trkpt>
      <trkpt lat="48.48395" lon="-3.48735">
        <ele>263</ele>
        <time>2013-02-24T14:49:33.1Z</time>
      </trkpt>
      <trkpt lat="48.48397" lon="-3.48735">
        <ele>263</ele>
        <time>2013-02-24T14:49:35.1Z</time>
      </trkpt>
      <trkpt lat="48.484" lon="-3.48736">
        <ele>263</ele>
        <time>2013-02-24T14:49:37.1Z</time>
      </trkpt>
      <trkpt lat="48.48402" lon="-3.48735">
        <ele>263</ele>
        <time>2013-02-24T14:49:39.1Z</time>
      </trkpt>
      <trkpt lat="48.48404" lon="-3.48735">
        <ele>263</ele>
        <time>2013-02-24T14:49:41.1Z</time>
      </trkpt>
      <trkpt lat="48.48406" lon="-3.48735">
        <ele>263</ele>
        <time>2013-02-24T14:49:43.1Z</time>
      </trkpt>
      <trkpt lat="48.48408" lon="-3.48735">
        <ele>263</ele>
        <time>2013-02-24T14:49:45.1Z</time>
      </trkpt>
      <trkpt lat="48.4841" lon="-3.48734">
        <ele>262</ele>
        <time>2013-02-24T14:49:48.1Z</time>
      </trkpt>
      <trkpt lat="48.48412" lon="-3.48734">
        <ele>262</ele>
        <time>2013-02-24T14:49:50.1Z</time>
      </trkpt>
      <trkpt lat="48.48414" lon="-3.48734">
        <ele>262</ele>
        <time>2013-02-24T14:49:52.1Z</time>
      </trkpt>
      <trkpt lat="48.48416" lon="-3.48734">
        <ele>263</ele>
        <time>2013-02-24T14:49:54.1Z</time>
      </trkpt>
      <trkpt lat="48.48418" lon="-3.48734">
        <ele>262</ele>
        <time>2013-02-24T14:49:56.1Z</time>
      </trkpt>
      <trkpt lat="48.4842" lon="-3.48734">
        <ele>262</ele>
        <time>2013-02-24T14:49:58.1Z</time>
      </trkpt>
      <trkpt lat="48.48424" lon="-3.48734">
        <ele>262</ele>
        <time>2013-02-24T14:50:00.1Z</time>
      </trkpt>
      <trkpt lat="48.48426" lon="-3.48734">
        <ele>262</ele>
        <time>2013-02-24T14:50:02.1Z</time>
      </trkpt>
      <trkpt lat="48.48428" lon="-3.48734">
        <ele>262</ele>
        <time>2013-02-24T14:50:04.1Z</time>
      </trkpt>
      <trkpt lat="48.4843" lon="-3.48735">
        <ele>262</ele>
        <time>2013-02-24T14:50:06.1Z</time>
      </trkpt>
      <trkpt lat="48.48432" lon="-3.48734">
        <ele>262</ele>
        <time>2013-02-24T14:50:08.1Z</time>
      </trkpt>
      <trkpt lat="48.48435" lon="-3.48734">
        <ele>262</ele>
        <time>2013-02-24T14:50:11.1Z</time>
      </trkpt>
      <trkpt lat="48.48437" lon="-3.48734">
        <ele>262</ele>
        <time>2013-02-24T14:50:13.1Z</time>
      </trkpt>
      <trkpt lat="48.48439" lon="-3.48734">
        <ele>262</ele>
        <time>2013-02-24T14:50:15.1Z</time>
      </trkpt>
      <trkpt lat="48.48441" lon="-3.48733">
        <ele>261</ele>
        <time>2013-02-24T14:50:17.1Z</time>
      </trkpt>
      <trkpt lat="48.48443" lon="-3.48733">
        <ele>261</ele>
        <time>2013-02-24T14:50:19.1Z</time>
      </trkpt>
      <trkpt lat="48.48445" lon="-3.48733">
        <ele>261</ele>
        <time>2013-02-24T14:50:21.1Z</time>
      </trkpt>
      <trkpt lat="48.48447" lon="-3.48733">
        <ele>261</ele>
        <time>2013-02-24T14:50:23.1Z</time>
      </trkpt>
      <trkpt lat="48.48449" lon="-3.48733">
        <ele>261</ele>
        <time>2013-02-24T14:50:25.1Z</time>
      </trkpt>
      <trkpt lat="48.48454" lon="-3.48733">
        <ele>261</ele>
        <time>2013-02-24T14:50:27.1Z</time>
      </trkpt>
      <trkpt lat="48.48455" lon="-3.48732">
        <ele>261</ele>
        <time>2013-02-24T14:50:29.1Z</time>
      </trkpt>
      <trkpt lat="48.48458" lon="-3.48733">
        <ele>261</ele>
        <time>2013-02-24T14:50:31.1Z</time>
      </trkpt>
      <trkpt lat="48.48461" lon="-3.48734">
        <ele>261</ele>
        <time>2013-02-24T14:50:33.1Z</time>
      </trkpt>
      <trkpt lat="48.48463" lon="-3.48734">
        <ele>261</ele>
        <time>2013-02-24T14:50:35.1Z</time>
      </trkpt>
      <trkpt lat="48.48466" lon="-3.48734">
        <ele>260</ele>
        <time>2013-02-24T14:50:37.1Z</time>
      </trkpt>
      <trkpt lat="48.48468" lon="-3.48734">
        <ele>260</ele>
        <time>2013-02-24T14:50:39.1Z</time>
      </trkpt>
      <trkpt lat="48.4847" lon="-3.48735">
        <ele>260</ele>
        <time>2013-02-24T14:50:42.1Z</time>
      </trkpt>
      <trkpt lat="48.48471" lon="-3.48735">
        <ele>260</ele>
        <time>2013-02-24T14:50:44.1Z</time>
      </trkpt>
      <trkpt lat="48.48473" lon="-3.48735">
        <ele>260</ele>
        <time>2013-02-24T14:50:46.1Z</time>
      </trkpt>
      <trkpt lat="48.48475" lon="-3.48736">
        <ele>260</ele>
        <time>2013-02-24T14:50:48.1Z</time>
      </trkpt>
      <trkpt lat="48.48478" lon="-3.48736">
        <ele>260</ele>
        <time>2013-02-24T14:50:50.1Z</time>
      </trkpt>
      <trkpt lat="48.4848" lon="-3.48736">
        <ele>260</ele>
        <time>2013-02-24T14:50:52.1Z</time>
      </trkpt>
      <trkpt lat="48.48482" lon="-3.48736">
        <ele>260</ele>
        <time>2013-02-24T14:50:54.1Z</time>
      </trkpt>
      <trkpt lat="48.48484" lon="-3.48736">
        <ele>260</ele>
        <time>2013-02-24T14:50:56.1Z</time>
      </trkpt>
      <trkpt lat="48.48487" lon="-3.48736">
        <ele>260</ele>
        <time>2013-02-24T14:50:58.1Z</time>
      </trkpt>
      <trkpt lat="48.48489" lon="-3.48737">
        <ele>259</ele>
        <time>2013-02-24T14:51:00.1Z</time>
      </trkpt>
      <trkpt lat="48.48491" lon="-3.48737">
        <ele>259</ele>
        <time>2013-02-24T14:51:02.1Z</time>
      </trkpt>
      <trkpt lat="48.48494" lon="-3.48737">
        <ele>259</ele>
        <time>2013-02-24T14:51:04.1Z</time>
      </trkpt>
      <trkpt lat="48.48498" lon="-3.48737">
        <ele>259</ele>
        <time>2013-02-24T14:51:06.1Z</time>
      </trkpt>
      <trkpt lat="48.48501" lon="-3.48737">
        <ele>259</ele>
        <time>2013-02-24T14:51:08.1Z</time>
      </trkpt>
      <trkpt lat="48.48503" lon="-3.48738">
        <ele>259</ele>
        <time>2013-02-24T14:51:10.1Z</time>
      </trkpt>
      <trkpt lat="48.48506" lon="-3.48738">
        <ele>259</ele>
        <time>2013-02-24T14:51:13.1Z</time>
      </trkpt>
      <trkpt lat="48.48508" lon="-3.48738">
        <ele>259</ele>
        <time>2013-02-24T14:51:15.1Z</time>
      </trkpt>
      <trkpt lat="48.48511" lon="-3.48738">
        <ele>259</ele>
        <time>2013-02-24T14:51:17.1Z</time>
      </trkpt>
      <trkpt lat="48.48513" lon="-3.48739">
        <ele>259</ele>
        <time>2013-02-24T14:51:19.1Z</time>
      </trkpt>
      <trkpt lat="48.48515" lon="-3.48738">
        <ele>259</ele>
        <time>2013-02-24T14:51:21.1Z</time>
      </trkpt>
      <trkpt lat="48.48516" lon="-3.48739">
        <ele>259</ele>
        <time>2013-02-24T14:51:23.1Z</time>
      </trkpt>
      <trkpt lat="48.48518" lon="-3.48739">
        <ele>259</ele>
        <time>2013-02-24T14:51:25.1Z</time>
      </trkpt>
      <trkpt lat="48.4852" lon="-3.4874">
        <ele>259</ele>
        <time>2013-02-24T14:51:27.1Z</time>
      </trkpt>
      <trkpt lat="48.48522" lon="-3.48739">
        <ele>259</ele>
        <time>2013-02-24T14:51:29.1Z</time>
      </trkpt>
      <trkpt lat="48.48525" lon="-3.48739">
        <ele>259</ele>
        <time>2013-02-24T14:51:31.1Z</time>
      </trkpt>
      <trkpt lat="48.48528" lon="-3.48739">
        <ele>259</ele>
        <time>2013-02-24T14:51:33.1Z</time>
      </trkpt>
      <trkpt lat="48.4853" lon="-3.48739">
        <ele>259</ele>
        <time>2013-02-24T14:51:35.1Z</time>
      </trkpt>
      <trkpt lat="48.48533" lon="-3.48739">
        <ele>258</ele>
        <time>2013-02-24T14:51:37.1Z</time>
      </trkpt>
      <trkpt lat="48.48535" lon="-3.48739">
        <ele>259</ele>
        <time>2013-02-24T14:51:39.1Z</time>
      </trkpt>
      <trkpt lat="48.48537" lon="-3.48739">
        <ele>259</ele>
        <time>2013-02-24T14:51:41.1Z</time>
      </trkpt>
      <trkpt lat="48.48539" lon="-3.48739">
        <ele>259</ele>
        <time>2013-02-24T14:51:43.1Z</time>
      </trkpt>
      <trkpt lat="48.48542" lon="-3.48739">
        <ele>259</ele>
        <time>2013-02-24T14:51:46.1Z</time>
      </trkpt>
      <trkpt lat="48.48543" lon="-3.48739">
        <ele>259</ele>
        <time>2013-02-24T14:51:48.1Z</time>
      </trkpt>
      <trkpt lat="48.48545" lon="-3.48739">
        <ele>259</ele>
        <time>2013-02-24T14:51:50.1Z</time>
      </trkpt>
      <trkpt lat="48.48547" lon="-3.48739">
        <ele>258</ele>
        <time>2013-02-24T14:51:52.1Z</time>
      </trkpt>
      <trkpt lat="48.4855" lon="-3.48738">
        <ele>258</ele>
        <time>2013-02-24T14:51:54.1Z</time>
      </trkpt>
      <trkpt lat="48.48552" lon="-3.48738">
        <ele>258</ele>
        <time>2013-02-24T14:51:56.1Z</time>
      </trkpt>
      <trkpt lat="48.48554" lon="-3.48738">
        <ele>258</ele>
        <time>2013-02-24T14:51:58.1Z</time>
      </trkpt>
      <trkpt lat="48.48556" lon="-3.48738">
        <ele>258</ele>
        <time>2013-02-24T14:52:00.1Z</time>
      </trkpt>
      <trkpt lat="48.48558" lon="-3.48737">
        <ele>258</ele>
        <time>2013-02-24T14:52:02.1Z</time>
      </trkpt>
      <trkpt lat="48.48561" lon="-3.48738">
        <ele>258</ele>
        <time>2013-02-24T14:52:04.1Z</time>
      </trkpt>
      <trkpt lat="48.48563" lon="-3.48738">
        <ele>258</ele>
        <time>2013-02-24T14:52:06.1Z</time>
      </trkpt>
      <trkpt lat="48.48565" lon="-3.48739">
        <ele>258</ele>
        <time>2013-02-24T14:52:08.1Z</time>
      </trkpt>
      <trkpt lat="48.48567" lon="-3.4874">
        <ele>258</ele>
        <time>2013-02-24T14:52:10.1Z</time>
      </trkpt>
      <trkpt lat="48.48569" lon="-3.48741">
        <ele>258</ele>
        <time>2013-02-24T14:52:12.1Z</time>
      </trkpt>
      <trkpt lat="48.48571" lon="-3.48742">
        <ele>258</ele>
        <time>2013-02-24T14:52:14.1Z</time>
      </trkpt>
      <trkpt lat="48.48573" lon="-3.48743">
        <ele>258</ele>
        <time>2013-02-24T14:52:16.1Z</time>
      </trkpt>
      <trkpt lat="48.48575" lon="-3.48743">
        <ele>258</ele>
        <time>2013-02-24T14:52:18.1Z</time>
      </trkpt>
      <trkpt lat="48.48577" lon="-3.48743">
        <ele>258</ele>
        <time>2013-02-24T14:52:21.1Z</time>
      </trkpt>
      <trkpt lat="48.48579" lon="-3.48742">
        <ele>257</ele>
        <time>2013-02-24T14:52:23.1Z</time>
      </trkpt>
      <trkpt lat="48.48581" lon="-3.48742">
        <ele>257</ele>
        <time>2013-02-24T14:52:25.1Z</time>
      </trkpt>
      <trkpt lat="48.48584" lon="-3.48742">
        <ele>257</ele>
        <time>2013-02-24T14:52:27.1Z</time>
      </trkpt>
      <trkpt lat="48.48586" lon="-3.48742">
        <ele>257</ele>
        <time>2013-02-24T14:52:29.1Z</time>
      </trkpt>
      <trkpt lat="48.48588" lon="-3.48741">
        <ele>258</ele>
        <time>2013-02-24T14:52:31.1Z</time>
      </trkpt>
      <trkpt lat="48.4859" lon="-3.48741">
        <ele>258</ele>
        <time>2013-02-24T14:52:33.1Z</time>
      </trkpt>
      <trkpt lat="48.48593" lon="-3.48741">
        <ele>257</ele>
        <time>2013-02-24T14:52:35.1Z</time>
      </trkpt>
      <trkpt lat="48.48596" lon="-3.48741">
        <ele>258</ele>
        <time>2013-02-24T14:52:37.1Z</time>
      </trkpt>
      <trkpt lat="48.48598" lon="-3.48741">
        <ele>257</ele>
        <time>2013-02-24T14:52:39.1Z</time>
      </trkpt>
      <trkpt lat="48.486" lon="-3.48741">
        <ele>257</ele>
        <time>2013-02-24T14:52:41.1Z</time>
      </trkpt>
      <trkpt lat="48.48603" lon="-3.48741">
        <ele>257</ele>
        <time>2013-02-24T14:52:43.1Z</time>
      </trkpt>
      <trkpt lat="48.48605" lon="-3.48741">
        <ele>257</ele>
        <time>2013-02-24T14:52:45.1Z</time>
      </trkpt>
      <trkpt lat="48.48608" lon="-3.4874">
        <ele>257</ele>
        <time>2013-02-24T14:52:47.1Z</time>
      </trkpt>
      <trkpt lat="48.48609" lon="-3.4874">
        <ele>257</ele>
        <time>2013-02-24T14:52:49.1Z</time>
      </trkpt>
      <trkpt lat="48.48611" lon="-3.48739">
        <ele>257</ele>
        <time>2013-02-24T14:52:51.1Z</time>
      </trkpt>
      <trkpt lat="48.48613" lon="-3.48739">
        <ele>257</ele>
        <time>2013-02-24T14:52:54.1Z</time>
      </trkpt>
      <trkpt lat="48.48615" lon="-3.48739">
        <ele>257</ele>
        <time>2013-02-24T14:52:56.1Z</time>
      </trkpt>
      <trkpt lat="48.48616" lon="-3.4874">
        <ele>257</ele>
        <time>2013-02-24T14:52:58.1Z</time>
      </trkpt>
      <trkpt lat="48.48619" lon="-3.4874">
        <ele>257</ele>
        <time>2013-02-24T14:53:00.1Z</time>
      </trkpt>
      <trkpt lat="48.48621" lon="-3.4874">
        <ele>257</ele>
        <time>2013-02-24T14:53:02.1Z</time>
      </trkpt>
      <trkpt lat="48.48625" lon="-3.4874">
        <ele>257</ele>
        <time>2013-02-24T14:53:04.1Z</time>
      </trkpt>
      <trkpt lat="48.48627" lon="-3.4874">
        <ele>257</ele>
        <time>2013-02-24T14:53:06.1Z</time>
      </trkpt>
      <trkpt lat="48.48629" lon="-3.48741">
        <ele>257</ele>
        <time>2013-02-24T14:53:08.1Z</time>
      </trkpt>
      <trkpt lat="48.48631" lon="-3.48741">
        <ele>256</ele>
        <time>2013-02-24T14:53:10.1Z</time>
      </trkpt>
      <trkpt lat="48.48632" lon="-3.48741">
        <ele>256</ele>
        <time>2013-02-24T14:53:12.1Z</time>
      </trkpt>
      <trkpt lat="48.48634" lon="-3.48742">
        <ele>256</ele>
        <time>2013-02-24T14:53:15.1Z</time>
      </trkpt>
      <trkpt lat="48.48637" lon="-3.48742">
        <ele>256</ele>
        <time>2013-02-24T14:53:17.1Z</time>
      </trkpt>
      <trkpt lat="48.4864" lon="-3.48742">
        <ele>256</ele>
        <time>2013-02-24T14:53:19.1Z</time>
      </trkpt>
      <trkpt lat="48.48642" lon="-3.48741">
        <ele>256</ele>
        <time>2013-02-24T14:53:21.1Z</time>
      </trkpt>
      <trkpt lat="48.48645" lon="-3.48741">
        <ele>256</ele>
        <time>2013-02-24T14:53:23.1Z</time>
      </trkpt>
      <trkpt lat="48.48647" lon="-3.48742">
        <ele>256</ele>
        <time>2013-02-24T14:53:25.1Z</time>
      </trkpt>
      <trkpt lat="48.48649" lon="-3.48742">
        <ele>256</ele>
        <time>2013-02-24T14:53:27.1Z</time>
      </trkpt>
      <trkpt lat="48.48651" lon="-3.48741">
        <ele>256</ele>
        <time>2013-02-24T14:53:29.1Z</time>
      </trkpt>
      <trkpt lat="48.48653" lon="-3.48741">
        <ele>256</ele>
        <time>2013-02-24T14:53:31.1Z</time>
      </trkpt>
      <trkpt lat="48.48655" lon="-3.48741">
        <ele>256</ele>
        <time>2013-02-24T14:53:33.1Z</time>
      </trkpt>
      <trkpt lat="48.48657" lon="-3.48742">
        <ele>256</ele>
        <time>2013-02-24T14:53:35.1Z</time>
      </trkpt>
      <trkpt lat="48.48659" lon="-3.48744">
        <ele>256</ele>
        <time>2013-02-24T14:53:37.1Z</time>
      </trkpt>
      <trkpt lat="48.48661" lon="-3.48745">
        <ele>255</ele>
        <time>2013-02-24T14:53:40.1Z</time>
      </trkpt>
      <trkpt lat="48.48662" lon="-3.48745">
        <ele>256</ele>
        <time>2013-02-24T14:53:42.1Z</time>
      </trkpt>
      <trkpt lat="48.48664" lon="-3.48745">
        <ele>255</ele>
        <time>2013-02-24T14:53:44.1Z</time>
      </trkpt>
      <trkpt lat="48.48666" lon="-3.48746">
        <ele>255</ele>
        <time>2013-02-24T14:53:46.1Z</time>
      </trkpt>
      <trkpt lat="48.48668" lon="-3.48746">
        <ele>255</ele>
        <time>2013-02-24T14:53:48.1Z</time>
      </trkpt>
      <trkpt lat="48.48671" lon="-3.48745">
        <ele>255</ele>
        <time>2013-02-24T14:53:50.1Z</time>
      </trkpt>
      <trkpt lat="48.48673" lon="-3.48745">
        <ele>255</ele>
        <time>2013-02-24T14:53:52.1Z</time>
      </trkpt>
      <trkpt lat="48.48675" lon="-3.48744">
        <ele>255</ele>
        <time>2013-02-24T14:53:54.1Z</time>
      </trkpt>
      <trkpt lat="48.48678" lon="-3.48744">
        <ele>255</ele>
        <time>2013-02-24T14:53:56.1Z</time>
      </trkpt>
      <trkpt lat="48.48681" lon="-3.48743">
        <ele>255</ele>
        <time>2013-02-24T14:53:58.1Z</time>
      </trkpt>
      <trkpt lat="48.48686" lon="-3.48742">
        <ele>255</ele>
        <time>2013-02-24T14:54:00.1Z</time>
      </trkpt>
      <trkpt lat="48.48689" lon="-3.48742">
        <ele>255</ele>
        <time>2013-02-24T14:54:02.1Z</time>
      </trkpt>
      <trkpt lat="48.48692" lon="-3.48741">
        <ele>255</ele>
        <time>2013-02-24T14:54:04.1Z</time>
      </trkpt>
      <trkpt lat="48.48694" lon="-3.4874">
        <ele>255</ele>
        <time>2013-02-24T14:54:06.1Z</time>
      </trkpt>
      <trkpt lat="48.48697" lon="-3.48739">
        <ele>255</ele>
        <time>2013-02-24T14:54:08.1Z</time>
      </trkpt>
      <trkpt lat="48.487" lon="-3.48738">
        <ele>255</ele>
        <time>2013-02-24T14:54:10.1Z</time>
      </trkpt>
      <trkpt lat="48.48702" lon="-3.48737">
        <ele>255</ele>
        <time>2013-02-24T14:54:13.1Z</time>
      </trkpt>
      <trkpt lat="48.48705" lon="-3.48736">
        <ele>255</ele>
        <time>2013-02-24T14:54:15.1Z</time>
      </trkpt>
      <trkpt lat="48.48707" lon="-3.48735">
        <ele>255</ele>
        <time>2013-02-24T14:54:17.1Z</time>
      </trkpt>
      <trkpt lat="48.48709" lon="-3.48734">
        <ele>255</ele>
        <time>2013-02-24T14:54:19.1Z</time>
      </trkpt>
      <trkpt lat="48.48712" lon="-3.48733">
        <ele>255</ele>
        <time>2013-02-24T14:54:21.1Z</time>
      </trkpt>
      <trkpt lat="48.48715" lon="-3.48731">
        <ele>255</ele>
        <time>2013-02-24T14:54:23.1Z</time>
      </trkpt>
      <trkpt lat="48.48716" lon="-3.48729">
        <ele>255</ele>
        <time>2013-02-24T14:54:25.1Z</time>
      </trkpt>
      <trkpt lat="48.48719" lon="-3.48727">
        <ele>255</ele>
        <time>2013-02-24T14:54:27.1Z</time>
      </trkpt>
      <trkpt lat="48.48721" lon="-3.48726">
        <ele>254</ele>
        <time>2013-02-24T14:54:29.1Z</time>
      </trkpt>
      <trkpt lat="48.48724" lon="-3.48724">
        <ele>254</ele>
        <time>2013-02-24T14:54:31.1Z</time>
      </trkpt>
      <trkpt lat="48.48726" lon="-3.48722">
        <ele>254</ele>
        <time>2013-02-24T14:54:34.1Z</time>
      </trkpt>
      <trkpt lat="48.48729" lon="-3.4872">
        <ele>255</ele>
        <time>2013-02-24T14:54:36.1Z</time>
      </trkpt>
      <trkpt lat="48.48731" lon="-3.48718">
        <ele>255</ele>
        <time>2013-02-24T14:54:38.1Z</time>
      </trkpt>
      <trkpt lat="48.48733" lon="-3.48716">
        <ele>255</ele>
        <time>2013-02-24T14:54:40.1Z</time>
      </trkpt>
      <trkpt lat="48.48736" lon="-3.48714">
        <ele>254</ele>
        <time>2013-02-24T14:54:42.1Z</time>
      </trkpt>
      <trkpt lat="48.4874" lon="-3.48712">
        <ele>254</ele>
        <time>2013-02-24T14:54:44.1Z</time>
      </trkpt>
      <trkpt lat="48.48742" lon="-3.4871">
        <ele>254</ele>
        <time>2013-02-24T14:54:46.1Z</time>
      </trkpt>
      <trkpt lat="48.48744" lon="-3.48708">
        <ele>254</ele>
        <time>2013-02-24T14:54:48.1Z</time>
      </trkpt>
      <trkpt lat="48.48746" lon="-3.48706">
        <ele>254</ele>
        <time>2013-02-24T14:54:50.1Z</time>
      </trkpt>
      <trkpt lat="48.48748" lon="-3.48704">
        <ele>254</ele>
        <time>2013-02-24T14:54:53.1Z</time>
      </trkpt>
      <trkpt lat="48.4875" lon="-3.48702">
        <ele>254</ele>
        <time>2013-02-24T14:54:55.1Z</time>
      </trkpt>
      <trkpt lat="48.48751" lon="-3.48699">
        <ele>254</ele>
        <time>2013-02-24T14:54:57.1Z</time>
      </trkpt>
      <trkpt lat="48.48753" lon="-3.48696">
        <ele>254</ele>
        <time>2013-02-24T14:54:59.1Z</time>
      </trkpt>
      <trkpt lat="48.48754" lon="-3.48694">
        <ele>254</ele>
        <time>2013-02-24T14:55:01.1Z</time>
      </trkpt>
      <trkpt lat="48.48756" lon="-3.48691">
        <ele>254</ele>
        <time>2013-02-24T14:55:03.1Z</time>
      </trkpt>
      <trkpt lat="48.48758" lon="-3.48689">
        <ele>253</ele>
        <time>2013-02-24T14:55:05.1Z</time>
      </trkpt>
      <trkpt lat="48.48759" lon="-3.48686">
        <ele>253</ele>
        <time>2013-02-24T14:55:07.1Z</time>
      </trkpt>
      <trkpt lat="48.48761" lon="-3.48684">
        <ele>253</ele>
        <time>2013-02-24T14:55:09.1Z</time>
      </trkpt>
      <trkpt lat="48.48762" lon="-3.48682">
        <ele>253</ele>
        <time>2013-02-24T14:55:11.1Z</time>
      </trkpt>
      <trkpt lat="48.48764" lon="-3.48679">
        <ele>253</ele>
        <time>2013-02-24T14:55:14.1Z</time>
      </trkpt>
      <trkpt lat="48.48765" lon="-3.48677">
        <ele>253</ele>
        <time>2013-02-24T14:55:16.1Z</time>
      </trkpt>
      <trkpt lat="48.48766" lon="-3.48674">
        <ele>253</ele>
        <time>2013-02-24T14:55:18.1Z</time>
      </trkpt>
      <trkpt lat="48.48767" lon="-3.48672">
        <ele>253</ele>
        <time>2013-02-24T14:55:20.1Z</time>
      </trkpt>
      <trkpt lat="48.48769" lon="-3.48669">
        <ele>253</ele>
        <time>2013-02-24T14:55:22.1Z</time>
      </trkpt>
      <trkpt lat="48.4877" lon="-3.48667">
        <ele>253</ele>
        <time>2013-02-24T14:55:24.1Z</time>
      </trkpt>
      <trkpt lat="48.48771" lon="-3.48665">
        <ele>253</ele>
        <time>2013-02-24T14:55:26.1Z</time>
      </trkpt>
      <trkpt lat="48.48773" lon="-3.48661">
        <ele>253</ele>
        <time>2013-02-24T14:55:28.1Z</time>
      </trkpt>
      <trkpt lat="48.48774" lon="-3.48659">
        <ele>253</ele>
        <time>2013-02-24T14:55:30.1Z</time>
      </trkpt>
      <trkpt lat="48.48776" lon="-3.48656">
        <ele>253</ele>
        <time>2013-02-24T14:55:32.1Z</time>
      </trkpt>
      <trkpt lat="48.48777" lon="-3.48654">
        <ele>253</ele>
        <time>2013-02-24T14:55:34.1Z</time>
      </trkpt>
      <trkpt lat="48.48779" lon="-3.48652">
        <ele>253</ele>
        <time>2013-02-24T14:55:36.1Z</time>
      </trkpt>
      <trkpt lat="48.4878" lon="-3.48649">
        <ele>253</ele>
        <time>2013-02-24T14:55:38.1Z</time>
      </trkpt>
      <trkpt lat="48.48782" lon="-3.48647">
        <ele>253</ele>
        <time>2013-02-24T14:55:41.1Z</time>
      </trkpt>
      <trkpt lat="48.48783" lon="-3.48645">
        <ele>253</ele>
        <time>2013-02-24T14:55:43.1Z</time>
      </trkpt>
      <trkpt lat="48.48784" lon="-3.48642">
        <ele>253</ele>
        <time>2013-02-24T14:55:45.1Z</time>
      </trkpt>
      <trkpt lat="48.48786" lon="-3.4864">
        <ele>253</ele>
        <time>2013-02-24T14:55:47.1Z</time>
      </trkpt>
      <trkpt lat="48.48787" lon="-3.48638">
        <ele>253</ele>
        <time>2013-02-24T14:55:49.1Z</time>
      </trkpt>
      <trkpt lat="48.48788" lon="-3.48635">
        <ele>253</ele>
        <time>2013-02-24T14:55:51.1Z</time>
      </trkpt>
      <trkpt lat="48.48789" lon="-3.48632">
        <ele>252</ele>
        <time>2013-02-24T14:55:53.1Z</time>
      </trkpt>
      <trkpt lat="48.4879" lon="-3.4863">
        <ele>252</ele>
        <time>2013-02-24T14:55:55.1Z</time>
      </trkpt>
      <trkpt lat="48.4879" lon="-3.48625">
        <ele>252</ele>
        <time>2013-02-24T14:55:57.1Z</time>
      </trkpt>
      <trkpt lat="48.48791" lon="-3.48622">
        <ele>252</ele>
        <time>2013-02-24T14:55:59.1Z</time>
      </trkpt>
      <trkpt lat="48.48792" lon="-3.48619">
        <ele>252</ele>
        <time>2013-02-24T14:56:01.1Z</time>
      </trkpt>
      <trkpt lat="48.48791" lon="-3.48616">
        <ele>252</ele>
        <time>2013-02-24T14:56:03.1Z</time>
      </trkpt>
      <trkpt lat="48.48791" lon="-3.48613">
        <ele>252</ele>
        <time>2013-02-24T14:56:05.1Z</time>
      </trkpt>
      <trkpt lat="48.48791" lon="-3.48609">
        <ele>252</ele>
        <time>2013-02-24T14:56:07.1Z</time>
      </trkpt>
      <trkpt lat="48.48792" lon="-3.48605">
        <ele>252</ele>
        <time>2013-02-24T14:56:09.1Z</time>
      </trkpt>
      <trkpt lat="48.48792" lon="-3.48602">
        <ele>252</ele>
        <time>2013-02-24T14:56:11.1Z</time>
      </trkpt>
      <trkpt lat="48.48793" lon="-3.48598">
        <ele>252</ele>
        <time>2013-02-24T14:56:14.1Z</time>
      </trkpt>
      <trkpt lat="48.48793" lon="-3.48595">
        <ele>252</ele>
        <time>2013-02-24T14:56:16.1Z</time>
      </trkpt>
      <trkpt lat="48.48794" lon="-3.48592">
        <ele>252</ele>
        <time>2013-02-24T14:56:18.1Z</time>
      </trkpt>
      <trkpt lat="48.48794" lon="-3.48588">
        <ele>251</ele>
        <time>2013-02-24T14:56:20.1Z</time>
      </trkpt>
      <trkpt lat="48.48795" lon="-3.48585">
        <ele>251</ele>
        <time>2013-02-24T14:56:22.1Z</time>
      </trkpt>
      <trkpt lat="48.48795" lon="-3.4858">
        <ele>251</ele>
        <time>2013-02-24T14:56:24.1Z</time>
      </trkpt>
      <trkpt lat="48.48796" lon="-3.48577">
        <ele>251</ele>
        <time>2013-02-24T14:56:26.1Z</time>
      </trkpt>
      <trkpt lat="48.48796" lon="-3.48573">
        <ele>251</ele>
        <time>2013-02-24T14:56:28.1Z</time>
      </trkpt>
      <trkpt lat="48.48796" lon="-3.4857">
        <ele>251</ele>
        <time>2013-02-24T14:56:30.1Z</time>
      </trkpt>
      <trkpt lat="48.48796" lon="-3.48567">
        <ele>251</ele>
        <time>2013-02-24T14:56:32.1Z</time>
      </trkpt>
      <trkpt lat="48.48796" lon="-3.48563">
        <ele>251</ele>
        <time>2013-02-24T14:56:34.1Z</time>
      </trkpt>
      <trkpt lat="48.48796" lon="-3.4856">
        <ele>250</ele>
        <time>2013-02-24T14:56:36.1Z</time>
      </trkpt>
      <trkpt lat="48.48796" lon="-3.48556">
        <ele>250</ele>
        <time>2013-02-24T14:56:38.1Z</time>
      </trkpt>
      <trkpt lat="48.48797" lon="-3.48553">
        <ele>250</ele>
        <time>2013-02-24T14:56:41.1Z</time>
      </trkpt>
      <trkpt lat="48.48797" lon="-3.4855">
        <ele>251</ele>
        <time>2013-02-24T14:56:43.1Z</time>
      </trkpt>
      <trkpt lat="48.48797" lon="-3.48548">
        <ele>251</ele>
        <time>2013-02-24T14:56:45.1Z</time>
      </trkpt>
      <trkpt lat="48.48797" lon="-3.48545">
        <ele>251</ele>
        <time>2013-02-24T14:56:47.1Z</time>
      </trkpt>
      <trkpt lat="48.48798" lon="-3.48542">
        <ele>250</ele>
        <time>2013-02-24T14:56:49.1Z</time>
      </trkpt>
      <trkpt lat="48.48798" lon="-3.48539">
        <ele>250</ele>
        <time>2013-02-24T14:56:51.1Z</time>
      </trkpt>
      <trkpt lat="48.48799" lon="-3.48536">
        <ele>250</ele>
        <time>2013-02-24T14:56:53.1Z</time>
      </trkpt>
      <trkpt lat="48.48799" lon="-3.48534">
        <ele>250</ele>
        <time>2013-02-24T14:56:55.1Z</time>
      </trkpt>
      <trkpt lat="48.48801" lon="-3.4853">
        <ele>250</ele>
        <time>2013-02-24T14:56:57.1Z</time>
      </trkpt>
      <trkpt lat="48.48801" lon="-3.48527">
        <ele>250</ele>
        <time>2013-02-24T14:56:59.1Z</time>
      </trkpt>
      <trkpt lat="48.48802" lon="-3.48523">
        <ele>250</ele>
        <time>2013-02-24T14:57:01.1Z</time>
      </trkpt>
      <trkpt lat="48.48803" lon="-3.4852">
        <ele>250</ele>
        <time>2013-02-24T14:57:03.1Z</time>
      </trkpt>
      <trkpt lat="48.48803" lon="-3.48517">
        <ele>250</ele>
        <time>2013-02-24T14:57:05.1Z</time>
      </trkpt>
      <trkpt lat="48.48804" lon="-3.48514">
        <ele>250</ele>
        <time>2013-02-24T14:57:07.1Z</time>
      </trkpt>
      <trkpt lat="48.48804" lon="-3.4851">
        <ele>250</ele>
        <time>2013-02-24T14:57:10.1Z</time>
      </trkpt>
      <trkpt lat="48.48805" lon="-3.48507">
        <ele>250</ele>
        <time>2013-02-24T14:57:12.1Z</time>
      </trkpt>
      <trkpt lat="48.48805" lon="-3.48503">
        <ele>250</ele>
        <time>2013-02-24T14:57:14.1Z</time>
      </trkpt>
      <trkpt lat="48.48806" lon="-3.485">
        <ele>250</ele>
        <time>2013-02-24T14:57:16.1Z</time>
      </trkpt>
      <trkpt lat="48.48806" lon="-3.48497">
        <ele>250</ele>
        <time>2013-02-24T14:57:18.1Z</time>
      </trkpt>
      <trkpt lat="48.48806" lon="-3.48494">
        <ele>249</ele>
        <time>2013-02-24T14:57:20.1Z</time>
      </trkpt>
      <trkpt lat="48.48807" lon="-3.48491">
        <ele>250</ele>
        <time>2013-02-24T14:57:22.1Z</time>
      </trkpt>
      <trkpt lat="48.48807" lon="-3.48487">
        <ele>249</ele>
        <time>2013-02-24T14:57:24.1Z</time>
      </trkpt>
      <trkpt lat="48.48807" lon="-3.48485">
        <ele>249</ele>
        <time>2013-02-24T14:57:26.1Z</time>
      </trkpt>
      <trkpt lat="48.48808" lon="-3.48483">
        <ele>249</ele>
        <time>2013-02-24T14:57:28.1Z</time>
      </trkpt>
      <trkpt lat="48.48808" lon="-3.48483">
        <ele>249</ele>
        <time>2013-02-24T14:57:30.1Z</time>
      </trkpt>
      <trkpt lat="48.48808" lon="-3.48479">
        <ele>249</ele>
        <time>2013-02-24T14:57:32.1Z</time>
      </trkpt>
      <trkpt lat="48.48808" lon="-3.48476">
        <ele>248</ele>
        <time>2013-02-24T14:57:34.1Z</time>
      </trkpt>
      <trkpt lat="48.48808" lon="-3.48473">
        <ele>248</ele>
        <time>2013-02-24T14:57:36.1Z</time>
      </trkpt>
      <trkpt lat="48.48808" lon="-3.4847">
        <ele>248</ele>
        <time>2013-02-24T14:57:38.1Z</time>
      </trkpt>
      <trkpt lat="48.48808" lon="-3.48466">
        <ele>248</ele>
        <time>2013-02-24T14:57:40.1Z</time>
      </trkpt>
      <trkpt lat="48.48808" lon="-3.48463">
        <ele>248</ele>
        <time>2013-02-24T14:57:42.1Z</time>
      </trkpt>
      <trkpt lat="48.48808" lon="-3.4846">
        <ele>248</ele>
        <time>2013-02-24T14:57:45.1Z</time>
      </trkpt>
      <trkpt lat="48.48808" lon="-3.48457">
        <ele>248</ele>
        <time>2013-02-24T14:57:47.1Z</time>
      </trkpt>
      <trkpt lat="48.48807" lon="-3.48453">
        <ele>248</ele>
        <time>2013-02-24T14:57:49.1Z</time>
      </trkpt>
      <trkpt lat="48.48807" lon="-3.4845">
        <ele>248</ele>
        <time>2013-02-24T14:57:51.1Z</time>
      </trkpt>
      <trkpt lat="48.48807" lon="-3.48447">
        <ele>247</ele>
        <time>2013-02-24T14:57:53.1Z</time>
      </trkpt>
      <trkpt lat="48.48807" lon="-3.48445">
        <ele>248</ele>
        <time>2013-02-24T14:57:55.1Z</time>
      </trkpt>
      <trkpt lat="48.48807" lon="-3.48441">
        <ele>248</ele>
        <time>2013-02-24T14:57:57.1Z</time>
      </trkpt>
      <trkpt lat="48.48807" lon="-3.48436">
        <ele>248</ele>
        <time>2013-02-24T14:57:59.1Z</time>
      </trkpt>
      <trkpt lat="48.48807" lon="-3.48433">
        <ele>248</ele>
        <time>2013-02-24T14:58:01.1Z</time>
      </trkpt>
      <trkpt lat="48.48807" lon="-3.48429">
        <ele>248</ele>
        <time>2013-02-24T14:58:03.1Z</time>
      </trkpt>
      <trkpt lat="48.48807" lon="-3.48427">
        <ele>248</ele>
        <time>2013-02-24T14:58:05.1Z</time>
      </trkpt>
      <trkpt lat="48.48806" lon="-3.48424">
        <ele>248</ele>
        <time>2013-02-24T14:58:07.1Z</time>
      </trkpt>
      <trkpt lat="48.48807" lon="-3.4842">
        <ele>248</ele>
        <time>2013-02-24T14:58:09.1Z</time>
      </trkpt>
      <trkpt lat="48.48807" lon="-3.48417">
        <ele>247</ele>
        <time>2013-02-24T14:58:11.1Z</time>
      </trkpt>
      <trkpt lat="48.48807" lon="-3.48414">
        <ele>247</ele>
        <time>2013-02-24T14:58:13.1Z</time>
      </trkpt>
      <trkpt lat="48.48806" lon="-3.48411">
        <ele>247</ele>
        <time>2013-02-24T14:58:15.1Z</time>
      </trkpt>
      <trkpt lat="48.48806" lon="-3.48407">
        <ele>248</ele>
        <time>2013-02-24T14:58:17.1Z</time>
      </trkpt>
      <trkpt lat="48.48807" lon="-3.48404">
        <ele>247</ele>
        <time>2013-02-24T14:58:19.1Z</time>
      </trkpt>
      <trkpt lat="48.48806" lon="-3.48402">
        <ele>247</ele>
        <time>2013-02-24T14:58:22.1Z</time>
      </trkpt>
      <trkpt lat="48.48806" lon="-3.48399">
        <ele>247</ele>
        <time>2013-02-24T14:58:24.1Z</time>
      </trkpt>
      <trkpt lat="48.48806" lon="-3.48396">
        <ele>247</ele>
        <time>2013-02-24T14:58:26.1Z</time>
      </trkpt>
      <trkpt lat="48.48807" lon="-3.48394">
        <ele>247</ele>
        <time>2013-02-24T14:58:28.1Z</time>
      </trkpt>
      <trkpt lat="48.48807" lon="-3.48392">
        <ele>247</ele>
        <time>2013-02-24T14:58:30.1Z</time>
      </trkpt>
      <trkpt lat="48.48809" lon="-3.48388">
        <ele>247</ele>
        <time>2013-02-24T14:58:32.1Z</time>
      </trkpt>
      <trkpt lat="48.48809" lon="-3.48385">
        <ele>247</ele>
        <time>2013-02-24T14:58:34.1Z</time>
      </trkpt>
      <trkpt lat="48.48809" lon="-3.48382">
        <ele>247</ele>
        <time>2013-02-24T14:58:36.1Z</time>
      </trkpt>
      <trkpt lat="48.4881" lon="-3.48379">
        <ele>246</ele>
        <time>2013-02-24T14:58:38.1Z</time>
      </trkpt>
      <trkpt lat="48.4881" lon="-3.48376">
        <ele>247</ele>
        <time>2013-02-24T14:58:40.1Z</time>
      </trkpt>
      <trkpt lat="48.4881" lon="-3.48374">
        <ele>247</ele>
        <time>2013-02-24T14:58:42.1Z</time>
      </trkpt>
      <trkpt lat="48.48811" lon="-3.48371">
        <ele>246</ele>
        <time>2013-02-24T14:58:44.1Z</time>
      </trkpt>
      <trkpt lat="48.48811" lon="-3.48369">
        <ele>246</ele>
        <time>2013-02-24T14:58:46.1Z</time>
      </trkpt>
      <trkpt lat="48.48811" lon="-3.48365">
        <ele>246</ele>
        <time>2013-02-24T14:58:48.1Z</time>
      </trkpt>
      <trkpt lat="48.48811" lon="-3.48362">
        <ele>246</ele>
        <time>2013-02-24T14:58:50.1Z</time>
      </trkpt>
      <trkpt lat="48.4881" lon="-3.48359">
        <ele>246</ele>
        <time>2013-02-24T14:58:53.1Z</time>
      </trkpt>
      <trkpt lat="48.4881" lon="-3.48357">
        <ele>246</ele>
        <time>2013-02-24T14:58:55.1Z</time>
      </trkpt>
      <trkpt lat="48.48811" lon="-3.48355">
        <ele>246</ele>
        <time>2013-02-24T14:58:57.1Z</time>
      </trkpt>
      <trkpt lat="48.48812" lon="-3.48352">
        <ele>246</ele>
        <time>2013-02-24T14:58:59.1Z</time>
      </trkpt>
      <trkpt lat="48.48812" lon="-3.48348">
        <ele>246</ele>
        <time>2013-02-24T14:59:01.1Z</time>
      </trkpt>
      <trkpt lat="48.48812" lon="-3.48345">
        <ele>246</ele>
        <time>2013-02-24T14:59:03.1Z</time>
      </trkpt>
      <trkpt lat="48.48812" lon="-3.48342">
        <ele>246</ele>
        <time>2013-02-24T14:59:05.1Z</time>
      </trkpt>
      <trkpt lat="48.48813" lon="-3.48339">
        <ele>245</ele>
        <time>2013-02-24T14:59:07.1Z</time>
      </trkpt>
      <trkpt lat="48.48813" lon="-3.48337">
        <ele>245</ele>
        <time>2013-02-24T14:59:09.1Z</time>
      </trkpt>
      <trkpt lat="48.48813" lon="-3.48334">
        <ele>245</ele>
        <time>2013-02-24T14:59:11.1Z</time>
      </trkpt>
      <trkpt lat="48.48814" lon="-3.4833">
        <ele>245</ele>
        <time>2013-02-24T14:59:13.1Z</time>
      </trkpt>
      <trkpt lat="48.48814" lon="-3.48326">
        <ele>245</ele>
        <time>2013-02-24T14:59:15.1Z</time>
      </trkpt>
      <trkpt lat="48.48814" lon="-3.48323">
        <ele>245</ele>
        <time>2013-02-24T14:59:17.1Z</time>
      </trkpt>
      <trkpt lat="48.48814" lon="-3.4832">
        <ele>245</ele>
        <time>2013-02-24T14:59:19.1Z</time>
      </trkpt>
      <trkpt lat="48.48814" lon="-3.48316">
        <ele>245</ele>
        <time>2013-02-24T14:59:21.1Z</time>
      </trkpt>
      <trkpt lat="48.48814" lon="-3.48312">
        <ele>245</ele>
        <time>2013-02-24T14:59:23.1Z</time>
      </trkpt>
      <trkpt lat="48.48814" lon="-3.48309">
        <ele>245</ele>
        <time>2013-02-24T14:59:25.1Z</time>
      </trkpt>
      <trkpt lat="48.48814" lon="-3.48306">
        <ele>245</ele>
        <time>2013-02-24T14:59:28.1Z</time>
      </trkpt>
      <trkpt lat="48.48814" lon="-3.48303">
        <ele>245</ele>
        <time>2013-02-24T14:59:30.1Z</time>
      </trkpt>
      <trkpt lat="48.48814" lon="-3.483">
        <ele>244</ele>
        <time>2013-02-24T14:59:32.1Z</time>
      </trkpt>
      <trkpt lat="48.48814" lon="-3.48296">
        <ele>244</ele>
        <time>2013-02-24T14:59:34.1Z</time>
      </trkpt>
      <trkpt lat="48.48813" lon="-3.48294">
        <ele>244</ele>
        <time>2013-02-24T14:59:36.1Z</time>
      </trkpt>
      <trkpt lat="48.48813" lon="-3.4829">
        <ele>244</ele>
        <time>2013-02-24T14:59:38.1Z</time>
      </trkpt>
      <trkpt lat="48.48812" lon="-3.48286">
        <ele>244</ele>
        <time>2013-02-24T14:59:40.1Z</time>
      </trkpt>
      <trkpt lat="48.48812" lon="-3.48282">
        <ele>244</ele>
        <time>2013-02-24T14:59:42.1Z</time>
      </trkpt>
      <trkpt lat="48.48812" lon="-3.48278">
        <ele>244</ele>
        <time>2013-02-24T14:59:44.1Z</time>
      </trkpt>
      <trkpt lat="48.48813" lon="-3.48275">
        <ele>244</ele>
        <time>2013-02-24T14:59:46.1Z</time>
      </trkpt>
      <trkpt lat="48.48813" lon="-3.48272">
        <ele>244</ele>
        <time>2013-02-24T14:59:48.1Z</time>
      </trkpt>
      <trkpt lat="48.48814" lon="-3.48268">
        <ele>244</ele>
        <time>2013-02-24T14:59:50.1Z</time>
      </trkpt>
      <trkpt lat="48.48814" lon="-3.48265">
        <ele>244</ele>
        <time>2013-02-24T14:59:52.1Z</time>
      </trkpt>
      <trkpt lat="48.48814" lon="-3.48262">
        <ele>244</ele>
        <time>2013-02-24T14:59:54.1Z</time>
      </trkpt>
      <trkpt lat="48.48814" lon="-3.48258">
        <ele>243</ele>
        <time>2013-02-24T14:59:57.1Z</time>
      </trkpt>
      <trkpt lat="48.48815" lon="-3.48255">
        <ele>243</ele>
        <time>2013-02-24T14:59:59.1Z</time>
      </trkpt>
      <trkpt lat="48.48816" lon="-3.48253">
        <ele>243</ele>
        <time>2013-02-24T15:00:01.1Z</time>
      </trkpt>
      <trkpt lat="48.48816" lon="-3.48249">
        <ele>243</ele>
        <time>2013-02-24T15:00:03.1Z</time>
      </trkpt>
      <trkpt lat="48.48816" lon="-3.48246">
        <ele>243</ele>
        <time>2013-02-24T15:00:05.1Z</time>
      </trkpt>
      <trkpt lat="48.48817" lon="-3.48243">
        <ele>243</ele>
        <time>2013-02-24T15:00:07.1Z</time>
      </trkpt>
      <trkpt lat="48.48817" lon="-3.4824">
        <ele>244</ele>
        <time>2013-02-24T15:00:09.1Z</time>
      </trkpt>
      <trkpt lat="48.48817" lon="-3.48237">
        <ele>243</ele>
        <time>2013-02-24T15:00:11.1Z</time>
      </trkpt>
      <trkpt lat="48.48817" lon="-3.48233">
        <ele>243</ele>
        <time>2013-02-24T15:00:13.1Z</time>
      </trkpt>
      <trkpt lat="48.48816" lon="-3.48229">
        <ele>243</ele>
        <time>2013-02-24T15:00:15.1Z</time>
      </trkpt>
      <trkpt lat="48.48816" lon="-3.48225">
        <ele>243</ele>
        <time>2013-02-24T15:00:17.1Z</time>
      </trkpt>
      <trkpt lat="48.48816" lon="-3.48222">
        <ele>243</ele>
        <time>2013-02-24T15:00:19.1Z</time>
      </trkpt>
      <trkpt lat="48.48816" lon="-3.48218">
        <ele>243</ele>
        <time>2013-02-24T15:00:21.1Z</time>
      </trkpt>
      <trkpt lat="48.48816" lon="-3.48215">
        <ele>243</ele>
        <time>2013-02-24T15:00:23.1Z</time>
      </trkpt>
      <trkpt lat="48.48816" lon="-3.48212">
        <ele>243</ele>
        <time>2013-02-24T15:00:25.1Z</time>
      </trkpt>
      <trkpt lat="48.48817" lon="-3.48209">
        <ele>243</ele>
        <time>2013-02-24T15:00:28.1Z</time>
      </trkpt>
      <trkpt lat="48.48817" lon="-3.48206">
        <ele>242</ele>
        <time>2013-02-24T15:00:30.1Z</time>
      </trkpt>
      <trkpt lat="48.48817" lon="-3.48203">
        <ele>242</ele>
        <time>2013-02-24T15:00:32.1Z</time>
      </trkpt>
      <trkpt lat="48.48817" lon="-3.48201">
        <ele>242</ele>
        <time>2013-02-24T15:00:34.1Z</time>
      </trkpt>
      <trkpt lat="48.48817" lon="-3.48198">
        <ele>242</ele>
        <time>2013-02-24T15:00:36.1Z</time>
      </trkpt>
      <trkpt lat="48.48818" lon="-3.48195">
        <ele>242</ele>
        <time>2013-02-24T15:00:38.1Z</time>
      </trkpt>
      <trkpt lat="48.48818" lon="-3.48192">
        <ele>242</ele>
        <time>2013-02-24T15:00:40.1Z</time>
      </trkpt>
      <trkpt lat="48.48818" lon="-3.48188">
        <ele>242</ele>
        <time>2013-02-24T15:00:42.1Z</time>
      </trkpt>
      <trkpt lat="48.48818" lon="-3.48185">
        <ele>242</ele>
        <time>2013-02-24T15:00:44.1Z</time>
      </trkpt>
      <trkpt lat="48.48819" lon="-3.48183">
        <ele>242</ele>
        <time>2013-02-24T15:00:46.1Z</time>
      </trkpt>
      <trkpt lat="48.48819" lon="-3.4818">
        <ele>242</ele>
        <time>2013-02-24T15:00:48.1Z</time>
      </trkpt>
      <trkpt lat="48.48821" lon="-3.48178">
        <ele>242</ele>
        <time>2013-02-24T15:00:50.1Z</time>
      </trkpt>
      <trkpt lat="48.48822" lon="-3.48175">
        <ele>242</ele>
        <time>2013-02-24T15:00:52.1Z</time>
      </trkpt>
      <trkpt lat="48.48823" lon="-3.48172">
        <ele>242</ele>
        <time>2013-02-24T15:00:55.1Z</time>
      </trkpt>
      <trkpt lat="48.48824" lon="-3.48169">
        <ele>242</ele>
        <time>2013-02-24T15:00:57.1Z</time>
      </trkpt>
      <trkpt lat="48.48825" lon="-3.48166">
        <ele>242</ele>
        <time>2013-02-24T15:00:59.1Z</time>
      </trkpt>
      <trkpt lat="48.48826" lon="-3.48164">
        <ele>242</ele>
        <time>2013-02-24T15:01:01.1Z</time>
      </trkpt>
      <trkpt lat="48.48827" lon="-3.48159">
        <ele>242</ele>
        <time>2013-02-24T15:01:03.1Z</time>
      </trkpt>
      <trkpt lat="48.48829" lon="-3.48156">
        <ele>242</ele>
        <time>2013-02-24T15:01:05.1Z</time>
      </trkpt>
      <trkpt lat="48.4883" lon="-3.48152">
        <ele>242</ele>
        <time>2013-02-24T15:01:07.1Z</time>
      </trkpt>
      <trkpt lat="48.4883" lon="-3.48148">
        <ele>241</ele>
        <time>2013-02-24T15:01:09.1Z</time>
      </trkpt>
      <trkpt lat="48.48832" lon="-3.48144">
        <ele>241</ele>
        <time>2013-02-24T15:01:12.1Z</time>
      </trkpt>
      <trkpt lat="48.48832" lon="-3.48141">
        <ele>241</ele>
        <time>2013-02-24T15:01:14.1Z</time>
      </trkpt>
      <trkpt lat="48.48834" lon="-3.48138">
        <ele>241</ele>
        <time>2013-02-24T15:01:16.1Z</time>
      </trkpt>
      <trkpt lat="48.48836" lon="-3.48133">
        <ele>241</ele>
        <time>2013-02-24T15:01:18.1Z</time>
      </trkpt>
      <trkpt lat="48.48837" lon="-3.4813">
        <ele>241</ele>
        <time>2013-02-24T15:01:20.1Z</time>
      </trkpt>
      <trkpt lat="48.48838" lon="-3.48128">
        <ele>241</ele>
        <time>2013-02-24T15:01:22.1Z</time>
      </trkpt>
      <trkpt lat="48.48838" lon="-3.48125">
        <ele>241</ele>
        <time>2013-02-24T15:01:24.1Z</time>
      </trkpt>
      <trkpt lat="48.4884" lon="-3.48121">
        <ele>241</ele>
        <time>2013-02-24T15:01:26.1Z</time>
      </trkpt>
      <trkpt lat="48.48841" lon="-3.48118">
        <ele>241</ele>
        <time>2013-02-24T15:01:28.1Z</time>
      </trkpt>
      <trkpt lat="48.48842" lon="-3.48115">
        <ele>240</ele>
        <time>2013-02-24T15:01:31.1Z</time>
      </trkpt>
      <trkpt lat="48.48843" lon="-3.48112">
        <ele>240</ele>
        <time>2013-02-24T15:01:33.1Z</time>
      </trkpt>
      <trkpt lat="48.48845" lon="-3.48109">
        <ele>240</ele>
        <time>2013-02-24T15:01:35.1Z</time>
      </trkpt>
      <trkpt lat="48.48846" lon="-3.48107">
        <ele>240</ele>
        <time>2013-02-24T15:01:37.1Z</time>
      </trkpt>
      <trkpt lat="48.48848" lon="-3.48104">
        <ele>241</ele>
        <time>2013-02-24T15:01:39.1Z</time>
      </trkpt>
      <trkpt lat="48.4885" lon="-3.48102">
        <ele>241</ele>
        <time>2013-02-24T15:01:41.1Z</time>
      </trkpt>
      <trkpt lat="48.48851" lon="-3.481">
        <ele>240</ele>
        <time>2013-02-24T15:01:43.1Z</time>
      </trkpt>
      <trkpt lat="48.48853" lon="-3.48097">
        <ele>240</ele>
        <time>2013-02-24T15:01:45.1Z</time>
      </trkpt>
      <trkpt lat="48.48854" lon="-3.48095">
        <ele>240</ele>
        <time>2013-02-24T15:01:47.1Z</time>
      </trkpt>
      <trkpt lat="48.48856" lon="-3.48092">
        <ele>239</ele>
        <time>2013-02-24T15:01:49.1Z</time>
      </trkpt>
      <trkpt lat="48.48858" lon="-3.4809">
        <ele>239</ele>
        <time>2013-02-24T15:01:51.1Z</time>
      </trkpt>
      <trkpt lat="48.4886" lon="-3.48087">
        <ele>239</ele>
        <time>2013-02-24T15:01:53.1Z</time>
      </trkpt>
      <trkpt lat="48.48861" lon="-3.48084">
        <ele>239</ele>
        <time>2013-02-24T15:01:55.1Z</time>
      </trkpt>
      <trkpt lat="48.48864" lon="-3.4808">
        <ele>240</ele>
        <time>2013-02-24T15:01:57.1Z</time>
      </trkpt>
      <trkpt lat="48.48865" lon="-3.48077">
        <ele>240</ele>
        <time>2013-02-24T15:01:59.1Z</time>
      </trkpt>
      <trkpt lat="48.48867" lon="-3.48073">
        <ele>240</ele>
        <time>2013-02-24T15:02:01.1Z</time>
      </trkpt>
      <trkpt lat="48.48869" lon="-3.48071">
        <ele>239</ele>
        <time>2013-02-24T15:02:03.1Z</time>
      </trkpt>
      <trkpt lat="48.4887" lon="-3.48067">
        <ele>239</ele>
        <time>2013-02-24T15:02:05.1Z</time>
      </trkpt>
      <trkpt lat="48.48872" lon="-3.48065">
        <ele>239</ele>
        <time>2013-02-24T15:02:07.1Z</time>
      </trkpt>
      <trkpt lat="48.48874" lon="-3.48062">
        <ele>239</ele>
        <time>2013-02-24T15:02:09.1Z</time>
      </trkpt>
      <trkpt lat="48.48875" lon="-3.4806">
        <ele>239</ele>
        <time>2013-02-24T15:02:11.1Z</time>
      </trkpt>
      <trkpt lat="48.48877" lon="-3.48058">
        <ele>239</ele>
        <time>2013-02-24T15:02:13.1Z</time>
      </trkpt>
      <trkpt lat="48.48878" lon="-3.48055">
        <ele>239</ele>
        <time>2013-02-24T15:02:15.1Z</time>
      </trkpt>
      <trkpt lat="48.4888" lon="-3.48052">
        <ele>238</ele>
        <time>2013-02-24T15:02:17.1Z</time>
      </trkpt>
      <trkpt lat="48.48881" lon="-3.4805">
        <ele>239</ele>
        <time>2013-02-24T15:02:20.1Z</time>
      </trkpt>
      <trkpt lat="48.48883" lon="-3.48048">
        <ele>239</ele>
        <time>2013-02-24T15:02:22.1Z</time>
      </trkpt>
      <trkpt lat="48.48884" lon="-3.48046">
        <ele>239</ele>
        <time>2013-02-24T15:02:24.1Z</time>
      </trkpt>
      <trkpt lat="48.48885" lon="-3.48044">
        <ele>239</ele>
        <time>2013-02-24T15:02:26.1Z</time>
      </trkpt>
      <trkpt lat="48.48887" lon="-3.48042">
        <ele>239</ele>
        <time>2013-02-24T15:02:28.1Z</time>
      </trkpt>
      <trkpt lat="48.48889" lon="-3.4804">
        <ele>238</ele>
        <time>2013-02-24T15:02:30.1Z</time>
      </trkpt>
      <trkpt lat="48.4889" lon="-3.48038">
        <ele>238</ele>
        <time>2013-02-24T15:02:32.1Z</time>
      </trkpt>
      <trkpt lat="48.48891" lon="-3.48037">
        <ele>238</ele>
        <time>2013-02-24T15:02:34.1Z</time>
      </trkpt>
      <trkpt lat="48.48892" lon="-3.48035">
        <ele>238</ele>
        <time>2013-02-24T15:02:36.1Z</time>
      </trkpt>
      <trkpt lat="48.48894" lon="-3.48033">
        <ele>239</ele>
        <time>2013-02-24T15:02:38.1Z</time>
      </trkpt>
      <trkpt lat="48.48896" lon="-3.48031">
        <ele>238</ele>
        <time>2013-02-24T15:02:40.1Z</time>
      </trkpt>
      <trkpt lat="48.48898" lon="-3.48029">
        <ele>238</ele>
        <time>2013-02-24T15:02:42.1Z</time>
      </trkpt>
      <trkpt lat="48.48899" lon="-3.48028">
        <ele>238</ele>
        <time>2013-02-24T15:02:44.1Z</time>
      </trkpt>
      <trkpt lat="48.489" lon="-3.48027">
        <ele>238</ele>
        <time>2013-02-24T15:02:46.1Z</time>
      </trkpt>
      <trkpt lat="48.48901" lon="-3.48026">
        <ele>238</ele>
        <time>2013-02-24T15:02:48.1Z</time>
      </trkpt>
      <trkpt lat="48.48903" lon="-3.48025">
        <ele>238</ele>
        <time>2013-02-24T15:02:50.1Z</time>
      </trkpt>
      <trkpt lat="48.48905" lon="-3.48024">
        <ele>238</ele>
        <time>2013-02-24T15:02:53.1Z</time>
      </trkpt>
      <trkpt lat="48.48907" lon="-3.48023">
        <ele>238</ele>
        <time>2013-02-24T15:02:55.1Z</time>
      </trkpt>
      <trkpt lat="48.48909" lon="-3.48023">
        <ele>238</ele>
        <time>2013-02-24T15:02:57.1Z</time>
      </trkpt>
      <trkpt lat="48.48911" lon="-3.48022">
        <ele>237</ele>
        <time>2013-02-24T15:02:59.1Z</time>
      </trkpt>
      <trkpt lat="48.48912" lon="-3.48021">
        <ele>237</ele>
        <time>2013-02-24T15:03:01.1Z</time>
      </trkpt>
      <trkpt lat="48.48914" lon="-3.48021">
        <ele>237</ele>
        <time>2013-02-24T15:03:03.1Z</time>
      </trkpt>
      <trkpt lat="48.48916" lon="-3.48021">
        <ele>238</ele>
        <time>2013-02-24T15:03:05.1Z</time>
      </trkpt>
      <trkpt lat="48.48918" lon="-3.4802">
        <ele>237</ele>
        <time>2013-02-24T15:03:07.1Z</time>
      </trkpt>
      <trkpt lat="48.4892" lon="-3.48021">
        <ele>237</ele>
        <time>2013-02-24T15:03:09.1Z</time>
      </trkpt>
      <trkpt lat="48.48922" lon="-3.48021">
        <ele>237</ele>
        <time>2013-02-24T15:03:11.1Z</time>
      </trkpt>
      <trkpt lat="48.48925" lon="-3.4802">
        <ele>237</ele>
        <time>2013-02-24T15:03:14.1Z</time>
      </trkpt>
      <trkpt lat="48.48926" lon="-3.4802">
        <ele>237</ele>
        <time>2013-02-24T15:03:16.1Z</time>
      </trkpt>
      <trkpt lat="48.48927" lon="-3.4802">
        <ele>237</ele>
        <time>2013-02-24T15:03:18.1Z</time>
      </trkpt>
      <trkpt lat="48.48929" lon="-3.4802">
        <ele>237</ele>
        <time>2013-02-24T15:03:20.1Z</time>
      </trkpt>
      <trkpt lat="48.4893" lon="-3.48021">
        <ele>237</ele>
        <time>2013-02-24T15:03:22.1Z</time>
      </trkpt>
      <trkpt lat="48.48931" lon="-3.48021">
        <ele>237</ele>
        <time>2013-02-24T15:03:24.1Z</time>
      </trkpt>
      <trkpt lat="48.48933" lon="-3.48021">
        <ele>237</ele>
        <time>2013-02-24T15:03:26.1Z</time>
      </trkpt>
      <trkpt lat="48.48935" lon="-3.48021">
        <ele>237</ele>
        <time>2013-02-24T15:03:28.1Z</time>
      </trkpt>
      <trkpt lat="48.48937" lon="-3.48022">
        <ele>236</ele>
        <time>2013-02-24T15:03:30.1Z</time>
      </trkpt>
      <trkpt lat="48.4894" lon="-3.48023">
        <ele>236</ele>
        <time>2013-02-24T15:03:32.1Z</time>
      </trkpt>
      <trkpt lat="48.48942" lon="-3.48023">
        <ele>236</ele>
        <time>2013-02-24T15:03:34.1Z</time>
      </trkpt>
      <trkpt lat="48.48943" lon="-3.48024">
        <ele>236</ele>
        <time>2013-02-24T15:03:36.1Z</time>
      </trkpt>
      <trkpt lat="48.48945" lon="-3.48023">
        <ele>236</ele>
        <time>2013-02-24T15:03:38.1Z</time>
      </trkpt>
      <trkpt lat="48.48947" lon="-3.48023">
        <ele>236</ele>
        <time>2013-02-24T15:03:41.1Z</time>
      </trkpt>
      <trkpt lat="48.48949" lon="-3.48023">
        <ele>236</ele>
        <time>2013-02-24T15:03:43.1Z</time>
      </trkpt>
      <trkpt lat="48.48951" lon="-3.48024">
        <ele>236</ele>
        <time>2013-02-24T15:03:45.1Z</time>
      </trkpt>
      <trkpt lat="48.48954" lon="-3.48024">
        <ele>236</ele>
        <time>2013-02-24T15:03:47.1Z</time>
      </trkpt>
      <trkpt lat="48.48957" lon="-3.48024">
        <ele>235</ele>
        <time>2013-02-24T15:03:49.1Z</time>
      </trkpt>
      <trkpt lat="48.48959" lon="-3.48025">
        <ele>235</ele>
        <time>2013-02-24T15:03:51.1Z</time>
      </trkpt>
      <trkpt lat="48.48962" lon="-3.48025">
        <ele>235</ele>
        <time>2013-02-24T15:03:53.1Z</time>
      </trkpt>
      <trkpt lat="48.48964" lon="-3.48025">
        <ele>235</ele>
        <time>2013-02-24T15:03:55.1Z</time>
      </trkpt>
      <trkpt lat="48.48964" lon="-3.48026">
        <ele>235</ele>
        <time>2013-02-24T15:03:58.1Z</time>
      </trkpt>
      <trkpt lat="48.48966" lon="-3.48026">
        <ele>235</ele>
        <time>2013-02-24T15:04:00.1Z</time>
      </trkpt>
      <trkpt lat="48.48967" lon="-3.48027">
        <ele>235</ele>
        <time>2013-02-24T15:04:02.1Z</time>
      </trkpt>
      <trkpt lat="48.4897" lon="-3.48028">
        <ele>235</ele>
        <time>2013-02-24T15:04:04.1Z</time>
      </trkpt>
      <trkpt lat="48.48974" lon="-3.48029">
        <ele>235</ele>
        <time>2013-02-24T15:04:06.1Z</time>
      </trkpt>
      <trkpt lat="48.48976" lon="-3.4803">
        <ele>235</ele>
        <time>2013-02-24T15:04:08.1Z</time>
      </trkpt>
      <trkpt lat="48.48978" lon="-3.4803">
        <ele>235</ele>
        <time>2013-02-24T15:04:10.1Z</time>
      </trkpt>
      <trkpt lat="48.48981" lon="-3.4803">
        <ele>235</ele>
        <time>2013-02-24T15:04:13.1Z</time>
      </trkpt>
      <trkpt lat="48.48983" lon="-3.4803">
        <ele>235</ele>
        <time>2013-02-24T15:04:15.1Z</time>
      </trkpt>
      <trkpt lat="48.48986" lon="-3.48031">
        <ele>235</ele>
        <time>2013-02-24T15:04:17.1Z</time>
      </trkpt>
      <trkpt lat="48.48989" lon="-3.48031">
        <ele>235</ele>
        <time>2013-02-24T15:04:19.1Z</time>
      </trkpt>
      <trkpt lat="48.48992" lon="-3.48032">
        <ele>234</ele>
        <time>2013-02-24T15:04:21.1Z</time>
      </trkpt>
      <trkpt lat="48.48996" lon="-3.48033">
        <ele>234</ele>
        <time>2013-02-24T15:04:23.1Z</time>
      </trkpt>
      <trkpt lat="48.48998" lon="-3.48033">
        <ele>234</ele>
        <time>2013-02-24T15:04:25.1Z</time>
      </trkpt>
      <trkpt lat="48.49" lon="-3.48034">
        <ele>234</ele>
        <time>2013-02-24T15:04:27.1Z</time>
      </trkpt>
      <trkpt lat="48.49002" lon="-3.48035">
        <ele>234</ele>
        <time>2013-02-24T15:04:29.1Z</time>
      </trkpt>
      <trkpt lat="48.49004" lon="-3.48036">
        <ele>234</ele>
        <time>2013-02-24T15:04:31.1Z</time>
      </trkpt>
      <trkpt lat="48.49006" lon="-3.48036">
        <ele>234</ele>
        <time>2013-02-24T15:04:33.1Z</time>
      </trkpt>
      <trkpt lat="48.49008" lon="-3.48036">
        <ele>234</ele>
        <time>2013-02-24T15:04:35.1Z</time>
      </trkpt>
      <trkpt lat="48.4901" lon="-3.48036">
        <ele>234</ele>
        <time>2013-02-24T15:04:37.1Z</time>
      </trkpt>
      <trkpt lat="48.49012" lon="-3.48036">
        <ele>234</ele>
        <time>2013-02-24T15:04:39.1Z</time>
      </trkpt>
      <trkpt lat="48.49014" lon="-3.48037">
        <ele>234</ele>
        <time>2013-02-24T15:04:41.1Z</time>
      </trkpt>
      <trkpt lat="48.49016" lon="-3.48037">
        <ele>233</ele>
        <time>2013-02-24T15:04:44.1Z</time>
      </trkpt>
      <trkpt lat="48.49018" lon="-3.48038">
        <ele>233</ele>
        <time>2013-02-24T15:04:46.1Z</time>
      </trkpt>
      <trkpt lat="48.4902" lon="-3.48038">
        <ele>233</ele>
        <time>2013-02-24T15:04:48.1Z</time>
      </trkpt>
      <trkpt lat="48.49022" lon="-3.48038">
        <ele>233</ele>
        <time>2013-02-24T15:04:50.1Z</time>
      </trkpt>
      <trkpt lat="48.49025" lon="-3.48039">
        <ele>233</ele>
        <time>2013-02-24T15:04:52.1Z</time>
      </trkpt>
      <trkpt lat="48.49027" lon="-3.48039">
        <ele>233</ele>
        <time>2013-02-24T15:04:54.1Z</time>
      </trkpt>
      <trkpt lat="48.49028" lon="-3.4804">
        <ele>233</ele>
        <time>2013-02-24T15:04:56.1Z</time>
      </trkpt>
      <trkpt lat="48.49031" lon="-3.48041">
        <ele>233</ele>
        <time>2013-02-24T15:04:58.1Z</time>
      </trkpt>
      <trkpt lat="48.49033" lon="-3.48041">
        <ele>233</ele>
        <time>2013-02-24T15:05:00.1Z</time>
      </trkpt>
      <trkpt lat="48.49037" lon="-3.48042">
        <ele>233</ele>
        <time>2013-02-24T15:05:02.1Z</time>
      </trkpt>
      <trkpt lat="48.49039" lon="-3.48042">
        <ele>233</ele>
        <time>2013-02-24T15:05:04.1Z</time>
      </trkpt>
      <trkpt lat="48.49041" lon="-3.48043">
        <ele>233</ele>
        <time>2013-02-24T15:05:06.1Z</time>
      </trkpt>
      <trkpt lat="48.49044" lon="-3.48043">
        <ele>233</ele>
        <time>2013-02-24T15:05:08.1Z</time>
      </trkpt>
      <trkpt lat="48.49046" lon="-3.48044">
        <ele>232</ele>
        <time>2013-02-24T15:05:10.1Z</time>
      </trkpt>
      <trkpt lat="48.49047" lon="-3.48046">
        <ele>232</ele>
        <time>2013-02-24T15:05:12.1Z</time>
      </trkpt>
      <trkpt lat="48.49049" lon="-3.48048">
        <ele>232</ele>
        <time>2013-02-24T15:05:15.1Z</time>
      </trkpt>
      <trkpt lat="48.4905" lon="-3.4805">
        <ele>232</ele>
        <time>2013-02-24T15:05:17.1Z</time>
      </trkpt>
      <trkpt lat="48.49052" lon="-3.48052">
        <ele>232</ele>
        <time>2013-02-24T15:05:19.1Z</time>
      </trkpt>
      <trkpt lat="48.49054" lon="-3.48055">
        <ele>232</ele>
        <time>2013-02-24T15:05:21.1Z</time>
      </trkpt>
      <trkpt lat="48.49055" lon="-3.48057">
        <ele>232</ele>
        <time>2013-02-24T15:05:23.1Z</time>
      </trkpt>
      <trkpt lat="48.49057" lon="-3.48059">
        <ele>232</ele>
        <time>2013-02-24T15:05:25.1Z</time>
      </trkpt>
      <trkpt lat="48.49059" lon="-3.48061">
        <ele>232</ele>
        <time>2013-02-24T15:05:27.1Z</time>
      </trkpt>
      <trkpt lat="48.49061" lon="-3.48063">
        <ele>233</ele>
        <time>2013-02-24T15:05:29.1Z</time>
      </trkpt>
      <trkpt lat="48.49063" lon="-3.48064">
        <ele>233</ele>
        <time>2013-02-24T15:05:32.1Z</time>
      </trkpt>
      <trkpt lat="48.49065" lon="-3.48065">
        <ele>232</ele>
        <time>2013-02-24T15:05:34.1Z</time>
      </trkpt>
      <trkpt lat="48.49067" lon="-3.48066">
        <ele>232</ele>
        <time>2013-02-24T15:05:36.1Z</time>
      </trkpt>
      <trkpt lat="48.49068" lon="-3.48067">
        <ele>232</ele>
        <time>2013-02-24T15:05:38.1Z</time>
      </trkpt>
      <trkpt lat="48.4907" lon="-3.48068">
        <ele>232</ele>
        <time>2013-02-24T15:05:40.1Z</time>
      </trkpt>
      <trkpt lat="48.49073" lon="-3.48068">
        <ele>233</ele>
        <time>2013-02-24T15:05:42.1Z</time>
      </trkpt>
      <trkpt lat="48.49076" lon="-3.4807">
        <ele>233</ele>
        <time>2013-02-24T15:05:44.1Z</time>
      </trkpt>
      <trkpt lat="48.49078" lon="-3.48072">
        <ele>232</ele>
        <time>2013-02-24T15:05:46.1Z</time>
      </trkpt>
      <trkpt lat="48.49079" lon="-3.48073">
        <ele>232</ele>
        <time>2013-02-24T15:05:48.1Z</time>
      </trkpt>
      <trkpt lat="48.49081" lon="-3.48075">
        <ele>232</ele>
        <time>2013-02-24T15:05:50.1Z</time>
      </trkpt>
      <trkpt lat="48.49082" lon="-3.48076">
        <ele>231</ele>
        <time>2013-02-24T15:05:52.1Z</time>
      </trkpt>
      <trkpt lat="48.49082" lon="-3.48076">
        <ele>231</ele>
        <time>2013-02-24T15:05:53.1Z</time>
      </trkpt>
    </trkseg>
  </trk>
</gpx>